<?xml version='1.0' encoding='UTF-8'?><gpx version="1.1" creator="JPX - https://github.com/jenetics/jpx" xmlns="http://www.topografix.com/GPX/1/1"><trk><trkseg><trkpt lat="46.0273609" lon="11.9131058"><ele>285.99999999999994</ele><time>2026-04-02T09:57:21.779Z</time></trkpt><trkpt lat="46.0273936" lon="11.9130265"><ele>286.0</ele><time>2026-04-02T09:57:47.782Z</time></trkpt><trkpt lat="46.0273982" lon="11.9129185"><ele>286.0</ele><time>2026-04-02T09:58:05.78Z</time></trkpt><trkpt lat="46.0273986" lon="11.9127954"><ele>286.0</ele><time>2026-04-02T09:58:09.78Z</time></trkpt><trkpt lat="46.0273899" lon="11.9126909"><ele>286.0</ele><time>2026-04-02T09:58:12.784Z</time></trkpt><trkpt lat="46.0274421" lon="11.9126074"><ele>285.99999999999994</ele><time>2026-04-02T09:58:16.783Z</time></trkpt><trkpt lat="46.0275055" lon="11.9125883"><ele>286.0</ele><time>2026-04-02T09:58:19.782Z</time></trkpt><trkpt lat="46.0275869" lon="11.9125844"><ele>286.16666666666663</ele><time>2026-04-02T09:58:22.783Z</time></trkpt><trkpt lat="46.0276546" lon="11.9125793"><ele>286.3333333333333</ele><time>2026-04-02T09:58:24.783Z</time></trkpt><trkpt lat="46.0277502" lon="11.912574"><ele>286.5</ele><time>2026-04-02T09:58:26.785Z</time></trkpt><trkpt lat="46.0278183" lon="11.9125723"><ele>286.6666666666667</ele><time>2026-04-02T09:58:28.785Z</time></trkpt><trkpt lat="46.027892" lon="11.9125704"><ele>286.83333333333337</ele><time>2026-04-02T09:58:31.781Z</time></trkpt><trkpt lat="46.0279662" lon="11.9125685"><ele>287.0</ele><time>2026-04-02T09:58:34.782Z</time></trkpt><trkpt lat="46.0280604" lon="11.9125644"><ele>287.0</ele><time>2026-04-02T09:58:37.782Z</time></trkpt><trkpt lat="46.0281422" lon="11.9125603"><ele>287.0</ele><time>2026-04-02T09:58:40.782Z</time></trkpt><trkpt lat="46.0282411" lon="11.9125553"><ele>287.0</ele><time>2026-04-02T09:58:43.784Z</time></trkpt><trkpt lat="46.028307" lon="11.912552"><ele>287.0</ele><time>2026-04-02T09:58:45.783Z</time></trkpt><trkpt lat="46.0283717" lon="11.9125488"><ele>287.0</ele><time>2026-04-02T09:58:47.782Z</time></trkpt><trkpt lat="46.0284603" lon="11.9125443"><ele>287.0</ele><time>2026-04-02T09:58:50.784Z</time></trkpt><trkpt lat="46.0285513" lon="11.9125311"><ele>287.0</ele><time>2026-04-02T09:58:53.78Z</time></trkpt><trkpt lat="46.0286226" lon="11.9125272"><ele>287.0</ele><time>2026-04-02T09:58:56.784Z</time></trkpt><trkpt lat="46.0286927" lon="11.9125594"><ele>287.0</ele><time>2026-04-02T09:58:59.784Z</time></trkpt><trkpt lat="46.0287432" lon="11.9126634"><ele>287.0</ele><time>2026-04-02T09:59:02.784Z</time></trkpt><trkpt lat="46.0287721" lon="11.9127955"><ele>287.0</ele><time>2026-04-02T09:59:05.781Z</time></trkpt><trkpt lat="46.0287924" lon="11.9128835"><ele>287.0</ele><time>2026-04-02T09:59:07.782Z</time></trkpt><trkpt lat="46.0288151" lon="11.9130066"><ele>287.1666666666667</ele><time>2026-04-02T09:59:10.784Z</time></trkpt><trkpt lat="46.0288525" lon="11.9131363"><ele>287.33333333333337</ele><time>2026-04-02T09:59:13.783Z</time></trkpt><trkpt lat="46.02887" lon="11.9132355"><ele>287.5</ele><time>2026-04-02T09:59:15.784Z</time></trkpt><trkpt lat="46.0288781" lon="11.9133367"><ele>287.6666666666667</ele><time>2026-04-02T09:59:17.784Z</time></trkpt><trkpt lat="46.0288866" lon="11.9134699"><ele>287.8333333333333</ele><time>2026-04-02T09:59:20.783Z</time></trkpt><trkpt lat="46.0289028" lon="11.9136088"><ele>288.0</ele><time>2026-04-02T09:59:23.784Z</time></trkpt><trkpt lat="46.028925" lon="11.9137027"><ele>288.14285714285717</ele><time>2026-04-02T09:59:25.784Z</time></trkpt><trkpt lat="46.0289506" lon="11.913794"><ele>288.2857142857143</ele><time>2026-04-02T09:59:27.782Z</time></trkpt><trkpt lat="46.028975" lon="11.9138883"><ele>288.42857142857144</ele><time>2026-04-02T09:59:29.785Z</time></trkpt><trkpt lat="46.0289996" lon="11.9139812"><ele>288.57142857142856</ele><time>2026-04-02T09:59:31.784Z</time></trkpt><trkpt lat="46.0290175" lon="11.9140777"><ele>288.7142857142857</ele><time>2026-04-02T09:59:33.785Z</time></trkpt><trkpt lat="46.0290419" lon="11.9141732"><ele>288.8571428571429</ele><time>2026-04-02T09:59:35.783Z</time></trkpt><trkpt lat="46.0290753" lon="11.9142604"><ele>289.0</ele><time>2026-04-02T09:59:37.784Z</time></trkpt><trkpt lat="46.0291118" lon="11.9143434"><ele>289.14285714285717</ele><time>2026-04-02T09:59:39.782Z</time></trkpt><trkpt lat="46.0291513" lon="11.9144235"><ele>289.2857142857143</ele><time>2026-04-02T09:59:41.784Z</time></trkpt><trkpt lat="46.0291914" lon="11.9145032"><ele>289.42857142857144</ele><time>2026-04-02T09:59:43.784Z</time></trkpt><trkpt lat="46.029227" lon="11.9145834"><ele>289.57142857142856</ele><time>2026-04-02T09:59:45.782Z</time></trkpt><trkpt lat="46.0292828" lon="11.9146798"><ele>289.7142857142857</ele><time>2026-04-02T09:59:48.782Z</time></trkpt><trkpt lat="46.0293197" lon="11.9147609"><ele>289.8571428571429</ele><time>2026-04-02T09:59:51.784Z</time></trkpt><trkpt lat="46.0293126" lon="11.9146641"><ele>290.0</ele><time>2026-04-02T09:59:57.784Z</time></trkpt><trkpt lat="46.0292699" lon="11.9145951"><ele>290.0</ele><time>2026-04-02T09:59:59.782Z</time></trkpt><trkpt lat="46.0292295" lon="11.9145182"><ele>290.0</ele><time>2026-04-02T10:00:01.782Z</time></trkpt><trkpt lat="46.0291782" lon="11.9144106"><ele>290.0</ele><time>2026-04-02T10:00:04.784Z</time></trkpt><trkpt lat="46.0291451" lon="11.9143328"><ele>290.0</ele><time>2026-04-02T10:00:06.783Z</time></trkpt><trkpt lat="46.0291119" lon="11.9142448"><ele>290.0</ele><time>2026-04-02T10:00:08.783Z</time></trkpt><trkpt lat="46.0290859" lon="11.9141476"><ele>290.0</ele><time>2026-04-02T10:00:10.783Z</time></trkpt><trkpt lat="46.0290688" lon="11.9140486"><ele>290.0</ele><time>2026-04-02T10:00:12.785Z</time></trkpt><trkpt lat="46.029056" lon="11.9139467"><ele>289.8571428571429</ele><time>2026-04-02T10:00:14.784Z</time></trkpt><trkpt lat="46.0290354" lon="11.9138457"><ele>289.7142857142857</ele><time>2026-04-02T10:00:16.785Z</time></trkpt><trkpt lat="46.029024" lon="11.9137469"><ele>289.57142857142856</ele><time>2026-04-02T10:00:18.781Z</time></trkpt><trkpt lat="46.0290083" lon="11.913645"><ele>289.42857142857144</ele><time>2026-04-02T10:00:20.781Z</time></trkpt><trkpt lat="46.0289794" lon="11.9135419"><ele>289.2857142857143</ele><time>2026-04-02T10:00:22.784Z</time></trkpt><trkpt lat="46.028955" lon="11.9134494"><ele>289.14285714285717</ele><time>2026-04-02T10:00:24.784Z</time></trkpt><trkpt lat="46.0289271" lon="11.9133478"><ele>289.0</ele><time>2026-04-02T10:00:26.785Z</time></trkpt><trkpt lat="46.028912" lon="11.9132477"><ele>288.8571428571429</ele><time>2026-04-02T10:00:28.783Z</time></trkpt><trkpt lat="46.0288944" lon="11.9131436"><ele>288.7142857142857</ele><time>2026-04-02T10:00:30.782Z</time></trkpt><trkpt lat="46.0288726" lon="11.9130462"><ele>288.57142857142856</ele><time>2026-04-02T10:00:32.785Z</time></trkpt><trkpt lat="46.0288552" lon="11.9129448"><ele>288.42857142857144</ele><time>2026-04-02T10:00:34.783Z</time></trkpt><trkpt lat="46.0288396" lon="11.9128421"><ele>288.2857142857143</ele><time>2026-04-02T10:00:36.784Z</time></trkpt><trkpt lat="46.028816" lon="11.9127327"><ele>288.14285714285717</ele><time>2026-04-02T10:00:38.785Z</time></trkpt><trkpt lat="46.0287962" lon="11.91263"><ele>288.0</ele><time>2026-04-02T10:00:41.785Z</time></trkpt><trkpt lat="46.0287727" lon="11.9125143"><ele>287.8333333333333</ele><time>2026-04-02T10:00:46.783Z</time></trkpt><trkpt lat="46.0287394" lon="11.9123938"><ele>287.6666666666667</ele><time>2026-04-02T10:00:49.783Z</time></trkpt><trkpt lat="46.0287286" lon="11.9122653"><ele>287.5</ele><time>2026-04-02T10:00:52.784Z</time></trkpt><trkpt lat="46.0287059" lon="11.9121314"><ele>287.33333333333337</ele><time>2026-04-02T10:00:55.783Z</time></trkpt><trkpt lat="46.028693" lon="11.9120251"><ele>287.1666666666667</ele><time>2026-04-02T10:00:57.784Z</time></trkpt><trkpt lat="46.0286683" lon="11.911912"><ele>287.0</ele><time>2026-04-02T10:00:59.785Z</time></trkpt><trkpt lat="46.0286558" lon="11.9117941"><ele>287.0</ele><time>2026-04-02T10:01:01.785Z</time></trkpt><trkpt lat="46.028634" lon="11.9116819"><ele>287.0</ele><time>2026-04-02T10:01:03.784Z</time></trkpt><trkpt lat="46.0286137" lon="11.9115466"><ele>287.0</ele><time>2026-04-02T10:01:05.785Z</time></trkpt><trkpt lat="46.0285962" lon="11.9114234"><ele>287.0</ele><time>2026-04-02T10:01:07.784Z</time></trkpt><trkpt lat="46.0285779" lon="11.911306"><ele>287.0</ele><time>2026-04-02T10:01:09.784Z</time></trkpt><trkpt lat="46.0285622" lon="11.9111895"><ele>287.0</ele><time>2026-04-02T10:01:11.784Z</time></trkpt><trkpt lat="46.0285515" lon="11.9110607"><ele>287.0</ele><time>2026-04-02T10:01:13.782Z</time></trkpt><trkpt lat="46.0285568" lon="11.9109371"><ele>287.0</ele><time>2026-04-02T10:01:15.783Z</time></trkpt><trkpt lat="46.0285548" lon="11.9108009"><ele>287.0</ele><time>2026-04-02T10:01:17.785Z</time></trkpt><trkpt lat="46.0285488" lon="11.9106686"><ele>287.0</ele><time>2026-04-02T10:01:19.784Z</time></trkpt><trkpt lat="46.028541" lon="11.9105383"><ele>287.0</ele><time>2026-04-02T10:01:21.782Z</time></trkpt><trkpt lat="46.0285358" lon="11.9104137"><ele>287.0</ele><time>2026-04-02T10:01:23.783Z</time></trkpt><trkpt lat="46.0285372" lon="11.9102974"><ele>287.0</ele><time>2026-04-02T10:01:25.785Z</time></trkpt><trkpt lat="46.0285342" lon="11.9101857"><ele>287.0</ele><time>2026-04-02T10:01:27.783Z</time></trkpt><trkpt lat="46.0285172" lon="11.9100623"><ele>287.0</ele><time>2026-04-02T10:01:29.785Z</time></trkpt><trkpt lat="46.0285106" lon="11.9099519"><ele>287.0</ele><time>2026-04-02T10:01:31.784Z</time></trkpt><trkpt lat="46.0285063" lon="11.9098448"><ele>287.0</ele><time>2026-04-02T10:01:33.783Z</time></trkpt><trkpt lat="46.0284956" lon="11.9097258"><ele>286.83333333333337</ele><time>2026-04-02T10:01:35.784Z</time></trkpt><trkpt lat="46.0284861" lon="11.9096115"><ele>286.6666666666667</ele><time>2026-04-02T10:01:37.785Z</time></trkpt><trkpt lat="46.0284767" lon="11.9094999"><ele>286.5</ele><time>2026-04-02T10:01:39.784Z</time></trkpt><trkpt lat="46.0284672" lon="11.9093831"><ele>286.3333333333333</ele><time>2026-04-02T10:01:41.785Z</time></trkpt><trkpt lat="46.0284601" lon="11.9092692"><ele>286.16666666666663</ele><time>2026-04-02T10:01:43.784Z</time></trkpt><trkpt lat="46.0284475" lon="11.9091509"><ele>286.0</ele><time>2026-04-02T10:01:45.785Z</time></trkpt><trkpt lat="46.0284402" lon="11.9090398"><ele>286.0</ele><time>2026-04-02T10:01:47.785Z</time></trkpt><trkpt lat="46.0284309" lon="11.9089258"><ele>286.0</ele><time>2026-04-02T10:01:49.785Z</time></trkpt><trkpt lat="46.0284229" lon="11.908834"><ele>286.0</ele><time>2026-04-02T10:01:51.785Z</time></trkpt><trkpt lat="46.0284019" lon="11.9087271"><ele>286.0</ele><time>2026-04-02T10:01:53.784Z</time></trkpt><trkpt lat="46.0283813" lon="11.9086222"><ele>286.0</ele><time>2026-04-02T10:01:55.785Z</time></trkpt><trkpt lat="46.0283483" lon="11.9085038"><ele>286.0</ele><time>2026-04-02T10:01:57.782Z</time></trkpt><trkpt lat="46.0283211" lon="11.9083903"><ele>286.16666666666663</ele><time>2026-04-02T10:01:59.783Z</time></trkpt><trkpt lat="46.0283061" lon="11.9082749"><ele>286.3333333333333</ele><time>2026-04-02T10:02:01.784Z</time></trkpt><trkpt lat="46.0282868" lon="11.908157"><ele>286.5</ele><time>2026-04-02T10:02:03.784Z</time></trkpt><trkpt lat="46.0282739" lon="11.9080326"><ele>286.6666666666667</ele><time>2026-04-02T10:02:05.784Z</time></trkpt><trkpt lat="46.0282727" lon="11.9079132"><ele>286.83333333333337</ele><time>2026-04-02T10:02:07.785Z</time></trkpt><trkpt lat="46.0282825" lon="11.9078097"><ele>287.0</ele><time>2026-04-02T10:02:09.785Z</time></trkpt><trkpt lat="46.028312" lon="11.9077176"><ele>287.0</ele><time>2026-04-02T10:02:11.785Z</time></trkpt><trkpt lat="46.0283546" lon="11.9076405"><ele>287.0</ele><time>2026-04-02T10:02:13.785Z</time></trkpt><trkpt lat="46.0284058" lon="11.9075736"><ele>287.0</ele><time>2026-04-02T10:02:15.784Z</time></trkpt><trkpt lat="46.0284662" lon="11.9075288"><ele>287.0</ele><time>2026-04-02T10:02:17.781Z</time></trkpt><trkpt lat="46.0285344" lon="11.9074529"><ele>287.0</ele><time>2026-04-02T10:02:20.784Z</time></trkpt><trkpt lat="46.0286077" lon="11.907375"><ele>287.0</ele><time>2026-04-02T10:02:23.784Z</time></trkpt><trkpt lat="46.0286839" lon="11.9073406"><ele>286.75</ele><time>2026-04-02T10:02:26.784Z</time></trkpt><trkpt lat="46.0288935" lon="11.9073273"><ele>286.5</ele><time>2026-04-02T10:02:35.782Z</time></trkpt><trkpt lat="46.0289601" lon="11.9073151"><ele>286.25</ele><time>2026-04-02T10:02:38.785Z</time></trkpt><trkpt lat="46.0290664" lon="11.9073136"><ele>286.0</ele><time>2026-04-02T10:02:42.784Z</time></trkpt><trkpt lat="46.0291331" lon="11.9072964"><ele>286.5</ele><time>2026-04-02T10:02:44.782Z</time></trkpt><trkpt lat="46.0292171" lon="11.907271"><ele>287.0</ele><time>2026-04-02T10:02:46.785Z</time></trkpt><trkpt lat="46.029301" lon="11.9072501"><ele>287.5</ele><time>2026-04-02T10:02:48.784Z</time></trkpt><trkpt lat="46.0293792" lon="11.9072482"><ele>288.0</ele><time>2026-04-02T10:02:50.784Z</time></trkpt><trkpt lat="46.0294618" lon="11.90726"><ele>288.5</ele><time>2026-04-02T10:02:52.784Z</time></trkpt><trkpt lat="46.0295394" lon="11.9072747"><ele>289.0</ele><time>2026-04-02T10:02:54.785Z</time></trkpt><trkpt lat="46.0296053" lon="11.9072929"><ele>289.0</ele><time>2026-04-02T10:02:56.785Z</time></trkpt><trkpt lat="46.0296773" lon="11.9072937"><ele>289.0</ele><time>2026-04-02T10:02:58.783Z</time></trkpt><trkpt lat="46.0297409" lon="11.9073125"><ele>289.0</ele><time>2026-04-02T10:03:00.782Z</time></trkpt><trkpt lat="46.0299422" lon="11.9073208"><ele>289.0</ele><time>2026-04-02T10:03:05.782Z</time></trkpt><trkpt lat="46.0300056" lon="11.9073333"><ele>289.0</ele><time>2026-04-02T10:03:07.783Z</time></trkpt><trkpt lat="46.0300708" lon="11.9073486"><ele>289.16666666666663</ele><time>2026-04-02T10:03:09.783Z</time></trkpt><trkpt lat="46.0301628" lon="11.9073474"><ele>289.3333333333333</ele><time>2026-04-02T10:03:12.785Z</time></trkpt><trkpt lat="46.0302412" lon="11.9073554"><ele>289.5</ele><time>2026-04-02T10:03:14.785Z</time></trkpt><trkpt lat="46.0303287" lon="11.9073413"><ele>289.6666666666667</ele><time>2026-04-02T10:03:16.784Z</time></trkpt><trkpt lat="46.0304197" lon="11.9073218"><ele>289.83333333333337</ele><time>2026-04-02T10:03:18.784Z</time></trkpt><trkpt lat="46.0305122" lon="11.9073121"><ele>290.0</ele><time>2026-04-02T10:03:20.783Z</time></trkpt><trkpt lat="46.0306046" lon="11.9072978"><ele>290.0</ele><time>2026-04-02T10:03:22.783Z</time></trkpt><trkpt lat="46.0306973" lon="11.9072867"><ele>290.0</ele><time>2026-04-02T10:03:24.782Z</time></trkpt><trkpt lat="46.030879" lon="11.9072768"><ele>290.0</ele><time>2026-04-02T10:03:28.783Z</time></trkpt><trkpt lat="46.0310964" lon="11.9072759"><ele>290.0</ele><time>2026-04-02T10:03:33.782Z</time></trkpt><trkpt lat="46.0311826" lon="11.9072808"><ele>290.0</ele><time>2026-04-02T10:03:35.785Z</time></trkpt><trkpt lat="46.0312736" lon="11.9072799"><ele>290.0</ele><time>2026-04-02T10:03:37.785Z</time></trkpt><trkpt lat="46.0313618" lon="11.9072793"><ele>290.0</ele><time>2026-04-02T10:03:39.782Z</time></trkpt><trkpt lat="46.0314466" lon="11.9072634"><ele>290.0</ele><time>2026-04-02T10:03:41.785Z</time></trkpt><trkpt lat="46.0315331" lon="11.9072533"><ele>290.0</ele><time>2026-04-02T10:03:43.783Z</time></trkpt><trkpt lat="46.0316206" lon="11.9072459"><ele>290.33333333333337</ele><time>2026-04-02T10:03:45.783Z</time></trkpt><trkpt lat="46.0316993" lon="11.9072401"><ele>290.6666666666667</ele><time>2026-04-02T10:03:47.785Z</time></trkpt><trkpt lat="46.0317921" lon="11.9072445"><ele>291.0</ele><time>2026-04-02T10:03:49.782Z</time></trkpt><trkpt lat="46.0318658" lon="11.9072502"><ele>291.3333333333333</ele><time>2026-04-02T10:03:51.782Z</time></trkpt><trkpt lat="46.0319466" lon="11.9072635"><ele>291.66666666666663</ele><time>2026-04-02T10:03:53.785Z</time></trkpt><trkpt lat="46.0320331" lon="11.9072688"><ele>292.0</ele><time>2026-04-02T10:03:55.785Z</time></trkpt><trkpt lat="46.0321047" lon="11.9072701"><ele>292.0</ele><time>2026-04-02T10:03:57.785Z</time></trkpt><trkpt lat="46.0321769" lon="11.9072793"><ele>292.0</ele><time>2026-04-02T10:03:59.784Z</time></trkpt><trkpt lat="46.0322491" lon="11.9072983"><ele>292.0</ele><time>2026-04-02T10:04:01.783Z</time></trkpt><trkpt lat="46.0323216" lon="11.9073092"><ele>292.0</ele><time>2026-04-02T10:04:03.785Z</time></trkpt><trkpt lat="46.0323905" lon="11.9073185"><ele>292.0</ele><time>2026-04-02T10:04:05.785Z</time></trkpt><trkpt lat="46.0324639" lon="11.9073185"><ele>292.0</ele><time>2026-04-02T10:04:07.784Z</time></trkpt><trkpt lat="46.0326412" lon="11.9073178"><ele>292.57142857142856</ele><time>2026-04-02T10:04:12.785Z</time></trkpt><trkpt lat="46.0327151" lon="11.9073252"><ele>293.14285714285717</ele><time>2026-04-02T10:04:14.785Z</time></trkpt><trkpt lat="46.0327941" lon="11.9073322"><ele>293.7142857142857</ele><time>2026-04-02T10:04:16.785Z</time></trkpt><trkpt lat="46.0328662" lon="11.9073471"><ele>294.2857142857143</ele><time>2026-04-02T10:04:18.785Z</time></trkpt><trkpt lat="46.0329419" lon="11.9073571"><ele>294.85714285714283</ele><time>2026-04-02T10:04:20.784Z</time></trkpt><trkpt lat="46.0330093" lon="11.9073711"><ele>295.42857142857144</ele><time>2026-04-02T10:04:22.785Z</time></trkpt><trkpt lat="46.0330753" lon="11.9073858"><ele>296.0</ele><time>2026-04-02T10:04:24.784Z</time></trkpt><trkpt lat="46.0331558" lon="11.9073877"><ele>296.0</ele><time>2026-04-02T10:04:26.785Z</time></trkpt><trkpt lat="46.0332284" lon="11.907403"><ele>296.0</ele><time>2026-04-02T10:04:28.785Z</time></trkpt><trkpt lat="46.0332967" lon="11.9074207"><ele>296.0</ele><time>2026-04-02T10:04:30.783Z</time></trkpt><trkpt lat="46.033373" lon="11.9074253"><ele>296.0</ele><time>2026-04-02T10:04:32.785Z</time></trkpt><trkpt lat="46.0334454" lon="11.9074338"><ele>296.0</ele><time>2026-04-02T10:04:34.783Z</time></trkpt><trkpt lat="46.0335167" lon="11.9074423"><ele>296.0</ele><time>2026-04-02T10:04:36.781Z</time></trkpt><trkpt lat="46.0337121" lon="11.9074514"><ele>296.0</ele><time>2026-04-02T10:04:41.782Z</time></trkpt><trkpt lat="46.033792" lon="11.9074296"><ele>296.0</ele><time>2026-04-02T10:04:43.783Z</time></trkpt><trkpt lat="46.0338662" lon="11.9074217"><ele>296.0</ele><time>2026-04-02T10:04:45.785Z</time></trkpt><trkpt lat="46.034051" lon="11.9074217"><ele>296.0</ele><time>2026-04-02T10:04:50.785Z</time></trkpt><trkpt lat="46.0341293" lon="11.9074199"><ele>296.0</ele><time>2026-04-02T10:04:52.784Z</time></trkpt><trkpt lat="46.0342051" lon="11.907408"><ele>296.1666666666667</ele><time>2026-04-02T10:04:54.785Z</time></trkpt><trkpt lat="46.0342919" lon="11.9073874"><ele>296.33333333333337</ele><time>2026-04-02T10:04:56.784Z</time></trkpt><trkpt lat="46.0343684" lon="11.9073772"><ele>296.5</ele><time>2026-04-02T10:04:58.784Z</time></trkpt><trkpt lat="46.0344434" lon="11.9073752"><ele>296.6666666666667</ele><time>2026-04-02T10:05:00.785Z</time></trkpt><trkpt lat="46.0345245" lon="11.9073743"><ele>296.8333333333333</ele><time>2026-04-02T10:05:02.785Z</time></trkpt><trkpt lat="46.0346015" lon="11.9073844"><ele>297.0</ele><time>2026-04-02T10:05:04.783Z</time></trkpt><trkpt lat="46.0346784" lon="11.9073898"><ele>297.0</ele><time>2026-04-02T10:05:06.784Z</time></trkpt><trkpt lat="46.034754" lon="11.9073995"><ele>297.0</ele><time>2026-04-02T10:05:08.784Z</time></trkpt><trkpt lat="46.034836" lon="11.9074098"><ele>297.0</ele><time>2026-04-02T10:05:10.781Z</time></trkpt><trkpt lat="46.0349142" lon="11.9074233"><ele>297.0</ele><time>2026-04-02T10:05:12.785Z</time></trkpt><trkpt lat="46.0349959" lon="11.9074188"><ele>297.0</ele><time>2026-04-02T10:05:14.785Z</time></trkpt><trkpt lat="46.0350729" lon="11.9074138"><ele>297.0</ele><time>2026-04-02T10:05:16.785Z</time></trkpt><trkpt lat="46.0351511" lon="11.907414"><ele>297.2</ele><time>2026-04-02T10:05:18.783Z</time></trkpt><trkpt lat="46.0352307" lon="11.9074096"><ele>297.4</ele><time>2026-04-02T10:05:20.785Z</time></trkpt><trkpt lat="46.0353052" lon="11.9073939"><ele>297.6</ele><time>2026-04-02T10:05:22.782Z</time></trkpt><trkpt lat="46.0353845" lon="11.9073781"><ele>297.8</ele><time>2026-04-02T10:05:24.785Z</time></trkpt><trkpt lat="46.0355868" lon="11.9073759"><ele>298.0</ele><time>2026-04-02T10:05:29.784Z</time></trkpt><trkpt lat="46.035711" lon="11.9073852"><ele>298.0</ele><time>2026-04-02T10:05:32.784Z</time></trkpt><trkpt lat="46.0357925" lon="11.9073962"><ele>298.0</ele><time>2026-04-02T10:05:34.783Z</time></trkpt><trkpt lat="46.0358721" lon="11.9074075"><ele>298.0</ele><time>2026-04-02T10:05:36.785Z</time></trkpt><trkpt lat="46.0359505" lon="11.9074127"><ele>298.0</ele><time>2026-04-02T10:05:38.783Z</time></trkpt><trkpt lat="46.0360258" lon="11.9074143"><ele>298.0</ele><time>2026-04-02T10:05:40.785Z</time></trkpt><trkpt lat="46.0361052" lon="11.9074138"><ele>298.0</ele><time>2026-04-02T10:05:42.784Z</time></trkpt><trkpt lat="46.036186" lon="11.9074127"><ele>298.5</ele><time>2026-04-02T10:05:44.785Z</time></trkpt><trkpt lat="46.0362674" lon="11.9074069"><ele>299.0</ele><time>2026-04-02T10:05:46.783Z</time></trkpt><trkpt lat="46.0363493" lon="11.9073928"><ele>299.5</ele><time>2026-04-02T10:05:48.784Z</time></trkpt><trkpt lat="46.0364274" lon="11.9073885"><ele>300.0</ele><time>2026-04-02T10:05:50.785Z</time></trkpt><trkpt lat="46.0366681" lon="11.907387"><ele>300.4</ele><time>2026-04-02T10:05:57.784Z</time></trkpt><trkpt lat="46.0368562" lon="11.9073864"><ele>300.8</ele><time>2026-04-02T10:06:02.782Z</time></trkpt><trkpt lat="46.0369293" lon="11.9073875"><ele>301.2</ele><time>2026-04-02T10:06:04.785Z</time></trkpt><trkpt lat="46.0369999" lon="11.9073898"><ele>301.6</ele><time>2026-04-02T10:06:06.785Z</time></trkpt><trkpt lat="46.0370738" lon="11.907396"><ele>302.0</ele><time>2026-04-02T10:06:08.785Z</time></trkpt><trkpt lat="46.037142" lon="11.9074076"><ele>302.0</ele><time>2026-04-02T10:06:10.785Z</time></trkpt><trkpt lat="46.0372347" lon="11.907443"><ele>302.0</ele><time>2026-04-02T10:06:13.785Z</time></trkpt><trkpt lat="46.0373307" lon="11.9074485"><ele>302.0</ele><time>2026-04-02T10:06:15.785Z</time></trkpt><trkpt lat="46.0374948" lon="11.9074457"><ele>302.0</ele><time>2026-04-02T10:06:19.783Z</time></trkpt><trkpt lat="46.0375746" lon="11.9074356"><ele>302.0</ele><time>2026-04-02T10:06:21.785Z</time></trkpt><trkpt lat="46.0376583" lon="11.907421"><ele>302.33333333333337</ele><time>2026-04-02T10:06:23.783Z</time></trkpt><trkpt lat="46.0377391" lon="11.9074088"><ele>302.6666666666667</ele><time>2026-04-02T10:06:25.783Z</time></trkpt><trkpt lat="46.0378183" lon="11.9074049"><ele>303.0</ele><time>2026-04-02T10:06:27.783Z</time></trkpt><trkpt lat="46.0379191" lon="11.9073988"><ele>303.3333333333333</ele><time>2026-04-02T10:06:29.783Z</time></trkpt><trkpt lat="46.0380046" lon="11.9074011"><ele>303.66666666666663</ele><time>2026-04-02T10:06:31.782Z</time></trkpt><trkpt lat="46.038093" lon="11.9074094"><ele>304.0</ele><time>2026-04-02T10:06:33.781Z</time></trkpt><trkpt lat="46.0381961" lon="11.9074102"><ele>304.0</ele><time>2026-04-02T10:06:36.783Z</time></trkpt><trkpt lat="46.0382657" lon="11.9074204"><ele>304.0</ele><time>2026-04-02T10:06:38.784Z</time></trkpt><trkpt lat="46.0383405" lon="11.9074238"><ele>304.0</ele><time>2026-04-02T10:06:40.782Z</time></trkpt><trkpt lat="46.0384274" lon="11.9074536"><ele>304.0</ele><time>2026-04-02T10:06:43.785Z</time></trkpt><trkpt lat="46.0385624" lon="11.9074585"><ele>304.0</ele><time>2026-04-02T10:06:46.785Z</time></trkpt><trkpt lat="46.0386499" lon="11.907465"><ele>304.3333333333333</ele><time>2026-04-02T10:06:48.784Z</time></trkpt><trkpt lat="46.0387178" lon="11.9074692"><ele>304.66666666666663</ele><time>2026-04-02T10:06:50.785Z</time></trkpt><trkpt lat="46.0387952" lon="11.9074753"><ele>305.0</ele><time>2026-04-02T10:06:53.784Z</time></trkpt><trkpt lat="46.0388469" lon="11.9075308"><ele>305.3333333333333</ele><time>2026-04-02T10:06:57.785Z</time></trkpt><trkpt lat="46.0389195" lon="11.9075109"><ele>305.6666666666667</ele><time>2026-04-02T10:07:01.781Z</time></trkpt><trkpt lat="46.0390126" lon="11.9075103"><ele>306.0</ele><time>2026-04-02T10:07:04.784Z</time></trkpt><trkpt lat="46.0391024" lon="11.9075169"><ele>306.0</ele><time>2026-04-02T10:07:07.785Z</time></trkpt><trkpt lat="46.0391759" lon="11.9075563"><ele>306.0</ele><time>2026-04-02T10:07:10.785Z</time></trkpt><trkpt lat="46.0392466" lon="11.9075976"><ele>306.0</ele><time>2026-04-02T10:07:13.785Z</time></trkpt><trkpt lat="46.0393123" lon="11.9076052"><ele>306.0</ele><time>2026-04-02T10:07:15.785Z</time></trkpt><trkpt lat="46.0395643" lon="11.907586"><ele>306.0</ele><time>2026-04-02T10:07:23.783Z</time></trkpt><trkpt lat="46.0396289" lon="11.9075717"><ele>306.0</ele><time>2026-04-02T10:07:25.782Z</time></trkpt><trkpt lat="46.0396983" lon="11.9075524"><ele>306.0</ele><time>2026-04-02T10:07:27.783Z</time></trkpt><trkpt lat="46.0397983" lon="11.90755"><ele>306.0</ele><time>2026-04-02T10:07:30.783Z</time></trkpt><trkpt lat="46.0398818" lon="11.9075254"><ele>306.0</ele><time>2026-04-02T10:07:32.785Z</time></trkpt><trkpt lat="46.03997" lon="11.9074869"><ele>306.0</ele><time>2026-04-02T10:07:34.782Z</time></trkpt><trkpt lat="46.0400345" lon="11.9074624"><ele>306.6666666666667</ele><time>2026-04-02T10:07:36.781Z</time></trkpt><trkpt lat="46.0401086" lon="11.9074294"><ele>307.3333333333333</ele><time>2026-04-02T10:07:38.781Z</time></trkpt><trkpt lat="46.0401877" lon="11.907417"><ele>308.0</ele><time>2026-04-02T10:07:40.782Z</time></trkpt><trkpt lat="46.0402731" lon="11.9074135"><ele>308.66666666666663</ele><time>2026-04-02T10:07:42.785Z</time></trkpt><trkpt lat="46.0403468" lon="11.9074295"><ele>309.3333333333333</ele><time>2026-04-02T10:07:44.785Z</time></trkpt><trkpt lat="46.0404202" lon="11.9074471"><ele>310.0</ele><time>2026-04-02T10:07:46.784Z</time></trkpt><trkpt lat="46.0406219" lon="11.9074609"><ele>310.0</ele><time>2026-04-02T10:07:53.782Z</time></trkpt><trkpt lat="46.040691" lon="11.9075394"><ele>310.0</ele><time>2026-04-02T10:07:56.782Z</time></trkpt><trkpt lat="46.0407748" lon="11.9075973"><ele>310.0</ele><time>2026-04-02T10:07:59.785Z</time></trkpt><trkpt lat="46.0408643" lon="11.9076076"><ele>310.0</ele><time>2026-04-02T10:08:02.784Z</time></trkpt><trkpt lat="46.0409283" lon="11.9075118"><ele>310.0</ele><time>2026-04-02T10:08:05.784Z</time></trkpt><trkpt lat="46.0409371" lon="11.90742"><ele>310.0</ele><time>2026-04-02T10:08:07.783Z</time></trkpt><trkpt lat="46.0409446" lon="11.9073285"><ele>311.16666666666663</ele><time>2026-04-02T10:08:09.783Z</time></trkpt><trkpt lat="46.0409496" lon="11.9072121"><ele>312.3333333333333</ele><time>2026-04-02T10:08:12.782Z</time></trkpt><trkpt lat="46.0409384" lon="11.9070795"><ele>313.5</ele><time>2026-04-02T10:08:15.784Z</time></trkpt><trkpt lat="46.0409193" lon="11.9069508"><ele>314.6666666666667</ele><time>2026-04-02T10:08:18.784Z</time></trkpt><trkpt lat="46.0408929" lon="11.9068649"><ele>315.83333333333337</ele><time>2026-04-02T10:08:20.785Z</time></trkpt><trkpt lat="46.0408562" lon="11.9067456"><ele>317.0</ele><time>2026-04-02T10:08:23.785Z</time></trkpt><trkpt lat="46.0408349" lon="11.9066476"><ele>317.57142857142856</ele><time>2026-04-02T10:08:25.785Z</time></trkpt><trkpt lat="46.040812" lon="11.9065474"><ele>318.1428571428571</ele><time>2026-04-02T10:08:27.783Z</time></trkpt><trkpt lat="46.0407878" lon="11.9064453"><ele>318.71428571428567</ele><time>2026-04-02T10:08:29.784Z</time></trkpt><trkpt lat="46.0407693" lon="11.9063472"><ele>319.2857142857143</ele><time>2026-04-02T10:08:31.784Z</time></trkpt><trkpt lat="46.0407532" lon="11.9062488"><ele>319.85714285714283</ele><time>2026-04-02T10:08:33.783Z</time></trkpt><trkpt lat="46.0407315" lon="11.9061532"><ele>320.4285714285714</ele><time>2026-04-02T10:08:35.785Z</time></trkpt><trkpt lat="46.0407157" lon="11.9060601"><ele>321.0</ele><time>2026-04-02T10:08:37.785Z</time></trkpt><trkpt lat="46.0407129" lon="11.9059659"><ele>321.57142857142856</ele><time>2026-04-02T10:08:39.782Z</time></trkpt><trkpt lat="46.0407248" lon="11.9058739"><ele>322.1428571428571</ele><time>2026-04-02T10:08:41.781Z</time></trkpt><trkpt lat="46.040736" lon="11.9057662"><ele>322.71428571428567</ele><time>2026-04-02T10:08:43.785Z</time></trkpt><trkpt lat="46.0407535" lon="11.9056762"><ele>323.2857142857143</ele><time>2026-04-02T10:08:45.784Z</time></trkpt><trkpt lat="46.0407701" lon="11.9055491"><ele>323.8571428571429</ele><time>2026-04-02T10:08:48.783Z</time></trkpt><trkpt lat="46.0407776" lon="11.9054438"><ele>324.4285714285714</ele><time>2026-04-02T10:08:50.785Z</time></trkpt><trkpt lat="46.0407932" lon="11.9053384"><ele>325.0</ele><time>2026-04-02T10:08:52.785Z</time></trkpt><trkpt lat="46.040805" lon="11.9052404"><ele>325.0</ele><time>2026-04-02T10:08:54.785Z</time></trkpt><trkpt lat="46.0408113" lon="11.905146"><ele>325.0</ele><time>2026-04-02T10:08:56.785Z</time></trkpt><trkpt lat="46.0408153" lon="11.9050429"><ele>325.0</ele><time>2026-04-02T10:08:58.784Z</time></trkpt><trkpt lat="46.0408178" lon="11.9049396"><ele>325.0</ele><time>2026-04-02T10:09:00.784Z</time></trkpt><trkpt lat="46.0408117" lon="11.9048383"><ele>325.0</ele><time>2026-04-02T10:09:02.782Z</time></trkpt><trkpt lat="46.0407962" lon="11.9047364"><ele>325.0</ele><time>2026-04-02T10:09:04.784Z</time></trkpt><trkpt lat="46.0407787" lon="11.904635"><ele>325.0</ele><time>2026-04-02T10:09:06.784Z</time></trkpt><trkpt lat="46.0407619" lon="11.9045267"><ele>325.0</ele><time>2026-04-02T10:09:08.785Z</time></trkpt><trkpt lat="46.0407409" lon="11.9044304"><ele>325.0</ele><time>2026-04-02T10:09:10.785Z</time></trkpt><trkpt lat="46.0407286" lon="11.9043302"><ele>325.0</ele><time>2026-04-02T10:09:12.784Z</time></trkpt><trkpt lat="46.040714" lon="11.9042259"><ele>325.0</ele><time>2026-04-02T10:09:14.785Z</time></trkpt><trkpt lat="46.0406967" lon="11.9041209"><ele>325.0</ele><time>2026-04-02T10:09:16.784Z</time></trkpt><trkpt lat="46.0406864" lon="11.9040209"><ele>325.0</ele><time>2026-04-02T10:09:18.784Z</time></trkpt><trkpt lat="46.040691" lon="11.9039214"><ele>325.0</ele><time>2026-04-02T10:09:20.783Z</time></trkpt><trkpt lat="46.0407063" lon="11.9038223"><ele>325.0</ele><time>2026-04-02T10:09:22.781Z</time></trkpt><trkpt lat="46.0407309" lon="11.9037319"><ele>325.0</ele><time>2026-04-02T10:09:24.784Z</time></trkpt><trkpt lat="46.040762" lon="11.9036431"><ele>325.0</ele><time>2026-04-02T10:09:26.785Z</time></trkpt><trkpt lat="46.0408053" lon="11.9035509"><ele>325.0</ele><time>2026-04-02T10:09:28.785Z</time></trkpt><trkpt lat="46.0408573" lon="11.9034717"><ele>325.0</ele><time>2026-04-02T10:09:30.781Z</time></trkpt><trkpt lat="46.0409021" lon="11.9033902"><ele>325.0</ele><time>2026-04-02T10:09:32.784Z</time></trkpt><trkpt lat="46.0409498" lon="11.9033077"><ele>325.0</ele><time>2026-04-02T10:09:34.783Z</time></trkpt><trkpt lat="46.0410008" lon="11.9032238"><ele>326.5</ele><time>2026-04-02T10:09:36.784Z</time></trkpt><trkpt lat="46.0410537" lon="11.9031434"><ele>328.0</ele><time>2026-04-02T10:09:38.785Z</time></trkpt><trkpt lat="46.0411078" lon="11.9030676"><ele>329.5</ele><time>2026-04-02T10:09:40.784Z</time></trkpt><trkpt lat="46.0411543" lon="11.9029822"><ele>331.0</ele><time>2026-04-02T10:09:42.784Z</time></trkpt><trkpt lat="46.0412025" lon="11.9028887"><ele>332.5</ele><time>2026-04-02T10:09:44.785Z</time></trkpt><trkpt lat="46.04125" lon="11.9027935"><ele>334.0</ele><time>2026-04-02T10:09:46.784Z</time></trkpt><trkpt lat="46.0412904" lon="11.9026948"><ele>334.0</ele><time>2026-04-02T10:09:48.784Z</time></trkpt><trkpt lat="46.0413315" lon="11.9026"><ele>334.0</ele><time>2026-04-02T10:09:50.784Z</time></trkpt><trkpt lat="46.0413686" lon="11.9024995"><ele>334.0</ele><time>2026-04-02T10:09:52.784Z</time></trkpt><trkpt lat="46.0414061" lon="11.9023963"><ele>334.0</ele><time>2026-04-02T10:09:54.784Z</time></trkpt><trkpt lat="46.0414437" lon="11.9022976"><ele>334.0</ele><time>2026-04-02T10:09:56.781Z</time></trkpt><trkpt lat="46.0414863" lon="11.9021956"><ele>334.0</ele><time>2026-04-02T10:09:58.785Z</time></trkpt><trkpt lat="46.041532" lon="11.902087"><ele>333.66666666666663</ele><time>2026-04-02T10:10:00.785Z</time></trkpt><trkpt lat="46.0415752" lon="11.9019799"><ele>333.3333333333333</ele><time>2026-04-02T10:10:02.782Z</time></trkpt><trkpt lat="46.0416184" lon="11.9018669"><ele>333.0</ele><time>2026-04-02T10:10:04.783Z</time></trkpt><trkpt lat="46.0416594" lon="11.9017561"><ele>332.6666666666667</ele><time>2026-04-02T10:10:06.783Z</time></trkpt><trkpt lat="46.0416926" lon="11.9016379"><ele>332.33333333333337</ele><time>2026-04-02T10:10:08.785Z</time></trkpt><trkpt lat="46.0417177" lon="11.9015206"><ele>332.0</ele><time>2026-04-02T10:10:10.784Z</time></trkpt><trkpt lat="46.0417436" lon="11.9014076"><ele>332.83333333333337</ele><time>2026-04-02T10:10:12.783Z</time></trkpt><trkpt lat="46.0417673" lon="11.9012916"><ele>333.6666666666667</ele><time>2026-04-02T10:10:14.784Z</time></trkpt><trkpt lat="46.0417793" lon="11.9011787"><ele>334.5</ele><time>2026-04-02T10:10:16.783Z</time></trkpt><trkpt lat="46.0417861" lon="11.9010625"><ele>335.3333333333333</ele><time>2026-04-02T10:10:18.784Z</time></trkpt><trkpt lat="46.0417852" lon="11.9009459"><ele>336.16666666666663</ele><time>2026-04-02T10:10:20.783Z</time></trkpt><trkpt lat="46.0417752" lon="11.9008292"><ele>337.0</ele><time>2026-04-02T10:10:22.782Z</time></trkpt><trkpt lat="46.0417687" lon="11.9007165"><ele>337.14285714285717</ele><time>2026-04-02T10:10:24.784Z</time></trkpt><trkpt lat="46.0417619" lon="11.9006021"><ele>337.2857142857143</ele><time>2026-04-02T10:10:26.785Z</time></trkpt><trkpt lat="46.0417547" lon="11.9004917"><ele>337.42857142857144</ele><time>2026-04-02T10:10:28.784Z</time></trkpt><trkpt lat="46.0417667" lon="11.9003843"><ele>337.57142857142856</ele><time>2026-04-02T10:10:30.784Z</time></trkpt><trkpt lat="46.0417983" lon="11.9002991"><ele>337.7142857142857</ele><time>2026-04-02T10:10:32.783Z</time></trkpt><trkpt lat="46.0418663" lon="11.9002263"><ele>337.8571428571429</ele><time>2026-04-02T10:10:35.785Z</time></trkpt><trkpt lat="46.0419256" lon="11.9001911"><ele>338.0</ele><time>2026-04-02T10:10:37.785Z</time></trkpt><trkpt lat="46.0419887" lon="11.9001624"><ele>338.0</ele><time>2026-04-02T10:10:39.785Z</time></trkpt><trkpt lat="46.0420493" lon="11.9001314"><ele>338.0</ele><time>2026-04-02T10:10:41.781Z</time></trkpt><trkpt lat="46.0421079" lon="11.9000911"><ele>338.0</ele><time>2026-04-02T10:10:43.784Z</time></trkpt><trkpt lat="46.042164" lon="11.9000378"><ele>338.0</ele><time>2026-04-02T10:10:45.785Z</time></trkpt><trkpt lat="46.0422145" lon="11.8999782"><ele>338.0</ele><time>2026-04-02T10:10:47.783Z</time></trkpt><trkpt lat="46.042266" lon="11.8999081"><ele>338.0</ele><time>2026-04-02T10:10:49.781Z</time></trkpt><trkpt lat="46.0423068" lon="11.8998343"><ele>338.0</ele><time>2026-04-02T10:10:51.785Z</time></trkpt><trkpt lat="46.042337" lon="11.8997436"><ele>338.0</ele><time>2026-04-02T10:10:53.783Z</time></trkpt><trkpt lat="46.0423627" lon="11.8996494"><ele>338.0</ele><time>2026-04-02T10:10:55.784Z</time></trkpt><trkpt lat="46.0423775" lon="11.899553"><ele>338.0</ele><time>2026-04-02T10:10:57.784Z</time></trkpt><trkpt lat="46.042387" lon="11.8994551"><ele>338.0</ele><time>2026-04-02T10:10:59.785Z</time></trkpt><trkpt lat="46.0424011" lon="11.8993638"><ele>338.0</ele><time>2026-04-02T10:11:01.785Z</time></trkpt><trkpt lat="46.0424637" lon="11.8992847"><ele>338.0</ele><time>2026-04-02T10:11:04.782Z</time></trkpt><trkpt lat="46.0425305" lon="11.8993368"><ele>338.0</ele><time>2026-04-02T10:11:07.783Z</time></trkpt><trkpt lat="46.0425764" lon="11.8994092"><ele>339.2857142857143</ele><time>2026-04-02T10:11:09.785Z</time></trkpt><trkpt lat="46.0426189" lon="11.8994866"><ele>340.57142857142856</ele><time>2026-04-02T10:11:11.784Z</time></trkpt><trkpt lat="46.0426506" lon="11.8995693"><ele>341.8571428571429</ele><time>2026-04-02T10:11:13.785Z</time></trkpt><trkpt lat="46.0426756" lon="11.8996578"><ele>343.1428571428571</ele><time>2026-04-02T10:11:15.782Z</time></trkpt><trkpt lat="46.0426939" lon="11.8997483"><ele>344.4285714285714</ele><time>2026-04-02T10:11:17.782Z</time></trkpt><trkpt lat="46.0427159" lon="11.8998419"><ele>345.7142857142857</ele><time>2026-04-02T10:11:19.784Z</time></trkpt><trkpt lat="46.0427497" lon="11.8999236"><ele>347.0</ele><time>2026-04-02T10:11:21.784Z</time></trkpt><trkpt lat="46.0428299" lon="11.8999661"><ele>347.0</ele><time>2026-04-02T10:11:24.783Z</time></trkpt><trkpt lat="46.0428897" lon="11.8999263"><ele>347.0</ele><time>2026-04-02T10:11:26.784Z</time></trkpt><trkpt lat="46.0429433" lon="11.8998607"><ele>347.0</ele><time>2026-04-02T10:11:28.785Z</time></trkpt><trkpt lat="46.0429963" lon="11.8997827"><ele>347.0</ele><time>2026-04-02T10:11:30.784Z</time></trkpt><trkpt lat="46.0430444" lon="11.8997151"><ele>347.0</ele><time>2026-04-02T10:11:32.784Z</time></trkpt><trkpt lat="46.0431021" lon="11.8996414"><ele>347.0</ele><time>2026-04-02T10:11:35.784Z</time></trkpt><trkpt lat="46.0431488" lon="11.8995705"><ele>347.0</ele><time>2026-04-02T10:11:38.783Z</time></trkpt><trkpt lat="46.043201" lon="11.8995019"><ele>347.0</ele><time>2026-04-02T10:11:41.784Z</time></trkpt><trkpt lat="46.0432498" lon="11.8994339"><ele>347.0</ele><time>2026-04-02T10:11:44.784Z</time></trkpt><trkpt lat="46.0432958" lon="11.899358"><ele>347.0</ele><time>2026-04-02T10:11:47.783Z</time></trkpt><trkpt lat="46.0433297" lon="11.8992665"><ele>347.0</ele><time>2026-04-02T10:11:50.783Z</time></trkpt><trkpt lat="46.0433701" lon="11.8991762"><ele>347.0</ele><time>2026-04-02T10:11:53.783Z</time></trkpt><trkpt lat="46.0434099" lon="11.8990842"><ele>347.0</ele><time>2026-04-02T10:11:56.784Z</time></trkpt><trkpt lat="46.0434465" lon="11.8989957"><ele>347.0</ele><time>2026-04-02T10:11:59.785Z</time></trkpt><trkpt lat="46.0434841" lon="11.8989174"><ele>350.0</ele><time>2026-04-02T10:12:02.783Z</time></trkpt><trkpt lat="46.0435261" lon="11.8988227"><ele>353.0</ele><time>2026-04-02T10:12:06.785Z</time></trkpt><trkpt lat="46.0435637" lon="11.8987435"><ele>356.0</ele><time>2026-04-02T10:12:09.785Z</time></trkpt><trkpt lat="46.0436045" lon="11.8986557"><ele>359.0</ele><time>2026-04-02T10:12:12.783Z</time></trkpt><trkpt lat="46.0436397" lon="11.8985731"><ele>362.0</ele><time>2026-04-02T10:12:15.783Z</time></trkpt><trkpt lat="46.0436637" lon="11.898474"><ele>365.0</ele><time>2026-04-02T10:12:18.783Z</time></trkpt><trkpt lat="46.0436922" lon="11.8983733"><ele>368.0</ele><time>2026-04-02T10:12:21.784Z</time></trkpt><trkpt lat="46.0437255" lon="11.8982867"><ele>368.1666666666667</ele><time>2026-04-02T10:12:24.784Z</time></trkpt><trkpt lat="46.043767" lon="11.8981796"><ele>368.33333333333337</ele><time>2026-04-02T10:12:28.784Z</time></trkpt><trkpt lat="46.0438091" lon="11.8980797"><ele>368.5</ele><time>2026-04-02T10:12:31.782Z</time></trkpt><trkpt lat="46.0438526" lon="11.8979771"><ele>368.6666666666667</ele><time>2026-04-02T10:12:34.783Z</time></trkpt><trkpt lat="46.0438937" lon="11.8978699"><ele>368.8333333333333</ele><time>2026-04-02T10:12:37.784Z</time></trkpt><trkpt lat="46.0439265" lon="11.8977635"><ele>369.0</ele><time>2026-04-02T10:12:40.783Z</time></trkpt><trkpt lat="46.043956" lon="11.8976496"><ele>369.0</ele><time>2026-04-02T10:12:43.783Z</time></trkpt><trkpt lat="46.0439845" lon="11.8975591"><ele>369.0</ele><time>2026-04-02T10:12:46.784Z</time></trkpt><trkpt lat="46.0440054" lon="11.8974552"><ele>369.0</ele><time>2026-04-02T10:12:49.783Z</time></trkpt><trkpt lat="46.0440273" lon="11.8973587"><ele>369.0</ele><time>2026-04-02T10:12:52.782Z</time></trkpt><trkpt lat="46.0440601" lon="11.8972705"><ele>369.0</ele><time>2026-04-02T10:12:55.783Z</time></trkpt><trkpt lat="46.0441112" lon="11.897212"><ele>369.0</ele><time>2026-04-02T10:12:58.782Z</time></trkpt><trkpt lat="46.0441777" lon="11.8971923"><ele>369.0</ele><time>2026-04-02T10:13:01.784Z</time></trkpt><trkpt lat="46.0442438" lon="11.8972189"><ele>371.1428571428571</ele><time>2026-04-02T10:13:04.784Z</time></trkpt><trkpt lat="46.0442968" lon="11.8972886"><ele>373.2857142857143</ele><time>2026-04-02T10:13:07.783Z</time></trkpt><trkpt lat="46.0443452" lon="11.8973803"><ele>375.42857142857144</ele><time>2026-04-02T10:13:10.783Z</time></trkpt><trkpt lat="46.0443872" lon="11.8974744"><ele>377.57142857142856</ele><time>2026-04-02T10:13:13.784Z</time></trkpt><trkpt lat="46.044417" lon="11.8975738"><ele>379.7142857142857</ele><time>2026-04-02T10:13:16.784Z</time></trkpt><trkpt lat="46.0444456" lon="11.8976589"><ele>381.85714285714283</ele><time>2026-04-02T10:13:19.782Z</time></trkpt><trkpt lat="46.0444704" lon="11.8977474"><ele>384.0</ele><time>2026-04-02T10:13:22.784Z</time></trkpt><trkpt lat="46.0444979" lon="11.8978327"><ele>384.57142857142856</ele><time>2026-04-02T10:13:25.784Z</time></trkpt><trkpt lat="46.0445374" lon="11.8979184"><ele>385.1428571428571</ele><time>2026-04-02T10:13:28.785Z</time></trkpt><trkpt lat="46.0445702" lon="11.8980213"><ele>385.71428571428567</ele><time>2026-04-02T10:13:31.784Z</time></trkpt><trkpt lat="46.0445954" lon="11.8981265"><ele>386.2857142857143</ele><time>2026-04-02T10:13:34.782Z</time></trkpt><trkpt lat="46.0446207" lon="11.8982184"><ele>386.8571428571429</ele><time>2026-04-02T10:13:37.782Z</time></trkpt><trkpt lat="46.0446458" lon="11.8983094"><ele>387.4285714285714</ele><time>2026-04-02T10:13:40.782Z</time></trkpt><trkpt lat="46.0446785" lon="11.8983991"><ele>388.0</ele><time>2026-04-02T10:13:43.781Z</time></trkpt><trkpt lat="46.0447085" lon="11.8984857"><ele>388.2857142857143</ele><time>2026-04-02T10:13:46.781Z</time></trkpt><trkpt lat="46.0447357" lon="11.898579"><ele>388.5714285714286</ele><time>2026-04-02T10:13:49.785Z</time></trkpt><trkpt lat="46.0447619" lon="11.8986847"><ele>388.8571428571429</ele><time>2026-04-02T10:13:52.783Z</time></trkpt><trkpt lat="46.0447759" lon="11.8987737"><ele>389.1428571428571</ele><time>2026-04-02T10:13:55.783Z</time></trkpt><trkpt lat="46.0448051" lon="11.8988745"><ele>389.42857142857144</ele><time>2026-04-02T10:13:59.785Z</time></trkpt><trkpt lat="46.0448292" lon="11.8989679"><ele>389.7142857142857</ele><time>2026-04-02T10:14:02.783Z</time></trkpt><trkpt lat="46.0448621" lon="11.8990716"><ele>390.0</ele><time>2026-04-02T10:14:05.783Z</time></trkpt><trkpt lat="46.0448953" lon="11.8991565"><ele>390.0</ele><time>2026-04-02T10:14:08.784Z</time></trkpt><trkpt lat="46.0449205" lon="11.8992421"><ele>390.0</ele><time>2026-04-02T10:14:11.784Z</time></trkpt><trkpt lat="46.0449444" lon="11.8993537"><ele>390.0</ele><time>2026-04-02T10:14:14.785Z</time></trkpt><trkpt lat="46.0449676" lon="11.8994562"><ele>390.0</ele><time>2026-04-02T10:14:17.781Z</time></trkpt><trkpt lat="46.0449669" lon="11.8995552"><ele>390.0</ele><time>2026-04-02T10:14:20.783Z</time></trkpt><trkpt lat="46.0449759" lon="11.8996603"><ele>390.0</ele><time>2026-04-02T10:14:23.784Z</time></trkpt><trkpt lat="46.0449846" lon="11.8997766"><ele>390.0</ele><time>2026-04-02T10:14:26.784Z</time></trkpt><trkpt lat="46.0449947" lon="11.8998737"><ele>391.5</ele><time>2026-04-02T10:14:29.782Z</time></trkpt><trkpt lat="46.0449998" lon="11.8999776"><ele>393.0</ele><time>2026-04-02T10:14:32.783Z</time></trkpt><trkpt lat="46.044988" lon="11.9000702"><ele>394.5</ele><time>2026-04-02T10:14:35.784Z</time></trkpt><trkpt lat="46.0449666" lon="11.9001875"><ele>396.0</ele><time>2026-04-02T10:14:40.783Z</time></trkpt><trkpt lat="46.0449606" lon="11.9003006"><ele>397.5</ele><time>2026-04-02T10:14:43.782Z</time></trkpt><trkpt lat="46.0449539" lon="11.9004303"><ele>399.0</ele><time>2026-04-02T10:14:46.784Z</time></trkpt><trkpt lat="46.044955" lon="11.900526"><ele>399.0</ele><time>2026-04-02T10:14:48.784Z</time></trkpt><trkpt lat="46.0449459" lon="11.9006503"><ele>399.0</ele><time>2026-04-02T10:14:51.782Z</time></trkpt><trkpt lat="46.0449645" lon="11.9007734"><ele>399.0</ele><time>2026-04-02T10:14:54.783Z</time></trkpt><trkpt lat="46.0449826" lon="11.9008982"><ele>399.0</ele><time>2026-04-02T10:14:57.782Z</time></trkpt><trkpt lat="46.0449946" lon="11.9009909"><ele>399.0</ele><time>2026-04-02T10:14:59.781Z</time></trkpt><trkpt lat="46.0450094" lon="11.9010947"><ele>399.0</ele><time>2026-04-02T10:15:01.78Z</time></trkpt><trkpt lat="46.0450204" lon="11.9012001"><ele>401.2857142857143</ele><time>2026-04-02T10:15:04.78Z</time></trkpt><trkpt lat="46.0450399" lon="11.9012966"><ele>403.57142857142856</ele><time>2026-04-02T10:15:07.782Z</time></trkpt><trkpt lat="46.0450528" lon="11.9014136"><ele>405.8571428571429</ele><time>2026-04-02T10:15:11.781Z</time></trkpt><trkpt lat="46.0450816" lon="11.9015257"><ele>408.1428571428571</ele><time>2026-04-02T10:15:14.779Z</time></trkpt><trkpt lat="46.0451013" lon="11.901627"><ele>410.42857142857144</ele><time>2026-04-02T10:15:16.784Z</time></trkpt><trkpt lat="46.0451215" lon="11.9017248"><ele>412.7142857142857</ele><time>2026-04-02T10:15:18.784Z</time></trkpt><trkpt lat="46.0451447" lon="11.9018103"><ele>415.0</ele><time>2026-04-02T10:15:20.784Z</time></trkpt><trkpt lat="46.0451777" lon="11.9019393"><ele>415.14285714285717</ele><time>2026-04-02T10:15:23.782Z</time></trkpt><trkpt lat="46.0452013" lon="11.9020311"><ele>415.28571428571433</ele><time>2026-04-02T10:15:25.784Z</time></trkpt><trkpt lat="46.0452377" lon="11.902122"><ele>415.42857142857144</ele><time>2026-04-02T10:15:27.783Z</time></trkpt><trkpt lat="46.0452775" lon="11.9022477"><ele>415.57142857142856</ele><time>2026-04-02T10:15:30.782Z</time></trkpt><trkpt lat="46.0453055" lon="11.9023303"><ele>415.7142857142857</ele><time>2026-04-02T10:15:32.784Z</time></trkpt><trkpt lat="46.0453375" lon="11.9024168"><ele>415.85714285714283</ele><time>2026-04-02T10:15:34.782Z</time></trkpt><trkpt lat="46.0453621" lon="11.902505"><ele>416.0</ele><time>2026-04-02T10:15:36.784Z</time></trkpt><trkpt lat="46.0453866" lon="11.9026013"><ele>416.2857142857143</ele><time>2026-04-02T10:15:38.782Z</time></trkpt><trkpt lat="46.0454044" lon="11.9026919"><ele>416.5714285714286</ele><time>2026-04-02T10:15:40.785Z</time></trkpt><trkpt lat="46.0454143" lon="11.9027837"><ele>416.8571428571429</ele><time>2026-04-02T10:15:42.781Z</time></trkpt><trkpt lat="46.0454227" lon="11.9029113"><ele>417.1428571428571</ele><time>2026-04-02T10:15:45.781Z</time></trkpt><trkpt lat="46.0454404" lon="11.9030116"><ele>417.42857142857144</ele><time>2026-04-02T10:15:48.782Z</time></trkpt><trkpt lat="46.045459" lon="11.9031184"><ele>417.7142857142857</ele><time>2026-04-02T10:15:51.781Z</time></trkpt><trkpt lat="46.0454637" lon="11.9032091"><ele>418.0</ele><time>2026-04-02T10:15:53.784Z</time></trkpt><trkpt lat="46.0454674" lon="11.9033161"><ele>418.0</ele><time>2026-04-02T10:15:55.784Z</time></trkpt><trkpt lat="46.0454724" lon="11.903427"><ele>418.0</ele><time>2026-04-02T10:15:57.783Z</time></trkpt><trkpt lat="46.0454743" lon="11.9035372"><ele>418.0</ele><time>2026-04-02T10:15:59.784Z</time></trkpt><trkpt lat="46.0454776" lon="11.9036292"><ele>418.0</ele><time>2026-04-02T10:16:01.782Z</time></trkpt><trkpt lat="46.0454824" lon="11.9037248"><ele>418.0</ele><time>2026-04-02T10:16:03.783Z</time></trkpt><trkpt lat="46.0455038" lon="11.903837"><ele>418.0</ele><time>2026-04-02T10:16:05.782Z</time></trkpt><trkpt lat="46.0455417" lon="11.9039172"><ele>418.0</ele><time>2026-04-02T10:16:07.782Z</time></trkpt><trkpt lat="46.0455966" lon="11.9040143"><ele>418.00000000000006</ele><time>2026-04-02T10:16:10.782Z</time></trkpt><trkpt lat="46.0456536" lon="11.9040986"><ele>418.0</ele><time>2026-04-02T10:16:13.782Z</time></trkpt><trkpt lat="46.0457177" lon="11.9041876"><ele>418.0</ele><time>2026-04-02T10:16:16.784Z</time></trkpt><trkpt lat="46.0457644" lon="11.904266"><ele>418.0</ele><time>2026-04-02T10:16:18.784Z</time></trkpt><trkpt lat="46.0458166" lon="11.90437"><ele>418.00000000000006</ele><time>2026-04-02T10:16:21.781Z</time></trkpt><trkpt lat="46.0458722" lon="11.904456"><ele>418.0</ele><time>2026-04-02T10:16:24.782Z</time></trkpt><trkpt lat="46.0459281" lon="11.904547"><ele>418.50000000000006</ele><time>2026-04-02T10:16:27.783Z</time></trkpt><trkpt lat="46.0459656" lon="11.9046299"><ele>419.0</ele><time>2026-04-02T10:16:29.782Z</time></trkpt><trkpt lat="46.0460168" lon="11.9047305"><ele>419.5</ele><time>2026-04-02T10:16:32.781Z</time></trkpt><trkpt lat="46.0460711" lon="11.904824"><ele>420.0</ele><time>2026-04-02T10:16:35.784Z</time></trkpt><trkpt lat="46.0461248" lon="11.9048972"><ele>420.50000000000006</ele><time>2026-04-02T10:16:38.782Z</time></trkpt><trkpt lat="46.0461739" lon="11.9049606"><ele>421.0</ele><time>2026-04-02T10:16:41.78Z</time></trkpt><trkpt lat="46.046219" lon="11.9050412"><ele>420.83333333333337</ele><time>2026-04-02T10:16:44.783Z</time></trkpt><trkpt lat="46.046268" lon="11.9051479"><ele>420.6666666666667</ele><time>2026-04-02T10:16:47.781Z</time></trkpt><trkpt lat="46.0463085" lon="11.9052373"><ele>420.5</ele><time>2026-04-02T10:16:50.784Z</time></trkpt><trkpt lat="46.0463569" lon="11.9053153"><ele>420.33333333333337</ele><time>2026-04-02T10:16:53.784Z</time></trkpt><trkpt lat="46.0464128" lon="11.9054081"><ele>420.1666666666667</ele><time>2026-04-02T10:16:56.784Z</time></trkpt><trkpt lat="46.0464524" lon="11.905523"><ele>420.0</ele><time>2026-04-02T10:16:59.784Z</time></trkpt><trkpt lat="46.0464755" lon="11.9056195"><ele>420.0</ele><time>2026-04-02T10:17:01.781Z</time></trkpt><trkpt lat="46.0465112" lon="11.9057391"><ele>420.0</ele><time>2026-04-02T10:17:04.784Z</time></trkpt><trkpt lat="46.046547" lon="11.9058499"><ele>420.0</ele><time>2026-04-02T10:17:07.782Z</time></trkpt><trkpt lat="46.0465681" lon="11.9059443"><ele>420.0</ele><time>2026-04-02T10:17:09.781Z</time></trkpt><trkpt lat="46.0465956" lon="11.9060362"><ele>420.0</ele><time>2026-04-02T10:17:11.781Z</time></trkpt><trkpt lat="46.0466493" lon="11.9061412"><ele>420.0</ele><time>2026-04-02T10:17:14.784Z</time></trkpt><trkpt lat="46.0466991" lon="11.9062221"><ele>421.3333333333333</ele><time>2026-04-02T10:17:17.781Z</time></trkpt><trkpt lat="46.0467399" lon="11.9063085"><ele>422.66666666666663</ele><time>2026-04-02T10:17:19.784Z</time></trkpt><trkpt lat="46.0468053" lon="11.9064121"><ele>424.0</ele><time>2026-04-02T10:17:22.782Z</time></trkpt><trkpt lat="46.0468591" lon="11.9064774"><ele>425.3333333333333</ele><time>2026-04-02T10:17:25.782Z</time></trkpt><trkpt lat="46.0469143" lon="11.9065342"><ele>426.66666666666663</ele><time>2026-04-02T10:17:27.784Z</time></trkpt><trkpt lat="46.0469844" lon="11.9065843"><ele>428.0</ele><time>2026-04-02T10:17:30.782Z</time></trkpt><trkpt lat="46.0470428" lon="11.9066206"><ele>428.00000000000006</ele><time>2026-04-02T10:17:33.782Z</time></trkpt><trkpt lat="46.0471027" lon="11.9066538"><ele>428.0</ele><time>2026-04-02T10:17:38.781Z</time></trkpt><trkpt lat="46.0471664" lon="11.9067165"><ele>428.0</ele><time>2026-04-02T10:17:43.784Z</time></trkpt><trkpt lat="46.0472295" lon="11.9067622"><ele>428.0</ele><time>2026-04-02T10:17:46.784Z</time></trkpt><trkpt lat="46.0473021" lon="11.9068006"><ele>428.0</ele><time>2026-04-02T10:17:49.783Z</time></trkpt><trkpt lat="46.0473828" lon="11.9068424"><ele>428.00000000000006</ele><time>2026-04-02T10:17:52.782Z</time></trkpt><trkpt lat="46.0474536" lon="11.9068441"><ele>428.0</ele><time>2026-04-02T10:17:54.785Z</time></trkpt><trkpt lat="46.047518" lon="11.9068393"><ele>429.00000000000006</ele><time>2026-04-02T10:17:56.785Z</time></trkpt><trkpt lat="46.0475857" lon="11.9068226"><ele>430.0</ele><time>2026-04-02T10:17:58.785Z</time></trkpt><trkpt lat="46.0476535" lon="11.9067929"><ele>431.0</ele><time>2026-04-02T10:18:01.784Z</time></trkpt><trkpt lat="46.0477101" lon="11.9067519"><ele>432.0</ele><time>2026-04-02T10:18:03.785Z</time></trkpt><trkpt lat="46.0477806" lon="11.9066976"><ele>433.0</ele><time>2026-04-02T10:18:05.785Z</time></trkpt><trkpt lat="46.0478404" lon="11.906645"><ele>434.00000000000006</ele><time>2026-04-02T10:18:07.785Z</time></trkpt><trkpt lat="46.0478987" lon="11.9065727"><ele>435.0</ele><time>2026-04-02T10:18:09.786Z</time></trkpt><trkpt lat="46.047944" lon="11.9064957"><ele>435.00000000000006</ele><time>2026-04-02T10:18:12.784Z</time></trkpt><trkpt lat="46.0479697" lon="11.906368"><ele>435.0</ele><time>2026-04-02T10:18:15.785Z</time></trkpt><trkpt lat="46.0479744" lon="11.9062725"><ele>435.0</ele><time>2026-04-02T10:18:17.783Z</time></trkpt><trkpt lat="46.0479768" lon="11.9061751"><ele>435.0</ele><time>2026-04-02T10:18:19.785Z</time></trkpt><trkpt lat="46.0479727" lon="11.9060672"><ele>435.0</ele><time>2026-04-02T10:18:21.783Z</time></trkpt><trkpt lat="46.0479723" lon="11.9059721"><ele>435.00000000000006</ele><time>2026-04-02T10:18:23.785Z</time></trkpt><trkpt lat="46.0479716" lon="11.905873"><ele>435.0</ele><time>2026-04-02T10:18:25.782Z</time></trkpt><trkpt lat="46.0479655" lon="11.9057411"><ele>436.5</ele><time>2026-04-02T10:18:28.785Z</time></trkpt><trkpt lat="46.0479689" lon="11.905648"><ele>438.0</ele><time>2026-04-02T10:18:30.783Z</time></trkpt><trkpt lat="46.0479741" lon="11.9055417"><ele>439.5</ele><time>2026-04-02T10:18:32.784Z</time></trkpt><trkpt lat="46.0479825" lon="11.9054149"><ele>441.0</ele><time>2026-04-02T10:18:35.785Z</time></trkpt><trkpt lat="46.0479964" lon="11.9053199"><ele>442.5</ele><time>2026-04-02T10:18:38.786Z</time></trkpt><trkpt lat="46.0480143" lon="11.9051936"><ele>444.0</ele><time>2026-04-02T10:18:42.785Z</time></trkpt><trkpt lat="46.0480436" lon="11.9051007"><ele>443.6666666666667</ele><time>2026-04-02T10:18:45.785Z</time></trkpt><trkpt lat="46.0480643" lon="11.9049936"><ele>443.33333333333337</ele><time>2026-04-02T10:18:48.785Z</time></trkpt><trkpt lat="46.0480792" lon="11.9048791"><ele>443.0</ele><time>2026-04-02T10:18:51.783Z</time></trkpt><trkpt lat="46.0480998" lon="11.9047696"><ele>442.6666666666667</ele><time>2026-04-02T10:18:54.785Z</time></trkpt><trkpt lat="46.0481119" lon="11.9046425"><ele>442.33333333333337</ele><time>2026-04-02T10:18:57.784Z</time></trkpt><trkpt lat="46.0481354" lon="11.9045558"><ele>442.0</ele><time>2026-04-02T10:19:00.785Z</time></trkpt><trkpt lat="46.0481462" lon="11.9044607"><ele>442.00000000000006</ele><time>2026-04-02T10:19:03.785Z</time></trkpt><trkpt lat="46.0481635" lon="11.9043677"><ele>442.0</ele><time>2026-04-02T10:19:06.784Z</time></trkpt><trkpt lat="46.0481807" lon="11.9042746"><ele>442.0</ele><time>2026-04-02T10:19:09.785Z</time></trkpt><trkpt lat="46.0481879" lon="11.9041647"><ele>442.0</ele><time>2026-04-02T10:19:12.783Z</time></trkpt><trkpt lat="46.048242" lon="11.9040701"><ele>442.0</ele><time>2026-04-02T10:19:16.785Z</time></trkpt><trkpt lat="46.0482932" lon="11.9040094"><ele>442.00000000000006</ele><time>2026-04-02T10:19:19.783Z</time></trkpt><trkpt lat="46.048359" lon="11.9039258"><ele>442.0</ele><time>2026-04-02T10:19:22.784Z</time></trkpt><trkpt lat="46.0484481" lon="11.9038715"><ele>443.1666666666667</ele><time>2026-04-02T10:19:25.785Z</time></trkpt><trkpt lat="46.0485302" lon="11.9038475"><ele>444.33333333333337</ele><time>2026-04-02T10:19:27.786Z</time></trkpt><trkpt lat="46.0486163" lon="11.9038355"><ele>445.5</ele><time>2026-04-02T10:19:29.785Z</time></trkpt><trkpt lat="46.0486974" lon="11.9038324"><ele>446.66666666666663</ele><time>2026-04-02T10:19:31.784Z</time></trkpt><trkpt lat="46.0487725" lon="11.9038275"><ele>447.8333333333333</ele><time>2026-04-02T10:19:33.785Z</time></trkpt><trkpt lat="46.0488415" lon="11.9038176"><ele>449.0</ele><time>2026-04-02T10:19:35.785Z</time></trkpt><trkpt lat="46.0489234" lon="11.9038045"><ele>449.0</ele><time>2026-04-02T10:19:37.785Z</time></trkpt><trkpt lat="46.0490004" lon="11.9037788"><ele>448.99999999999994</ele><time>2026-04-02T10:19:39.784Z</time></trkpt><trkpt lat="46.0490652" lon="11.9037626"><ele>449.0</ele><time>2026-04-02T10:19:41.783Z</time></trkpt><trkpt lat="46.0491314" lon="11.9037665"><ele>449.0</ele><time>2026-04-02T10:19:43.785Z</time></trkpt><trkpt lat="46.0491911" lon="11.9038274"><ele>448.99999999999994</ele><time>2026-04-02T10:19:46.784Z</time></trkpt><trkpt lat="46.0492013" lon="11.9039232"><ele>449.0</ele><time>2026-04-02T10:19:49.785Z</time></trkpt><trkpt lat="46.0491821" lon="11.9040345"><ele>449.0</ele><time>2026-04-02T10:19:52.783Z</time></trkpt><trkpt lat="46.0491553" lon="11.9041231"><ele>449.0</ele><time>2026-04-02T10:19:55.786Z</time></trkpt><trkpt lat="46.0491195" lon="11.9042173"><ele>448.99999999999994</ele><time>2026-04-02T10:19:59.784Z</time></trkpt><trkpt lat="46.0491095" lon="11.9043147"><ele>449.0</ele><time>2026-04-02T10:20:02.782Z</time></trkpt><trkpt lat="46.0491136" lon="11.9044137"><ele>449.0</ele><time>2026-04-02T10:20:05.785Z</time></trkpt><trkpt lat="46.0491175" lon="11.9045211"><ele>448.99999999999994</ele><time>2026-04-02T10:20:08.784Z</time></trkpt><trkpt lat="46.04913" lon="11.9046182"><ele>449.0</ele><time>2026-04-02T10:20:11.784Z</time></trkpt><trkpt lat="46.0491364" lon="11.9047286"><ele>449.0</ele><time>2026-04-02T10:20:15.783Z</time></trkpt><trkpt lat="46.0491683" lon="11.9048203"><ele>450.3333333333333</ele><time>2026-04-02T10:20:18.785Z</time></trkpt><trkpt lat="46.0491827" lon="11.9049284"><ele>451.66666666666663</ele><time>2026-04-02T10:20:21.785Z</time></trkpt><trkpt lat="46.0492039" lon="11.9050423"><ele>453.0</ele><time>2026-04-02T10:20:24.785Z</time></trkpt><trkpt lat="46.0492419" lon="11.9051598"><ele>454.33333333333337</ele><time>2026-04-02T10:20:27.784Z</time></trkpt><trkpt lat="46.0492866" lon="11.9052803"><ele>455.6666666666667</ele><time>2026-04-02T10:20:30.784Z</time></trkpt><trkpt lat="46.0493255" lon="11.9053581"><ele>457.0</ele><time>2026-04-02T10:20:32.785Z</time></trkpt><trkpt lat="46.0493678" lon="11.9054296"><ele>457.00000000000006</ele><time>2026-04-02T10:20:34.784Z</time></trkpt><trkpt lat="46.0494113" lon="11.905496"><ele>457.0</ele><time>2026-04-02T10:20:36.784Z</time></trkpt><trkpt lat="46.0494677" lon="11.9055652"><ele>457.0</ele><time>2026-04-02T10:20:38.785Z</time></trkpt><trkpt lat="46.0495267" lon="11.9056513"><ele>457.0</ele><time>2026-04-02T10:20:41.785Z</time></trkpt><trkpt lat="46.0495992" lon="11.9057122"><ele>457.00000000000006</ele><time>2026-04-02T10:20:44.784Z</time></trkpt><trkpt lat="46.049665" lon="11.9057867"><ele>457.0</ele><time>2026-04-02T10:20:46.781Z</time></trkpt><trkpt lat="46.0497163" lon="11.9058421"><ele>457.00000000000006</ele><time>2026-04-02T10:20:48.782Z</time></trkpt><trkpt lat="46.0497646" lon="11.9059101"><ele>457.0</ele><time>2026-04-02T10:20:50.782Z</time></trkpt><trkpt lat="46.0498151" lon="11.9060102"><ele>457.0</ele><time>2026-04-02T10:20:52.786Z</time></trkpt><trkpt lat="46.0498511" lon="11.9061096"><ele>457.0</ele><time>2026-04-02T10:20:54.782Z</time></trkpt><trkpt lat="46.0498864" lon="11.9062043"><ele>457.00000000000006</ele><time>2026-04-02T10:20:56.785Z</time></trkpt><trkpt lat="46.0499086" lon="11.9063054"><ele>457.0</ele><time>2026-04-02T10:20:58.783Z</time></trkpt><trkpt lat="46.0499339" lon="11.9064134"><ele>456.7142857142858</ele><time>2026-04-02T10:21:00.785Z</time></trkpt><trkpt lat="46.0499727" lon="11.9065137"><ele>456.42857142857144</ele><time>2026-04-02T10:21:02.784Z</time></trkpt><trkpt lat="46.0500079" lon="11.9066007"><ele>456.14285714285717</ele><time>2026-04-02T10:21:04.781Z</time></trkpt><trkpt lat="46.050058" lon="11.9066914"><ele>455.8571428571429</ele><time>2026-04-02T10:21:06.784Z</time></trkpt><trkpt lat="46.0500936" lon="11.9067772"><ele>455.57142857142856</ele><time>2026-04-02T10:21:08.785Z</time></trkpt><trkpt lat="46.0501239" lon="11.906869"><ele>455.2857142857143</ele><time>2026-04-02T10:21:10.785Z</time></trkpt><trkpt lat="46.050161" lon="11.9069671"><ele>455.0</ele><time>2026-04-02T10:21:12.784Z</time></trkpt><trkpt lat="46.0501993" lon="11.9070758"><ele>453.49999999999994</ele><time>2026-04-02T10:21:14.785Z</time></trkpt><trkpt lat="46.0502498" lon="11.9071831"><ele>452.0</ele><time>2026-04-02T10:21:16.784Z</time></trkpt><trkpt lat="46.0503084" lon="11.907285"><ele>450.5</ele><time>2026-04-02T10:21:18.784Z</time></trkpt><trkpt lat="46.0503631" lon="11.9073779"><ele>449.0</ele><time>2026-04-02T10:21:20.783Z</time></trkpt><trkpt lat="46.0504263" lon="11.9074582"><ele>447.49999999999994</ele><time>2026-04-02T10:21:22.785Z</time></trkpt><trkpt lat="46.0504714" lon="11.9075433"><ele>446.0</ele><time>2026-04-02T10:21:24.785Z</time></trkpt><trkpt lat="46.0504803" lon="11.9076648"><ele>445.8333333333333</ele><time>2026-04-02T10:21:27.784Z</time></trkpt><trkpt lat="46.0504715" lon="11.9078003"><ele>445.66666666666663</ele><time>2026-04-02T10:21:30.785Z</time></trkpt><trkpt lat="46.0504721" lon="11.907928"><ele>445.5</ele><time>2026-04-02T10:21:33.783Z</time></trkpt><trkpt lat="46.0504508" lon="11.908017"><ele>445.33333333333337</ele><time>2026-04-02T10:21:35.785Z</time></trkpt><trkpt lat="46.0504037" lon="11.9080977"><ele>445.1666666666667</ele><time>2026-04-02T10:21:37.783Z</time></trkpt><trkpt lat="46.0503468" lon="11.9081789"><ele>445.0</ele><time>2026-04-02T10:21:39.786Z</time></trkpt><trkpt lat="46.0502919" lon="11.9082649"><ele>445.00000000000006</ele><time>2026-04-02T10:21:41.781Z</time></trkpt><trkpt lat="46.0502658" lon="11.90836"><ele>445.0</ele><time>2026-04-02T10:21:43.785Z</time></trkpt><trkpt lat="46.0502431" lon="11.9084956"><ele>445.0</ele><time>2026-04-02T10:21:46.783Z</time></trkpt><trkpt lat="46.0502293" lon="11.9085967"><ele>445.0</ele><time>2026-04-02T10:21:48.783Z</time></trkpt><trkpt lat="46.0502023" lon="11.9087301"><ele>445.00000000000006</ele><time>2026-04-02T10:21:51.783Z</time></trkpt><trkpt lat="46.0501919" lon="11.9088326"><ele>445.0</ele><time>2026-04-02T10:21:53.784Z</time></trkpt><trkpt lat="46.0501836" lon="11.9089284"><ele>445.6666666666667</ele><time>2026-04-02T10:21:55.783Z</time></trkpt><trkpt lat="46.0501828" lon="11.909025"><ele>446.33333333333337</ele><time>2026-04-02T10:21:57.785Z</time></trkpt><trkpt lat="46.0501981" lon="11.9091551"><ele>447.0</ele><time>2026-04-02T10:22:00.785Z</time></trkpt><trkpt lat="46.0502255" lon="11.9092808"><ele>447.66666666666663</ele><time>2026-04-02T10:22:03.782Z</time></trkpt><trkpt lat="46.0502616" lon="11.909399"><ele>448.3333333333333</ele><time>2026-04-02T10:22:06.784Z</time></trkpt><trkpt lat="46.050281" lon="11.9094917"><ele>449.0</ele><time>2026-04-02T10:22:08.783Z</time></trkpt><trkpt lat="46.0503243" lon="11.9096062"><ele>448.99999999999994</ele><time>2026-04-02T10:22:11.784Z</time></trkpt><trkpt lat="46.0503658" lon="11.9097254"><ele>449.0</ele><time>2026-04-02T10:22:14.785Z</time></trkpt><trkpt lat="46.0503928" lon="11.9098186"><ele>449.0</ele><time>2026-04-02T10:22:17.785Z</time></trkpt><trkpt lat="46.0504128" lon="11.9099461"><ele>449.0</ele><time>2026-04-02T10:22:20.785Z</time></trkpt><trkpt lat="46.05043" lon="11.9100609"><ele>448.99999999999994</ele><time>2026-04-02T10:22:22.785Z</time></trkpt><trkpt lat="46.0504492" lon="11.9101845"><ele>449.0</ele><time>2026-04-02T10:22:24.783Z</time></trkpt><trkpt lat="46.0504626" lon="11.9103088"><ele>446.99999999999994</ele><time>2026-04-02T10:22:26.784Z</time></trkpt><trkpt lat="46.0505013" lon="11.9104268"><ele>445.0</ele><time>2026-04-02T10:22:29.785Z</time></trkpt><trkpt lat="46.0505201" lon="11.910515"><ele>443.0</ele><time>2026-04-02T10:22:31.783Z</time></trkpt><trkpt lat="46.0505365" lon="11.9106211"><ele>441.0</ele><time>2026-04-02T10:22:33.783Z</time></trkpt><trkpt lat="46.050559" lon="11.9107307"><ele>438.99999999999994</ele><time>2026-04-02T10:22:35.783Z</time></trkpt><trkpt lat="46.05059" lon="11.9108161"><ele>437.0</ele><time>2026-04-02T10:22:37.785Z</time></trkpt><trkpt lat="46.0506214" lon="11.9109131"><ele>435.49999999999994</ele><time>2026-04-02T10:22:39.785Z</time></trkpt><trkpt lat="46.0506525" lon="11.9110055"><ele>434.0</ele><time>2026-04-02T10:22:41.786Z</time></trkpt><trkpt lat="46.0506808" lon="11.9111261"><ele>432.5</ele><time>2026-04-02T10:22:43.783Z</time></trkpt><trkpt lat="46.0507075" lon="11.911235"><ele>431.0</ele><time>2026-04-02T10:22:45.785Z</time></trkpt><trkpt lat="46.0507299" lon="11.9113498"><ele>429.49999999999994</ele><time>2026-04-02T10:22:47.784Z</time></trkpt><trkpt lat="46.0507549" lon="11.9114515"><ele>428.0</ele><time>2026-04-02T10:22:49.781Z</time></trkpt><trkpt lat="46.0507732" lon="11.9115563"><ele>430.49999999999994</ele><time>2026-04-02T10:22:51.784Z</time></trkpt><trkpt lat="46.0507965" lon="11.9116711"><ele>433.0</ele><time>2026-04-02T10:22:53.782Z</time></trkpt><trkpt lat="46.0508284" lon="11.911768"><ele>435.5</ele><time>2026-04-02T10:22:55.785Z</time></trkpt><trkpt lat="46.0508622" lon="11.9118978"><ele>438.0</ele><time>2026-04-02T10:22:57.784Z</time></trkpt><trkpt lat="46.0509123" lon="11.9120156"><ele>440.49999999999994</ele><time>2026-04-02T10:22:59.785Z</time></trkpt><trkpt lat="46.0509603" lon="11.9121299"><ele>443.0</ele><time>2026-04-02T10:23:01.783Z</time></trkpt><trkpt lat="46.0510096" lon="11.912231"><ele>442.99999999999994</ele><time>2026-04-02T10:23:03.785Z</time></trkpt><trkpt lat="46.0510569" lon="11.9123451"><ele>443.0</ele><time>2026-04-02T10:23:05.783Z</time></trkpt><trkpt lat="46.0511034" lon="11.9124461"><ele>443.0</ele><time>2026-04-02T10:23:07.785Z</time></trkpt><trkpt lat="46.0511352" lon="11.9125418"><ele>443.0</ele><time>2026-04-02T10:23:09.784Z</time></trkpt><trkpt lat="46.0511882" lon="11.9126237"><ele>442.99999999999994</ele><time>2026-04-02T10:23:11.785Z</time></trkpt><trkpt lat="46.0512391" lon="11.9127035"><ele>443.0</ele><time>2026-04-02T10:23:13.783Z</time></trkpt><trkpt lat="46.0512951" lon="11.9127768"><ele>442.16666666666663</ele><time>2026-04-02T10:23:15.785Z</time></trkpt><trkpt lat="46.051352" lon="11.9128444"><ele>441.3333333333333</ele><time>2026-04-02T10:23:17.783Z</time></trkpt><trkpt lat="46.0514108" lon="11.9128997"><ele>440.5</ele><time>2026-04-02T10:23:19.783Z</time></trkpt><trkpt lat="46.0514785" lon="11.9129935"><ele>439.66666666666663</ele><time>2026-04-02T10:23:22.784Z</time></trkpt><trkpt lat="46.0515469" lon="11.9130416"><ele>438.8333333333333</ele><time>2026-04-02T10:23:25.783Z</time></trkpt><trkpt lat="46.051609" lon="11.9130828"><ele>438.0</ele><time>2026-04-02T10:23:27.785Z</time></trkpt><trkpt lat="46.0516805" lon="11.9131142"><ele>438.0</ele><time>2026-04-02T10:23:29.785Z</time></trkpt><trkpt lat="46.0517428" lon="11.9131588"><ele>437.99999999999994</ele><time>2026-04-02T10:23:31.785Z</time></trkpt><trkpt lat="46.0518285" lon="11.9132156"><ele>437.99999999999994</ele><time>2026-04-02T10:23:34.783Z</time></trkpt><trkpt lat="46.051915" lon="11.913246"><ele>438.0</ele><time>2026-04-02T10:23:37.782Z</time></trkpt><trkpt lat="46.0520891" lon="11.9132431"><ele>438.0</ele><time>2026-04-02T10:23:43.785Z</time></trkpt><trkpt lat="46.0521627" lon="11.9131944"><ele>438.0</ele><time>2026-04-02T10:23:46.785Z</time></trkpt><trkpt lat="46.0522316" lon="11.9131189"><ele>438.0</ele><time>2026-04-02T10:23:48.785Z</time></trkpt><trkpt lat="46.0523019" lon="11.9130502"><ele>438.0</ele><time>2026-04-02T10:23:50.785Z</time></trkpt><trkpt lat="46.0523627" lon="11.9129569"><ele>438.0</ele><time>2026-04-02T10:23:53.785Z</time></trkpt><trkpt lat="46.0524103" lon="11.9128894"><ele>438.0</ele><time>2026-04-02T10:23:55.785Z</time></trkpt><trkpt lat="46.0524703" lon="11.9127949"><ele>438.0</ele><time>2026-04-02T10:23:58.784Z</time></trkpt><trkpt lat="46.0525075" lon="11.9126907"><ele>437.6666666666667</ele><time>2026-04-02T10:24:01.785Z</time></trkpt><trkpt lat="46.0525485" lon="11.9125885"><ele>437.33333333333337</ele><time>2026-04-02T10:24:04.785Z</time></trkpt><trkpt lat="46.0525914" lon="11.9124855"><ele>437.0</ele><time>2026-04-02T10:24:07.785Z</time></trkpt><trkpt lat="46.0526115" lon="11.9123774"><ele>436.6666666666667</ele><time>2026-04-02T10:24:11.784Z</time></trkpt><trkpt lat="46.0526623" lon="11.9123002"><ele>436.33333333333337</ele><time>2026-04-02T10:24:13.785Z</time></trkpt><trkpt lat="46.0527438" lon="11.9122209"><ele>436.0</ele><time>2026-04-02T10:24:15.785Z</time></trkpt><trkpt lat="46.0528418" lon="11.9121753"><ele>439.4</ele><time>2026-04-02T10:24:17.783Z</time></trkpt><trkpt lat="46.0529166" lon="11.9121757"><ele>442.8</ele><time>2026-04-02T10:24:19.783Z</time></trkpt><trkpt lat="46.0530042" lon="11.9121929"><ele>446.19999999999993</ele><time>2026-04-02T10:24:21.784Z</time></trkpt><trkpt lat="46.0531835" lon="11.9121977"><ele>449.59999999999997</ele><time>2026-04-02T10:24:25.785Z</time></trkpt><trkpt lat="46.0532686" lon="11.9122369"><ele>453.0</ele><time>2026-04-02T10:24:27.785Z</time></trkpt><trkpt lat="46.0533589" lon="11.9122801"><ele>453.0</ele><time>2026-04-02T10:24:29.785Z</time></trkpt><trkpt lat="46.0534588" lon="11.912303"><ele>452.99999999999994</ele><time>2026-04-02T10:24:31.784Z</time></trkpt><trkpt lat="46.0535749" lon="11.9123349"><ele>452.99999999999994</ele><time>2026-04-02T10:24:33.785Z</time></trkpt><trkpt lat="46.0536469" lon="11.9123703"><ele>453.0</ele><time>2026-04-02T10:24:35.783Z</time></trkpt><trkpt lat="46.0537346" lon="11.9123999"><ele>453.0</ele><time>2026-04-02T10:24:38.784Z</time></trkpt><trkpt lat="46.0538079" lon="11.9124203"><ele>453.0</ele><time>2026-04-02T10:24:41.783Z</time></trkpt><trkpt lat="46.0538668" lon="11.9124559"><ele>453.0</ele><time>2026-04-02T10:24:44.785Z</time></trkpt><trkpt lat="46.0539425" lon="11.9124986"><ele>453.0</ele><time>2026-04-02T10:24:48.784Z</time></trkpt><trkpt lat="46.0541308" lon="11.9125033"><ele>453.0</ele><time>2026-04-02T10:24:54.784Z</time></trkpt><trkpt lat="46.0543112" lon="11.9124987"><ele>454.1666666666667</ele><time>2026-04-02T10:25:00.785Z</time></trkpt><trkpt lat="46.0543908" lon="11.9124782"><ele>455.33333333333337</ele><time>2026-04-02T10:25:02.782Z</time></trkpt><trkpt lat="46.0544718" lon="11.912469"><ele>456.5</ele><time>2026-04-02T10:25:04.785Z</time></trkpt><trkpt lat="46.0545471" lon="11.9124638"><ele>457.6666666666667</ele><time>2026-04-02T10:25:06.784Z</time></trkpt><trkpt lat="46.0546312" lon="11.9124485"><ele>458.83333333333337</ele><time>2026-04-02T10:25:08.785Z</time></trkpt><trkpt lat="46.0547128" lon="11.9124451"><ele>460.0</ele><time>2026-04-02T10:25:10.783Z</time></trkpt><trkpt lat="46.0548148" lon="11.9124521"><ele>460.00000000000006</ele><time>2026-04-02T10:25:13.785Z</time></trkpt><trkpt lat="46.054885" lon="11.9124619"><ele>460.0</ele><time>2026-04-02T10:25:15.783Z</time></trkpt><trkpt lat="46.0549528" lon="11.9124703"><ele>460.0</ele><time>2026-04-02T10:25:17.784Z</time></trkpt><trkpt lat="46.0550179" lon="11.9124836"><ele>460.0</ele><time>2026-04-02T10:25:19.782Z</time></trkpt><trkpt lat="46.0551188" lon="11.912484"><ele>460.00000000000006</ele><time>2026-04-02T10:25:22.783Z</time></trkpt><trkpt lat="46.0551882" lon="11.9124934"><ele>460.0</ele><time>2026-04-02T10:25:24.783Z</time></trkpt><trkpt lat="46.0552658" lon="11.9125069"><ele>459.8571428571428</ele><time>2026-04-02T10:25:26.783Z</time></trkpt><trkpt lat="46.0553411" lon="11.9125227"><ele>459.71428571428567</ele><time>2026-04-02T10:25:28.785Z</time></trkpt><trkpt lat="46.0554088" lon="11.9125372"><ele>459.57142857142856</ele><time>2026-04-02T10:25:30.783Z</time></trkpt><trkpt lat="46.0554737" lon="11.912552"><ele>459.4285714285714</ele><time>2026-04-02T10:25:32.783Z</time></trkpt><trkpt lat="46.0555371" lon="11.9125705"><ele>459.2857142857142</ele><time>2026-04-02T10:25:34.784Z</time></trkpt><trkpt lat="46.0556062" lon="11.9125875"><ele>459.14285714285717</ele><time>2026-04-02T10:25:36.785Z</time></trkpt><trkpt lat="46.0556728" lon="11.9125954"><ele>459.0</ele><time>2026-04-02T10:25:38.783Z</time></trkpt><trkpt lat="46.055758" lon="11.9126078"><ele>458.42857142857144</ele><time>2026-04-02T10:25:41.784Z</time></trkpt><trkpt lat="46.0558491" lon="11.9126155"><ele>457.85714285714283</ele><time>2026-04-02T10:25:44.782Z</time></trkpt><trkpt lat="46.055914" lon="11.9126268"><ele>457.2857142857143</ele><time>2026-04-02T10:25:46.784Z</time></trkpt><trkpt lat="46.0559839" lon="11.9126346"><ele>456.7142857142857</ele><time>2026-04-02T10:25:48.784Z</time></trkpt><trkpt lat="46.0560502" lon="11.9126508"><ele>456.1428571428571</ele><time>2026-04-02T10:25:50.781Z</time></trkpt><trkpt lat="46.0561148" lon="11.9126718"><ele>455.57142857142856</ele><time>2026-04-02T10:25:52.784Z</time></trkpt><trkpt lat="46.0561808" lon="11.9126883"><ele>455.0</ele><time>2026-04-02T10:25:54.784Z</time></trkpt><trkpt lat="46.0562567" lon="11.9127205"><ele>454.99999999999994</ele><time>2026-04-02T10:25:57.781Z</time></trkpt><trkpt lat="46.0563304" lon="11.9127413"><ele>455.0</ele><time>2026-04-02T10:26:00.782Z</time></trkpt><trkpt lat="46.0564116" lon="11.9127569"><ele>455.0</ele><time>2026-04-02T10:26:03.784Z</time></trkpt><trkpt lat="46.0564774" lon="11.9127668"><ele>455.0</ele><time>2026-04-02T10:26:05.785Z</time></trkpt><trkpt lat="46.0565449" lon="11.9127772"><ele>454.99999999999994</ele><time>2026-04-02T10:26:07.784Z</time></trkpt><trkpt lat="46.0566169" lon="11.9127839"><ele>455.0</ele><time>2026-04-02T10:26:09.783Z</time></trkpt><trkpt lat="46.0567109" lon="11.9127954"><ele>456.7142857142857</ele><time>2026-04-02T10:26:12.782Z</time></trkpt><trkpt lat="46.0567799" lon="11.9128203"><ele>458.42857142857144</ele><time>2026-04-02T10:26:14.783Z</time></trkpt><trkpt lat="46.0568446" lon="11.912835"><ele>460.1428571428571</ele><time>2026-04-02T10:26:16.782Z</time></trkpt><trkpt lat="46.0569164" lon="11.9128529"><ele>461.85714285714283</ele><time>2026-04-02T10:26:18.784Z</time></trkpt><trkpt lat="46.0569842" lon="11.9128712"><ele>463.57142857142856</ele><time>2026-04-02T10:26:20.785Z</time></trkpt><trkpt lat="46.0570783" lon="11.9128957"><ele>465.2857142857142</ele><time>2026-04-02T10:26:23.784Z</time></trkpt><trkpt lat="46.0571436" lon="11.9129142"><ele>466.99999999999994</ele><time>2026-04-02T10:26:25.784Z</time></trkpt><trkpt lat="46.0572298" lon="11.9129324"><ele>466.99999999999994</ele><time>2026-04-02T10:26:28.784Z</time></trkpt><trkpt lat="46.0573197" lon="11.9129422"><ele>467.0</ele><time>2026-04-02T10:26:31.784Z</time></trkpt><trkpt lat="46.057385" lon="11.9129533"><ele>467.0</ele><time>2026-04-02T10:26:33.783Z</time></trkpt><trkpt lat="46.0574499" lon="11.9129703"><ele>467.0</ele><time>2026-04-02T10:26:35.782Z</time></trkpt><trkpt lat="46.0575355" lon="11.9129978"><ele>466.99999999999994</ele><time>2026-04-02T10:26:38.785Z</time></trkpt><trkpt lat="46.0576136" lon="11.9130173"><ele>467.0</ele><time>2026-04-02T10:26:41.784Z</time></trkpt><trkpt lat="46.0576988" lon="11.9130284"><ele>468.3333333333333</ele><time>2026-04-02T10:26:44.784Z</time></trkpt><trkpt lat="46.0577876" lon="11.9130584"><ele>469.66666666666663</ele><time>2026-04-02T10:26:47.782Z</time></trkpt><trkpt lat="46.0578544" lon="11.9130772"><ele>471.0</ele><time>2026-04-02T10:26:49.785Z</time></trkpt><trkpt lat="46.0579419" lon="11.9130969"><ele>472.33333333333337</ele><time>2026-04-02T10:26:52.783Z</time></trkpt><trkpt lat="46.0580283" lon="11.9130963"><ele>473.6666666666667</ele><time>2026-04-02T10:26:55.785Z</time></trkpt><trkpt lat="46.0581199" lon="11.913095"><ele>475.0</ele><time>2026-04-02T10:26:58.784Z</time></trkpt><trkpt lat="46.0581994" lon="11.9130901"><ele>475.00000000000006</ele><time>2026-04-02T10:27:01.783Z</time></trkpt><trkpt lat="46.0582844" lon="11.9130624"><ele>475.0</ele><time>2026-04-02T10:27:04.784Z</time></trkpt><trkpt lat="46.058367" lon="11.91301"><ele>475.0</ele><time>2026-04-02T10:27:07.783Z</time></trkpt><trkpt lat="46.0584379" lon="11.9129615"><ele>475.0</ele><time>2026-04-02T10:27:10.785Z</time></trkpt><trkpt lat="46.0585031" lon="11.912904"><ele>475.00000000000006</ele><time>2026-04-02T10:27:14.785Z</time></trkpt><trkpt lat="46.0585656" lon="11.912861"><ele>475.0</ele><time>2026-04-02T10:27:17.783Z</time></trkpt><trkpt lat="46.0586349" lon="11.9128093"><ele>477.00000000000006</ele><time>2026-04-02T10:27:20.781Z</time></trkpt><trkpt lat="46.0586988" lon="11.9127513"><ele>479.0</ele><time>2026-04-02T10:27:23.784Z</time></trkpt><trkpt lat="46.0587644" lon="11.9127095"><ele>481.0</ele><time>2026-04-02T10:27:26.784Z</time></trkpt><trkpt lat="46.0588318" lon="11.9126673"><ele>483.0</ele><time>2026-04-02T10:27:29.783Z</time></trkpt><trkpt lat="46.0588894" lon="11.9125998"><ele>485.00000000000006</ele><time>2026-04-02T10:27:32.783Z</time></trkpt><trkpt lat="46.0589673" lon="11.9125456"><ele>487.0</ele><time>2026-04-02T10:27:35.784Z</time></trkpt><trkpt lat="46.0590422" lon="11.9125088"><ele>489.00000000000006</ele><time>2026-04-02T10:27:38.782Z</time></trkpt><trkpt lat="46.0591176" lon="11.9124849"><ele>491.0</ele><time>2026-04-02T10:27:41.785Z</time></trkpt><trkpt lat="46.0592029" lon="11.9124877"><ele>493.0</ele><time>2026-04-02T10:27:44.784Z</time></trkpt><trkpt lat="46.0592753" lon="11.9124987"><ele>495.0</ele><time>2026-04-02T10:27:47.784Z</time></trkpt><trkpt lat="46.0593383" lon="11.9124932"><ele>497.00000000000006</ele><time>2026-04-02T10:27:49.782Z</time></trkpt><trkpt lat="46.0594309" lon="11.9124894"><ele>499.0</ele><time>2026-04-02T10:27:52.783Z</time></trkpt><trkpt lat="46.0595921" lon="11.9124915"><ele>499.00000000000006</ele><time>2026-04-02T10:27:57.784Z</time></trkpt><trkpt lat="46.0596924" lon="11.9124925"><ele>499.0</ele><time>2026-04-02T10:28:00.782Z</time></trkpt><trkpt lat="46.0597608" lon="11.9125032"><ele>499.0</ele><time>2026-04-02T10:28:02.784Z</time></trkpt><trkpt lat="46.0598281" lon="11.9125145"><ele>499.0</ele><time>2026-04-02T10:28:04.784Z</time></trkpt><trkpt lat="46.0599043" lon="11.9125148"><ele>499.00000000000006</ele><time>2026-04-02T10:28:06.784Z</time></trkpt><trkpt lat="46.0599678" lon="11.9125272"><ele>499.0</ele><time>2026-04-02T10:28:08.782Z</time></trkpt><trkpt lat="46.0600627" lon="11.9125406"><ele>499.7142857142858</ele><time>2026-04-02T10:28:11.784Z</time></trkpt><trkpt lat="46.0601352" lon="11.9125472"><ele>500.42857142857144</ele><time>2026-04-02T10:28:13.783Z</time></trkpt><trkpt lat="46.0602112" lon="11.9125458"><ele>501.14285714285717</ele><time>2026-04-02T10:28:15.783Z</time></trkpt><trkpt lat="46.0602947" lon="11.9125582"><ele>501.8571428571429</ele><time>2026-04-02T10:28:18.784Z</time></trkpt><trkpt lat="46.0603608" lon="11.9125505"><ele>502.57142857142856</ele><time>2026-04-02T10:28:20.783Z</time></trkpt><trkpt lat="46.0604297" lon="11.9125491"><ele>503.2857142857143</ele><time>2026-04-02T10:28:22.784Z</time></trkpt><trkpt lat="46.0605056" lon="11.9125486"><ele>504.0</ele><time>2026-04-02T10:28:24.782Z</time></trkpt><trkpt lat="46.0605787" lon="11.9125336"><ele>504.0</ele><time>2026-04-02T10:28:26.783Z</time></trkpt><trkpt lat="46.0606428" lon="11.9124978"><ele>504.0</ele><time>2026-04-02T10:28:28.782Z</time></trkpt><trkpt lat="46.060703" lon="11.912432"><ele>504.0</ele><time>2026-04-02T10:28:30.783Z</time></trkpt><trkpt lat="46.0607462" lon="11.9123621"><ele>504.0</ele><time>2026-04-02T10:28:32.785Z</time></trkpt><trkpt lat="46.0607707" lon="11.9122432"><ele>504.0</ele><time>2026-04-02T10:28:35.784Z</time></trkpt><trkpt lat="46.0607705" lon="11.9121358"><ele>504.0</ele><time>2026-04-02T10:28:37.782Z</time></trkpt><trkpt lat="46.0607691" lon="11.9120156"><ele>504.0</ele><time>2026-04-02T10:28:39.784Z</time></trkpt><trkpt lat="46.0607699" lon="11.9119036"><ele>504.0</ele><time>2026-04-02T10:28:41.783Z</time></trkpt><trkpt lat="46.0607763" lon="11.911797"><ele>504.0</ele><time>2026-04-02T10:28:43.784Z</time></trkpt><trkpt lat="46.0607778" lon="11.9116822"><ele>504.0</ele><time>2026-04-02T10:28:45.783Z</time></trkpt><trkpt lat="46.0607775" lon="11.9115696"><ele>504.0</ele><time>2026-04-02T10:28:47.783Z</time></trkpt><trkpt lat="46.0607823" lon="11.9114579"><ele>504.0</ele><time>2026-04-02T10:28:49.785Z</time></trkpt><trkpt lat="46.0607845" lon="11.9113456"><ele>504.0</ele><time>2026-04-02T10:28:51.783Z</time></trkpt><trkpt lat="46.0607797" lon="11.9112374"><ele>504.0</ele><time>2026-04-02T10:28:53.787Z</time></trkpt><trkpt lat="46.0607786" lon="11.9111284"><ele>504.0</ele><time>2026-04-02T10:28:55.785Z</time></trkpt><trkpt lat="46.0607785" lon="11.9110256"><ele>504.0</ele><time>2026-04-02T10:28:57.785Z</time></trkpt><trkpt lat="46.0607799" lon="11.9109311"><ele>504.0</ele><time>2026-04-02T10:28:59.784Z</time></trkpt><trkpt lat="46.0607768" lon="11.9108347"><ele>504.0</ele><time>2026-04-02T10:29:01.783Z</time></trkpt><trkpt lat="46.0607676" lon="11.9107246"><ele>504.0</ele><time>2026-04-02T10:29:03.785Z</time></trkpt><trkpt lat="46.0607663" lon="11.9106196"><ele>503.79999999999995</ele><time>2026-04-02T10:29:05.784Z</time></trkpt><trkpt lat="46.0607758" lon="11.9105028"><ele>503.59999999999997</ele><time>2026-04-02T10:29:07.785Z</time></trkpt><trkpt lat="46.0607856" lon="11.9103804"><ele>503.4</ele><time>2026-04-02T10:29:09.784Z</time></trkpt><trkpt lat="46.0608134" lon="11.9102513"><ele>503.2</ele><time>2026-04-02T10:29:11.782Z</time></trkpt><trkpt lat="46.0608539" lon="11.9100931"><ele>503.0</ele><time>2026-04-02T10:29:13.784Z</time></trkpt><trkpt lat="46.0608998" lon="11.9099291"><ele>503.0</ele><time>2026-04-02T10:29:15.782Z</time></trkpt><trkpt lat="46.060958" lon="11.9097821"><ele>502.99999999999994</ele><time>2026-04-02T10:29:17.783Z</time></trkpt><trkpt lat="46.0609855" lon="11.9096998"><ele>502.99999999999994</ele><time>2026-04-02T10:29:18.783Z</time></trkpt><trkpt lat="46.0610164" lon="11.9096175"><ele>503.0</ele><time>2026-04-02T10:29:19.785Z</time></trkpt><trkpt lat="46.0610714" lon="11.9094659"><ele>503.0</ele><time>2026-04-02T10:29:21.784Z</time></trkpt><trkpt lat="46.0611338" lon="11.909316"><ele>502.3333333333333</ele><time>2026-04-02T10:29:23.892Z</time></trkpt><trkpt lat="46.0611952" lon="11.9091619"><ele>501.66666666666663</ele><time>2026-04-02T10:29:25.785Z</time></trkpt><trkpt lat="46.0612282" lon="11.9090834"><ele>501.0</ele><time>2026-04-02T10:29:26.783Z</time></trkpt><trkpt lat="46.0612586" lon="11.9089909"><ele>500.33333333333337</ele><time>2026-04-02T10:29:27.784Z</time></trkpt><trkpt lat="46.0612863" lon="11.9088899"><ele>499.6666666666667</ele><time>2026-04-02T10:29:28.784Z</time></trkpt><trkpt lat="46.0613119" lon="11.9087932"><ele>499.0</ele><time>2026-04-02T10:29:29.782Z</time></trkpt><trkpt lat="46.0613543" lon="11.9086326"><ele>499.0</ele><time>2026-04-02T10:29:31.784Z</time></trkpt><trkpt lat="46.0614046" lon="11.9084781"><ele>499.0</ele><time>2026-04-02T10:29:33.785Z</time></trkpt><trkpt lat="46.0614516" lon="11.908311"><ele>499.0</ele><time>2026-04-02T10:29:35.783Z</time></trkpt><trkpt lat="46.0614774" lon="11.9082205"><ele>499.0</ele><time>2026-04-02T10:29:36.782Z</time></trkpt><trkpt lat="46.0615018" lon="11.9081347"><ele>499.0</ele><time>2026-04-02T10:29:37.784Z</time></trkpt><trkpt lat="46.0615374" lon="11.9079667"><ele>498.25</ele><time>2026-04-02T10:29:39.783Z</time></trkpt><trkpt lat="46.0615701" lon="11.9078012"><ele>497.5</ele><time>2026-04-02T10:29:41.783Z</time></trkpt><trkpt lat="46.0616311" lon="11.907663"><ele>496.75</ele><time>2026-04-02T10:29:43.78Z</time></trkpt><trkpt lat="46.0616967" lon="11.9075267"><ele>496.0</ele><time>2026-04-02T10:29:45.781Z</time></trkpt><trkpt lat="46.0617552" lon="11.9074024"><ele>495.50000000000006</ele><time>2026-04-02T10:29:47.783Z</time></trkpt><trkpt lat="46.0618189" lon="11.9072887"><ele>495.0</ele><time>2026-04-02T10:29:49.783Z</time></trkpt><trkpt lat="46.0618784" lon="11.9072053"><ele>494.5</ele><time>2026-04-02T10:29:51.783Z</time></trkpt><trkpt lat="46.0619362" lon="11.9071361"><ele>494.0</ele><time>2026-04-02T10:29:53.782Z</time></trkpt><trkpt lat="46.0619954" lon="11.9070723"><ele>493.50000000000006</ele><time>2026-04-02T10:29:55.783Z</time></trkpt><trkpt lat="46.0620588" lon="11.9070082"><ele>493.0</ele><time>2026-04-02T10:29:57.784Z</time></trkpt><trkpt lat="46.0621174" lon="11.9069484"><ele>493.00000000000006</ele><time>2026-04-02T10:29:59.784Z</time></trkpt><trkpt lat="46.0621671" lon="11.9068869"><ele>493.0</ele><time>2026-04-02T10:30:01.78Z</time></trkpt><trkpt lat="46.0622097" lon="11.9068166"><ele>493.0</ele><time>2026-04-02T10:30:03.783Z</time></trkpt><trkpt lat="46.062254" lon="11.9067018"><ele>493.0</ele><time>2026-04-02T10:30:06.784Z</time></trkpt><trkpt lat="46.0622631" lon="11.9065716"><ele>493.00000000000006</ele><time>2026-04-02T10:30:09.784Z</time></trkpt><trkpt lat="46.0622752" lon="11.9064425"><ele>493.0</ele><time>2026-04-02T10:30:12.784Z</time></trkpt><trkpt lat="46.0622689" lon="11.9063471"><ele>493.2857142857143</ele><time>2026-04-02T10:30:14.784Z</time></trkpt><trkpt lat="46.0622551" lon="11.9062488"><ele>493.57142857142856</ele><time>2026-04-02T10:30:16.785Z</time></trkpt><trkpt lat="46.0622423" lon="11.9061561"><ele>493.85714285714283</ele><time>2026-04-02T10:30:18.783Z</time></trkpt><trkpt lat="46.0622317" lon="11.9060661"><ele>494.1428571428571</ele><time>2026-04-02T10:30:20.785Z</time></trkpt><trkpt lat="46.0622193" lon="11.9059662"><ele>494.42857142857144</ele><time>2026-04-02T10:30:22.782Z</time></trkpt><trkpt lat="46.062219" lon="11.9058351"><ele>494.71428571428567</ele><time>2026-04-02T10:30:25.785Z</time></trkpt><trkpt lat="46.0622324" lon="11.9057285"><ele>494.99999999999994</ele><time>2026-04-02T10:30:27.783Z</time></trkpt><trkpt lat="46.0622603" lon="11.9056291"><ele>496.8333333333333</ele><time>2026-04-02T10:30:29.783Z</time></trkpt><trkpt lat="46.0622906" lon="11.9055492"><ele>498.66666666666663</ele><time>2026-04-02T10:30:31.783Z</time></trkpt><trkpt lat="46.0623342" lon="11.9054379"><ele>500.5</ele><time>2026-04-02T10:30:34.784Z</time></trkpt><trkpt lat="46.0623733" lon="11.9053543"><ele>502.3333333333333</ele><time>2026-04-02T10:30:36.781Z</time></trkpt><trkpt lat="46.0624155" lon="11.9052855"><ele>504.16666666666663</ele><time>2026-04-02T10:30:38.783Z</time></trkpt><trkpt lat="46.0624796" lon="11.9051954"><ele>506.0</ele><time>2026-04-02T10:30:41.781Z</time></trkpt><trkpt lat="46.0625269" lon="11.9051097"><ele>507.3333333333333</ele><time>2026-04-02T10:30:44.78Z</time></trkpt><trkpt lat="46.0625673" lon="11.9049997"><ele>508.66666666666663</ele><time>2026-04-02T10:30:48.781Z</time></trkpt><trkpt lat="46.0626184" lon="11.9048911"><ele>510.0</ele><time>2026-04-02T10:30:52.781Z</time></trkpt><trkpt lat="46.0626723" lon="11.9048266"><ele>511.33333333333337</ele><time>2026-04-02T10:30:56.783Z</time></trkpt><trkpt lat="46.0627172" lon="11.9047556"><ele>512.6666666666667</ele><time>2026-04-02T10:30:59.78Z</time></trkpt><trkpt lat="46.0627618" lon="11.9046508"><ele>514.0</ele><time>2026-04-02T10:31:02.783Z</time></trkpt><trkpt lat="46.0628124" lon="11.9045472"><ele>514.0</ele><time>2026-04-02T10:31:05.783Z</time></trkpt><trkpt lat="46.0628626" lon="11.9044414"><ele>514.0</ele><time>2026-04-02T10:31:08.784Z</time></trkpt><trkpt lat="46.0629118" lon="11.9043469"><ele>514.0</ele><time>2026-04-02T10:31:11.784Z</time></trkpt><trkpt lat="46.0629535" lon="11.9042765"><ele>514.0</ele><time>2026-04-02T10:31:13.781Z</time></trkpt><trkpt lat="46.0630115" lon="11.904175"><ele>514.0</ele><time>2026-04-02T10:31:16.785Z</time></trkpt><trkpt lat="46.063075" lon="11.9040793"><ele>514.0</ele><time>2026-04-02T10:31:19.783Z</time></trkpt><trkpt lat="46.0631391" lon="11.9039918"><ele>514.1666666666667</ele><time>2026-04-02T10:31:22.784Z</time></trkpt><trkpt lat="46.0631942" lon="11.9038949"><ele>514.3333333333334</ele><time>2026-04-02T10:31:25.782Z</time></trkpt><trkpt lat="46.0632386" lon="11.9038279"><ele>514.5</ele><time>2026-04-02T10:31:27.782Z</time></trkpt><trkpt lat="46.063287" lon="11.903757"><ele>514.6666666666666</ele><time>2026-04-02T10:31:29.784Z</time></trkpt><trkpt lat="46.0633553" lon="11.903662"><ele>514.8333333333333</ele><time>2026-04-02T10:31:32.783Z</time></trkpt><trkpt lat="46.063402" lon="11.903599"><ele>515.0</ele><time>2026-04-02T10:31:34.784Z</time></trkpt><trkpt lat="46.0634674" lon="11.9035067"><ele>516.5</ele><time>2026-04-02T10:31:37.784Z</time></trkpt><trkpt lat="46.0635287" lon="11.9034104"><ele>518.0</ele><time>2026-04-02T10:31:40.784Z</time></trkpt><trkpt lat="46.0635985" lon="11.9033208"><ele>519.5</ele><time>2026-04-02T10:31:43.782Z</time></trkpt><trkpt lat="46.0636412" lon="11.9032489"><ele>521.0</ele><time>2026-04-02T10:31:45.783Z</time></trkpt><trkpt lat="46.0636842" lon="11.9031802"><ele>522.5</ele><time>2026-04-02T10:31:47.783Z</time></trkpt><trkpt lat="46.0637412" lon="11.9030957"><ele>524.0</ele><time>2026-04-02T10:31:50.784Z</time></trkpt><trkpt lat="46.0638005" lon="11.9029986"><ele>524.0</ele><time>2026-04-02T10:31:53.784Z</time></trkpt><trkpt lat="46.0638613" lon="11.9029081"><ele>524.0</ele><time>2026-04-02T10:31:56.784Z</time></trkpt><trkpt lat="46.0639323" lon="11.902832"><ele>524.0</ele><time>2026-04-02T10:31:59.782Z</time></trkpt><trkpt lat="46.0640127" lon="11.9027754"><ele>524.0</ele><time>2026-04-02T10:32:02.785Z</time></trkpt><trkpt lat="46.0641037" lon="11.902753"><ele>524.0</ele><time>2026-04-02T10:32:05.783Z</time></trkpt><trkpt lat="46.0641809" lon="11.9027433"><ele>524.0</ele><time>2026-04-02T10:32:07.782Z</time></trkpt><trkpt lat="46.0642556" lon="11.902726"><ele>526.5</ele><time>2026-04-02T10:32:10.782Z</time></trkpt><trkpt lat="46.0643178" lon="11.9027616"><ele>529.0</ele><time>2026-04-02T10:32:13.782Z</time></trkpt><trkpt lat="46.0643681" lon="11.9028536"><ele>531.5</ele><time>2026-04-02T10:32:16.784Z</time></trkpt><trkpt lat="46.0644468" lon="11.9029115"><ele>534.0</ele><time>2026-04-02T10:32:19.785Z</time></trkpt><trkpt lat="46.0645085" lon="11.9029335"><ele>536.5</ele><time>2026-04-02T10:32:21.785Z</time></trkpt><trkpt lat="46.064572" lon="11.902976"><ele>539.0</ele><time>2026-04-02T10:32:23.783Z</time></trkpt><trkpt lat="46.0646521" lon="11.9030415"><ele>539.0</ele><time>2026-04-02T10:32:26.784Z</time></trkpt><trkpt lat="46.0647147" lon="11.9030719"><ele>539.0</ele><time>2026-04-02T10:32:28.784Z</time></trkpt><trkpt lat="46.0647732" lon="11.9031117"><ele>539.0</ele><time>2026-04-02T10:32:30.78Z</time></trkpt><trkpt lat="46.0648317" lon="11.9031498"><ele>539.0</ele><time>2026-04-02T10:32:32.785Z</time></trkpt><trkpt lat="46.0648987" lon="11.9031866"><ele>539.0</ele><time>2026-04-02T10:32:34.784Z</time></trkpt><trkpt lat="46.0649614" lon="11.9032238"><ele>539.0</ele><time>2026-04-02T10:32:36.785Z</time></trkpt><trkpt lat="46.0650394" lon="11.9032621"><ele>539.0</ele><time>2026-04-02T10:32:38.784Z</time></trkpt><trkpt lat="46.0651085" lon="11.9033141"><ele>538.5714285714286</ele><time>2026-04-02T10:32:40.783Z</time></trkpt><trkpt lat="46.0651743" lon="11.9033574"><ele>538.1428571428571</ele><time>2026-04-02T10:32:42.782Z</time></trkpt><trkpt lat="46.0652378" lon="11.9034156"><ele>537.7142857142858</ele><time>2026-04-02T10:32:44.783Z</time></trkpt><trkpt lat="46.0653031" lon="11.9034758"><ele>537.2857142857142</ele><time>2026-04-02T10:32:46.782Z</time></trkpt><trkpt lat="46.0653773" lon="11.9035203"><ele>536.8571428571429</ele><time>2026-04-02T10:32:48.782Z</time></trkpt><trkpt lat="46.0654279" lon="11.9035743"><ele>536.4285714285714</ele><time>2026-04-02T10:32:50.784Z</time></trkpt><trkpt lat="46.0655015" lon="11.9036153"><ele>536.0</ele><time>2026-04-02T10:32:54.784Z</time></trkpt><trkpt lat="46.065567" lon="11.9036034"><ele>535.0</ele><time>2026-04-02T10:32:56.783Z</time></trkpt><trkpt lat="46.0656443" lon="11.9035894"><ele>534.0</ele><time>2026-04-02T10:32:58.782Z</time></trkpt><trkpt lat="46.0657127" lon="11.9035777"><ele>533.0</ele><time>2026-04-02T10:33:00.783Z</time></trkpt><trkpt lat="46.0657977" lon="11.9035776"><ele>532.0</ele><time>2026-04-02T10:33:03.784Z</time></trkpt><trkpt lat="46.0658777" lon="11.9036226"><ele>531.0</ele><time>2026-04-02T10:33:06.783Z</time></trkpt><trkpt lat="46.0659087" lon="11.9037404"><ele>530.0</ele><time>2026-04-02T10:33:09.784Z</time></trkpt><trkpt lat="46.0659302" lon="11.9038334"><ele>529.9999999999999</ele><time>2026-04-02T10:33:11.782Z</time></trkpt><trkpt lat="46.0659591" lon="11.9039262"><ele>530.0</ele><time>2026-04-02T10:33:13.784Z</time></trkpt><trkpt lat="46.0660018" lon="11.9040126"><ele>530.0</ele><time>2026-04-02T10:33:15.782Z</time></trkpt><trkpt lat="46.0660411" lon="11.9041027"><ele>530.0</ele><time>2026-04-02T10:33:17.781Z</time></trkpt><trkpt lat="46.0660881" lon="11.9041839"><ele>530.0</ele><time>2026-04-02T10:33:19.785Z</time></trkpt><trkpt lat="46.0661476" lon="11.9042568"><ele>529.9999999999999</ele><time>2026-04-02T10:33:21.784Z</time></trkpt><trkpt lat="46.0661998" lon="11.9043196"><ele>530.0</ele><time>2026-04-02T10:33:23.785Z</time></trkpt><trkpt lat="46.0662509" lon="11.9043863"><ele>530.0</ele><time>2026-04-02T10:33:25.782Z</time></trkpt><trkpt lat="46.0662975" lon="11.9044675"><ele>530.0</ele><time>2026-04-02T10:33:27.78Z</time></trkpt><trkpt lat="46.0663349" lon="11.9045415"><ele>530.0</ele><time>2026-04-02T10:33:29.783Z</time></trkpt><trkpt lat="46.0663906" lon="11.9046115"><ele>530.0</ele><time>2026-04-02T10:33:33.784Z</time></trkpt><trkpt lat="46.0664864" lon="11.9045852"><ele>530.0</ele><time>2026-04-02T10:33:37.784Z</time></trkpt><trkpt lat="46.066564" lon="11.9045943"><ele>530.0</ele><time>2026-04-02T10:33:39.784Z</time></trkpt><trkpt lat="46.0666282" lon="11.9046057"><ele>529.9999999999999</ele><time>2026-04-02T10:33:41.782Z</time></trkpt><trkpt lat="46.0666009" lon="11.9046993"><ele>530.0</ele><time>2026-04-02T10:33:48.783Z</time></trkpt><trkpt lat="46.0665362" lon="11.9047199"><ele>530.0</ele><time>2026-04-02T10:33:51.781Z</time></trkpt><trkpt lat="46.0665164" lon="11.9048064"><ele>530.0</ele><time>2026-04-02T10:33:55.784Z</time></trkpt><trkpt lat="46.0665762" lon="11.9048646"><ele>530.0</ele><time>2026-04-02T10:33:58.784Z</time></trkpt><trkpt lat="46.0666163" lon="11.9049633"><ele>529.9999999999999</ele><time>2026-04-02T10:34:03.783Z</time></trkpt><trkpt lat="46.0666198" lon="11.9050687"><ele>530.0</ele><time>2026-04-02T10:34:07.785Z</time></trkpt><trkpt lat="46.0666108" lon="11.9051721"><ele>527.6666666666666</ele><time>2026-04-02T10:34:10.783Z</time></trkpt><trkpt lat="46.0666377" lon="11.9052571"><ele>525.3333333333333</ele><time>2026-04-02T10:34:12.784Z</time></trkpt><trkpt lat="46.0666831" lon="11.9053548"><ele>523.0</ele><time>2026-04-02T10:34:15.783Z</time></trkpt><trkpt lat="46.0667511" lon="11.9054066"><ele>520.6666666666666</ele><time>2026-04-02T10:34:19.784Z</time></trkpt><trkpt lat="46.0668086" lon="11.9054597"><ele>518.3333333333334</ele><time>2026-04-02T10:34:24.784Z</time></trkpt><trkpt lat="46.0668899" lon="11.9053865"><ele>516.0</ele><time>2026-04-02T10:34:29.785Z</time></trkpt><trkpt lat="46.0669621" lon="11.9053413"><ele>516.0</ele><time>2026-04-02T10:34:32.783Z</time></trkpt><trkpt lat="46.0670146" lon="11.9052814"><ele>516.0</ele><time>2026-04-02T10:34:38.784Z</time></trkpt><trkpt lat="46.0670793" lon="11.9052571"><ele>516.0</ele><time>2026-04-02T10:34:41.783Z</time></trkpt><trkpt lat="46.0671445" lon="11.9052277"><ele>516.0</ele><time>2026-04-02T10:34:43.784Z</time></trkpt><trkpt lat="46.0672124" lon="11.9051862"><ele>516.0</ele><time>2026-04-02T10:34:45.784Z</time></trkpt><trkpt lat="46.0672916" lon="11.9051266"><ele>516.0</ele><time>2026-04-02T10:34:48.784Z</time></trkpt><trkpt lat="46.0673789" lon="11.9050548"><ele>516.5</ele><time>2026-04-02T10:34:51.785Z</time></trkpt><trkpt lat="46.0674461" lon="11.9049869"><ele>517.0</ele><time>2026-04-02T10:34:54.785Z</time></trkpt><trkpt lat="46.0675207" lon="11.904946"><ele>517.5</ele><time>2026-04-02T10:34:57.785Z</time></trkpt><trkpt lat="46.0675967" lon="11.9049213"><ele>518.0</ele><time>2026-04-02T10:34:59.784Z</time></trkpt><trkpt lat="46.0676833" lon="11.9049215"><ele>518.5</ele><time>2026-04-02T10:35:01.783Z</time></trkpt><trkpt lat="46.0677645" lon="11.9049371"><ele>519.0</ele><time>2026-04-02T10:35:03.784Z</time></trkpt><trkpt lat="46.0678337" lon="11.9049121"><ele>519.0</ele><time>2026-04-02T10:35:06.782Z</time></trkpt><trkpt lat="46.0679095" lon="11.904875"><ele>519.0</ele><time>2026-04-02T10:35:09.784Z</time></trkpt><trkpt lat="46.0679821" lon="11.9048365"><ele>519.0</ele><time>2026-04-02T10:35:11.783Z</time></trkpt><trkpt lat="46.0680506" lon="11.9047892"><ele>519.0</ele><time>2026-04-02T10:35:14.784Z</time></trkpt><trkpt lat="46.0681357" lon="11.9047401"><ele>519.0</ele><time>2026-04-02T10:35:17.785Z</time></trkpt><trkpt lat="46.0682355" lon="11.904687"><ele>519.0</ele><time>2026-04-02T10:35:19.782Z</time></trkpt><trkpt lat="46.0683209" lon="11.9046301"><ele>516.6666666666666</ele><time>2026-04-02T10:35:21.782Z</time></trkpt><trkpt lat="46.0683928" lon="11.9045782"><ele>514.3333333333334</ele><time>2026-04-02T10:35:23.782Z</time></trkpt><trkpt lat="46.0684682" lon="11.9045079"><ele>512.0</ele><time>2026-04-02T10:35:26.783Z</time></trkpt><trkpt lat="46.0685519" lon="11.9044455"><ele>509.6666666666667</ele><time>2026-04-02T10:35:28.783Z</time></trkpt><trkpt lat="46.0686217" lon="11.9043951"><ele>507.33333333333337</ele><time>2026-04-02T10:35:30.784Z</time></trkpt><trkpt lat="46.0686917" lon="11.9043637"><ele>505.0</ele><time>2026-04-02T10:35:32.785Z</time></trkpt><trkpt lat="46.0687651" lon="11.9043162"><ele>505.0</ele><time>2026-04-02T10:35:34.784Z</time></trkpt><trkpt lat="46.0688291" lon="11.904274"><ele>504.99999999999994</ele><time>2026-04-02T10:35:35.782Z</time></trkpt><trkpt lat="46.0689193" lon="11.9041966"><ele>505.0</ele><time>2026-04-02T10:35:37.784Z</time></trkpt><trkpt lat="46.0689807" lon="11.9041492"><ele>505.0</ele><time>2026-04-02T10:35:39.783Z</time></trkpt><trkpt lat="46.0690385" lon="11.904087"><ele>504.99999999999994</ele><time>2026-04-02T10:35:41.784Z</time></trkpt><trkpt lat="46.0690855" lon="11.9040258"><ele>505.0</ele><time>2026-04-02T10:35:43.781Z</time></trkpt><trkpt lat="46.0691447" lon="11.9039769"><ele>505.0</ele><time>2026-04-02T10:35:46.784Z</time></trkpt><trkpt lat="46.0692077" lon="11.9039433"><ele>503.83333333333337</ele><time>2026-04-02T10:35:48.783Z</time></trkpt><trkpt lat="46.0692788" lon="11.9039337"><ele>502.6666666666667</ele><time>2026-04-02T10:35:50.782Z</time></trkpt><trkpt lat="46.0693537" lon="11.9039615"><ele>501.5</ele><time>2026-04-02T10:35:53.784Z</time></trkpt><trkpt lat="46.0693175" lon="11.9040535"><ele>500.33333333333337</ele><time>2026-04-02T10:35:58.784Z</time></trkpt><trkpt lat="46.0692602" lon="11.9041377"><ele>499.1666666666667</ele><time>2026-04-02T10:36:02.785Z</time></trkpt><trkpt lat="46.0692096" lon="11.9041976"><ele>498.0</ele><time>2026-04-02T10:36:04.782Z</time></trkpt><trkpt lat="46.0691398" lon="11.9042692"><ele>499.1666666666667</ele><time>2026-04-02T10:36:06.785Z</time></trkpt><trkpt lat="46.0690753" lon="11.9043341"><ele>500.33333333333337</ele><time>2026-04-02T10:36:08.784Z</time></trkpt><trkpt lat="46.0690125" lon="11.9043951"><ele>501.5</ele><time>2026-04-02T10:36:10.784Z</time></trkpt><trkpt lat="46.0689412" lon="11.9044779"><ele>502.6666666666667</ele><time>2026-04-02T10:36:12.784Z</time></trkpt><trkpt lat="46.0688773" lon="11.9045356"><ele>503.83333333333337</ele><time>2026-04-02T10:36:14.784Z</time></trkpt><trkpt lat="46.0688168" lon="11.9046043"><ele>505.0</ele><time>2026-04-02T10:36:16.784Z</time></trkpt><trkpt lat="46.0687575" lon="11.9047008"><ele>505.0</ele><time>2026-04-02T10:36:19.783Z</time></trkpt><trkpt lat="46.0687303" lon="11.9048083"><ele>505.0</ele><time>2026-04-02T10:36:21.783Z</time></trkpt><trkpt lat="46.0686844" lon="11.9049102"><ele>505.0</ele><time>2026-04-02T10:36:23.785Z</time></trkpt><trkpt lat="46.0686173" lon="11.9050161"><ele>505.0</ele><time>2026-04-02T10:36:25.781Z</time></trkpt><trkpt lat="46.0685394" lon="11.9051181"><ele>505.0</ele><time>2026-04-02T10:36:27.784Z</time></trkpt><trkpt lat="46.0684602" lon="11.9051764"><ele>503.1666666666667</ele><time>2026-04-02T10:36:29.784Z</time></trkpt><trkpt lat="46.0683885" lon="11.9052285"><ele>501.33333333333337</ele><time>2026-04-02T10:36:31.784Z</time></trkpt><trkpt lat="46.0683184" lon="11.9052821"><ele>499.5</ele><time>2026-04-02T10:36:33.784Z</time></trkpt><trkpt lat="46.0682268" lon="11.9053228"><ele>497.66666666666663</ele><time>2026-04-02T10:36:35.784Z</time></trkpt><trkpt lat="46.0681382" lon="11.9053735"><ele>495.8333333333333</ele><time>2026-04-02T10:36:37.784Z</time></trkpt><trkpt lat="46.0680608" lon="11.9054523"><ele>494.0</ele><time>2026-04-02T10:36:39.783Z</time></trkpt><trkpt lat="46.068008" lon="11.9055248"><ele>494.0</ele><time>2026-04-02T10:36:41.784Z</time></trkpt><trkpt lat="46.0679703" lon="11.9056074"><ele>494.0</ele><time>2026-04-02T10:36:43.784Z</time></trkpt><trkpt lat="46.0688773" lon="11.9045356"><ele>495.8333333333333</ele><time>2026-04-02T10:36:14.784Z</time></trkpt><trkpt lat="46.0688168" lon="11.9046043"><ele>497.66666666666663</ele><time>2026-04-02T10:36:16.784Z</time></trkpt><trkpt lat="46.0687575" lon="11.9047008"><ele>499.5</ele><time>2026-04-02T10:36:19.783Z</time></trkpt><trkpt lat="46.0687303" lon="11.9048083"><ele>501.33333333333337</ele><time>2026-04-02T10:36:21.783Z</time></trkpt><trkpt lat="46.0686844" lon="11.9049102"><ele>503.1666666666667</ele><time>2026-04-02T10:36:23.785Z</time></trkpt><trkpt lat="46.0686173" lon="11.9050161"><ele>505.0</ele><time>2026-04-02T10:36:25.781Z</time></trkpt><trkpt lat="46.0685394" lon="11.9051181"><ele>503.1666666666667</ele><time>2026-04-02T10:36:27.784Z</time></trkpt><trkpt lat="46.0684602" lon="11.9051764"><ele>501.33333333333337</ele><time>2026-04-02T10:36:29.784Z</time></trkpt><trkpt lat="46.0683885" lon="11.9052285"><ele>499.5</ele><time>2026-04-02T10:36:31.784Z</time></trkpt><trkpt lat="46.0683184" lon="11.9052821"><ele>497.66666666666663</ele><time>2026-04-02T10:36:33.784Z</time></trkpt><trkpt lat="46.0682268" lon="11.9053228"><ele>495.8333333333333</ele><time>2026-04-02T10:36:35.784Z</time></trkpt><trkpt lat="46.0681382" lon="11.9053735"><ele>494.0</ele><time>2026-04-02T10:36:37.784Z</time></trkpt><trkpt lat="46.0680608" lon="11.9054523"><ele>493.99999999999994</ele><time>2026-04-02T10:36:39.783Z</time></trkpt><trkpt lat="46.068008" lon="11.9055248"><ele>494.0</ele><time>2026-04-02T10:36:41.784Z</time></trkpt><trkpt lat="46.0679703" lon="11.9056074"><ele>494.0</ele><time>2026-04-02T10:36:43.784Z</time></trkpt><trkpt lat="46.0679218" lon="11.9056722"><ele>494.0</ele><time>2026-04-02T10:36:45.781Z</time></trkpt><trkpt lat="46.067866" lon="11.905764"><ele>493.99999999999994</ele><time>2026-04-02T10:36:47.784Z</time></trkpt><trkpt lat="46.0678046" lon="11.9058649"><ele>494.0</ele><time>2026-04-02T10:36:49.783Z</time></trkpt><trkpt lat="46.0677335" lon="11.9059801"><ele>495.49999999999994</ele><time>2026-04-02T10:36:51.782Z</time></trkpt><trkpt lat="46.0676654" lon="11.9060592"><ele>497.0</ele><time>2026-04-02T10:36:53.784Z</time></trkpt><trkpt lat="46.06756" lon="11.9061645"><ele>498.5</ele><time>2026-04-02T10:36:55.784Z</time></trkpt><trkpt lat="46.0675051" lon="11.9062118"><ele>500.0</ele><time>2026-04-02T10:36:56.784Z</time></trkpt><trkpt lat="46.0674389" lon="11.906263"><ele>501.49999999999994</ele><time>2026-04-02T10:36:58.784Z</time></trkpt><trkpt lat="46.0673575" lon="11.9063181"><ele>503.0</ele><time>2026-04-02T10:37:00.784Z</time></trkpt><trkpt lat="46.0672956" lon="11.9063881"><ele>503.0</ele><time>2026-04-02T10:37:02.784Z</time></trkpt><trkpt lat="46.067282" lon="11.9064936"><ele>503.00000000000006</ele><time>2026-04-02T10:37:05.784Z</time></trkpt><trkpt lat="46.067302" lon="11.9066134"><ele>503.0</ele><time>2026-04-02T10:37:08.784Z</time></trkpt><trkpt lat="46.0673141" lon="11.9067182"><ele>503.0</ele><time>2026-04-02T10:37:10.781Z</time></trkpt><trkpt lat="46.0673327" lon="11.9068127"><ele>503.00000000000006</ele><time>2026-04-02T10:37:12.887Z</time></trkpt><trkpt lat="46.0673345" lon="11.9069093"><ele>503.0</ele><time>2026-04-02T10:37:14.784Z</time></trkpt><trkpt lat="46.0673243" lon="11.9070026"><ele>503.0</ele><time>2026-04-02T10:37:16.782Z</time></trkpt><trkpt lat="46.067293" lon="11.9071074"><ele>501.66666666666663</ele><time>2026-04-02T10:37:19.783Z</time></trkpt><trkpt lat="46.0672576" lon="11.9071872"><ele>500.3333333333333</ele><time>2026-04-02T10:37:22.783Z</time></trkpt><trkpt lat="46.0672135" lon="11.907272"><ele>499.0</ele><time>2026-04-02T10:37:26.783Z</time></trkpt><trkpt lat="46.0671594" lon="11.9073573"><ele>497.66666666666663</ele><time>2026-04-02T10:37:28.784Z</time></trkpt><trkpt lat="46.0671019" lon="11.9074426"><ele>496.3333333333333</ele><time>2026-04-02T10:37:30.784Z</time></trkpt><trkpt lat="46.0670517" lon="11.9075149"><ele>495.0</ele><time>2026-04-02T10:37:32.784Z</time></trkpt><trkpt lat="46.0669904" lon="11.9075849"><ele>495.0</ele><time>2026-04-02T10:37:34.784Z</time></trkpt><trkpt lat="46.0669424" lon="11.9076509"><ele>495.0</ele><time>2026-04-02T10:37:36.784Z</time></trkpt><trkpt lat="46.0668803" lon="11.9077217"><ele>495.0</ele><time>2026-04-02T10:37:39.783Z</time></trkpt><trkpt lat="46.0668314" lon="11.9078302"><ele>495.0</ele><time>2026-04-02T10:37:43.78Z</time></trkpt><trkpt lat="46.0667843" lon="11.9079378"><ele>495.0</ele><time>2026-04-02T10:37:47.782Z</time></trkpt><trkpt lat="46.066744" lon="11.908015"><ele>495.0</ele><time>2026-04-02T10:37:49.782Z</time></trkpt><trkpt lat="46.0667192" lon="11.9081265"><ele>495.0</ele><time>2026-04-02T10:37:56.782Z</time></trkpt><trkpt lat="46.066718" lon="11.9082299"><ele>495.0</ele><time>2026-04-02T10:37:59.785Z</time></trkpt><trkpt lat="46.0667294" lon="11.9083423"><ele>495.0</ele><time>2026-04-02T10:38:03.785Z</time></trkpt><trkpt lat="46.0667204" lon="11.9084816"><ele>495.0</ele><time>2026-04-02T10:38:06.783Z</time></trkpt><trkpt lat="46.0667285" lon="11.9085766"><ele>495.0</ele><time>2026-04-02T10:38:09.784Z</time></trkpt><trkpt lat="46.0667604" lon="11.9086985"><ele>495.0</ele><time>2026-04-02T10:38:13.782Z</time></trkpt><trkpt lat="46.066783" lon="11.9088245"><ele>494.3333333333333</ele><time>2026-04-02T10:38:15.784Z</time></trkpt><trkpt lat="46.0668177" lon="11.9089502"><ele>493.66666666666663</ele><time>2026-04-02T10:38:17.784Z</time></trkpt><trkpt lat="46.0668199" lon="11.9090792"><ele>493.0</ele><time>2026-04-02T10:38:19.78Z</time></trkpt><trkpt lat="46.0668247" lon="11.9092097"><ele>492.3333333333333</ele><time>2026-04-02T10:38:21.784Z</time></trkpt><trkpt lat="46.0668344" lon="11.9093214"><ele>491.66666666666663</ele><time>2026-04-02T10:38:24.785Z</time></trkpt><trkpt lat="46.0668445" lon="11.9094394"><ele>491.0</ele><time>2026-04-02T10:38:27.784Z</time></trkpt><trkpt lat="46.0668528" lon="11.909565"><ele>490.99999999999994</ele><time>2026-04-02T10:38:30.784Z</time></trkpt><trkpt lat="46.0668874" lon="11.9096498"><ele>491.0</ele><time>2026-04-02T10:38:32.785Z</time></trkpt><trkpt lat="46.0669298" lon="11.9097399"><ele>491.0</ele><time>2026-04-02T10:38:43.784Z</time></trkpt><trkpt lat="46.0669729" lon="11.9098307"><ele>491.0</ele><time>2026-04-02T10:38:46.784Z</time></trkpt><trkpt lat="46.0670227" lon="11.9099139"><ele>490.99999999999994</ele><time>2026-04-02T10:38:48.784Z</time></trkpt><trkpt lat="46.067065" lon="11.9100214"><ele>491.0</ele><time>2026-04-02T10:38:50.784Z</time></trkpt><trkpt lat="46.0670938" lon="11.9101328"><ele>489.99999999999994</ele><time>2026-04-02T10:38:52.784Z</time></trkpt><trkpt lat="46.0671113" lon="11.9102579"><ele>489.0</ele><time>2026-04-02T10:39:02.785Z</time></trkpt><trkpt lat="46.067113" lon="11.9103897"><ele>488.0</ele><time>2026-04-02T10:39:05.784Z</time></trkpt><trkpt lat="46.0671357" lon="11.9104975"><ele>487.0</ele><time>2026-04-02T10:39:08.784Z</time></trkpt><trkpt lat="46.0671409" lon="11.9105893"><ele>485.99999999999994</ele><time>2026-04-02T10:39:11.785Z</time></trkpt><trkpt lat="46.0671033" lon="11.9106826"><ele>485.0</ele><time>2026-04-02T10:39:13.785Z</time></trkpt><trkpt lat="46.0670843" lon="11.9108108"><ele>485.00000000000006</ele><time>2026-04-02T10:39:16.784Z</time></trkpt><trkpt lat="46.0670598" lon="11.9109016"><ele>485.0</ele><time>2026-04-02T10:39:18.785Z</time></trkpt><trkpt lat="46.0670285" lon="11.910982"><ele>485.00000000000006</ele><time>2026-04-02T10:39:20.786Z</time></trkpt><trkpt lat="46.0669895" lon="11.9111047"><ele>485.00000000000006</ele><time>2026-04-02T10:39:23.783Z</time></trkpt><trkpt lat="46.0669538" lon="11.9112138"><ele>485.0</ele><time>2026-04-02T10:39:25.785Z</time></trkpt><trkpt lat="46.0669334" lon="11.911316"><ele>485.00000000000006</ele><time>2026-04-02T10:39:27.786Z</time></trkpt><trkpt lat="46.0669074" lon="11.9114027"><ele>485.00000000000006</ele><time>2026-04-02T10:39:29.784Z</time></trkpt><trkpt lat="46.0668825" lon="11.9115068"><ele>484.66666666666663</ele><time>2026-04-02T10:39:32.785Z</time></trkpt><trkpt lat="46.0668234" lon="11.9116216"><ele>484.3333333333333</ele><time>2026-04-02T10:39:34.783Z</time></trkpt><trkpt lat="46.0667672" lon="11.9117082"><ele>484.0</ele><time>2026-04-02T10:39:36.784Z</time></trkpt><trkpt lat="46.0667188" lon="11.9117796"><ele>483.66666666666663</ele><time>2026-04-02T10:39:38.786Z</time></trkpt><trkpt lat="46.0666716" lon="11.9118921"><ele>483.3333333333333</ele><time>2026-04-02T10:39:41.785Z</time></trkpt><trkpt lat="46.0666382" lon="11.9119701"><ele>483.0</ele><time>2026-04-02T10:39:43.785Z</time></trkpt><trkpt lat="46.0665958" lon="11.9120735"><ele>483.0</ele><time>2026-04-02T10:39:45.784Z</time></trkpt><trkpt lat="46.066571" lon="11.9121904"><ele>483.0</ele><time>2026-04-02T10:39:47.785Z</time></trkpt><trkpt lat="46.0666239" lon="11.9122773"><ele>483.0</ele><time>2026-04-02T10:39:56.786Z</time></trkpt><trkpt lat="46.0667166" lon="11.9122474"><ele>483.0</ele><time>2026-04-02T10:39:58.781Z</time></trkpt><trkpt lat="46.0667834" lon="11.9121959"><ele>483.0</ele><time>2026-04-02T10:40:00.783Z</time></trkpt><trkpt lat="46.0667828" lon="11.9122909"><ele>483.0</ele><time>2026-04-02T10:40:12.783Z</time></trkpt><trkpt lat="46.0667922" lon="11.9123829"><ele>478.0</ele><time>2026-04-02T10:40:16.784Z</time></trkpt><trkpt lat="46.0667763" lon="11.9124783"><ele>473.0</ele><time>2026-04-02T10:40:19.784Z</time></trkpt><trkpt lat="46.0668108" lon="11.9125743"><ele>468.0</ele><time>2026-04-02T10:40:23.783Z</time></trkpt><trkpt lat="46.0668313" lon="11.9126615"><ele>463.0</ele><time>2026-04-02T10:40:26.784Z</time></trkpt><trkpt lat="46.0668193" lon="11.9127565"><ele>458.0</ele><time>2026-04-02T10:40:29.785Z</time></trkpt><trkpt lat="46.0667936" lon="11.9128866"><ele>453.0</ele><time>2026-04-02T10:40:32.785Z</time></trkpt><trkpt lat="46.066781" lon="11.9129876"><ele>448.0</ele><time>2026-04-02T10:40:34.782Z</time></trkpt><trkpt lat="46.0667539" lon="11.9130711"><ele>445.6666666666667</ele><time>2026-04-02T10:40:36.783Z</time></trkpt><trkpt lat="46.0667267" lon="11.9132052"><ele>443.33333333333337</ele><time>2026-04-02T10:40:39.785Z</time></trkpt><trkpt lat="46.0667116" lon="11.9133321"><ele>441.0</ele><time>2026-04-02T10:40:42.785Z</time></trkpt><trkpt lat="46.0667183" lon="11.9134314"><ele>438.66666666666663</ele><time>2026-04-02T10:40:45.785Z</time></trkpt><trkpt lat="46.0667163" lon="11.9135508"><ele>436.3333333333333</ele><time>2026-04-02T10:40:48.784Z</time></trkpt><trkpt lat="46.0667019" lon="11.9136428"><ele>434.0</ele><time>2026-04-02T10:40:50.785Z</time></trkpt><trkpt lat="46.0666868" lon="11.9137463"><ele>432.49999999999994</ele><time>2026-04-02T10:40:52.785Z</time></trkpt><trkpt lat="46.0666729" lon="11.9138565"><ele>431.0</ele><time>2026-04-02T10:40:54.784Z</time></trkpt><trkpt lat="46.0666701" lon="11.9139838"><ele>429.5</ele><time>2026-04-02T10:40:56.783Z</time></trkpt><trkpt lat="46.0666641" lon="11.9140805"><ele>428.0</ele><time>2026-04-02T10:40:58.785Z</time></trkpt><trkpt lat="46.0666509" lon="11.914182"><ele>426.49999999999994</ele><time>2026-04-02T10:41:00.785Z</time></trkpt><trkpt lat="46.0666438" lon="11.9142722"><ele>425.0</ele><time>2026-04-02T10:41:02.783Z</time></trkpt><trkpt lat="46.0666305" lon="11.9144032"><ele>423.3333333333333</ele><time>2026-04-02T10:41:05.784Z</time></trkpt><trkpt lat="46.0666293" lon="11.9144942"><ele>421.66666666666663</ele><time>2026-04-02T10:41:07.785Z</time></trkpt><trkpt lat="46.066625" lon="11.9146322"><ele>420.0</ele><time>2026-04-02T10:41:09.785Z</time></trkpt><trkpt lat="46.0665961" lon="11.9147423"><ele>418.33333333333337</ele><time>2026-04-02T10:41:11.785Z</time></trkpt><trkpt lat="46.0665568" lon="11.9148636"><ele>416.6666666666667</ele><time>2026-04-02T10:41:13.785Z</time></trkpt><trkpt lat="46.0665295" lon="11.9149569"><ele>415.0</ele><time>2026-04-02T10:41:15.785Z</time></trkpt><trkpt lat="46.0664871" lon="11.9150632"><ele>418.7142857142857</ele><time>2026-04-02T10:41:17.782Z</time></trkpt><trkpt lat="46.0664531" lon="11.9151427"><ele>422.42857142857144</ele><time>2026-04-02T10:41:19.785Z</time></trkpt><trkpt lat="46.0664214" lon="11.9152456"><ele>426.1428571428571</ele><time>2026-04-02T10:41:21.784Z</time></trkpt><trkpt lat="46.0664033" lon="11.9153392"><ele>429.8571428571429</ele><time>2026-04-02T10:41:23.785Z</time></trkpt><trkpt lat="46.0664215" lon="11.9154304"><ele>433.57142857142856</ele><time>2026-04-02T10:41:25.785Z</time></trkpt><trkpt lat="46.0664452" lon="11.9155186"><ele>437.2857142857143</ele><time>2026-04-02T10:41:27.785Z</time></trkpt><trkpt lat="46.066431" lon="11.9156567"><ele>441.0</ele><time>2026-04-02T10:41:30.785Z</time></trkpt><trkpt lat="46.066396" lon="11.915749"><ele>441.0</ele><time>2026-04-02T10:41:32.785Z</time></trkpt><trkpt lat="46.066364" lon="11.9158465"><ele>441.0</ele><time>2026-04-02T10:41:35.784Z</time></trkpt><trkpt lat="46.0663875" lon="11.9159445"><ele>441.0</ele><time>2026-04-02T10:41:39.784Z</time></trkpt><trkpt lat="46.0664757" lon="11.9159084"><ele>441.0</ele><time>2026-04-02T10:41:46.785Z</time></trkpt><trkpt lat="46.0666004" lon="11.9159703"><ele>441.0</ele><time>2026-04-02T10:41:58.783Z</time></trkpt><trkpt lat="46.0666157" lon="11.9161463"><ele>435.85714285714283</ele><time>2026-04-02T10:43:12.781Z</time></trkpt><trkpt lat="46.066709" lon="11.9161642"><ele>430.7142857142857</ele><time>2026-04-02T10:43:28.78Z</time></trkpt><trkpt lat="46.066763" lon="11.9161153"><ele>425.57142857142856</ele><time>2026-04-02T10:43:30.783Z</time></trkpt><trkpt lat="46.0668089" lon="11.9160348"><ele>420.42857142857144</ele><time>2026-04-02T10:43:33.782Z</time></trkpt><trkpt lat="46.0668383" lon="11.9161274"><ele>415.2857142857143</ele><time>2026-04-02T10:43:40.784Z</time></trkpt><trkpt lat="46.0668444" lon="11.9162242"><ele>410.1428571428571</ele><time>2026-04-02T10:43:44.784Z</time></trkpt><trkpt lat="46.0668614" lon="11.91632"><ele>405.0</ele><time>2026-04-02T10:43:47.781Z</time></trkpt><trkpt lat="46.066873" lon="11.9164317"><ele>405.0</ele><time>2026-04-02T10:43:50.783Z</time></trkpt><trkpt lat="46.0668452" lon="11.9165501"><ele>405.0</ele><time>2026-04-02T10:43:53.784Z</time></trkpt><trkpt lat="46.0668277" lon="11.9166643"><ele>405.0</ele><time>2026-04-02T10:43:56.784Z</time></trkpt><trkpt lat="46.0667818" lon="11.916781"><ele>405.0</ele><time>2026-04-02T10:43:59.781Z</time></trkpt><trkpt lat="46.0667138" lon="11.9168713"><ele>405.0</ele><time>2026-04-02T10:44:01.782Z</time></trkpt><trkpt lat="46.06667" lon="11.916945"><ele>405.0</ele><time>2026-04-02T10:44:03.785Z</time></trkpt><trkpt lat="46.0666307" lon="11.9170213"><ele>405.1666666666667</ele><time>2026-04-02T10:44:05.782Z</time></trkpt><trkpt lat="46.066608" lon="11.9171382"><ele>405.33333333333337</ele><time>2026-04-02T10:44:08.785Z</time></trkpt><trkpt lat="46.0665925" lon="11.9172427"><ele>405.5</ele><time>2026-04-02T10:44:10.782Z</time></trkpt><trkpt lat="46.0665821" lon="11.917345"><ele>405.6666666666667</ele><time>2026-04-02T10:44:12.783Z</time></trkpt><trkpt lat="46.0665689" lon="11.9174657"><ele>405.83333333333337</ele><time>2026-04-02T10:44:14.781Z</time></trkpt><trkpt lat="46.0665534" lon="11.9175773"><ele>406.0</ele><time>2026-04-02T10:44:16.785Z</time></trkpt><trkpt lat="46.0665227" lon="11.9177016"><ele>406.00000000000006</ele><time>2026-04-02T10:44:18.782Z</time></trkpt><trkpt lat="46.0664989" lon="11.9178233"><ele>406.0</ele><time>2026-04-02T10:44:20.783Z</time></trkpt><trkpt lat="46.0664785" lon="11.9179619"><ele>406.0</ele><time>2026-04-02T10:44:23.785Z</time></trkpt><trkpt lat="46.0664839" lon="11.9180747"><ele>406.0</ele><time>2026-04-02T10:44:25.783Z</time></trkpt><trkpt lat="46.0664796" lon="11.9181722"><ele>406.00000000000006</ele><time>2026-04-02T10:44:27.783Z</time></trkpt><trkpt lat="46.0664741" lon="11.9182722"><ele>406.0</ele><time>2026-04-02T10:44:29.783Z</time></trkpt><trkpt lat="46.0664699" lon="11.9183696"><ele>406.0</ele><time>2026-04-02T10:44:31.785Z</time></trkpt><trkpt lat="46.0664794" lon="11.9184598"><ele>406.0</ele><time>2026-04-02T10:44:33.783Z</time></trkpt><trkpt lat="46.0664947" lon="11.9185686"><ele>406.0</ele><time>2026-04-02T10:44:36.785Z</time></trkpt><trkpt lat="46.0665582" lon="11.918542"><ele>406.0</ele><time>2026-04-02T10:44:48.783Z</time></trkpt><trkpt lat="46.0665958" lon="11.9184628"><ele>406.0</ele><time>2026-04-02T10:44:51.781Z</time></trkpt><trkpt lat="46.0666235" lon="11.9183765"><ele>406.0</ele><time>2026-04-02T10:44:56.781Z</time></trkpt><trkpt lat="46.0666171" lon="11.918268"><ele>406.0</ele><time>2026-04-02T10:45:01.78Z</time></trkpt><trkpt lat="46.0666355" lon="11.918129"><ele>406.00000000000006</ele><time>2026-04-02T10:45:08.781Z</time></trkpt><trkpt lat="46.0666871" lon="11.9180557"><ele>406.0</ele><time>2026-04-02T10:45:12.784Z</time></trkpt><trkpt lat="46.0667382" lon="11.9179452"><ele>406.0</ele><time>2026-04-02T10:45:16.783Z</time></trkpt><trkpt lat="46.0667823" lon="11.9178661"><ele>406.0</ele><time>2026-04-02T10:45:20.785Z</time></trkpt><trkpt lat="46.0667952" lon="11.9177648"><ele>406.00000000000006</ele><time>2026-04-02T10:45:23.785Z</time></trkpt><trkpt lat="46.0668319" lon="11.9176521"><ele>406.0</ele><time>2026-04-02T10:45:27.781Z</time></trkpt><trkpt lat="46.0668388" lon="11.9175473"><ele>406.0</ele><time>2026-04-02T10:45:30.781Z</time></trkpt><trkpt lat="46.0668307" lon="11.9174473"><ele>406.0</ele><time>2026-04-02T10:45:33.781Z</time></trkpt><trkpt lat="46.0668527" lon="11.9173571"><ele>406.0</ele><time>2026-04-02T10:45:37.785Z</time></trkpt><trkpt lat="46.0668757" lon="11.9172639"><ele>406.0</ele><time>2026-04-02T10:45:41.783Z</time></trkpt><trkpt lat="46.0669477" lon="11.9172242"><ele>406.0</ele><time>2026-04-02T10:45:49.781Z</time></trkpt><trkpt lat="46.0670175" lon="11.9172274"><ele>406.0</ele><time>2026-04-02T10:45:52.78Z</time></trkpt><trkpt lat="46.0670867" lon="11.9172733"><ele>406.0</ele><time>2026-04-02T10:45:56.783Z</time></trkpt><trkpt lat="46.0671392" lon="11.9173416"><ele>406.0</ele><time>2026-04-02T10:46:00.785Z</time></trkpt><trkpt lat="46.0671743" lon="11.9174176"><ele>406.0</ele><time>2026-04-02T10:46:05.782Z</time></trkpt><trkpt lat="46.067157" lon="11.9175113"><ele>406.0</ele><time>2026-04-02T10:46:09.783Z</time></trkpt><trkpt lat="46.0671398" lon="11.9175988"><ele>406.0</ele><time>2026-04-02T10:46:12.784Z</time></trkpt><trkpt lat="46.0671398" lon="11.9177043"><ele>406.0</ele><time>2026-04-02T10:46:16.782Z</time></trkpt><trkpt lat="46.0671367" lon="11.9178013"><ele>406.0</ele><time>2026-04-02T10:46:20.783Z</time></trkpt><trkpt lat="46.0671193" lon="11.9179154"><ele>406.0</ele><time>2026-04-02T10:46:24.785Z</time></trkpt><trkpt lat="46.0671024" lon="11.9180039"><ele>406.00000000000006</ele><time>2026-04-02T10:46:28.781Z</time></trkpt><trkpt lat="46.0670968" lon="11.9181263"><ele>406.0</ele><time>2026-04-02T10:46:32.785Z</time></trkpt><trkpt lat="46.0671514" lon="11.9182118"><ele>406.0</ele><time>2026-04-02T10:46:36.785Z</time></trkpt><trkpt lat="46.0672189" lon="11.9182387"><ele>406.0</ele><time>2026-04-02T10:46:40.783Z</time></trkpt><trkpt lat="46.0672924" lon="11.9182425"><ele>406.00000000000006</ele><time>2026-04-02T10:46:44.784Z</time></trkpt><trkpt lat="46.0673575" lon="11.9182222"><ele>406.0</ele><time>2026-04-02T10:46:49.785Z</time></trkpt><trkpt lat="46.0674429" lon="11.918203"><ele>408.57142857142856</ele><time>2026-04-02T10:46:53.781Z</time></trkpt><trkpt lat="46.0675132" lon="11.9181674"><ele>411.1428571428571</ele><time>2026-04-02T10:46:56.785Z</time></trkpt><trkpt lat="46.067584" lon="11.9181346"><ele>413.7142857142857</ele><time>2026-04-02T10:47:00.783Z</time></trkpt><trkpt lat="46.067644" lon="11.9180599"><ele>416.2857142857143</ele><time>2026-04-02T10:47:04.783Z</time></trkpt><trkpt lat="46.0676731" lon="11.9179741"><ele>418.85714285714283</ele><time>2026-04-02T10:47:07.785Z</time></trkpt><trkpt lat="46.067702" lon="11.9178909"><ele>421.42857142857144</ele><time>2026-04-02T10:47:10.783Z</time></trkpt><trkpt lat="46.0677362" lon="11.9178061"><ele>424.0</ele><time>2026-04-02T10:47:13.784Z</time></trkpt><trkpt lat="46.0677665" lon="11.917723"><ele>424.00000000000006</ele><time>2026-04-02T10:47:16.785Z</time></trkpt><trkpt lat="46.0677932" lon="11.9176406"><ele>424.0</ele><time>2026-04-02T10:47:19.785Z</time></trkpt><trkpt lat="46.0678361" lon="11.9175412"><ele>424.0</ele><time>2026-04-02T10:47:23.783Z</time></trkpt><trkpt lat="46.0678778" lon="11.9174598"><ele>424.0</ele><time>2026-04-02T10:47:27.785Z</time></trkpt><trkpt lat="46.0679082" lon="11.9173535"><ele>424.00000000000006</ele><time>2026-04-02T10:47:30.784Z</time></trkpt><trkpt lat="46.0679334" lon="11.9172491"><ele>424.0</ele><time>2026-04-02T10:47:33.784Z</time></trkpt><trkpt lat="46.0679476" lon="11.9171297"><ele>424.6666666666667</ele><time>2026-04-02T10:47:36.785Z</time></trkpt><trkpt lat="46.0679668" lon="11.9170298"><ele>425.33333333333337</ele><time>2026-04-02T10:47:39.782Z</time></trkpt><trkpt lat="46.0679968" lon="11.9169265"><ele>426.0</ele><time>2026-04-02T10:47:42.785Z</time></trkpt><trkpt lat="46.0680274" lon="11.9168252"><ele>426.66666666666663</ele><time>2026-04-02T10:47:45.785Z</time></trkpt><trkpt lat="46.068056" lon="11.9167272"><ele>427.3333333333333</ele><time>2026-04-02T10:47:48.785Z</time></trkpt><trkpt lat="46.0680827" lon="11.9166301"><ele>428.0</ele><time>2026-04-02T10:47:51.784Z</time></trkpt><trkpt lat="46.0681052" lon="11.9165053"><ele>428.00000000000006</ele><time>2026-04-02T10:47:54.784Z</time></trkpt><trkpt lat="46.0681279" lon="11.9163874"><ele>428.0</ele><time>2026-04-02T10:47:57.784Z</time></trkpt><trkpt lat="46.068156" lon="11.9162835"><ele>428.0</ele><time>2026-04-02T10:48:00.784Z</time></trkpt><trkpt lat="46.0681899" lon="11.9162005"><ele>428.0</ele><time>2026-04-02T10:48:03.784Z</time></trkpt><trkpt lat="46.0682216" lon="11.9161174"><ele>428.0</ele><time>2026-04-02T10:48:06.785Z</time></trkpt><trkpt lat="46.0682437" lon="11.9160158"><ele>428.00000000000006</ele><time>2026-04-02T10:48:09.785Z</time></trkpt><trkpt lat="46.068276" lon="11.9159213"><ele>428.0</ele><time>2026-04-02T10:48:12.783Z</time></trkpt><trkpt lat="46.0683141" lon="11.915826"><ele>430.8571428571429</ele><time>2026-04-02T10:48:15.784Z</time></trkpt><trkpt lat="46.0683493" lon="11.9157308"><ele>433.7142857142857</ele><time>2026-04-02T10:48:18.785Z</time></trkpt><trkpt lat="46.0683907" lon="11.9156541"><ele>436.57142857142856</ele><time>2026-04-02T10:48:21.785Z</time></trkpt><trkpt lat="46.0684332" lon="11.9155625"><ele>439.42857142857144</ele><time>2026-04-02T10:48:24.785Z</time></trkpt><trkpt lat="46.0684635" lon="11.9154653"><ele>442.2857142857143</ele><time>2026-04-02T10:48:27.783Z</time></trkpt><trkpt lat="46.0684804" lon="11.9153539"><ele>445.14285714285717</ele><time>2026-04-02T10:48:31.783Z</time></trkpt><trkpt lat="46.0684993" lon="11.9152574"><ele>448.0</ele><time>2026-04-02T10:48:34.784Z</time></trkpt><trkpt lat="46.0685305" lon="11.9151572"><ele>447.85714285714283</ele><time>2026-04-02T10:48:38.785Z</time></trkpt><trkpt lat="46.0685586" lon="11.9150674"><ele>447.7142857142857</ele><time>2026-04-02T10:48:41.785Z</time></trkpt><trkpt lat="46.0685855" lon="11.9149715"><ele>447.57142857142856</ele><time>2026-04-02T10:48:44.783Z</time></trkpt><trkpt lat="46.0686117" lon="11.9148829"><ele>447.42857142857144</ele><time>2026-04-02T10:48:47.783Z</time></trkpt><trkpt lat="46.0686441" lon="11.9147865"><ele>447.2857142857143</ele><time>2026-04-02T10:48:50.785Z</time></trkpt><trkpt lat="46.0686795" lon="11.9146946"><ele>447.1428571428571</ele><time>2026-04-02T10:48:53.783Z</time></trkpt><trkpt lat="46.0687163" lon="11.9146053"><ele>447.0</ele><time>2026-04-02T10:48:56.784Z</time></trkpt><trkpt lat="46.0687665" lon="11.9145354"><ele>447.0</ele><time>2026-04-02T10:48:59.785Z</time></trkpt><trkpt lat="46.0688109" lon="11.9144378"><ele>447.0</ele><time>2026-04-02T10:49:03.785Z</time></trkpt><trkpt lat="46.0688468" lon="11.9143561"><ele>447.0</ele><time>2026-04-02T10:49:06.784Z</time></trkpt><trkpt lat="46.0688878" lon="11.9142553"><ele>447.0</ele><time>2026-04-02T10:49:10.784Z</time></trkpt><trkpt lat="46.0689233" lon="11.9141525"><ele>447.0</ele><time>2026-04-02T10:49:14.785Z</time></trkpt><trkpt lat="46.0689726" lon="11.914055"><ele>447.0</ele><time>2026-04-02T10:49:19.783Z</time></trkpt><trkpt lat="46.0690158" lon="11.9139652"><ele>446.1428571428571</ele><time>2026-04-02T10:49:23.781Z</time></trkpt><trkpt lat="46.0690662" lon="11.913869"><ele>445.2857142857143</ele><time>2026-04-02T10:49:28.781Z</time></trkpt><trkpt lat="46.0691224" lon="11.9138156"><ele>444.42857142857144</ele><time>2026-04-02T10:49:31.785Z</time></trkpt><trkpt lat="46.0692017" lon="11.9138228"><ele>443.57142857142856</ele><time>2026-04-02T10:49:36.784Z</time></trkpt><trkpt lat="46.0692247" lon="11.9139324"><ele>442.7142857142857</ele><time>2026-04-02T10:49:40.784Z</time></trkpt><trkpt lat="46.0692091" lon="11.9140367"><ele>441.85714285714283</ele><time>2026-04-02T10:49:44.784Z</time></trkpt><trkpt lat="46.069181" lon="11.9141197"><ele>441.0</ele><time>2026-04-02T10:49:47.783Z</time></trkpt><trkpt lat="46.0691754" lon="11.914211"><ele>441.85714285714283</ele><time>2026-04-02T10:49:50.782Z</time></trkpt><trkpt lat="46.0691614" lon="11.9143007"><ele>442.7142857142857</ele><time>2026-04-02T10:49:53.783Z</time></trkpt><trkpt lat="46.069144" lon="11.9143991"><ele>443.57142857142856</ele><time>2026-04-02T10:49:56.785Z</time></trkpt><trkpt lat="46.0691217" lon="11.9144871"><ele>444.42857142857144</ele><time>2026-04-02T10:49:59.782Z</time></trkpt><trkpt lat="46.0690946" lon="11.9145824"><ele>445.2857142857143</ele><time>2026-04-02T10:50:02.784Z</time></trkpt><trkpt lat="46.0690567" lon="11.914665"><ele>446.1428571428571</ele><time>2026-04-02T10:50:05.78Z</time></trkpt><trkpt lat="46.0690133" lon="11.9147543"><ele>447.0</ele><time>2026-04-02T10:50:08.784Z</time></trkpt><trkpt lat="46.0689766" lon="11.9148544"><ele>447.0</ele><time>2026-04-02T10:50:11.784Z</time></trkpt><trkpt lat="46.068925" lon="11.914962"><ele>447.0</ele><time>2026-04-02T10:50:14.785Z</time></trkpt><trkpt lat="46.068886" lon="11.9150563"><ele>447.0</ele><time>2026-04-02T10:50:17.781Z</time></trkpt><trkpt lat="46.068858" lon="11.9151539"><ele>447.0</ele><time>2026-04-02T10:50:20.782Z</time></trkpt><trkpt lat="46.0688587" lon="11.9152455"><ele>447.0</ele><time>2026-04-02T10:50:23.784Z</time></trkpt><trkpt lat="46.0688658" lon="11.9153654"><ele>447.0</ele><time>2026-04-02T10:50:27.784Z</time></trkpt><trkpt lat="46.0688975" lon="11.9154483"><ele>447.1428571428571</ele><time>2026-04-02T10:50:30.784Z</time></trkpt><trkpt lat="46.0689394" lon="11.9155318"><ele>447.2857142857143</ele><time>2026-04-02T10:50:33.784Z</time></trkpt><trkpt lat="46.0689936" lon="11.9155903"><ele>447.42857142857144</ele><time>2026-04-02T10:50:36.78Z</time></trkpt><trkpt lat="46.0690532" lon="11.9155546"><ele>447.57142857142856</ele><time>2026-04-02T10:50:41.78Z</time></trkpt><trkpt lat="46.0690743" lon="11.9154629"><ele>447.7142857142857</ele><time>2026-04-02T10:50:44.781Z</time></trkpt><trkpt lat="46.0690801" lon="11.9153455"><ele>447.85714285714283</ele><time>2026-04-02T10:50:48.78Z</time></trkpt><trkpt lat="46.0691233" lon="11.915245"><ele>448.0</ele><time>2026-04-02T10:50:52.783Z</time></trkpt><trkpt lat="46.0691624" lon="11.9151731"><ele>453.50000000000006</ele><time>2026-04-02T10:50:55.784Z</time></trkpt><trkpt lat="46.0691855" lon="11.9150714"><ele>459.0</ele><time>2026-04-02T10:50:58.784Z</time></trkpt><trkpt lat="46.0692182" lon="11.9149642"><ele>464.5</ele><time>2026-04-02T10:51:01.784Z</time></trkpt><trkpt lat="46.0692818" lon="11.9149107"><ele>470.0</ele><time>2026-04-02T10:51:04.783Z</time></trkpt><trkpt lat="46.0693411" lon="11.9148762"><ele>475.50000000000006</ele><time>2026-04-02T10:51:07.783Z</time></trkpt><trkpt lat="46.0694294" lon="11.9148531"><ele>481.0</ele><time>2026-04-02T10:51:11.782Z</time></trkpt><trkpt lat="46.0695064" lon="11.914842"><ele>481.00000000000006</ele><time>2026-04-02T10:51:14.784Z</time></trkpt><trkpt lat="46.0695815" lon="11.914825"><ele>481.0</ele><time>2026-04-02T10:51:17.784Z</time></trkpt><trkpt lat="46.0696576" lon="11.9148149"><ele>481.0</ele><time>2026-04-02T10:51:20.784Z</time></trkpt><trkpt lat="46.0697365" lon="11.9148283"><ele>481.0</ele><time>2026-04-02T10:51:24.781Z</time></trkpt><trkpt lat="46.0698161" lon="11.9148387"><ele>481.00000000000006</ele><time>2026-04-02T10:51:28.782Z</time></trkpt><trkpt lat="46.0698915" lon="11.914843"><ele>481.0</ele><time>2026-04-02T10:51:31.781Z</time></trkpt><trkpt lat="46.0699749" lon="11.9148357"><ele>483.2857142857142</ele><time>2026-04-02T10:51:34.784Z</time></trkpt><trkpt lat="46.0700531" lon="11.9148377"><ele>485.57142857142856</ele><time>2026-04-02T10:51:38.784Z</time></trkpt><trkpt lat="46.0701171" lon="11.9148816"><ele>487.85714285714283</ele><time>2026-04-02T10:51:42.781Z</time></trkpt><trkpt lat="46.0701708" lon="11.9149312"><ele>490.1428571428571</ele><time>2026-04-02T10:51:46.782Z</time></trkpt><trkpt lat="46.0702449" lon="11.9149646"><ele>492.42857142857144</ele><time>2026-04-02T10:51:50.781Z</time></trkpt><trkpt lat="46.0703255" lon="11.9149975"><ele>494.7142857142857</ele><time>2026-04-02T10:51:54.783Z</time></trkpt><trkpt lat="46.0703985" lon="11.9150083"><ele>497.0</ele><time>2026-04-02T10:51:57.784Z</time></trkpt><trkpt lat="46.0704792" lon="11.9150058"><ele>497.0</ele><time>2026-04-02T10:52:01.783Z</time></trkpt><trkpt lat="46.0705556" lon="11.9149962"><ele>497.0</ele><time>2026-04-02T10:52:06.782Z</time></trkpt><trkpt lat="46.0706245" lon="11.9149525"><ele>497.0</ele><time>2026-04-02T10:52:09.784Z</time></trkpt><trkpt lat="46.0706851" lon="11.9149172"><ele>497.0</ele><time>2026-04-02T10:52:12.784Z</time></trkpt><trkpt lat="46.0707546" lon="11.9148885"><ele>497.0</ele><time>2026-04-02T10:52:15.783Z</time></trkpt><trkpt lat="46.070825" lon="11.9148731"><ele>497.0</ele><time>2026-04-02T10:52:18.782Z</time></trkpt><trkpt lat="46.070904" lon="11.914863"><ele>497.0</ele><time>2026-04-02T10:52:21.782Z</time></trkpt><trkpt lat="46.0709869" lon="11.9148673"><ele>499.16666666666663</ele><time>2026-04-02T10:52:25.781Z</time></trkpt><trkpt lat="46.0710686" lon="11.9148822"><ele>501.3333333333333</ele><time>2026-04-02T10:52:29.785Z</time></trkpt><trkpt lat="46.0711451" lon="11.9149285"><ele>503.5</ele><time>2026-04-02T10:52:33.785Z</time></trkpt><trkpt lat="46.0712072" lon="11.9149678"><ele>505.66666666666663</ele><time>2026-04-02T10:52:36.784Z</time></trkpt><trkpt lat="46.0712612" lon="11.9150244"><ele>507.8333333333333</ele><time>2026-04-02T10:52:39.782Z</time></trkpt><trkpt lat="46.0713095" lon="11.9151007"><ele>510.0</ele><time>2026-04-02T10:52:43.784Z</time></trkpt><trkpt lat="46.0713568" lon="11.9151951"><ele>510.0</ele><time>2026-04-02T10:52:48.784Z</time></trkpt><trkpt lat="46.0714105" lon="11.9152806"><ele>510.00000000000006</ele><time>2026-04-02T10:52:52.784Z</time></trkpt><trkpt lat="46.0714717" lon="11.915344"><ele>510.0</ele><time>2026-04-02T10:52:56.784Z</time></trkpt><trkpt lat="46.0715233" lon="11.9153967"><ele>510.0</ele><time>2026-04-02T10:53:00.784Z</time></trkpt><trkpt lat="46.0715877" lon="11.9153819"><ele>510.00000000000006</ele><time>2026-04-02T10:53:03.785Z</time></trkpt><trkpt lat="46.0716606" lon="11.9153324"><ele>510.0</ele><time>2026-04-02T10:53:10.782Z</time></trkpt><trkpt lat="46.0717208" lon="11.9152715"><ele>510.0</ele><time>2026-04-02T10:53:14.783Z</time></trkpt><trkpt lat="46.0717886" lon="11.9152509"><ele>511.6666666666667</ele><time>2026-04-02T10:53:18.784Z</time></trkpt><trkpt lat="46.0718538" lon="11.9152275"><ele>513.3333333333334</ele><time>2026-04-02T10:53:22.781Z</time></trkpt><trkpt lat="46.0719347" lon="11.9152189"><ele>515.0</ele><time>2026-04-02T10:53:26.782Z</time></trkpt><trkpt lat="46.0720088" lon="11.9152277"><ele>516.6666666666667</ele><time>2026-04-02T10:53:29.784Z</time></trkpt><trkpt lat="46.0720911" lon="11.9152719"><ele>518.3333333333334</ele><time>2026-04-02T10:53:33.784Z</time></trkpt><trkpt lat="46.0721681" lon="11.9153107"><ele>520.0</ele><time>2026-04-02T10:53:36.782Z</time></trkpt><trkpt lat="46.0722325" lon="11.9153665"><ele>520.0</ele><time>2026-04-02T10:53:39.784Z</time></trkpt><trkpt lat="46.0722596" lon="11.9154559"><ele>520.0</ele><time>2026-04-02T10:53:42.784Z</time></trkpt><trkpt lat="46.0722585" lon="11.9155575"><ele>520.0</ele><time>2026-04-02T10:53:45.782Z</time></trkpt><trkpt lat="46.0722563" lon="11.9156671"><ele>520.0</ele><time>2026-04-02T10:53:49.782Z</time></trkpt><trkpt lat="46.0722479" lon="11.9157723"><ele>520.0</ele><time>2026-04-02T10:53:52.783Z</time></trkpt><trkpt lat="46.0722555" lon="11.9158927"><ele>520.0</ele><time>2026-04-02T10:53:56.781Z</time></trkpt><trkpt lat="46.0722658" lon="11.9160043"><ele>519.0</ele><time>2026-04-02T10:53:59.784Z</time></trkpt><trkpt lat="46.0722608" lon="11.9161092"><ele>518.0</ele><time>2026-04-02T10:54:02.784Z</time></trkpt><trkpt lat="46.072275" lon="11.9162098"><ele>517.0</ele><time>2026-04-02T10:54:06.782Z</time></trkpt><trkpt lat="46.0723516" lon="11.9162507"><ele>516.0</ele><time>2026-04-02T10:54:11.782Z</time></trkpt><trkpt lat="46.0724128" lon="11.9161946"><ele>515.0</ele><time>2026-04-02T10:54:15.782Z</time></trkpt><trkpt lat="46.0724654" lon="11.9161018"><ele>514.0</ele><time>2026-04-02T10:54:18.783Z</time></trkpt><trkpt lat="46.0725114" lon="11.916027"><ele>517.5714285714286</ele><time>2026-04-02T10:54:21.782Z</time></trkpt><trkpt lat="46.0725731" lon="11.9159863"><ele>521.1428571428571</ele><time>2026-04-02T10:54:25.784Z</time></trkpt><trkpt lat="46.0726428" lon="11.9159279"><ele>524.7142857142858</ele><time>2026-04-02T10:54:29.781Z</time></trkpt><trkpt lat="46.072704" lon="11.9158826"><ele>528.2857142857142</ele><time>2026-04-02T10:54:32.782Z</time></trkpt><trkpt lat="46.0727707" lon="11.9158404"><ele>531.8571428571429</ele><time>2026-04-02T10:54:35.783Z</time></trkpt><trkpt lat="46.0728157" lon="11.9157749"><ele>535.4285714285714</ele><time>2026-04-02T10:54:38.784Z</time></trkpt><trkpt lat="46.0728852" lon="11.9157091"><ele>539.0</ele><time>2026-04-02T10:54:42.783Z</time></trkpt><trkpt lat="46.0729642" lon="11.9156772"><ele>539.3333333333333</ele><time>2026-04-02T10:54:46.784Z</time></trkpt><trkpt lat="46.0730291" lon="11.9156457"><ele>539.6666666666666</ele><time>2026-04-02T10:54:49.783Z</time></trkpt><trkpt lat="46.0730994" lon="11.9155808"><ele>540.0</ele><time>2026-04-02T10:54:53.783Z</time></trkpt><trkpt lat="46.0731527" lon="11.9155314"><ele>540.3333333333334</ele><time>2026-04-02T10:54:56.782Z</time></trkpt><trkpt lat="46.0732092" lon="11.9154512"><ele>540.6666666666667</ele><time>2026-04-02T10:54:59.783Z</time></trkpt><trkpt lat="46.0732523" lon="11.9153727"><ele>541.0</ele><time>2026-04-02T10:55:02.784Z</time></trkpt><trkpt lat="46.073302" lon="11.9152711"><ele>544.6666666666667</ele><time>2026-04-02T10:55:05.781Z</time></trkpt><trkpt lat="46.0733436" lon="11.915176"><ele>548.3333333333334</ele><time>2026-04-02T10:55:08.784Z</time></trkpt><trkpt lat="46.0733638" lon="11.9150781"><ele>552.0</ele><time>2026-04-02T10:55:11.782Z</time></trkpt><trkpt lat="46.0733745" lon="11.9149666"><ele>555.6666666666666</ele><time>2026-04-02T10:55:14.784Z</time></trkpt><trkpt lat="46.0733757" lon="11.9148684"><ele>559.3333333333333</ele><time>2026-04-02T10:55:17.782Z</time></trkpt><trkpt lat="46.0733703" lon="11.9147527"><ele>563.0</ele><time>2026-04-02T10:55:21.782Z</time></trkpt><trkpt lat="46.0733781" lon="11.9146391"><ele>563.0</ele><time>2026-04-02T10:55:25.782Z</time></trkpt><trkpt lat="46.0733758" lon="11.9145226"><ele>563.0</ele><time>2026-04-02T10:55:29.784Z</time></trkpt><trkpt lat="46.0733751" lon="11.914429"><ele>563.0</ele><time>2026-04-02T10:55:32.781Z</time></trkpt><trkpt lat="46.0733762" lon="11.9143125"><ele>563.0</ele><time>2026-04-02T10:55:35.783Z</time></trkpt><trkpt lat="46.0733889" lon="11.9142173"><ele>563.0</ele><time>2026-04-02T10:55:38.785Z</time></trkpt><trkpt lat="46.0734063" lon="11.9141116"><ele>563.0</ele><time>2026-04-02T10:55:42.785Z</time></trkpt><trkpt lat="46.0734251" lon="11.9140148"><ele>563.0</ele><time>2026-04-02T10:55:45.783Z</time></trkpt><trkpt lat="46.073455" lon="11.9139318"><ele>563.5714285714286</ele><time>2026-04-02T10:55:48.785Z</time></trkpt><trkpt lat="46.0734682" lon="11.9138425"><ele>564.1428571428571</ele><time>2026-04-02T10:55:50.784Z</time></trkpt><trkpt lat="46.0734757" lon="11.9137508"><ele>564.7142857142858</ele><time>2026-04-02T10:55:52.785Z</time></trkpt><trkpt lat="46.0734839" lon="11.9136157"><ele>565.2857142857142</ele><time>2026-04-02T10:55:55.783Z</time></trkpt><trkpt lat="46.0734816" lon="11.9135234"><ele>565.8571428571429</ele><time>2026-04-02T10:55:57.784Z</time></trkpt><trkpt lat="46.0734931" lon="11.9134235"><ele>566.4285714285714</ele><time>2026-04-02T10:56:00.783Z</time></trkpt><trkpt lat="46.0735095" lon="11.9133195"><ele>567.0</ele><time>2026-04-02T10:56:03.785Z</time></trkpt><trkpt lat="46.0735164" lon="11.9131933"><ele>567.1666666666666</ele><time>2026-04-02T10:56:06.785Z</time></trkpt><trkpt lat="46.0735238" lon="11.9130704"><ele>567.3333333333334</ele><time>2026-04-02T10:56:09.785Z</time></trkpt><trkpt lat="46.0735399" lon="11.9129655"><ele>567.5</ele><time>2026-04-02T10:56:12.785Z</time></trkpt><trkpt lat="46.0735499" lon="11.9128444"><ele>567.6666666666667</ele><time>2026-04-02T10:56:15.785Z</time></trkpt><trkpt lat="46.0735614" lon="11.9127333"><ele>567.8333333333334</ele><time>2026-04-02T10:56:18.783Z</time></trkpt><trkpt lat="46.073564" lon="11.9126099"><ele>568.0</ele><time>2026-04-02T10:56:21.783Z</time></trkpt><trkpt lat="46.0735592" lon="11.9125175"><ele>567.5</ele><time>2026-04-02T10:56:23.785Z</time></trkpt><trkpt lat="46.0735613" lon="11.9124254"><ele>567.0</ele><time>2026-04-02T10:56:25.785Z</time></trkpt><trkpt lat="46.0735558" lon="11.9122988"><ele>566.5</ele><time>2026-04-02T10:56:28.784Z</time></trkpt><trkpt lat="46.0735464" lon="11.9121914"><ele>566.0</ele><time>2026-04-02T10:56:31.784Z</time></trkpt><trkpt lat="46.0735366" lon="11.9120642"><ele>565.5</ele><time>2026-04-02T10:56:34.785Z</time></trkpt><trkpt lat="46.0735392" lon="11.9119319"><ele>565.0</ele><time>2026-04-02T10:56:37.785Z</time></trkpt><trkpt lat="46.0735617" lon="11.9118118"><ele>565.5</ele><time>2026-04-02T10:56:40.785Z</time></trkpt><trkpt lat="46.0735761" lon="11.9116817"><ele>566.0</ele><time>2026-04-02T10:56:43.785Z</time></trkpt><trkpt lat="46.0735903" lon="11.9115697"><ele>566.5</ele><time>2026-04-02T10:56:46.785Z</time></trkpt><trkpt lat="46.0735884" lon="11.911468"><ele>567.0</ele><time>2026-04-02T10:56:49.783Z</time></trkpt><trkpt lat="46.0735841" lon="11.9113702"><ele>567.5</ele><time>2026-04-02T10:56:52.785Z</time></trkpt><trkpt lat="46.0735959" lon="11.9112737"><ele>568.0</ele><time>2026-04-02T10:56:55.784Z</time></trkpt><trkpt lat="46.0736" lon="11.9111648"><ele>568.0</ele><time>2026-04-02T10:56:58.785Z</time></trkpt><trkpt lat="46.0735928" lon="11.9110437"><ele>568.0</ele><time>2026-04-02T10:57:01.785Z</time></trkpt><trkpt lat="46.0735877" lon="11.910913"><ele>568.0</ele><time>2026-04-02T10:57:04.785Z</time></trkpt><trkpt lat="46.0735679" lon="11.9107873"><ele>568.0</ele><time>2026-04-02T10:57:07.782Z</time></trkpt><trkpt lat="46.0735414" lon="11.9106681"><ele>568.0</ele><time>2026-04-02T10:57:10.782Z</time></trkpt><trkpt lat="46.0735164" lon="11.9105772"><ele>568.0</ele><time>2026-04-02T10:57:12.783Z</time></trkpt><trkpt lat="46.0735104" lon="11.9104533"><ele>569.0</ele><time>2026-04-02T10:57:15.784Z</time></trkpt><trkpt lat="46.0735224" lon="11.9103447"><ele>570.0</ele><time>2026-04-02T10:57:18.786Z</time></trkpt><trkpt lat="46.0735256" lon="11.9102294"><ele>571.0</ele><time>2026-04-02T10:57:21.785Z</time></trkpt><trkpt lat="46.0735088" lon="11.9101086"><ele>572.0</ele><time>2026-04-02T10:57:24.783Z</time></trkpt><trkpt lat="46.0734877" lon="11.9099807"><ele>573.0</ele><time>2026-04-02T10:57:27.783Z</time></trkpt><trkpt lat="46.0734777" lon="11.9098706"><ele>574.0</ele><time>2026-04-02T10:57:30.785Z</time></trkpt><trkpt lat="46.0734607" lon="11.9097773"><ele>574.8333333333334</ele><time>2026-04-02T10:57:33.78Z</time></trkpt><trkpt lat="46.073436" lon="11.9096571"><ele>575.6666666666667</ele><time>2026-04-02T10:57:36.785Z</time></trkpt><trkpt lat="46.0734207" lon="11.9095424"><ele>576.5</ele><time>2026-04-02T10:57:39.783Z</time></trkpt><trkpt lat="46.0734338" lon="11.9094521"><ele>577.3333333333334</ele><time>2026-04-02T10:57:42.783Z</time></trkpt><trkpt lat="46.0734342" lon="11.9093255"><ele>578.1666666666666</ele><time>2026-04-02T10:57:45.785Z</time></trkpt><trkpt lat="46.0734286" lon="11.9091985"><ele>579.0</ele><time>2026-04-02T10:57:48.785Z</time></trkpt><trkpt lat="46.07343" lon="11.9090697"><ele>579.5</ele><time>2026-04-02T10:57:51.785Z</time></trkpt><trkpt lat="46.0734502" lon="11.9089464"><ele>580.0</ele><time>2026-04-02T10:57:54.785Z</time></trkpt><trkpt lat="46.0734862" lon="11.908827"><ele>580.5</ele><time>2026-04-02T10:57:57.782Z</time></trkpt><trkpt lat="46.073507" lon="11.908709"><ele>581.0</ele><time>2026-04-02T10:58:00.785Z</time></trkpt><trkpt lat="46.0735377" lon="11.9085995"><ele>581.5</ele><time>2026-04-02T10:58:03.782Z</time></trkpt><trkpt lat="46.0735567" lon="11.9084819"><ele>582.0</ele><time>2026-04-02T10:58:06.784Z</time></trkpt><trkpt lat="46.0735519" lon="11.9083686"><ele>582.0</ele><time>2026-04-02T10:58:09.785Z</time></trkpt><trkpt lat="46.0735622" lon="11.9082497"><ele>582.0</ele><time>2026-04-02T10:58:12.783Z</time></trkpt><trkpt lat="46.0735794" lon="11.9081345"><ele>582.0</ele><time>2026-04-02T10:58:15.783Z</time></trkpt><trkpt lat="46.0735906" lon="11.9080214"><ele>582.0</ele><time>2026-04-02T10:58:18.784Z</time></trkpt><trkpt lat="46.0736195" lon="11.9079065"><ele>582.0</ele><time>2026-04-02T10:58:21.783Z</time></trkpt><trkpt lat="46.0736602" lon="11.9077983"><ele>582.0</ele><time>2026-04-02T10:58:24.784Z</time></trkpt><trkpt lat="46.0736945" lon="11.9076943"><ele>582.0</ele><time>2026-04-02T10:58:27.78Z</time></trkpt><trkpt lat="46.0737218" lon="11.9075877"><ele>582.0</ele><time>2026-04-02T10:58:30.784Z</time></trkpt><trkpt lat="46.0737596" lon="11.9075125"><ele>582.0</ele><time>2026-04-02T10:58:33.782Z</time></trkpt><trkpt lat="46.0738012" lon="11.9074314"><ele>582.0</ele><time>2026-04-02T10:58:36.785Z</time></trkpt><trkpt lat="46.0738499" lon="11.9073597"><ele>582.0</ele><time>2026-04-02T10:58:39.783Z</time></trkpt><trkpt lat="46.073914" lon="11.9073531"><ele>582.0</ele><time>2026-04-02T10:58:42.784Z</time></trkpt><trkpt lat="46.0739518" lon="11.9074286"><ele>582.0</ele><time>2026-04-02T10:58:45.782Z</time></trkpt><trkpt lat="46.0739657" lon="11.9075411"><ele>582.0</ele><time>2026-04-02T10:58:49.783Z</time></trkpt><trkpt lat="46.0739621" lon="11.9076633"><ele>582.0</ele><time>2026-04-02T10:58:53.784Z</time></trkpt><trkpt lat="46.0739305" lon="11.9077657"><ele>582.0</ele><time>2026-04-02T10:58:56.785Z</time></trkpt><trkpt lat="46.0738895" lon="11.9078503"><ele>582.0</ele><time>2026-04-02T10:58:59.784Z</time></trkpt><trkpt lat="46.0738638" lon="11.9079522"><ele>582.0</ele><time>2026-04-02T10:59:02.784Z</time></trkpt><trkpt lat="46.0738807" lon="11.9080609"><ele>582.0</ele><time>2026-04-02T10:59:05.784Z</time></trkpt><trkpt lat="46.0739405" lon="11.9081573"><ele>582.0</ele><time>2026-04-02T10:59:08.784Z</time></trkpt><trkpt lat="46.0740012" lon="11.9082265"><ele>582.0</ele><time>2026-04-02T10:59:11.783Z</time></trkpt><trkpt lat="46.0740665" lon="11.9082968"><ele>582.0</ele><time>2026-04-02T10:59:14.784Z</time></trkpt><trkpt lat="46.0741169" lon="11.9083915"><ele>582.0</ele><time>2026-04-02T10:59:17.784Z</time></trkpt><trkpt lat="46.0741742" lon="11.9084823"><ele>582.0</ele><time>2026-04-02T10:59:20.785Z</time></trkpt><trkpt lat="46.0742224" lon="11.9085727"><ele>582.0</ele><time>2026-04-02T10:59:23.782Z</time></trkpt><trkpt lat="46.0742687" lon="11.9086726"><ele>586.5</ele><time>2026-04-02T10:59:26.785Z</time></trkpt><trkpt lat="46.0743143" lon="11.9087737"><ele>591.0</ele><time>2026-04-02T10:59:29.783Z</time></trkpt><trkpt lat="46.0743482" lon="11.908887"><ele>595.5</ele><time>2026-04-02T10:59:32.784Z</time></trkpt><trkpt lat="46.074372" lon="11.9089797"><ele>600.0</ele><time>2026-04-02T10:59:35.784Z</time></trkpt><trkpt lat="46.0744029" lon="11.9090749"><ele>604.5</ele><time>2026-04-02T10:59:38.784Z</time></trkpt><trkpt lat="46.0744457" lon="11.9091632"><ele>609.0</ele><time>2026-04-02T10:59:41.785Z</time></trkpt><trkpt lat="46.0744899" lon="11.9092573"><ele>609.0</ele><time>2026-04-02T10:59:44.785Z</time></trkpt><trkpt lat="46.0745452" lon="11.9093451"><ele>609.0</ele><time>2026-04-02T10:59:47.784Z</time></trkpt><trkpt lat="46.0745959" lon="11.9094317"><ele>609.0</ele><time>2026-04-02T10:59:50.782Z</time></trkpt><trkpt lat="46.0746279" lon="11.9095132"><ele>609.0</ele><time>2026-04-02T10:59:53.781Z</time></trkpt><trkpt lat="46.0746644" lon="11.9096034"><ele>609.0</ele><time>2026-04-02T10:59:56.784Z</time></trkpt><trkpt lat="46.0746988" lon="11.9097073"><ele>609.0</ele><time>2026-04-02T10:59:59.782Z</time></trkpt><trkpt lat="46.0747124" lon="11.9098184"><ele>609.0</ele><time>2026-04-02T11:00:02.784Z</time></trkpt><trkpt lat="46.0746999" lon="11.9099357"><ele>609.0</ele><time>2026-04-02T11:00:05.785Z</time></trkpt><trkpt lat="46.0746744" lon="11.9100633"><ele>609.0</ele><time>2026-04-02T11:00:08.785Z</time></trkpt><trkpt lat="46.074658" lon="11.9101526"><ele>609.0</ele><time>2026-04-02T11:00:10.782Z</time></trkpt><trkpt lat="46.0746412" lon="11.9102792"><ele>609.0</ele><time>2026-04-02T11:00:13.782Z</time></trkpt><trkpt lat="46.0746383" lon="11.9104013"><ele>609.0</ele><time>2026-04-02T11:00:16.783Z</time></trkpt><trkpt lat="46.0746466" lon="11.9105256"><ele>607.8571428571429</ele><time>2026-04-02T11:00:19.784Z</time></trkpt><trkpt lat="46.0746643" lon="11.9106545"><ele>606.7142857142858</ele><time>2026-04-02T11:00:22.785Z</time></trkpt><trkpt lat="46.07469" lon="11.9107417"><ele>605.5714285714286</ele><time>2026-04-02T11:00:24.782Z</time></trkpt><trkpt lat="46.0747212" lon="11.9108297"><ele>604.4285714285714</ele><time>2026-04-02T11:00:26.781Z</time></trkpt><trkpt lat="46.074752" lon="11.9109177"><ele>603.2857142857143</ele><time>2026-04-02T11:00:28.782Z</time></trkpt><trkpt lat="46.0747761" lon="11.9110185"><ele>602.1428571428571</ele><time>2026-04-02T11:00:30.781Z</time></trkpt><trkpt lat="46.074784" lon="11.9111126"><ele>601.0</ele><time>2026-04-02T11:00:32.783Z</time></trkpt><trkpt lat="46.0747621" lon="11.911243"><ele>600.7142857142857</ele><time>2026-04-02T11:00:35.783Z</time></trkpt><trkpt lat="46.0747503" lon="11.9113498"><ele>600.4285714285714</ele><time>2026-04-02T11:00:37.782Z</time></trkpt><trkpt lat="46.07476" lon="11.9114643"><ele>600.1428571428571</ele><time>2026-04-02T11:00:39.781Z</time></trkpt><trkpt lat="46.0747731" lon="11.9115717"><ele>599.8571428571429</ele><time>2026-04-02T11:00:41.781Z</time></trkpt><trkpt lat="46.0747885" lon="11.9116663"><ele>599.5714285714286</ele><time>2026-04-02T11:00:43.784Z</time></trkpt><trkpt lat="46.0748096" lon="11.9117675"><ele>599.2857142857143</ele><time>2026-04-02T11:00:45.784Z</time></trkpt><trkpt lat="46.0748325" lon="11.9118665"><ele>599.0</ele><time>2026-04-02T11:00:47.782Z</time></trkpt><trkpt lat="46.0748096" lon="11.9120024"><ele>599.0</ele><time>2026-04-02T11:00:50.782Z</time></trkpt><trkpt lat="46.0747488" lon="11.9121038"><ele>599.0</ele><time>2026-04-02T11:00:53.782Z</time></trkpt><trkpt lat="46.0747037" lon="11.9121679"><ele>599.0</ele><time>2026-04-02T11:00:55.783Z</time></trkpt><trkpt lat="46.0746495" lon="11.9122728"><ele>599.0</ele><time>2026-04-02T11:00:58.782Z</time></trkpt><trkpt lat="46.0746137" lon="11.912387"><ele>599.0</ele><time>2026-04-02T11:01:01.784Z</time></trkpt><trkpt lat="46.0746071" lon="11.9125054"><ele>599.0</ele><time>2026-04-02T11:01:04.785Z</time></trkpt><trkpt lat="46.0746177" lon="11.9126081"><ele>599.0</ele><time>2026-04-02T11:01:06.784Z</time></trkpt><trkpt lat="46.0746279" lon="11.9127342"><ele>599.0</ele><time>2026-04-02T11:01:08.781Z</time></trkpt><trkpt lat="46.0746277" lon="11.9128815"><ele>599.0</ele><time>2026-04-02T11:01:10.782Z</time></trkpt><trkpt lat="46.074615" lon="11.9129908"><ele>599.0</ele><time>2026-04-02T11:01:12.784Z</time></trkpt><trkpt lat="46.0746036" lon="11.9130974"><ele>599.0</ele><time>2026-04-02T11:01:14.785Z</time></trkpt><trkpt lat="46.0746153" lon="11.9132399"><ele>599.0</ele><time>2026-04-02T11:01:17.783Z</time></trkpt><trkpt lat="46.074645" lon="11.9133816"><ele>598.5</ele><time>2026-04-02T11:01:19.779Z</time></trkpt><trkpt lat="46.0746645" lon="11.9134818"><ele>598.0</ele><time>2026-04-02T11:01:20.78Z</time></trkpt><trkpt lat="46.0746795" lon="11.9135756"><ele>597.5</ele><time>2026-04-02T11:01:21.78Z</time></trkpt><trkpt lat="46.0746858" lon="11.9136723"><ele>597.0</ele><time>2026-04-02T11:01:22.779Z</time></trkpt><trkpt lat="46.0746922" lon="11.9138327"><ele>596.5</ele><time>2026-04-02T11:01:24.779Z</time></trkpt><trkpt lat="46.0747107" lon="11.9139462"><ele>596.0</ele><time>2026-04-02T11:01:26.788Z</time></trkpt><trkpt lat="46.0747692" lon="11.9140271"><ele>596.0</ele><time>2026-04-02T11:01:29.78Z</time></trkpt><trkpt lat="46.0748454" lon="11.9140407"><ele>596.0</ele><time>2026-04-02T11:01:34.781Z</time></trkpt><trkpt lat="46.0749249" lon="11.9140777"><ele>596.0</ele><time>2026-04-02T11:01:38.781Z</time></trkpt><trkpt lat="46.0749954" lon="11.9141313"><ele>596.0</ele><time>2026-04-02T11:01:41.782Z</time></trkpt><trkpt lat="46.0750647" lon="11.9142005"><ele>596.0</ele><time>2026-04-02T11:01:44.781Z</time></trkpt><trkpt lat="46.0751519" lon="11.9142577"><ele>596.0</ele><time>2026-04-02T11:01:47.781Z</time></trkpt><trkpt lat="46.075219" lon="11.914305"><ele>597.8571428571429</ele><time>2026-04-02T11:01:49.781Z</time></trkpt><trkpt lat="46.0752927" lon="11.9143582"><ele>599.7142857142857</ele><time>2026-04-02T11:01:51.782Z</time></trkpt><trkpt lat="46.0753579" lon="11.9144055"><ele>601.5714285714286</ele><time>2026-04-02T11:01:53.784Z</time></trkpt><trkpt lat="46.0754188" lon="11.9144299"><ele>603.4285714285714</ele><time>2026-04-02T11:01:55.782Z</time></trkpt><trkpt lat="46.0754837" lon="11.9144495"><ele>605.2857142857142</ele><time>2026-04-02T11:01:58.782Z</time></trkpt><trkpt lat="46.0755611" lon="11.9144393"><ele>607.1428571428571</ele><time>2026-04-02T11:02:02.784Z</time></trkpt><trkpt lat="46.0756235" lon="11.9144018"><ele>609.0</ele><time>2026-04-02T11:02:05.782Z</time></trkpt><trkpt lat="46.0756804" lon="11.9143508"><ele>609.0</ele><time>2026-04-02T11:02:08.784Z</time></trkpt><trkpt lat="46.0757603" lon="11.9143197"><ele>609.0</ele><time>2026-04-02T11:02:11.781Z</time></trkpt><trkpt lat="46.0758382" lon="11.9143187"><ele>609.0</ele><time>2026-04-02T11:02:14.78Z</time></trkpt><trkpt lat="46.0759212" lon="11.914325"><ele>609.0</ele><time>2026-04-02T11:02:18.783Z</time></trkpt><trkpt lat="46.0759875" lon="11.9143615"><ele>609.0</ele><time>2026-04-02T11:02:22.783Z</time></trkpt><trkpt lat="46.0760524" lon="11.9143989"><ele>609.0</ele><time>2026-04-02T11:02:29.782Z</time></trkpt><trkpt lat="46.0761379" lon="11.9143897"><ele>612.8333333333334</ele><time>2026-04-02T11:02:33.782Z</time></trkpt><trkpt lat="46.0762092" lon="11.9143694"><ele>616.6666666666666</ele><time>2026-04-02T11:02:35.783Z</time></trkpt><trkpt lat="46.0762869" lon="11.914359"><ele>620.5</ele><time>2026-04-02T11:02:39.784Z</time></trkpt><trkpt lat="46.0763507" lon="11.9143257"><ele>624.3333333333333</ele><time>2026-04-02T11:02:41.784Z</time></trkpt><trkpt lat="46.0764165" lon="11.9143418"><ele>628.1666666666666</ele><time>2026-04-02T11:02:45.782Z</time></trkpt><trkpt lat="46.0765128" lon="11.9143419"><ele>632.0</ele><time>2026-04-02T11:02:55.782Z</time></trkpt><trkpt lat="46.0765788" lon="11.9143117"><ele>636.6666666666666</ele><time>2026-04-02T11:02:58.782Z</time></trkpt><trkpt lat="46.0766467" lon="11.9142968"><ele>641.3333333333333</ele><time>2026-04-02T11:03:02.784Z</time></trkpt><trkpt lat="46.0767116" lon="11.9142612"><ele>646.0</ele><time>2026-04-02T11:03:07.782Z</time></trkpt><trkpt lat="46.0767849" lon="11.9142952"><ele>650.6666666666666</ele><time>2026-04-02T11:03:12.785Z</time></trkpt><trkpt lat="46.0768676" lon="11.9143113"><ele>655.3333333333334</ele><time>2026-04-02T11:03:15.783Z</time></trkpt><trkpt lat="46.0769566" lon="11.914341"><ele>660.0</ele><time>2026-04-02T11:03:18.783Z</time></trkpt><trkpt lat="46.0770197" lon="11.9143659"><ele>660.0000000000001</ele><time>2026-04-02T11:03:21.781Z</time></trkpt><trkpt lat="46.077079" lon="11.9143974"><ele>660.0</ele><time>2026-04-02T11:03:26.782Z</time></trkpt><trkpt lat="46.0771537" lon="11.9143856"><ele>660.0</ele><time>2026-04-02T11:03:32.782Z</time></trkpt><trkpt lat="46.077214" lon="11.9143215"><ele>660.0</ele><time>2026-04-02T11:03:36.784Z</time></trkpt><trkpt lat="46.077267" lon="11.9142661"><ele>660.0</ele><time>2026-04-02T11:03:39.784Z</time></trkpt><trkpt lat="46.0773285" lon="11.9141648"><ele>660.0000000000001</ele><time>2026-04-02T11:03:44.784Z</time></trkpt><trkpt lat="46.0772701" lon="11.9140958"><ele>660.0</ele><time>2026-04-02T11:03:52.782Z</time></trkpt><trkpt lat="46.0772036" lon="11.9140432"><ele>660.1428571428572</ele><time>2026-04-02T11:03:58.784Z</time></trkpt><trkpt lat="46.0771411" lon="11.9139989"><ele>660.2857142857143</ele><time>2026-04-02T11:04:01.784Z</time></trkpt><trkpt lat="46.0771793" lon="11.913924"><ele>660.4285714285714</ele><time>2026-04-02T11:04:07.783Z</time></trkpt><trkpt lat="46.0772541" lon="11.9138987"><ele>660.5714285714287</ele><time>2026-04-02T11:04:12.784Z</time></trkpt><trkpt lat="46.0773238" lon="11.9138765"><ele>660.7142857142858</ele><time>2026-04-02T11:04:15.784Z</time></trkpt><trkpt lat="46.0773983" lon="11.9138635"><ele>660.8571428571429</ele><time>2026-04-02T11:04:19.785Z</time></trkpt><trkpt lat="46.0774629" lon="11.9138503"><ele>661.0</ele><time>2026-04-02T11:04:23.781Z</time></trkpt><trkpt lat="46.077527" lon="11.9138487"><ele>665.3333333333334</ele><time>2026-04-02T11:04:27.784Z</time></trkpt><trkpt lat="46.0775913" lon="11.9138496"><ele>669.6666666666667</ele><time>2026-04-02T11:04:35.784Z</time></trkpt><trkpt lat="46.077695" lon="11.9138525"><ele>674.0</ele><time>2026-04-02T11:04:40.783Z</time></trkpt><trkpt lat="46.0777654" lon="11.9138523"><ele>678.3333333333334</ele><time>2026-04-02T11:04:44.783Z</time></trkpt><trkpt lat="46.0778483" lon="11.9138558"><ele>682.6666666666666</ele><time>2026-04-02T11:04:49.782Z</time></trkpt><trkpt lat="46.0779209" lon="11.9138671"><ele>687.0</ele><time>2026-04-02T11:04:53.784Z</time></trkpt><trkpt lat="46.0779976" lon="11.9138771"><ele>687.0</ele><time>2026-04-02T11:04:57.784Z</time></trkpt><trkpt lat="46.0780836" lon="11.9139924"><ele>687.0</ele><time>2026-04-02T11:05:11.782Z</time></trkpt><trkpt lat="46.078137" lon="11.9140578"><ele>687.0</ele><time>2026-04-02T11:05:13.782Z</time></trkpt><trkpt lat="46.0781068" lon="11.9141627"><ele>687.0</ele><time>2026-04-02T11:05:18.784Z</time></trkpt><trkpt lat="46.0780913" lon="11.9142561"><ele>687.0</ele><time>2026-04-02T11:05:22.783Z</time></trkpt><trkpt lat="46.078073" lon="11.9143496"><ele>687.0</ele><time>2026-04-02T11:05:26.785Z</time></trkpt><trkpt lat="46.0780526" lon="11.9144416"><ele>686.5714285714286</ele><time>2026-04-02T11:05:30.784Z</time></trkpt><trkpt lat="46.0780298" lon="11.9145372"><ele>686.1428571428571</ele><time>2026-04-02T11:05:35.785Z</time></trkpt><trkpt lat="46.0780578" lon="11.9146264"><ele>685.7142857142857</ele><time>2026-04-02T11:06:25.783Z</time></trkpt><trkpt lat="46.0780987" lon="11.9147256"><ele>685.2857142857142</ele><time>2026-04-02T11:06:30.784Z</time></trkpt><trkpt lat="46.0781407" lon="11.9148108"><ele>684.8571428571429</ele><time>2026-04-02T11:06:34.781Z</time></trkpt><trkpt lat="46.0781759" lon="11.9148928"><ele>684.4285714285713</ele><time>2026-04-02T11:06:38.783Z</time></trkpt><trkpt lat="46.0782208" lon="11.9149613"><ele>684.0</ele><time>2026-04-02T11:06:41.783Z</time></trkpt><trkpt lat="46.0782411" lon="11.9150544"><ele>686.2857142857142</ele><time>2026-04-02T11:06:44.783Z</time></trkpt><trkpt lat="46.0782515" lon="11.9151595"><ele>688.5714285714286</ele><time>2026-04-02T11:06:48.784Z</time></trkpt><trkpt lat="46.0782752" lon="11.9152438"><ele>690.8571428571429</ele><time>2026-04-02T11:06:53.781Z</time></trkpt><trkpt lat="46.0782965" lon="11.9153337"><ele>693.1428571428571</ele><time>2026-04-02T11:06:57.783Z</time></trkpt><trkpt lat="46.0783017" lon="11.9154253"><ele>695.4285714285714</ele><time>2026-04-02T11:07:01.785Z</time></trkpt><trkpt lat="46.0782761" lon="11.9155152"><ele>697.7142857142857</ele><time>2026-04-02T11:07:04.785Z</time></trkpt><trkpt lat="46.0782702" lon="11.9156187"><ele>700.0</ele><time>2026-04-02T11:07:08.785Z</time></trkpt><trkpt lat="46.0782684" lon="11.9157153"><ele>704.5714285714286</ele><time>2026-04-02T11:07:11.783Z</time></trkpt><trkpt lat="46.0782736" lon="11.9158229"><ele>709.1428571428571</ele><time>2026-04-02T11:07:14.784Z</time></trkpt><trkpt lat="46.0783225" lon="11.9159173"><ele>713.7142857142858</ele><time>2026-04-02T11:07:18.784Z</time></trkpt><trkpt lat="46.0783852" lon="11.9159725"><ele>718.2857142857142</ele><time>2026-04-02T11:07:22.783Z</time></trkpt><trkpt lat="46.0784079" lon="11.9160701"><ele>722.8571428571429</ele><time>2026-04-02T11:07:26.785Z</time></trkpt><trkpt lat="46.0784342" lon="11.9161732"><ele>727.4285714285714</ele><time>2026-04-02T11:07:30.784Z</time></trkpt><trkpt lat="46.0784802" lon="11.9162514"><ele>732.0</ele><time>2026-04-02T11:07:33.783Z</time></trkpt><trkpt lat="46.0785028" lon="11.9163392"><ele>732.1428571428571</ele><time>2026-04-02T11:07:36.781Z</time></trkpt><trkpt lat="46.0785317" lon="11.9164289"><ele>732.2857142857143</ele><time>2026-04-02T11:07:39.781Z</time></trkpt><trkpt lat="46.0785399" lon="11.91653"><ele>732.4285714285713</ele><time>2026-04-02T11:07:42.784Z</time></trkpt><trkpt lat="46.0785617" lon="11.9166257"><ele>732.5714285714286</ele><time>2026-04-02T11:07:46.784Z</time></trkpt><trkpt lat="46.0786313" lon="11.9165903"><ele>732.7142857142857</ele><time>2026-04-02T11:07:51.783Z</time></trkpt><trkpt lat="46.0786349" lon="11.9164813"><ele>732.8571428571428</ele><time>2026-04-02T11:07:55.781Z</time></trkpt><trkpt lat="46.0786575" lon="11.9163783"><ele>733.0</ele><time>2026-04-02T11:07:59.785Z</time></trkpt><trkpt lat="46.078689" lon="11.9162758"><ele>732.9999999999999</ele><time>2026-04-02T11:08:04.782Z</time></trkpt><trkpt lat="46.0786796" lon="11.9161728"><ele>733.0</ele><time>2026-04-02T11:08:08.783Z</time></trkpt><trkpt lat="46.0786959" lon="11.9160741"><ele>733.0</ele><time>2026-04-02T11:08:13.783Z</time></trkpt><trkpt lat="46.0787178" lon="11.9159605"><ele>733.0</ele><time>2026-04-02T11:08:16.784Z</time></trkpt><trkpt lat="46.0787161" lon="11.9158505"><ele>733.0</ele><time>2026-04-02T11:08:19.783Z</time></trkpt><trkpt lat="46.0787416" lon="11.9157546"><ele>732.9999999999999</ele><time>2026-04-02T11:08:24.785Z</time></trkpt><trkpt lat="46.0787706" lon="11.9156626"><ele>733.0</ele><time>2026-04-02T11:08:28.784Z</time></trkpt><trkpt lat="46.0788216" lon="11.9155817"><ele>732.8333333333334</ele><time>2026-04-02T11:08:34.784Z</time></trkpt><trkpt lat="46.0788868" lon="11.9154943"><ele>732.6666666666667</ele><time>2026-04-02T11:08:43.784Z</time></trkpt><trkpt lat="46.0789392" lon="11.9154368"><ele>732.5</ele><time>2026-04-02T11:08:45.783Z</time></trkpt><trkpt lat="46.0789857" lon="11.9153706"><ele>732.3333333333334</ele><time>2026-04-02T11:08:48.783Z</time></trkpt><trkpt lat="46.0789984" lon="11.9152718"><ele>732.1666666666666</ele><time>2026-04-02T11:08:51.784Z</time></trkpt><trkpt lat="46.0790568" lon="11.9151945"><ele>732.0</ele><time>2026-04-02T11:08:55.786Z</time></trkpt><trkpt lat="46.0791046" lon="11.9150951"><ele>737.1428571428571</ele><time>2026-04-02T11:08:59.78Z</time></trkpt><trkpt lat="46.0791456" lon="11.9149996"><ele>742.2857142857143</ele><time>2026-04-02T11:09:04.784Z</time></trkpt><trkpt lat="46.0791855" lon="11.914915"><ele>747.4285714285713</ele><time>2026-04-02T11:09:08.784Z</time></trkpt><trkpt lat="46.0792299" lon="11.9148366"><ele>752.5714285714286</ele><time>2026-04-02T11:09:13.785Z</time></trkpt><trkpt lat="46.0792824" lon="11.9147644"><ele>757.7142857142857</ele><time>2026-04-02T11:09:16.784Z</time></trkpt><trkpt lat="46.0793341" lon="11.9147093"><ele>762.8571428571428</ele><time>2026-04-02T11:09:20.785Z</time></trkpt><trkpt lat="46.0794021" lon="11.9146723"><ele>768.0</ele><time>2026-04-02T11:09:24.785Z</time></trkpt><trkpt lat="46.0794662" lon="11.9146507"><ele>767.9999999999999</ele><time>2026-04-02T11:09:27.784Z</time></trkpt><trkpt lat="46.079534" lon="11.9146153"><ele>768.0</ele><time>2026-04-02T11:09:30.784Z</time></trkpt><trkpt lat="46.079583" lon="11.9145483"><ele>768.0</ele><time>2026-04-02T11:09:33.784Z</time></trkpt><trkpt lat="46.079624" lon="11.9144732"><ele>768.0</ele><time>2026-04-02T11:09:36.784Z</time></trkpt><trkpt lat="46.0796783" lon="11.9143953"><ele>768.0</ele><time>2026-04-02T11:09:40.784Z</time></trkpt><trkpt lat="46.0797163" lon="11.9143034"><ele>767.9999999999999</ele><time>2026-04-02T11:09:44.784Z</time></trkpt><trkpt lat="46.0797629" lon="11.9142254"><ele>768.0</ele><time>2026-04-02T11:09:47.784Z</time></trkpt><trkpt lat="46.0798087" lon="11.914126"><ele>767.8571428571428</ele><time>2026-04-02T11:09:50.782Z</time></trkpt><trkpt lat="46.0798341" lon="11.914037"><ele>767.7142857142857</ele><time>2026-04-02T11:09:54.784Z</time></trkpt><trkpt lat="46.0798453" lon="11.9139359"><ele>767.5714285714286</ele><time>2026-04-02T11:09:58.783Z</time></trkpt><trkpt lat="46.0798637" lon="11.913833"><ele>767.4285714285713</ele><time>2026-04-02T11:10:01.783Z</time></trkpt><trkpt lat="46.0798641" lon="11.9137346"><ele>767.2857142857143</ele><time>2026-04-02T11:10:04.783Z</time></trkpt><trkpt lat="46.0799086" lon="11.9136704"><ele>767.1428571428571</ele><time>2026-04-02T11:10:10.783Z</time></trkpt><trkpt lat="46.0799438" lon="11.9135799"><ele>767.0</ele><time>2026-04-02T11:10:14.785Z</time></trkpt><trkpt lat="46.0799863" lon="11.9135008"><ele>771.8571428571429</ele><time>2026-04-02T11:10:18.784Z</time></trkpt><trkpt lat="46.0800401" lon="11.9134434"><ele>776.7142857142858</ele><time>2026-04-02T11:10:22.783Z</time></trkpt><trkpt lat="46.0800989" lon="11.9133854"><ele>781.5714285714286</ele><time>2026-04-02T11:10:26.783Z</time></trkpt><trkpt lat="46.080162" lon="11.9133157"><ele>786.4285714285714</ele><time>2026-04-02T11:10:31.784Z</time></trkpt><trkpt lat="46.080219" lon="11.9132572"><ele>791.2857142857142</ele><time>2026-04-02T11:10:37.784Z</time></trkpt><trkpt lat="46.0802905" lon="11.9132076"><ele>796.1428571428571</ele><time>2026-04-02T11:10:42.783Z</time></trkpt><trkpt lat="46.0803504" lon="11.9131283"><ele>801.0</ele><time>2026-04-02T11:10:47.781Z</time></trkpt><trkpt lat="46.0803922" lon="11.9130545"><ele>801.0</ele><time>2026-04-02T11:10:51.783Z</time></trkpt><trkpt lat="46.0804366" lon="11.9129726"><ele>801.0</ele><time>2026-04-02T11:10:55.783Z</time></trkpt><trkpt lat="46.0804625" lon="11.9128728"><ele>801.0</ele><time>2026-04-02T11:10:59.783Z</time></trkpt><trkpt lat="46.0805337" lon="11.9128112"><ele>801.0</ele><time>2026-04-02T11:11:07.785Z</time></trkpt><trkpt lat="46.0805859" lon="11.9127447"><ele>801.0</ele><time>2026-04-02T11:11:10.783Z</time></trkpt><trkpt lat="46.0806145" lon="11.9126546"><ele>801.0</ele><time>2026-04-02T11:11:13.784Z</time></trkpt><trkpt lat="46.0806266" lon="11.9125523"><ele>801.0</ele><time>2026-04-02T11:11:16.782Z</time></trkpt><trkpt lat="46.0806216" lon="11.912454"><ele>803.2857142857142</ele><time>2026-04-02T11:11:19.784Z</time></trkpt><trkpt lat="46.0806334" lon="11.9123395"><ele>805.5714285714286</ele><time>2026-04-02T11:11:23.784Z</time></trkpt><trkpt lat="46.0806324" lon="11.9122365"><ele>807.8571428571429</ele><time>2026-04-02T11:11:27.782Z</time></trkpt><trkpt lat="46.0806526" lon="11.9121272"><ele>810.1428571428571</ele><time>2026-04-02T11:11:31.784Z</time></trkpt><trkpt lat="46.0806383" lon="11.9120254"><ele>812.4285714285714</ele><time>2026-04-02T11:11:36.784Z</time></trkpt><trkpt lat="46.0806278" lon="11.9119168"><ele>814.7142857142857</ele><time>2026-04-02T11:11:41.783Z</time></trkpt><trkpt lat="46.0805982" lon="11.9118292"><ele>817.0</ele><time>2026-04-02T11:11:46.781Z</time></trkpt><trkpt lat="46.0806115" lon="11.9117375"><ele>816.9999999999999</ele><time>2026-04-02T11:11:52.783Z</time></trkpt><trkpt lat="46.0806386" lon="11.9118305"><ele>817.0</ele><time>2026-04-02T11:11:58.784Z</time></trkpt><trkpt lat="46.0806927" lon="11.9118887"><ele>817.0</ele><time>2026-04-02T11:12:02.784Z</time></trkpt><trkpt lat="46.0807366" lon="11.9119801"><ele>817.0</ele><time>2026-04-02T11:12:07.785Z</time></trkpt><trkpt lat="46.0807598" lon="11.9120717"><ele>817.0</ele><time>2026-04-02T11:12:11.783Z</time></trkpt><trkpt lat="46.0807938" lon="11.9121601"><ele>816.9999999999999</ele><time>2026-04-02T11:12:16.784Z</time></trkpt><trkpt lat="46.0808709" lon="11.9121647"><ele>817.0</ele><time>2026-04-02T11:12:22.784Z</time></trkpt><trkpt lat="46.0809231" lon="11.9121092"><ele>821.1666666666666</ele><time>2026-04-02T11:12:25.784Z</time></trkpt><trkpt lat="46.0809413" lon="11.9120043"><ele>825.3333333333333</ele><time>2026-04-02T11:12:29.782Z</time></trkpt><trkpt lat="46.0809559" lon="11.9118972"><ele>829.5</ele><time>2026-04-02T11:12:33.783Z</time></trkpt><trkpt lat="46.0809758" lon="11.9118038"><ele>833.6666666666667</ele><time>2026-04-02T11:12:37.779Z</time></trkpt><trkpt lat="46.0810005" lon="11.9116912"><ele>837.8333333333334</ele><time>2026-04-02T11:12:43.781Z</time></trkpt><trkpt lat="46.080983" lon="11.9115749"><ele>842.0</ele><time>2026-04-02T11:12:46.784Z</time></trkpt><trkpt lat="46.0809603" lon="11.9114829"><ele>843.5714285714287</ele><time>2026-04-02T11:12:49.782Z</time></trkpt><trkpt lat="46.0809521" lon="11.9113883"><ele>845.1428571428571</ele><time>2026-04-02T11:12:53.781Z</time></trkpt><trkpt lat="46.080906" lon="11.9113169"><ele>846.7142857142858</ele><time>2026-04-02T11:12:57.784Z</time></trkpt><trkpt lat="46.0808557" lon="11.9112531"><ele>848.2857142857143</ele><time>2026-04-02T11:13:01.784Z</time></trkpt><trkpt lat="46.0807836" lon="11.9112593"><ele>849.8571428571429</ele><time>2026-04-02T11:13:04.782Z</time></trkpt><trkpt lat="46.0807078" lon="11.9112796"><ele>851.4285714285714</ele><time>2026-04-02T11:13:07.784Z</time></trkpt><trkpt lat="46.0806161" lon="11.9113017"><ele>853.0</ele><time>2026-04-02T11:13:10.782Z</time></trkpt><trkpt lat="46.0805453" lon="11.9113034"><ele>853.0</ele><time>2026-04-02T11:13:13.783Z</time></trkpt><trkpt lat="46.0804647" lon="11.9112903"><ele>853.0</ele><time>2026-04-02T11:13:17.785Z</time></trkpt><trkpt lat="46.0803991" lon="11.9112505"><ele>853.0</ele><time>2026-04-02T11:13:20.785Z</time></trkpt><trkpt lat="46.0803359" lon="11.9112259"><ele>853.0</ele><time>2026-04-02T11:13:24.785Z</time></trkpt><trkpt lat="46.080265" lon="11.9111991"><ele>853.0</ele><time>2026-04-02T11:13:27.783Z</time></trkpt><trkpt lat="46.0801852" lon="11.9111991"><ele>853.0</ele><time>2026-04-02T11:13:30.783Z</time></trkpt><trkpt lat="46.0801223" lon="11.9112226"><ele>853.0</ele><time>2026-04-02T11:13:33.785Z</time></trkpt><trkpt lat="46.080049" lon="11.9112315"><ele>852.9999999999999</ele><time>2026-04-02T11:13:36.785Z</time></trkpt><trkpt lat="46.0799807" lon="11.9112168"><ele>853.0</ele><time>2026-04-02T11:13:39.784Z</time></trkpt><trkpt lat="46.0799036" lon="11.9112092"><ele>853.0</ele><time>2026-04-02T11:13:42.782Z</time></trkpt><trkpt lat="46.0798319" lon="11.9111801"><ele>853.0</ele><time>2026-04-02T11:13:45.785Z</time></trkpt><trkpt lat="46.0797464" lon="11.9111478"><ele>852.9999999999999</ele><time>2026-04-02T11:13:49.784Z</time></trkpt><trkpt lat="46.0796741" lon="11.9111078"><ele>853.0</ele><time>2026-04-02T11:13:53.783Z</time></trkpt><trkpt lat="46.0796041" lon="11.9110828"><ele>851.9999999999999</ele><time>2026-04-02T11:13:57.785Z</time></trkpt><trkpt lat="46.0795411" lon="11.9110054"><ele>851.0</ele><time>2026-04-02T11:14:00.785Z</time></trkpt><trkpt lat="46.079488" lon="11.910921"><ele>850.0</ele><time>2026-04-02T11:14:04.785Z</time></trkpt><trkpt lat="46.0794651" lon="11.9108092"><ele>849.0</ele><time>2026-04-02T11:14:08.783Z</time></trkpt><trkpt lat="46.0794039" lon="11.9107031"><ele>847.9999999999999</ele><time>2026-04-02T11:14:12.784Z</time></trkpt><trkpt lat="46.0793559" lon="11.9106413"><ele>847.0</ele><time>2026-04-02T11:14:14.783Z</time></trkpt><trkpt lat="46.0792747" lon="11.9105994"><ele>846.4999999999999</ele><time>2026-04-02T11:14:17.784Z</time></trkpt><trkpt lat="46.0792055" lon="11.9105951"><ele>846.0</ele><time>2026-04-02T11:14:20.785Z</time></trkpt><trkpt lat="46.0791273" lon="11.9105948"><ele>845.5</ele><time>2026-04-02T11:14:23.783Z</time></trkpt><trkpt lat="46.0790502" lon="11.9106175"><ele>845.0</ele><time>2026-04-02T11:14:26.785Z</time></trkpt><trkpt lat="46.0789808" lon="11.9105885"><ele>844.4999999999999</ele><time>2026-04-02T11:14:30.785Z</time></trkpt><trkpt lat="46.0789413" lon="11.9104872"><ele>844.0</ele><time>2026-04-02T11:14:33.784Z</time></trkpt><trkpt lat="46.0789288" lon="11.9103773"><ele>843.9999999999999</ele><time>2026-04-02T11:14:37.784Z</time></trkpt><trkpt lat="46.0789023" lon="11.9102857"><ele>844.0</ele><time>2026-04-02T11:14:40.784Z</time></trkpt><trkpt lat="46.0788836" lon="11.9101758"><ele>844.0</ele><time>2026-04-02T11:14:44.785Z</time></trkpt><trkpt lat="46.0789079" lon="11.9100683"><ele>844.0</ele><time>2026-04-02T11:14:48.785Z</time></trkpt><trkpt lat="46.0789084" lon="11.9099672"><ele>843.9999999999999</ele><time>2026-04-02T11:14:51.784Z</time></trkpt><trkpt lat="46.0789206" lon="11.9098566"><ele>844.0</ele><time>2026-04-02T11:14:54.782Z</time></trkpt><trkpt lat="46.0789624" lon="11.9097551"><ele>844.8571428571429</ele><time>2026-04-02T11:14:58.782Z</time></trkpt><trkpt lat="46.0790093" lon="11.9096837"><ele>845.7142857142858</ele><time>2026-04-02T11:15:01.783Z</time></trkpt><trkpt lat="46.0790467" lon="11.9096039"><ele>846.5714285714286</ele><time>2026-04-02T11:15:04.784Z</time></trkpt><trkpt lat="46.07911" lon="11.9095288"><ele>847.4285714285714</ele><time>2026-04-02T11:15:08.784Z</time></trkpt><trkpt lat="46.0791627" lon="11.9094273"><ele>848.2857142857142</ele><time>2026-04-02T11:15:11.783Z</time></trkpt><trkpt lat="46.0792015" lon="11.9093441"><ele>849.1428571428571</ele><time>2026-04-02T11:15:15.784Z</time></trkpt><trkpt lat="46.0792341" lon="11.9092654"><ele>850.0</ele><time>2026-04-02T11:15:18.783Z</time></trkpt><trkpt lat="46.0792738" lon="11.9091811"><ele>857.3333333333333</ele><time>2026-04-02T11:15:20.784Z</time></trkpt><trkpt lat="46.079312" lon="11.9090833"><ele>864.6666666666666</ele><time>2026-04-02T11:15:22.783Z</time></trkpt><trkpt lat="46.0793252" lon="11.9089781"><ele>872.0</ele><time>2026-04-02T11:15:24.784Z</time></trkpt><trkpt lat="46.0793288" lon="11.9088068"><ele>879.3333333333333</ele><time>2026-04-02T11:15:26.784Z</time></trkpt><trkpt lat="46.0793389" lon="11.9086635"><ele>886.6666666666666</ele><time>2026-04-02T11:15:28.783Z</time></trkpt><trkpt lat="46.0793482" lon="11.9085594"><ele>894.0</ele><time>2026-04-02T11:15:30.782Z</time></trkpt><trkpt lat="46.0793687" lon="11.9084587"><ele>893.7142857142857</ele><time>2026-04-02T11:15:32.781Z</time></trkpt><trkpt lat="46.0793844" lon="11.9083414"><ele>893.4285714285714</ele><time>2026-04-02T11:15:35.785Z</time></trkpt><trkpt lat="46.0793658" lon="11.9082485"><ele>893.1428571428571</ele><time>2026-04-02T11:15:38.785Z</time></trkpt><trkpt lat="46.0793157" lon="11.9081598"><ele>892.8571428571429</ele><time>2026-04-02T11:15:41.785Z</time></trkpt><trkpt lat="46.0792621" lon="11.9080931"><ele>892.5714285714286</ele><time>2026-04-02T11:15:44.785Z</time></trkpt><trkpt lat="46.0792127" lon="11.9080269"><ele>892.2857142857142</ele><time>2026-04-02T11:15:48.785Z</time></trkpt><trkpt lat="46.0791595" lon="11.9079581"><ele>892.0</ele><time>2026-04-02T11:15:51.785Z</time></trkpt><trkpt lat="46.0791267" lon="11.9078548"><ele>891.9999999999999</ele><time>2026-04-02T11:15:55.783Z</time></trkpt><trkpt lat="46.0791145" lon="11.907729"><ele>892.0</ele><time>2026-04-02T11:15:59.785Z</time></trkpt><trkpt lat="46.0790989" lon="11.9076375"><ele>892.0</ele><time>2026-04-02T11:16:01.785Z</time></trkpt><trkpt lat="46.0790782" lon="11.9075136"><ele>892.0</ele><time>2026-04-02T11:16:04.785Z</time></trkpt><trkpt lat="46.0790602" lon="11.9074154"><ele>891.9999999999999</ele><time>2026-04-02T11:16:07.784Z</time></trkpt><trkpt lat="46.0790359" lon="11.9073092"><ele>892.0</ele><time>2026-04-02T11:16:10.783Z</time></trkpt><trkpt lat="46.0789851" lon="11.9072396"><ele>889.7142857142857</ele><time>2026-04-02T11:16:13.783Z</time></trkpt><trkpt lat="46.0789399" lon="11.9071696"><ele>887.4285714285713</ele><time>2026-04-02T11:16:16.784Z</time></trkpt><trkpt lat="46.078878" lon="11.9071203"><ele>885.1428571428571</ele><time>2026-04-02T11:16:19.783Z</time></trkpt><trkpt lat="46.0788109" lon="11.9070994"><ele>882.8571428571429</ele><time>2026-04-02T11:16:22.785Z</time></trkpt><trkpt lat="46.0787494" lon="11.9070251"><ele>880.5714285714286</ele><time>2026-04-02T11:16:26.784Z</time></trkpt><trkpt lat="46.0787066" lon="11.9069509"><ele>878.2857142857143</ele><time>2026-04-02T11:16:29.785Z</time></trkpt><trkpt lat="46.0786557" lon="11.9068492"><ele>876.0</ele><time>2026-04-02T11:16:32.783Z</time></trkpt><trkpt lat="46.0786171" lon="11.9067651"><ele>881.8333333333334</ele><time>2026-04-02T11:16:35.784Z</time></trkpt><trkpt lat="46.0785681" lon="11.9066723"><ele>887.6666666666667</ele><time>2026-04-02T11:16:39.785Z</time></trkpt><trkpt lat="46.0785214" lon="11.9065675"><ele>893.5</ele><time>2026-04-02T11:16:42.784Z</time></trkpt><trkpt lat="46.0784977" lon="11.9064594"><ele>899.3333333333334</ele><time>2026-04-02T11:16:46.784Z</time></trkpt><trkpt lat="46.0784851" lon="11.906336"><ele>905.1666666666667</ele><time>2026-04-02T11:16:50.783Z</time></trkpt><trkpt lat="46.0784682" lon="11.9062386"><ele>911.0</ele><time>2026-04-02T11:16:53.783Z</time></trkpt><trkpt lat="46.0784299" lon="11.9061333"><ele>911.0</ele><time>2026-04-02T11:16:56.783Z</time></trkpt><trkpt lat="46.0784116" lon="11.9060432"><ele>911.0</ele><time>2026-04-02T11:16:59.784Z</time></trkpt><trkpt lat="46.0783922" lon="11.9059294"><ele>911.0</ele><time>2026-04-02T11:17:03.783Z</time></trkpt><trkpt lat="46.0783574" lon="11.9058497"><ele>911.0</ele><time>2026-04-02T11:17:06.782Z</time></trkpt><trkpt lat="46.0783529" lon="11.9057396"><ele>911.0</ele><time>2026-04-02T11:17:11.784Z</time></trkpt><trkpt lat="46.0783255" lon="11.9056549"><ele>911.0</ele><time>2026-04-02T11:17:15.784Z</time></trkpt><trkpt lat="46.078264" lon="11.9056201"><ele>911.0</ele><time>2026-04-02T11:17:20.781Z</time></trkpt><trkpt lat="46.0783092" lon="11.9056917"><ele>911.0</ele><time>2026-04-02T11:19:15.783Z</time></trkpt><trkpt lat="46.0783191" lon="11.9056013"><ele>911.0</ele><time>2026-04-02T11:21:21.782Z</time></trkpt><trkpt lat="46.0782924" lon="11.9056927"><ele>911.0</ele><time>2026-04-02T11:23:29.784Z</time></trkpt><trkpt lat="46.0783146" lon="11.9057801"><ele>911.0</ele><time>2026-04-02T11:23:35.784Z</time></trkpt><trkpt lat="46.0783669" lon="11.9058307"><ele>911.0</ele><time>2026-04-02T11:23:39.782Z</time></trkpt><trkpt lat="46.0784157" lon="11.9058908"><ele>911.0</ele><time>2026-04-02T11:23:43.785Z</time></trkpt><trkpt lat="46.0784663" lon="11.9059561"><ele>911.0</ele><time>2026-04-02T11:24:48.785Z</time></trkpt><trkpt lat="46.078533" lon="11.9059953"><ele>911.0000000000001</ele><time>2026-04-02T11:25:08.785Z</time></trkpt><trkpt lat="46.0785561" lon="11.9060825"><ele>911.0</ele><time>2026-04-02T11:25:31.781Z</time></trkpt><trkpt lat="46.0786112" lon="11.9061414"><ele>911.0</ele><time>2026-04-02T11:25:43.784Z</time></trkpt><trkpt lat="46.0786602" lon="11.9062089"><ele>911.0</ele><time>2026-04-02T11:25:49.785Z</time></trkpt><trkpt lat="46.0787129" lon="11.9062894"><ele>911.0000000000001</ele><time>2026-04-02T11:25:54.784Z</time></trkpt><trkpt lat="46.0787998" lon="11.9063902"><ele>911.0</ele><time>2026-04-02T11:26:04.783Z</time></trkpt><trkpt lat="46.0788603" lon="11.9064159"><ele>911.0</ele><time>2026-04-02T11:26:09.784Z</time></trkpt><trkpt lat="46.0789244" lon="11.9064431"><ele>911.0</ele><time>2026-04-02T11:26:15.784Z</time></trkpt><trkpt lat="46.0790001" lon="11.906476"><ele>911.0</ele><time>2026-04-02T11:26:32.782Z</time></trkpt><trkpt lat="46.079068" lon="11.906506"><ele>911.0</ele><time>2026-04-02T11:26:36.782Z</time></trkpt><trkpt lat="46.0791402" lon="11.906538"><ele>911.0</ele><time>2026-04-02T11:26:39.784Z</time></trkpt><trkpt lat="46.0792102" lon="11.9065606"><ele>911.0</ele><time>2026-04-02T11:26:43.784Z</time></trkpt><trkpt lat="46.079271" lon="11.9065863"><ele>911.0</ele><time>2026-04-02T11:26:48.785Z</time></trkpt><trkpt lat="46.0793542" lon="11.9066154"><ele>912.4285714285714</ele><time>2026-04-02T11:26:54.783Z</time></trkpt><trkpt lat="46.0794091" lon="11.9066602"><ele>913.8571428571429</ele><time>2026-04-02T11:26:57.783Z</time></trkpt><trkpt lat="46.0794665" lon="11.9067274"><ele>915.2857142857143</ele><time>2026-04-02T11:27:01.783Z</time></trkpt><trkpt lat="46.0795251" lon="11.9068083"><ele>916.7142857142858</ele><time>2026-04-02T11:27:06.785Z</time></trkpt><trkpt lat="46.0795786" lon="11.9068801"><ele>918.1428571428571</ele><time>2026-04-02T11:27:11.782Z</time></trkpt><trkpt lat="46.0796201" lon="11.9069542"><ele>919.5714285714287</ele><time>2026-04-02T11:27:15.784Z</time></trkpt><trkpt lat="46.0796549" lon="11.9070333"><ele>921.0000000000001</ele><time>2026-04-02T11:27:19.782Z</time></trkpt><trkpt lat="46.0797121" lon="11.9071126"><ele>921.0000000000001</ele><time>2026-04-02T11:27:25.784Z</time></trkpt><trkpt lat="46.0797749" lon="11.907199"><ele>921.0</ele><time>2026-04-02T11:27:31.784Z</time></trkpt><trkpt lat="46.0798272" lon="11.9072611"><ele>921.0000000000001</ele><time>2026-04-02T11:27:34.781Z</time></trkpt><trkpt lat="46.0798924" lon="11.9072937"><ele>921.0000000000001</ele><time>2026-04-02T11:27:37.783Z</time></trkpt><trkpt lat="46.079951" lon="11.9072463"><ele>921.0</ele><time>2026-04-02T11:28:07.783Z</time></trkpt><trkpt lat="46.0799814" lon="11.9071651"><ele>921.0000000000001</ele><time>2026-04-02T11:28:11.784Z</time></trkpt><trkpt lat="46.0800587" lon="11.9071721"><ele>921.0000000000001</ele><time>2026-04-02T11:29:56.78Z</time></trkpt><trkpt lat="46.0800092" lon="11.9071094"><ele>927.1666666666666</ele><time>2026-04-02T11:30:37.784Z</time></trkpt><trkpt lat="46.0800525" lon="11.9069925"><ele>933.3333333333333</ele><time>2026-04-02T11:30:56.782Z</time></trkpt><trkpt lat="46.0801042" lon="11.9069183"><ele>939.5</ele><time>2026-04-02T11:30:59.784Z</time></trkpt><trkpt lat="46.0801634" lon="11.9068509"><ele>945.6666666666666</ele><time>2026-04-02T11:31:19.781Z</time></trkpt><trkpt lat="46.0801999" lon="11.9067763"><ele>951.8333333333333</ele><time>2026-04-02T11:31:25.783Z</time></trkpt><trkpt lat="46.0802305" lon="11.9066741"><ele>958.0</ele><time>2026-04-02T11:32:04.784Z</time></trkpt><trkpt lat="46.0801617" lon="11.9066896"><ele>957.9999999999999</ele><time>2026-04-02T11:32:30.786Z</time></trkpt><trkpt lat="46.0801716" lon="11.9068236"><ele>958.0</ele><time>2026-04-02T11:34:01.785Z</time></trkpt><trkpt lat="46.0800821" lon="11.9069072"><ele>958.0</ele><time>2026-04-02T11:34:23.782Z</time></trkpt><trkpt lat="46.0800359" lon="11.9069841"><ele>958.0</ele><time>2026-04-02T11:34:27.783Z</time></trkpt><trkpt lat="46.0800523" lon="11.9070815"><ele>957.9999999999999</ele><time>2026-04-02T11:34:31.782Z</time></trkpt><trkpt lat="46.080046" lon="11.9071863"><ele>958.0</ele><time>2026-04-02T11:34:48.782Z</time></trkpt><trkpt lat="46.0800086" lon="11.9072596"><ele>958.0</ele><time>2026-04-02T11:34:54.784Z</time></trkpt><trkpt lat="46.079944" lon="11.9073294"><ele>958.0</ele><time>2026-04-02T11:35:00.785Z</time></trkpt><trkpt lat="46.0798674" lon="11.9073299"><ele>958.0</ele><time>2026-04-02T11:35:19.784Z</time></trkpt><trkpt lat="46.0798281" lon="11.9072486"><ele>958.0</ele><time>2026-04-02T11:35:23.783Z</time></trkpt><trkpt lat="46.0797927" lon="11.9071645"><ele>958.0</ele><time>2026-04-02T11:35:27.783Z</time></trkpt><trkpt lat="46.0797643" lon="11.9070677"><ele>958.0</ele><time>2026-04-02T11:35:32.783Z</time></trkpt><trkpt lat="46.0797198" lon="11.906975"><ele>958.0</ele><time>2026-04-02T11:35:36.785Z</time></trkpt><trkpt lat="46.0796742" lon="11.9069023"><ele>955.7142857142857</ele><time>2026-04-02T11:35:39.783Z</time></trkpt><trkpt lat="46.0796368" lon="11.9067915"><ele>953.4285714285716</ele><time>2026-04-02T11:35:43.784Z</time></trkpt><trkpt lat="46.0796093" lon="11.9067092"><ele>951.1428571428572</ele><time>2026-04-02T11:35:46.785Z</time></trkpt><trkpt lat="46.0795498" lon="11.9066417"><ele>948.8571428571429</ele><time>2026-04-02T11:35:49.785Z</time></trkpt><trkpt lat="46.079476" lon="11.9066066"><ele>946.5714285714287</ele><time>2026-04-02T11:35:53.783Z</time></trkpt><trkpt lat="46.0794079" lon="11.9065862"><ele>944.2857142857144</ele><time>2026-04-02T11:35:56.786Z</time></trkpt><trkpt lat="46.0793355" lon="11.9065608"><ele>942.0000000000001</ele><time>2026-04-02T11:36:00.785Z</time></trkpt><trkpt lat="46.0792629" lon="11.906515"><ele>942.0000000000001</ele><time>2026-04-02T11:36:04.784Z</time></trkpt><trkpt lat="46.0791941" lon="11.9064874"><ele>942.0</ele><time>2026-04-02T11:36:07.785Z</time></trkpt><trkpt lat="46.0791162" lon="11.9064374"><ele>942.0000000000001</ele><time>2026-04-02T11:36:10.784Z</time></trkpt><trkpt lat="46.0790574" lon="11.9063843"><ele>942.0000000000001</ele><time>2026-04-02T11:36:13.785Z</time></trkpt><trkpt lat="46.078983" lon="11.9063663"><ele>942.0</ele><time>2026-04-02T11:36:17.785Z</time></trkpt><trkpt lat="46.0789191" lon="11.9063583"><ele>942.0000000000001</ele><time>2026-04-02T11:36:20.786Z</time></trkpt><trkpt lat="46.0788547" lon="11.9063563"><ele>942.0000000000001</ele><time>2026-04-02T11:36:23.785Z</time></trkpt><trkpt lat="46.0787886" lon="11.9063199"><ele>935.8</ele><time>2026-04-02T11:36:28.785Z</time></trkpt><trkpt lat="46.0787151" lon="11.9062202"><ele>929.6</ele><time>2026-04-02T11:36:35.785Z</time></trkpt><trkpt lat="46.0786519" lon="11.9061292"><ele>923.3999999999999</ele><time>2026-04-02T11:36:40.785Z</time></trkpt><trkpt lat="46.0785383" lon="11.9060363"><ele>917.1999999999999</ele><time>2026-04-02T11:36:47.785Z</time></trkpt><trkpt lat="46.0784758" lon="11.9060021"><ele>911.0</ele><time>2026-04-02T11:36:49.785Z</time></trkpt><trkpt lat="46.0784252" lon="11.9059213"><ele>914.1666666666667</ele><time>2026-04-02T11:36:55.782Z</time></trkpt><trkpt lat="46.0783675" lon="11.9058114"><ele>917.3333333333334</ele><time>2026-04-02T11:36:58.782Z</time></trkpt><trkpt lat="46.0783369" lon="11.9057313"><ele>920.5</ele><time>2026-04-02T11:37:00.783Z</time></trkpt><trkpt lat="46.0783004" lon="11.9056172"><ele>923.6666666666667</ele><time>2026-04-02T11:37:03.782Z</time></trkpt><trkpt lat="46.0783473" lon="11.9055389"><ele>926.8333333333334</ele><time>2026-04-02T11:37:08.782Z</time></trkpt><trkpt lat="46.0784071" lon="11.9054949"><ele>930.0</ele><time>2026-04-02T11:37:12.781Z</time></trkpt><trkpt lat="46.0784992" lon="11.9055318"><ele>930.0</ele><time>2026-04-02T11:37:16.782Z</time></trkpt><trkpt lat="46.0785712" lon="11.9055242"><ele>930.0</ele><time>2026-04-02T11:37:19.782Z</time></trkpt><trkpt lat="46.0786435" lon="11.9055083"><ele>930.0</ele><time>2026-04-02T11:37:25.785Z</time></trkpt><trkpt lat="46.0787178" lon="11.9054996"><ele>930.0</ele><time>2026-04-02T11:37:29.783Z</time></trkpt><trkpt lat="46.0787802" lon="11.9055247"><ele>930.0</ele><time>2026-04-02T11:37:33.783Z</time></trkpt><trkpt lat="46.0788504" lon="11.9055278"><ele>930.0</ele><time>2026-04-02T11:37:35.783Z</time></trkpt><trkpt lat="46.0789192" lon="11.9055612"><ele>930.0</ele><time>2026-04-02T11:37:38.785Z</time></trkpt><trkpt lat="46.0789694" lon="11.9056451"><ele>930.0</ele><time>2026-04-02T11:37:42.783Z</time></trkpt><trkpt lat="46.0790108" lon="11.9057287"><ele>930.0</ele><time>2026-04-02T11:37:45.783Z</time></trkpt><trkpt lat="46.0790596" lon="11.9057906"><ele>930.0</ele><time>2026-04-02T11:37:48.783Z</time></trkpt><trkpt lat="46.0791327" lon="11.9058193"><ele>930.0</ele><time>2026-04-02T11:37:51.784Z</time></trkpt><trkpt lat="46.0791972" lon="11.9058607"><ele>930.0</ele><time>2026-04-02T11:37:54.784Z</time></trkpt><trkpt lat="46.0792656" lon="11.9059321"><ele>930.0</ele><time>2026-04-02T11:37:59.785Z</time></trkpt><trkpt lat="46.0793043" lon="11.906013"><ele>930.0</ele><time>2026-04-02T11:38:03.785Z</time></trkpt><trkpt lat="46.0793474" lon="11.9060982"><ele>932.4</ele><time>2026-04-02T11:38:07.784Z</time></trkpt><trkpt lat="46.079405" lon="11.9061599"><ele>934.8</ele><time>2026-04-02T11:38:12.782Z</time></trkpt><trkpt lat="46.0794842" lon="11.906171"><ele>937.2</ele><time>2026-04-02T11:38:15.784Z</time></trkpt><trkpt lat="46.0795657" lon="11.9061903"><ele>939.6</ele><time>2026-04-02T11:38:19.784Z</time></trkpt><trkpt lat="46.0796637" lon="11.9062691"><ele>942.0</ele><time>2026-04-02T11:38:44.785Z</time></trkpt><trkpt lat="46.079753" lon="11.9063694"><ele>942.0000000000001</ele><time>2026-04-02T11:39:05.783Z</time></trkpt><trkpt lat="46.0797284" lon="11.9062709"><ele>942.0</ele><time>2026-04-02T11:39:51.781Z</time></trkpt><trkpt lat="46.079679" lon="11.9061976"><ele>942.0000000000001</ele><time>2026-04-02T11:39:56.783Z</time></trkpt><trkpt lat="46.0796155" lon="11.9061795"><ele>942.0000000000001</ele><time>2026-04-02T11:40:00.784Z</time></trkpt><trkpt lat="46.0795547" lon="11.9061543"><ele>942.0</ele><time>2026-04-02T11:40:03.782Z</time></trkpt><trkpt lat="46.0794804" lon="11.9060845"><ele>942.0000000000001</ele><time>2026-04-02T11:40:06.785Z</time></trkpt><trkpt lat="46.0794214" lon="11.9060136"><ele>942.0000000000001</ele><time>2026-04-02T11:40:10.782Z</time></trkpt><trkpt lat="46.0793645" lon="11.9059667"><ele>942.0000000000001</ele><time>2026-04-02T11:40:13.782Z</time></trkpt><trkpt lat="46.0792841" lon="11.9059172"><ele>942.0</ele><time>2026-04-02T11:40:16.784Z</time></trkpt><trkpt lat="46.0792269" lon="11.9058702"><ele>942.0000000000001</ele><time>2026-04-02T11:40:18.784Z</time></trkpt><trkpt lat="46.0791687" lon="11.9058271"><ele>942.0000000000001</ele><time>2026-04-02T11:40:20.785Z</time></trkpt><trkpt lat="46.0791102" lon="11.9057349"><ele>942.0</ele><time>2026-04-02T11:40:22.782Z</time></trkpt><trkpt lat="46.0790614" lon="11.9056651"><ele>942.0000000000001</ele><time>2026-04-02T11:40:24.782Z</time></trkpt><trkpt lat="46.0790053" lon="11.9056207"><ele>942.0000000000001</ele><time>2026-04-02T11:40:27.782Z</time></trkpt><trkpt lat="46.0789207" lon="11.9056354"><ele>940.0</ele><time>2026-04-02T11:40:30.784Z</time></trkpt><trkpt lat="46.0788432" lon="11.9056531"><ele>938.0</ele><time>2026-04-02T11:40:33.783Z</time></trkpt><trkpt lat="46.0787418" lon="11.9056253"><ele>936.0</ele><time>2026-04-02T11:40:36.783Z</time></trkpt><trkpt lat="46.0786546" lon="11.9056194"><ele>934.0</ele><time>2026-04-02T11:40:38.784Z</time></trkpt><trkpt lat="46.0785834" lon="11.9056094"><ele>932.0</ele><time>2026-04-02T11:40:40.783Z</time></trkpt><trkpt lat="46.0785085" lon="11.9055988"><ele>930.0</ele><time>2026-04-02T11:40:42.784Z</time></trkpt><trkpt lat="46.078444" lon="11.9055711"><ele>930.0</ele><time>2026-04-02T11:40:45.782Z</time></trkpt><trkpt lat="46.0783711" lon="11.9055883"><ele>930.0</ele><time>2026-04-02T11:40:50.784Z</time></trkpt><trkpt lat="46.0782975" lon="11.9056099"><ele>930.0</ele><time>2026-04-02T11:40:53.781Z</time></trkpt><trkpt lat="46.078228" lon="11.9055523"><ele>930.0</ele><time>2026-04-02T11:40:56.784Z</time></trkpt><trkpt lat="46.0782017" lon="11.9054581"><ele>930.0</ele><time>2026-04-02T11:40:59.783Z</time></trkpt><trkpt lat="46.0781684" lon="11.9053639"><ele>930.0</ele><time>2026-04-02T11:41:02.784Z</time></trkpt><trkpt lat="46.0781415" lon="11.9052513"><ele>930.0</ele><time>2026-04-02T11:41:06.782Z</time></trkpt><trkpt lat="46.0781386" lon="11.9051482"><ele>930.0</ele><time>2026-04-02T11:41:10.783Z</time></trkpt><trkpt lat="46.0781727" lon="11.9052375"><ele>930.0</ele><time>2026-04-02T11:42:54.784Z</time></trkpt><trkpt lat="46.0781883" lon="11.9053311"><ele>930.0</ele><time>2026-04-02T11:42:58.785Z</time></trkpt><trkpt lat="46.0782158" lon="11.9054192"><ele>930.0</ele><time>2026-04-02T11:43:02.785Z</time></trkpt><trkpt lat="46.0782527" lon="11.905493"><ele>930.0</ele><time>2026-04-02T11:43:06.784Z</time></trkpt><trkpt lat="46.0782854" lon="11.9055823"><ele>930.0</ele><time>2026-04-02T11:43:10.785Z</time></trkpt><trkpt lat="46.078301" lon="11.9056889"><ele>930.0</ele><time>2026-04-02T11:43:13.782Z</time></trkpt><trkpt lat="46.0783145" lon="11.9057807"><ele>930.0</ele><time>2026-04-02T11:43:16.78Z</time></trkpt><trkpt lat="46.0783484" lon="11.9058652"><ele>930.0</ele><time>2026-04-02T11:43:20.784Z</time></trkpt><trkpt lat="46.0783674" lon="11.9059842"><ele>930.0</ele><time>2026-04-02T11:43:24.783Z</time></trkpt><trkpt lat="46.0783915" lon="11.906096"><ele>930.0</ele><time>2026-04-02T11:43:28.784Z</time></trkpt><trkpt lat="46.0784111" lon="11.9061882"><ele>930.0</ele><time>2026-04-02T11:43:31.784Z</time></trkpt><trkpt lat="46.0784202" lon="11.9062806"><ele>930.0</ele><time>2026-04-02T11:43:34.785Z</time></trkpt><trkpt lat="46.0784076" lon="11.9063704"><ele>926.8333333333334</ele><time>2026-04-02T11:43:37.784Z</time></trkpt><trkpt lat="46.0784331" lon="11.9064891"><ele>923.6666666666667</ele><time>2026-04-02T11:43:41.783Z</time></trkpt><trkpt lat="46.0784606" lon="11.9065849"><ele>920.5</ele><time>2026-04-02T11:43:44.786Z</time></trkpt><trkpt lat="46.0785119" lon="11.9066577"><ele>917.3333333333334</ele><time>2026-04-02T11:43:48.784Z</time></trkpt><trkpt lat="46.0785758" lon="11.9067064"><ele>914.1666666666667</ele><time>2026-04-02T11:43:52.783Z</time></trkpt><trkpt lat="46.0786499" lon="11.9067582"><ele>911.0</ele><time>2026-04-02T11:43:56.785Z</time></trkpt><trkpt lat="46.0787064" lon="11.9068056"><ele>905.1666666666667</ele><time>2026-04-02T11:43:59.783Z</time></trkpt><trkpt lat="46.0787448" lon="11.9068907"><ele>899.3333333333334</ele><time>2026-04-02T11:44:02.785Z</time></trkpt><trkpt lat="46.0788085" lon="11.9069782"><ele>893.5</ele><time>2026-04-02T11:44:05.785Z</time></trkpt><trkpt lat="46.07887" lon="11.9070394"><ele>887.6666666666667</ele><time>2026-04-02T11:44:08.783Z</time></trkpt><trkpt lat="46.0789198" lon="11.9071394"><ele>881.8333333333334</ele><time>2026-04-02T11:44:12.785Z</time></trkpt><trkpt lat="46.0789666" lon="11.907238"><ele>876.0</ele><time>2026-04-02T11:44:15.786Z</time></trkpt><trkpt lat="46.0790139" lon="11.9073471"><ele>876.0</ele><time>2026-04-02T11:44:18.785Z</time></trkpt><trkpt lat="46.0790368" lon="11.9074345"><ele>876.0</ele><time>2026-04-02T11:44:20.785Z</time></trkpt><trkpt lat="46.0790662" lon="11.9075258"><ele>876.0</ele><time>2026-04-02T11:44:22.785Z</time></trkpt><trkpt lat="46.0790929" lon="11.907625"><ele>876.0</ele><time>2026-04-02T11:44:25.783Z</time></trkpt><trkpt lat="46.0791214" lon="11.9077281"><ele>876.0</ele><time>2026-04-02T11:44:29.786Z</time></trkpt><trkpt lat="46.0791783" lon="11.9077945"><ele>876.0</ele><time>2026-04-02T11:44:33.784Z</time></trkpt><trkpt lat="46.0792151" lon="11.9079076"><ele>876.0</ele><time>2026-04-02T11:44:36.785Z</time></trkpt><trkpt lat="46.0792631" lon="11.9079923"><ele>878.2857142857143</ele><time>2026-04-02T11:44:38.785Z</time></trkpt><trkpt lat="46.0792963" lon="11.9080808"><ele>880.5714285714286</ele><time>2026-04-02T11:44:40.784Z</time></trkpt><trkpt lat="46.0793383" lon="11.908171"><ele>882.8571428571429</ele><time>2026-04-02T11:44:42.786Z</time></trkpt><trkpt lat="46.0793745" lon="11.9082519"><ele>885.1428571428571</ele><time>2026-04-02T11:44:44.786Z</time></trkpt><trkpt lat="46.0793793" lon="11.908362"><ele>887.4285714285713</ele><time>2026-04-02T11:44:47.786Z</time></trkpt><trkpt lat="46.0793549" lon="11.908458"><ele>889.7142857142857</ele><time>2026-04-02T11:44:49.783Z</time></trkpt><trkpt lat="46.0793369" lon="11.9085575"><ele>892.0</ele><time>2026-04-02T11:44:51.786Z</time></trkpt><trkpt lat="46.0793166" lon="11.9086653"><ele>892.2857142857142</ele><time>2026-04-02T11:44:54.786Z</time></trkpt><trkpt lat="46.0793001" lon="11.9087643"><ele>892.5714285714286</ele><time>2026-04-02T11:44:57.786Z</time></trkpt><trkpt lat="46.0792702" lon="11.9088727"><ele>892.8571428571429</ele><time>2026-04-02T11:45:00.786Z</time></trkpt><trkpt lat="46.0792496" lon="11.9089673"><ele>893.1428571428571</ele><time>2026-04-02T11:45:02.786Z</time></trkpt><trkpt lat="46.0792341" lon="11.9090608"><ele>893.4285714285714</ele><time>2026-04-02T11:45:04.784Z</time></trkpt><trkpt lat="46.0791966" lon="11.9091479"><ele>893.7142857142857</ele><time>2026-04-02T11:45:06.786Z</time></trkpt><trkpt lat="46.0791491" lon="11.9092241"><ele>894.0</ele><time>2026-04-02T11:45:08.784Z</time></trkpt><trkpt lat="46.0791178" lon="11.9093088"><ele>886.6666666666666</ele><time>2026-04-02T11:45:10.786Z</time></trkpt><trkpt lat="46.0790756" lon="11.9093965"><ele>879.3333333333333</ele><time>2026-04-02T11:45:12.785Z</time></trkpt><trkpt lat="46.0790258" lon="11.9095041"><ele>872.0</ele><time>2026-04-02T11:45:15.786Z</time></trkpt><trkpt lat="46.0789817" lon="11.9095989"><ele>864.6666666666666</ele><time>2026-04-02T11:45:17.783Z</time></trkpt><trkpt lat="46.0789385" lon="11.9096772"><ele>857.3333333333333</ele><time>2026-04-02T11:45:19.785Z</time></trkpt><trkpt lat="46.0788969" lon="11.9097803"><ele>850.0</ele><time>2026-04-02T11:45:21.785Z</time></trkpt><trkpt lat="46.0788611" lon="11.9098954"><ele>849.9999999999999</ele><time>2026-04-02T11:45:23.785Z</time></trkpt><trkpt lat="46.0788405" lon="11.9100312"><ele>850.0</ele><time>2026-04-02T11:45:25.785Z</time></trkpt><trkpt lat="46.078845" lon="11.9101442"><ele>850.0</ele><time>2026-04-02T11:45:27.783Z</time></trkpt><trkpt lat="46.0788572" lon="11.9102577"><ele>850.0</ele><time>2026-04-02T11:45:29.784Z</time></trkpt><trkpt lat="46.0788655" lon="11.9103813"><ele>849.9999999999999</ele><time>2026-04-02T11:45:31.785Z</time></trkpt><trkpt lat="46.0788891" lon="11.9104729"><ele>850.0</ele><time>2026-04-02T11:45:33.785Z</time></trkpt><trkpt lat="46.078945" lon="11.9105671"><ele>849.1428571428571</ele><time>2026-04-02T11:45:36.785Z</time></trkpt><trkpt lat="46.0790091" lon="11.9105817"><ele>848.2857142857142</ele><time>2026-04-02T11:45:39.786Z</time></trkpt><trkpt lat="46.0790941" lon="11.9105803"><ele>847.4285714285714</ele><time>2026-04-02T11:45:42.786Z</time></trkpt><trkpt lat="46.0791695" lon="11.9105836"><ele>846.5714285714286</ele><time>2026-04-02T11:45:45.782Z</time></trkpt><trkpt lat="46.0792454" lon="11.9106037"><ele>845.7142857142858</ele><time>2026-04-02T11:45:47.785Z</time></trkpt><trkpt lat="46.0793156" lon="11.9106489"><ele>844.8571428571429</ele><time>2026-04-02T11:45:49.782Z</time></trkpt><trkpt lat="46.0793624" lon="11.9107217"><ele>844.0</ele><time>2026-04-02T11:45:51.784Z</time></trkpt><trkpt lat="46.0793957" lon="11.910831"><ele>844.4999999999999</ele><time>2026-04-02T11:45:54.782Z</time></trkpt><trkpt lat="46.0794481" lon="11.9109192"><ele>845.0</ele><time>2026-04-02T11:45:57.784Z</time></trkpt><trkpt lat="46.0795149" lon="11.9109937"><ele>845.5</ele><time>2026-04-02T11:46:00.784Z</time></trkpt><trkpt lat="46.0795722" lon="11.9110637"><ele>846.0</ele><time>2026-04-02T11:46:03.783Z</time></trkpt><trkpt lat="46.0796407" lon="11.9110917"><ele>846.4999999999999</ele><time>2026-04-02T11:46:07.783Z</time></trkpt><trkpt lat="46.0797278" lon="11.9110918"><ele>847.0</ele><time>2026-04-02T11:46:11.783Z</time></trkpt><trkpt lat="46.079793" lon="11.9111012"><ele>847.0</ele><time>2026-04-02T11:46:14.785Z</time></trkpt><trkpt lat="46.0798575" lon="11.9111352"><ele>847.0</ele><time>2026-04-02T11:46:19.784Z</time></trkpt><trkpt lat="46.0799303" lon="11.9111285"><ele>847.0</ele><time>2026-04-02T11:46:22.783Z</time></trkpt><trkpt lat="46.0800082" lon="11.9111151"><ele>847.0</ele><time>2026-04-02T11:46:25.784Z</time></trkpt><trkpt lat="46.0800835" lon="11.9111159"><ele>847.0</ele><time>2026-04-02T11:46:28.784Z</time></trkpt><trkpt lat="46.080152" lon="11.9111446"><ele>847.0</ele><time>2026-04-02T11:46:30.782Z</time></trkpt><trkpt lat="46.0802294" lon="11.9111611"><ele>847.0</ele><time>2026-04-02T11:46:32.784Z</time></trkpt><trkpt lat="46.0802961" lon="11.9112056"><ele>847.9999999999999</ele><time>2026-04-02T11:46:34.782Z</time></trkpt><trkpt lat="46.0803774" lon="11.9112229"><ele>849.0</ele><time>2026-04-02T11:46:37.783Z</time></trkpt><trkpt lat="46.0804578" lon="11.9112228"><ele>850.0</ele><time>2026-04-02T11:46:41.781Z</time></trkpt><trkpt lat="46.0805248" lon="11.9112749"><ele>851.0</ele><time>2026-04-02T11:46:45.782Z</time></trkpt><trkpt lat="46.08061" lon="11.9113451"><ele>851.9999999999999</ele><time>2026-04-02T11:46:48.783Z</time></trkpt><trkpt lat="46.080652" lon="11.9114183"><ele>853.0</ele><time>2026-04-02T11:46:50.783Z</time></trkpt><trkpt lat="46.0807292" lon="11.9114787"><ele>854.1666666666666</ele><time>2026-04-02T11:46:52.785Z</time></trkpt><trkpt lat="46.0807938" lon="11.9115264"><ele>855.3333333333333</ele><time>2026-04-02T11:46:54.783Z</time></trkpt><trkpt lat="46.0808366" lon="11.9116118"><ele>856.5</ele><time>2026-04-02T11:46:57.784Z</time></trkpt><trkpt lat="46.0808388" lon="11.9117178"><ele>857.6666666666667</ele><time>2026-04-02T11:47:01.784Z</time></trkpt><trkpt lat="46.0808275" lon="11.9118541"><ele>858.8333333333334</ele><time>2026-04-02T11:47:04.782Z</time></trkpt><trkpt lat="46.0808275" lon="11.9119688"><ele>860.0</ele><time>2026-04-02T11:47:07.783Z</time></trkpt><trkpt lat="46.080836" lon="11.9120729"><ele>857.0000000000001</ele><time>2026-04-02T11:47:10.782Z</time></trkpt><trkpt lat="46.0808273" lon="11.9121685"><ele>854.0</ele><time>2026-04-02T11:47:13.785Z</time></trkpt><trkpt lat="46.0807713" lon="11.9121019"><ele>851.0</ele><time>2026-04-02T11:47:21.783Z</time></trkpt><trkpt lat="46.0807548" lon="11.9119878"><ele>848.0</ele><time>2026-04-02T11:47:24.784Z</time></trkpt><trkpt lat="46.08072" lon="11.9119003"><ele>845.0000000000001</ele><time>2026-04-02T11:47:27.78Z</time></trkpt><trkpt lat="46.0806582" lon="11.9117999"><ele>842.0</ele><time>2026-04-02T11:47:30.78Z</time></trkpt><trkpt lat="46.0805873" lon="11.9117721"><ele>837.8333333333334</ele><time>2026-04-02T11:47:36.78Z</time></trkpt><trkpt lat="46.0805795" lon="11.911899"><ele>833.6666666666667</ele><time>2026-04-02T11:47:40.78Z</time></trkpt><trkpt lat="46.0805696" lon="11.912026"><ele>829.5</ele><time>2026-04-02T11:47:43.779Z</time></trkpt><trkpt lat="46.0805571" lon="11.9121173"><ele>825.3333333333333</ele><time>2026-04-02T11:47:45.781Z</time></trkpt><trkpt lat="46.0805465" lon="11.9122225"><ele>821.1666666666666</ele><time>2026-04-02T11:47:47.78Z</time></trkpt><trkpt lat="46.0805519" lon="11.9123406"><ele>817.0</ele><time>2026-04-02T11:47:50.783Z</time></trkpt><trkpt lat="46.0805789" lon="11.9124599"><ele>814.3333333333333</ele><time>2026-04-02T11:47:53.783Z</time></trkpt><trkpt lat="46.0805926" lon="11.912578"><ele>811.6666666666666</ele><time>2026-04-02T11:47:56.784Z</time></trkpt><trkpt lat="46.0805902" lon="11.9126948"><ele>809.0</ele><time>2026-04-02T11:47:59.784Z</time></trkpt><trkpt lat="46.0805366" lon="11.9127583"><ele>806.3333333333333</ele><time>2026-04-02T11:48:02.78Z</time></trkpt><trkpt lat="46.0804746" lon="11.9128146"><ele>803.6666666666666</ele><time>2026-04-02T11:48:05.783Z</time></trkpt><trkpt lat="46.0804425" lon="11.9129229"><ele>801.0</ele><time>2026-04-02T11:48:08.784Z</time></trkpt><trkpt lat="46.0804105" lon="11.9130207"><ele>801.0</ele><time>2026-04-02T11:48:11.784Z</time></trkpt><trkpt lat="46.080361" lon="11.9131028"><ele>801.0</ele><time>2026-04-02T11:48:14.783Z</time></trkpt><trkpt lat="46.0803048" lon="11.9131637"><ele>801.0</ele><time>2026-04-02T11:48:17.784Z</time></trkpt><trkpt lat="46.0802313" lon="11.913226"><ele>801.0</ele><time>2026-04-02T11:48:20.784Z</time></trkpt><trkpt lat="46.0801608" lon="11.9132666"><ele>801.0</ele><time>2026-04-02T11:48:22.784Z</time></trkpt><trkpt lat="46.0800939" lon="11.9133169"><ele>801.0</ele><time>2026-04-02T11:48:24.783Z</time></trkpt><trkpt lat="46.0800383" lon="11.9133728"><ele>802.5</ele><time>2026-04-02T11:48:26.781Z</time></trkpt><trkpt lat="46.0799917" lon="11.9134366"><ele>804.0</ele><time>2026-04-02T11:48:28.782Z</time></trkpt><trkpt lat="46.0799434" lon="11.9135492"><ele>805.5</ele><time>2026-04-02T11:48:31.782Z</time></trkpt><trkpt lat="46.0799068" lon="11.9136295"><ele>807.0</ele><time>2026-04-02T11:48:33.784Z</time></trkpt><trkpt lat="46.0798775" lon="11.9137176"><ele>808.5</ele><time>2026-04-02T11:48:35.782Z</time></trkpt><trkpt lat="46.079863" lon="11.9138145"><ele>810.0</ele><time>2026-04-02T11:48:37.781Z</time></trkpt><trkpt lat="46.0798416" lon="11.9139421"><ele>803.9999999999999</ele><time>2026-04-02T11:48:40.784Z</time></trkpt><trkpt lat="46.0798301" lon="11.9140322"><ele>798.0</ele><time>2026-04-02T11:48:42.783Z</time></trkpt><trkpt lat="46.0798051" lon="11.9141259"><ele>792.0</ele><time>2026-04-02T11:48:44.782Z</time></trkpt><trkpt lat="46.0797554" lon="11.9141928"><ele>786.0</ele><time>2026-04-02T11:48:46.782Z</time></trkpt><trkpt lat="46.079711" lon="11.9142616"><ele>780.0</ele><time>2026-04-02T11:48:48.784Z</time></trkpt><trkpt lat="46.079676" lon="11.9143389"><ele>773.9999999999999</ele><time>2026-04-02T11:48:50.783Z</time></trkpt><trkpt lat="46.0796241" lon="11.9144148"><ele>768.0</ele><time>2026-04-02T11:48:52.784Z</time></trkpt><trkpt lat="46.0795666" lon="11.9144817"><ele>768.0</ele><time>2026-04-02T11:48:54.784Z</time></trkpt><trkpt lat="46.0795004" lon="11.9145284"><ele>768.0</ele><time>2026-04-02T11:48:56.783Z</time></trkpt><trkpt lat="46.0794323" lon="11.9145787"><ele>768.0</ele><time>2026-04-02T11:48:58.782Z</time></trkpt><trkpt lat="46.0793688" lon="11.9146249"><ele>768.0</ele><time>2026-04-02T11:49:00.784Z</time></trkpt><trkpt lat="46.0793153" lon="11.9146737"><ele>768.0</ele><time>2026-04-02T11:49:02.782Z</time></trkpt><trkpt lat="46.079262" lon="11.9147734"><ele>768.0</ele><time>2026-04-02T11:49:05.784Z</time></trkpt><trkpt lat="46.0792003" lon="11.9148627"><ele>767.9999999999999</ele><time>2026-04-02T11:49:08.784Z</time></trkpt><trkpt lat="46.079202" lon="11.9149597"><ele>768.0</ele><time>2026-04-02T11:49:11.782Z</time></trkpt><trkpt lat="46.0792497" lon="11.915042"><ele>768.0</ele><time>2026-04-02T11:49:15.782Z</time></trkpt><trkpt lat="46.0793011" lon="11.9151183"><ele>768.0</ele><time>2026-04-02T11:49:19.784Z</time></trkpt><trkpt lat="46.0793537" lon="11.9151687"><ele>768.0</ele><time>2026-04-02T11:49:24.782Z</time></trkpt><trkpt lat="46.0794119" lon="11.9152132"><ele>767.9999999999999</ele><time>2026-04-02T11:49:29.781Z</time></trkpt><trkpt lat="46.0794629" lon="11.915299"><ele>768.0</ele><time>2026-04-02T11:49:34.782Z</time></trkpt><trkpt lat="46.0795036" lon="11.9153855"><ele>767.1666666666666</ele><time>2026-04-02T11:49:38.782Z</time></trkpt><trkpt lat="46.0796169" lon="11.9154973"><ele>766.3333333333334</ele><time>2026-04-02T11:49:47.784Z</time></trkpt><trkpt lat="46.0796706" lon="11.9155484"><ele>765.5</ele><time>2026-04-02T11:49:50.783Z</time></trkpt><trkpt lat="46.0797035" lon="11.915629"><ele>764.6666666666667</ele><time>2026-04-02T11:49:53.782Z</time></trkpt><trkpt lat="46.0797129" lon="11.9157218"><ele>763.8333333333334</ele><time>2026-04-02T11:49:56.784Z</time></trkpt><trkpt lat="46.0797492" lon="11.9158199"><ele>763.0</ele><time>2026-04-02T11:49:59.784Z</time></trkpt><trkpt lat="46.0797699" lon="11.9159478"><ele>762.4285714285714</ele><time>2026-04-02T11:50:02.782Z</time></trkpt><trkpt lat="46.0797947" lon="11.9160338"><ele>761.8571428571429</ele><time>2026-04-02T11:50:04.784Z</time></trkpt><trkpt lat="46.0798222" lon="11.9161391"><ele>761.2857142857142</ele><time>2026-04-02T11:50:07.783Z</time></trkpt><trkpt lat="46.0798534" lon="11.9162404"><ele>760.7142857142858</ele><time>2026-04-02T11:50:10.782Z</time></trkpt><trkpt lat="46.0798829" lon="11.9163215"><ele>760.1428571428571</ele><time>2026-04-02T11:50:13.784Z</time></trkpt><trkpt lat="46.079922" lon="11.9163963"><ele>759.5714285714286</ele><time>2026-04-02T11:50:16.782Z</time></trkpt><trkpt lat="46.0799691" lon="11.9164778"><ele>759.0</ele><time>2026-04-02T11:50:20.782Z</time></trkpt><trkpt lat="46.0800075" lon="11.9165607"><ele>762.8571428571429</ele><time>2026-04-02T11:50:23.782Z</time></trkpt><trkpt lat="46.0800515" lon="11.9166451"><ele>766.7142857142857</ele><time>2026-04-02T11:50:27.782Z</time></trkpt><trkpt lat="46.0800846" lon="11.9167469"><ele>770.5714285714287</ele><time>2026-04-02T11:50:31.784Z</time></trkpt><trkpt lat="46.080132" lon="11.9168117"><ele>774.4285714285714</ele><time>2026-04-02T11:50:34.782Z</time></trkpt><trkpt lat="46.0802055" lon="11.9168601"><ele>778.2857142857143</ele><time>2026-04-02T11:50:38.781Z</time></trkpt><trkpt lat="46.080276" lon="11.9169064"><ele>782.1428571428572</ele><time>2026-04-02T11:50:43.781Z</time></trkpt><trkpt lat="46.0803399" lon="11.9169453"><ele>786.0</ele><time>2026-04-02T11:50:47.783Z</time></trkpt><trkpt lat="46.0804064" lon="11.9169861"><ele>786.0</ele><time>2026-04-02T11:50:52.783Z</time></trkpt><trkpt lat="46.0804686" lon="11.9170477"><ele>786.0</ele><time>2026-04-02T11:50:57.783Z</time></trkpt><trkpt lat="46.080507" lon="11.9171246"><ele>786.0</ele><time>2026-04-02T11:51:02.784Z</time></trkpt><trkpt lat="46.0804606" lon="11.9170157"><ele>786.0</ele><time>2026-04-02T11:51:35.783Z</time></trkpt><trkpt lat="46.0803903" lon="11.9169805"><ele>786.0</ele><time>2026-04-02T11:51:38.785Z</time></trkpt><trkpt lat="46.0803095" lon="11.9169739"><ele>786.0</ele><time>2026-04-02T11:51:41.784Z</time></trkpt><trkpt lat="46.0802322" lon="11.9169368"><ele>786.0</ele><time>2026-04-02T11:51:44.784Z</time></trkpt><trkpt lat="46.0801499" lon="11.9168847"><ele>786.0</ele><time>2026-04-02T11:51:47.785Z</time></trkpt><trkpt lat="46.0800839" lon="11.9168064"><ele>786.0</ele><time>2026-04-02T11:51:50.784Z</time></trkpt><trkpt lat="46.080043" lon="11.9166934"><ele>786.0</ele><time>2026-04-02T11:51:53.784Z</time></trkpt><trkpt lat="46.0800145" lon="11.9166051"><ele>786.0</ele><time>2026-04-02T11:51:55.783Z</time></trkpt><trkpt lat="46.0799822" lon="11.9165144"><ele>786.0</ele><time>2026-04-02T11:51:57.785Z</time></trkpt><trkpt lat="46.079951" lon="11.9164277"><ele>782.1666666666666</ele><time>2026-04-02T11:51:59.785Z</time></trkpt><trkpt lat="46.0799118" lon="11.9163125"><ele>778.3333333333334</ele><time>2026-04-02T11:52:02.785Z</time></trkpt><trkpt lat="46.0798964" lon="11.9162146"><ele>774.5</ele><time>2026-04-02T11:52:05.785Z</time></trkpt><trkpt lat="46.0798648" lon="11.91609"><ele>770.6666666666667</ele><time>2026-04-02T11:52:08.785Z</time></trkpt><trkpt lat="46.0798422" lon="11.9159937"><ele>766.8333333333334</ele><time>2026-04-02T11:52:10.783Z</time></trkpt><trkpt lat="46.0798177" lon="11.9158713"><ele>763.0</ele><time>2026-04-02T11:52:13.782Z</time></trkpt><trkpt lat="46.0797899" lon="11.9157719"><ele>763.0</ele><time>2026-04-02T11:52:16.785Z</time></trkpt><trkpt lat="46.0797391" lon="11.9156844"><ele>763.0</ele><time>2026-04-02T11:52:19.781Z</time></trkpt><trkpt lat="46.0796884" lon="11.9156178"><ele>763.0</ele><time>2026-04-02T11:52:21.785Z</time></trkpt><trkpt lat="46.0796124" lon="11.915539"><ele>763.0</ele><time>2026-04-02T11:52:24.783Z</time></trkpt><trkpt lat="46.0795592" lon="11.9154791"><ele>763.0</ele><time>2026-04-02T11:52:26.785Z</time></trkpt><trkpt lat="46.0795097" lon="11.9154139"><ele>763.0</ele><time>2026-04-02T11:52:28.784Z</time></trkpt><trkpt lat="46.0794564" lon="11.915338"><ele>763.0</ele><time>2026-04-02T11:52:30.785Z</time></trkpt><trkpt lat="46.0794072" lon="11.9152457"><ele>763.0</ele><time>2026-04-02T11:52:33.784Z</time></trkpt><trkpt lat="46.0793633" lon="11.9151301"><ele>763.0</ele><time>2026-04-02T11:52:36.784Z</time></trkpt><trkpt lat="46.0793193" lon="11.9150399"><ele>763.0</ele><time>2026-04-02T11:52:38.784Z</time></trkpt><trkpt lat="46.0792709" lon="11.9149696"><ele>763.0</ele><time>2026-04-02T11:52:40.785Z</time></trkpt><trkpt lat="46.0792077" lon="11.9149469"><ele>763.0</ele><time>2026-04-02T11:52:43.785Z</time></trkpt><trkpt lat="46.0791374" lon="11.9150303"><ele>757.8333333333334</ele><time>2026-04-02T11:52:46.785Z</time></trkpt><trkpt lat="46.079084" lon="11.9151168"><ele>752.6666666666667</ele><time>2026-04-02T11:52:49.785Z</time></trkpt><trkpt lat="46.0790078" lon="11.9151821"><ele>747.5</ele><time>2026-04-02T11:52:52.784Z</time></trkpt><trkpt lat="46.0789553" lon="11.915239"><ele>742.3333333333334</ele><time>2026-04-02T11:52:54.785Z</time></trkpt><trkpt lat="46.0788996" lon="11.9153124"><ele>737.1666666666666</ele><time>2026-04-02T11:52:56.785Z</time></trkpt><trkpt lat="46.0788511" lon="11.9153912"><ele>732.0</ele><time>2026-04-02T11:52:58.784Z</time></trkpt><trkpt lat="46.0788053" lon="11.9154726"><ele>732.0</ele><time>2026-04-02T11:53:00.785Z</time></trkpt><trkpt lat="46.0787727" lon="11.9155721"><ele>732.0</ele><time>2026-04-02T11:53:02.785Z</time></trkpt><trkpt lat="46.0787381" lon="11.9156857"><ele>732.0</ele><time>2026-04-02T11:53:04.785Z</time></trkpt><trkpt lat="46.078716" lon="11.9158242"><ele>732.0</ele><time>2026-04-02T11:53:06.782Z</time></trkpt><trkpt lat="46.0787169" lon="11.9159666"><ele>732.0</ele><time>2026-04-02T11:53:08.784Z</time></trkpt><trkpt lat="46.0787095" lon="11.916103"><ele>732.1666666666666</ele><time>2026-04-02T11:53:10.783Z</time></trkpt><trkpt lat="46.0786914" lon="11.9162073"><ele>732.3333333333334</ele><time>2026-04-02T11:53:12.782Z</time></trkpt><trkpt lat="46.0786565" lon="11.9163365"><ele>732.5</ele><time>2026-04-02T11:53:14.785Z</time></trkpt><trkpt lat="46.0786469" lon="11.9164785"><ele>732.6666666666667</ele><time>2026-04-02T11:53:16.783Z</time></trkpt><trkpt lat="46.0786365" lon="11.9165968"><ele>732.8333333333334</ele><time>2026-04-02T11:53:18.784Z</time></trkpt><trkpt lat="46.0785953" lon="11.9166665"><ele>733.0</ele><time>2026-04-02T11:53:20.785Z</time></trkpt><trkpt lat="46.0785336" lon="11.9166193"><ele>732.9999999999999</ele><time>2026-04-02T11:53:23.785Z</time></trkpt><trkpt lat="46.078511" lon="11.9164906"><ele>733.0</ele><time>2026-04-02T11:53:26.785Z</time></trkpt><trkpt lat="46.0785056" lon="11.9163965"><ele>733.0</ele><time>2026-04-02T11:53:28.784Z</time></trkpt><trkpt lat="46.0784999" lon="11.9162987"><ele>733.0</ele><time>2026-04-02T11:53:31.783Z</time></trkpt><trkpt lat="46.078467" lon="11.9161977"><ele>733.0</ele><time>2026-04-02T11:53:34.785Z</time></trkpt><trkpt lat="46.0784158" lon="11.9161142"><ele>732.9999999999999</ele><time>2026-04-02T11:53:37.781Z</time></trkpt><trkpt lat="46.0783626" lon="11.9160627"><ele>733.0</ele><time>2026-04-02T11:53:39.783Z</time></trkpt><trkpt lat="46.0783144" lon="11.9160014"><ele>732.8333333333334</ele><time>2026-04-02T11:53:41.785Z</time></trkpt><trkpt lat="46.0782879" lon="11.9159018"><ele>732.6666666666667</ele><time>2026-04-02T11:53:45.781Z</time></trkpt><trkpt lat="46.0783015" lon="11.9157843"><ele>732.5</ele><time>2026-04-02T11:53:48.784Z</time></trkpt><trkpt lat="46.0783168" lon="11.9156871"><ele>732.3333333333334</ele><time>2026-04-02T11:53:50.785Z</time></trkpt><trkpt lat="46.0783347" lon="11.9155592"><ele>732.1666666666666</ele><time>2026-04-02T11:53:53.785Z</time></trkpt><trkpt lat="46.0783533" lon="11.9154373"><ele>732.0</ele><time>2026-04-02T11:53:55.784Z</time></trkpt><trkpt lat="46.0783472" lon="11.9152989"><ele>732.0</ele><time>2026-04-02T11:53:57.783Z</time></trkpt><trkpt lat="46.0783311" lon="11.9151462"><ele>732.0</ele><time>2026-04-02T11:53:59.785Z</time></trkpt><trkpt lat="46.0782803" lon="11.9150077"><ele>732.0</ele><time>2026-04-02T11:54:01.785Z</time></trkpt><trkpt lat="46.0782174" lon="11.9149199"><ele>732.0</ele><time>2026-04-02T11:54:03.782Z</time></trkpt><trkpt lat="46.0781672" lon="11.9148151"><ele>732.0</ele><time>2026-04-02T11:54:05.785Z</time></trkpt><trkpt lat="46.0781486" lon="11.9146866"><ele>729.8333333333334</ele><time>2026-04-02T11:54:07.785Z</time></trkpt><trkpt lat="46.0781515" lon="11.9145481"><ele>727.6666666666666</ele><time>2026-04-02T11:54:09.785Z</time></trkpt><trkpt lat="46.0781796" lon="11.9144141"><ele>725.5</ele><time>2026-04-02T11:54:11.785Z</time></trkpt><trkpt lat="46.0782043" lon="11.9142821"><ele>723.3333333333333</ele><time>2026-04-02T11:54:13.784Z</time></trkpt><trkpt lat="46.0782495" lon="11.9141833"><ele>721.1666666666666</ele><time>2026-04-02T11:54:15.783Z</time></trkpt><trkpt lat="46.0782829" lon="11.9140985"><ele>719.0</ele><time>2026-04-02T11:54:17.784Z</time></trkpt><trkpt lat="46.0782913" lon="11.9139983"><ele>719.0</ele><time>2026-04-02T11:54:20.784Z</time></trkpt><trkpt lat="46.0782695" lon="11.9138742"><ele>719.0</ele><time>2026-04-02T11:54:24.785Z</time></trkpt><trkpt lat="46.0782097" lon="11.9138411"><ele>719.0</ele><time>2026-04-02T11:54:26.783Z</time></trkpt><trkpt lat="46.0781367" lon="11.9138355"><ele>719.0</ele><time>2026-04-02T11:54:28.783Z</time></trkpt><trkpt lat="46.0780528" lon="11.9138138"><ele>719.0</ele><time>2026-04-02T11:54:30.785Z</time></trkpt><trkpt lat="46.0779551" lon="11.9137937"><ele>719.0</ele><time>2026-04-02T11:54:33.785Z</time></trkpt><trkpt lat="46.0778907" lon="11.9137838"><ele>713.6666666666666</ele><time>2026-04-02T11:54:35.783Z</time></trkpt><trkpt lat="46.0778128" lon="11.9137883"><ele>708.3333333333333</ele><time>2026-04-02T11:54:37.78Z</time></trkpt><trkpt lat="46.0777223" lon="11.9137768"><ele>703.0</ele><time>2026-04-02T11:54:39.785Z</time></trkpt><trkpt lat="46.077643" lon="11.9137471"><ele>697.6666666666666</ele><time>2026-04-02T11:54:41.785Z</time></trkpt><trkpt lat="46.0775479" lon="11.9137374"><ele>692.3333333333334</ele><time>2026-04-02T11:54:43.784Z</time></trkpt><trkpt lat="46.0774463" lon="11.9137396"><ele>687.0</ele><time>2026-04-02T11:54:45.783Z</time></trkpt><trkpt lat="46.077368" lon="11.9137344"><ele>682.6666666666666</ele><time>2026-04-02T11:54:47.784Z</time></trkpt><trkpt lat="46.0772903" lon="11.9137746"><ele>678.3333333333334</ele><time>2026-04-02T11:54:50.784Z</time></trkpt><trkpt lat="46.0772992" lon="11.9139075"><ele>674.0</ele><time>2026-04-02T11:54:54.782Z</time></trkpt><trkpt lat="46.0773442" lon="11.9139913"><ele>669.6666666666667</ele><time>2026-04-02T11:54:56.785Z</time></trkpt><trkpt lat="46.0773831" lon="11.9140723"><ele>665.3333333333334</ele><time>2026-04-02T11:54:59.783Z</time></trkpt><trkpt lat="46.0773544" lon="11.9141622"><ele>661.0</ele><time>2026-04-02T11:55:04.785Z</time></trkpt><trkpt lat="46.0772892" lon="11.9142112"><ele>660.8333333333334</ele><time>2026-04-02T11:55:06.783Z</time></trkpt><trkpt lat="46.0772123" lon="11.9142652"><ele>660.6666666666667</ele><time>2026-04-02T11:55:08.784Z</time></trkpt><trkpt lat="46.0771481" lon="11.9143035"><ele>660.5</ele><time>2026-04-02T11:55:10.785Z</time></trkpt><trkpt lat="46.0770835" lon="11.9142868"><ele>660.3333333333334</ele><time>2026-04-02T11:55:12.784Z</time></trkpt><trkpt lat="46.0770084" lon="11.9142767"><ele>660.1666666666666</ele><time>2026-04-02T11:55:14.785Z</time></trkpt><trkpt lat="46.076917" lon="11.9142664"><ele>660.0</ele><time>2026-04-02T11:55:16.784Z</time></trkpt><trkpt lat="46.0768402" lon="11.9142533"><ele>660.0</ele><time>2026-04-02T11:55:18.782Z</time></trkpt><trkpt lat="46.0767665" lon="11.9142646"><ele>660.0</ele><time>2026-04-02T11:55:20.781Z</time></trkpt><trkpt lat="46.0766852" lon="11.9143089"><ele>660.0</ele><time>2026-04-02T11:55:23.781Z</time></trkpt><trkpt lat="46.076609" lon="11.9143254"><ele>660.0</ele><time>2026-04-02T11:55:25.781Z</time></trkpt><trkpt lat="46.0765359" lon="11.9143454"><ele>660.0</ele><time>2026-04-02T11:55:27.783Z</time></trkpt><trkpt lat="46.076446" lon="11.914386"><ele>660.0</ele><time>2026-04-02T11:55:30.785Z</time></trkpt><trkpt lat="46.0763671" lon="11.9143875"><ele>655.3333333333334</ele><time>2026-04-02T11:55:32.785Z</time></trkpt><trkpt lat="46.0762953" lon="11.9143802"><ele>650.6666666666666</ele><time>2026-04-02T11:55:34.784Z</time></trkpt><trkpt lat="46.0762006" lon="11.9143549"><ele>646.0</ele><time>2026-04-02T11:55:37.782Z</time></trkpt><trkpt lat="46.0761205" lon="11.9143426"><ele>641.3333333333333</ele><time>2026-04-02T11:55:39.785Z</time></trkpt><trkpt lat="46.0760335" lon="11.9143337"><ele>636.6666666666666</ele><time>2026-04-02T11:55:41.786Z</time></trkpt><trkpt lat="46.075947" lon="11.9143175"><ele>632.0</ele><time>2026-04-02T11:55:43.785Z</time></trkpt><trkpt lat="46.0758582" lon="11.9143237"><ele>627.4</ele><time>2026-04-02T11:55:45.78Z</time></trkpt><trkpt lat="46.0757598" lon="11.914346"><ele>622.8000000000001</ele><time>2026-04-02T11:55:47.785Z</time></trkpt><trkpt lat="46.0756622" lon="11.9143699"><ele>618.2</ele><time>2026-04-02T11:55:49.785Z</time></trkpt><trkpt lat="46.0755537" lon="11.9143965"><ele>613.6</ele><time>2026-04-02T11:55:51.783Z</time></trkpt><trkpt lat="46.0754546" lon="11.9143916"><ele>609.0</ele><time>2026-04-02T11:55:53.783Z</time></trkpt><trkpt lat="46.0753899" lon="11.9143418"><ele>609.0</ele><time>2026-04-02T11:55:55.784Z</time></trkpt><trkpt lat="46.0753451" lon="11.9142641"><ele>609.0</ele><time>2026-04-02T11:55:57.785Z</time></trkpt><trkpt lat="46.0752855" lon="11.9141988"><ele>609.0</ele><time>2026-04-02T11:55:59.783Z</time></trkpt><trkpt lat="46.0752157" lon="11.9141671"><ele>609.0</ele><time>2026-04-02T11:56:01.782Z</time></trkpt><trkpt lat="46.0751443" lon="11.9141052"><ele>609.0</ele><time>2026-04-02T11:56:04.783Z</time></trkpt><trkpt lat="46.0750872" lon="11.9140647"><ele>609.0</ele><time>2026-04-02T11:56:06.785Z</time></trkpt><trkpt lat="46.0750243" lon="11.9140327"><ele>609.0</ele><time>2026-04-02T11:56:08.785Z</time></trkpt><trkpt lat="46.0749524" lon="11.9140285"><ele>606.8333333333334</ele><time>2026-04-02T11:56:10.784Z</time></trkpt><trkpt lat="46.0748781" lon="11.9140201"><ele>604.6666666666666</ele><time>2026-04-02T11:56:12.783Z</time></trkpt><trkpt lat="46.0748076" lon="11.9139953"><ele>602.5</ele><time>2026-04-02T11:56:14.785Z</time></trkpt><trkpt lat="46.0747383" lon="11.9139262"><ele>600.3333333333333</ele><time>2026-04-02T11:56:16.781Z</time></trkpt><trkpt lat="46.0747024" lon="11.9138284"><ele>598.1666666666666</ele><time>2026-04-02T11:56:18.785Z</time></trkpt><trkpt lat="46.0746836" lon="11.9137045"><ele>596.0</ele><time>2026-04-02T11:56:21.784Z</time></trkpt><trkpt lat="46.0746608" lon="11.9135738"><ele>596.0</ele><time>2026-04-02T11:56:24.784Z</time></trkpt><trkpt lat="46.074641" lon="11.91348"><ele>596.0</ele><time>2026-04-02T11:56:26.784Z</time></trkpt><trkpt lat="46.0746184" lon="11.9133551"><ele>596.0</ele><time>2026-04-02T11:56:29.785Z</time></trkpt><trkpt lat="46.0746162" lon="11.9132308"><ele>596.0</ele><time>2026-04-02T11:56:32.784Z</time></trkpt><trkpt lat="46.0746191" lon="11.9131367"><ele>596.0</ele><time>2026-04-02T11:56:34.784Z</time></trkpt><trkpt lat="46.0746203" lon="11.9130242"><ele>596.0</ele><time>2026-04-02T11:56:36.783Z</time></trkpt><trkpt lat="46.0746204" lon="11.9128973"><ele>596.5</ele><time>2026-04-02T11:56:38.785Z</time></trkpt><trkpt lat="46.074622" lon="11.912788"><ele>597.0</ele><time>2026-04-02T11:56:40.783Z</time></trkpt><trkpt lat="46.0746217" lon="11.9126689"><ele>597.5</ele><time>2026-04-02T11:56:43.783Z</time></trkpt><trkpt lat="46.0746162" lon="11.9125358"><ele>598.0</ele><time>2026-04-02T11:56:47.783Z</time></trkpt><trkpt lat="46.0746412" lon="11.9124257"><ele>598.5</ele><time>2026-04-02T11:56:49.785Z</time></trkpt><trkpt lat="46.074688" lon="11.9123542"><ele>599.0</ele><time>2026-04-02T11:56:51.785Z</time></trkpt><trkpt lat="46.0747475" lon="11.9122836"><ele>599.0</ele><time>2026-04-02T11:56:53.783Z</time></trkpt><trkpt lat="46.0748012" lon="11.9121935"><ele>599.0</ele><time>2026-04-02T11:56:55.782Z</time></trkpt><trkpt lat="46.0748266" lon="11.9120762"><ele>599.0</ele><time>2026-04-02T11:56:57.782Z</time></trkpt><trkpt lat="46.0748152" lon="11.9119799"><ele>599.0</ele><time>2026-04-02T11:56:58.783Z</time></trkpt><trkpt lat="46.0747789" lon="11.9117977"><ele>599.0</ele><time>2026-04-02T11:57:00.785Z</time></trkpt><trkpt lat="46.0747647" lon="11.9117082"><ele>599.0</ele><time>2026-04-02T11:57:01.783Z</time></trkpt><trkpt lat="46.074762" lon="11.9115514"><ele>598.6666666666666</ele><time>2026-04-02T11:57:03.784Z</time></trkpt><trkpt lat="46.0747667" lon="11.9114049"><ele>598.3333333333333</ele><time>2026-04-02T11:57:05.783Z</time></trkpt><trkpt lat="46.0747756" lon="11.9112789"><ele>598.0</ele><time>2026-04-02T11:57:07.784Z</time></trkpt><trkpt lat="46.074767" lon="11.9111705"><ele>597.6666666666666</ele><time>2026-04-02T11:57:09.783Z</time></trkpt><trkpt lat="46.0747494" lon="11.9110692"><ele>597.3333333333334</ele><time>2026-04-02T11:57:11.785Z</time></trkpt><trkpt lat="46.0747311" lon="11.9109646"><ele>597.0</ele><time>2026-04-02T11:57:13.784Z</time></trkpt><trkpt lat="46.0747139" lon="11.9108345"><ele>597.6666666666666</ele><time>2026-04-02T11:57:16.783Z</time></trkpt><trkpt lat="46.0747105" lon="11.9107319"><ele>598.3333333333334</ele><time>2026-04-02T11:57:19.784Z</time></trkpt><trkpt lat="46.074717" lon="11.9106392"><ele>599.0</ele><time>2026-04-02T11:57:22.784Z</time></trkpt><trkpt lat="46.0747093" lon="11.9105048"><ele>599.6666666666667</ele><time>2026-04-02T11:57:25.784Z</time></trkpt><trkpt lat="46.0747022" lon="11.9104048"><ele>600.3333333333334</ele><time>2026-04-02T11:57:27.783Z</time></trkpt><trkpt lat="46.0747088" lon="11.9103034"><ele>601.0</ele><time>2026-04-02T11:57:29.785Z</time></trkpt><trkpt lat="46.0747192" lon="11.9101706"><ele>602.6</ele><time>2026-04-02T11:57:32.785Z</time></trkpt><trkpt lat="46.0747267" lon="11.910065"><ele>604.2</ele><time>2026-04-02T11:57:34.784Z</time></trkpt><trkpt lat="46.0747281" lon="11.9099458"><ele>605.8</ele><time>2026-04-02T11:57:36.784Z</time></trkpt><trkpt lat="46.0747103" lon="11.9098154"><ele>607.4</ele><time>2026-04-02T11:57:38.784Z</time></trkpt><trkpt lat="46.0746605" lon="11.909676"><ele>609.0</ele><time>2026-04-02T11:57:40.785Z</time></trkpt><trkpt lat="46.0745922" lon="11.9095392"><ele>609.0</ele><time>2026-04-02T11:57:42.783Z</time></trkpt><trkpt lat="46.0745326" lon="11.9094153"><ele>609.0</ele><time>2026-04-02T11:57:44.785Z</time></trkpt><trkpt lat="46.0744688" lon="11.9092844"><ele>609.0</ele><time>2026-04-02T11:57:46.784Z</time></trkpt><trkpt lat="46.0744183" lon="11.9091592"><ele>609.0</ele><time>2026-04-02T11:57:48.784Z</time></trkpt><trkpt lat="46.07437" lon="11.9090326"><ele>609.0</ele><time>2026-04-02T11:57:50.784Z</time></trkpt><trkpt lat="46.0743136" lon="11.9088886"><ele>610.75</ele><time>2026-04-02T11:57:52.782Z</time></trkpt><trkpt lat="46.0742624" lon="11.9087279"><ele>612.5</ele><time>2026-04-02T11:57:54.782Z</time></trkpt><trkpt lat="46.0742115" lon="11.9085887"><ele>614.25</ele><time>2026-04-02T11:57:56.782Z</time></trkpt><trkpt lat="46.074135" lon="11.9084672"><ele>616.0</ele><time>2026-04-02T11:57:58.784Z</time></trkpt><trkpt lat="46.0740439" lon="11.9083654"><ele>609.2</ele><time>2026-04-02T11:58:00.785Z</time></trkpt><trkpt lat="46.073974" lon="11.9082613"><ele>602.4000000000001</ele><time>2026-04-02T11:58:02.783Z</time></trkpt><trkpt lat="46.073918" lon="11.9081391"><ele>595.6</ele><time>2026-04-02T11:58:04.784Z</time></trkpt><trkpt lat="46.0738855" lon="11.9080176"><ele>588.8000000000001</ele><time>2026-04-02T11:58:06.785Z</time></trkpt><trkpt lat="46.0739137" lon="11.9079092"><ele>582.0</ele><time>2026-04-02T11:58:08.785Z</time></trkpt><trkpt lat="46.0739743" lon="11.9078133"><ele>582.0</ele><time>2026-04-02T11:58:10.784Z</time></trkpt><trkpt lat="46.0740155" lon="11.9077073"><ele>582.0</ele><time>2026-04-02T11:58:12.782Z</time></trkpt><trkpt lat="46.0740265" lon="11.9075929"><ele>582.0</ele><time>2026-04-02T11:58:14.784Z</time></trkpt><trkpt lat="46.0740108" lon="11.9074827"><ele>582.0</ele><time>2026-04-02T11:58:16.785Z</time></trkpt><trkpt lat="46.0739669" lon="11.9073785"><ele>582.0</ele><time>2026-04-02T11:58:18.784Z</time></trkpt><trkpt lat="46.0738912" lon="11.9073343"><ele>582.0</ele><time>2026-04-02T11:58:20.784Z</time></trkpt><trkpt lat="46.07382" lon="11.9074052"><ele>582.0</ele><time>2026-04-02T11:58:22.785Z</time></trkpt><trkpt lat="46.0737613" lon="11.9075459"><ele>582.0</ele><time>2026-04-02T11:58:24.785Z</time></trkpt><trkpt lat="46.0736981" lon="11.907677"><ele>582.0</ele><time>2026-04-02T11:58:26.785Z</time></trkpt><trkpt lat="46.0736385" lon="11.9078072"><ele>582.0</ele><time>2026-04-02T11:58:28.785Z</time></trkpt><trkpt lat="46.0735888" lon="11.907942"><ele>582.0</ele><time>2026-04-02T11:58:30.784Z</time></trkpt><trkpt lat="46.0735587" lon="11.9081047"><ele>582.0</ele><time>2026-04-02T11:58:32.781Z</time></trkpt><trkpt lat="46.0735591" lon="11.9082024"><ele>582.0</ele><time>2026-04-02T11:58:33.782Z</time></trkpt><trkpt lat="46.073553" lon="11.908301"><ele>582.0</ele><time>2026-04-02T11:58:34.782Z</time></trkpt><trkpt lat="46.0735411" lon="11.9083925"><ele>582.0</ele><time>2026-04-02T11:58:35.782Z</time></trkpt><trkpt lat="46.0735281" lon="11.9084914"><ele>582.0</ele><time>2026-04-02T11:58:36.784Z</time></trkpt><trkpt lat="46.0735079" lon="11.9085904"><ele>582.0</ele><time>2026-04-02T11:58:37.784Z</time></trkpt><trkpt lat="46.0734808" lon="11.9086872"><ele>582.0</ele><time>2026-04-02T11:58:38.783Z</time></trkpt><trkpt lat="46.0734512" lon="11.908781"><ele>582.1666666666666</ele><time>2026-04-02T11:58:39.782Z</time></trkpt><trkpt lat="46.0734294" lon="11.9088776"><ele>582.3333333333334</ele><time>2026-04-02T11:58:40.784Z</time></trkpt><trkpt lat="46.0734134" lon="11.9089737"><ele>582.5</ele><time>2026-04-02T11:58:41.784Z</time></trkpt><trkpt lat="46.0733991" lon="11.909141"><ele>582.6666666666667</ele><time>2026-04-02T11:58:43.785Z</time></trkpt><trkpt lat="46.0733995" lon="11.9092325"><ele>582.8333333333334</ele><time>2026-04-02T11:58:44.785Z</time></trkpt><trkpt lat="46.0734039" lon="11.9093272"><ele>583.0</ele><time>2026-04-02T11:58:45.782Z</time></trkpt><trkpt lat="46.0734143" lon="11.9094186"><ele>582.3333333333334</ele><time>2026-04-02T11:58:46.783Z</time></trkpt><trkpt lat="46.073429" lon="11.9095091"><ele>581.6666666666667</ele><time>2026-04-02T11:58:47.782Z</time></trkpt><trkpt lat="46.0734408" lon="11.9096027"><ele>581.0</ele><time>2026-04-02T11:58:48.784Z</time></trkpt><trkpt lat="46.0734703" lon="11.9097722"><ele>580.3333333333334</ele><time>2026-04-02T11:58:50.784Z</time></trkpt><trkpt lat="46.0734852" lon="11.9098643"><ele>579.6666666666666</ele><time>2026-04-02T11:58:51.784Z</time></trkpt><trkpt lat="46.0734981" lon="11.9099626"><ele>579.0</ele><time>2026-04-02T11:58:52.784Z</time></trkpt><trkpt lat="46.0735014" lon="11.9100608"><ele>578.0</ele><time>2026-04-02T11:58:53.784Z</time></trkpt><trkpt lat="46.0734976" lon="11.910152"><ele>577.0</ele><time>2026-04-02T11:58:54.781Z</time></trkpt><trkpt lat="46.0734865" lon="11.9103171"><ele>576.0</ele><time>2026-04-02T11:58:56.784Z</time></trkpt><trkpt lat="46.0734959" lon="11.9104853"><ele>575.0</ele><time>2026-04-02T11:58:58.784Z</time></trkpt><trkpt lat="46.0735189" lon="11.9106569"><ele>574.0</ele><time>2026-04-02T11:59:00.783Z</time></trkpt><trkpt lat="46.07353" lon="11.9107504"><ele>572.8</ele><time>2026-04-02T11:59:01.784Z</time></trkpt><trkpt lat="46.073549" lon="11.9109283"><ele>571.5999999999999</ele><time>2026-04-02T11:59:03.785Z</time></trkpt><trkpt lat="46.0735515" lon="11.911026"><ele>570.4</ele><time>2026-04-02T11:59:04.783Z</time></trkpt><trkpt lat="46.0735523" lon="11.911207"><ele>569.1999999999999</ele><time>2026-04-02T11:59:06.784Z</time></trkpt><trkpt lat="46.0735593" lon="11.9112999"><ele>568.0</ele><time>2026-04-02T11:59:07.783Z</time></trkpt><trkpt lat="46.0735702" lon="11.9113955"><ele>568.0</ele><time>2026-04-02T11:59:08.783Z</time></trkpt><trkpt lat="46.0735802" lon="11.9114877"><ele>568.0</ele><time>2026-04-02T11:59:09.784Z</time></trkpt><trkpt lat="46.0735841" lon="11.9115797"><ele>568.0</ele><time>2026-04-02T11:59:10.785Z</time></trkpt><trkpt lat="46.0735812" lon="11.9116736"><ele>568.0</ele><time>2026-04-02T11:59:11.785Z</time></trkpt><trkpt lat="46.073573" lon="11.9117669"><ele>568.0</ele><time>2026-04-02T11:59:12.784Z</time></trkpt><trkpt lat="46.0735641" lon="11.9118652"><ele>568.0</ele><time>2026-04-02T11:59:13.781Z</time></trkpt><trkpt lat="46.0735635" lon="11.9119561"><ele>568.0</ele><time>2026-04-02T11:59:14.784Z</time></trkpt><trkpt lat="46.0735614" lon="11.9120499"><ele>568.0</ele><time>2026-04-02T11:59:15.784Z</time></trkpt><trkpt lat="46.0735636" lon="11.9121447"><ele>568.0</ele><time>2026-04-02T11:59:16.783Z</time></trkpt><trkpt lat="46.0735754" lon="11.9123136"><ele>568.0</ele><time>2026-04-02T11:59:18.784Z</time></trkpt><trkpt lat="46.0735756" lon="11.912485"><ele>568.0</ele><time>2026-04-02T11:59:20.784Z</time></trkpt><trkpt lat="46.0735696" lon="11.9126456"><ele>568.0</ele><time>2026-04-02T11:59:22.782Z</time></trkpt><trkpt lat="46.073549" lon="11.9128185"><ele>568.0</ele><time>2026-04-02T11:59:24.784Z</time></trkpt><trkpt lat="46.073527" lon="11.913004"><ele>568.0</ele><time>2026-04-02T11:59:26.783Z</time></trkpt><trkpt lat="46.0735145" lon="11.9130958"><ele>568.0</ele><time>2026-04-02T11:59:27.784Z</time></trkpt><trkpt lat="46.0735022" lon="11.9131909"><ele>568.0</ele><time>2026-04-02T11:59:28.783Z</time></trkpt><trkpt lat="46.0734852" lon="11.9133055"><ele>568.0</ele><time>2026-04-02T11:59:29.784Z</time></trkpt><trkpt lat="46.0734757" lon="11.9134159"><ele>568.0</ele><time>2026-04-02T11:59:30.784Z</time></trkpt><trkpt lat="46.0734661" lon="11.9135215"><ele>567.8571428571429</ele><time>2026-04-02T11:59:31.784Z</time></trkpt><trkpt lat="46.0734552" lon="11.9136251"><ele>567.7142857142857</ele><time>2026-04-02T11:59:32.784Z</time></trkpt><trkpt lat="46.0734347" lon="11.9137326"><ele>567.5714285714286</ele><time>2026-04-02T11:59:33.782Z</time></trkpt><trkpt lat="46.0734174" lon="11.9138433"><ele>567.4285714285714</ele><time>2026-04-02T11:59:34.783Z</time></trkpt><trkpt lat="46.0733986" lon="11.9139461"><ele>567.2857142857142</ele><time>2026-04-02T11:59:35.784Z</time></trkpt><trkpt lat="46.0733865" lon="11.914044"><ele>567.1428571428571</ele><time>2026-04-02T11:59:36.784Z</time></trkpt><trkpt lat="46.0733687" lon="11.9141345"><ele>567.0</ele><time>2026-04-02T11:59:37.783Z</time></trkpt><trkpt lat="46.0733611" lon="11.9142861"><ele>566.2</ele><time>2026-04-02T11:59:39.784Z</time></trkpt><trkpt lat="46.0733733" lon="11.9144222"><ele>565.4000000000001</ele><time>2026-04-02T11:59:41.784Z</time></trkpt><trkpt lat="46.0733818" lon="11.9145635"><ele>564.5999999999999</ele><time>2026-04-02T11:59:43.783Z</time></trkpt><trkpt lat="46.0733679" lon="11.9146811"><ele>563.8</ele><time>2026-04-02T11:59:45.78Z</time></trkpt><trkpt lat="46.0733705" lon="11.9148184"><ele>563.0</ele><time>2026-04-02T11:59:47.783Z</time></trkpt><trkpt lat="46.0733638" lon="11.9149446"><ele>563.1999999999999</ele><time>2026-04-02T11:59:49.783Z</time></trkpt><trkpt lat="46.0733249" lon="11.9151002"><ele>563.4</ele><time>2026-04-02T11:59:51.784Z</time></trkpt><trkpt lat="46.0732968" lon="11.9151826"><ele>563.5999999999999</ele><time>2026-04-02T11:59:52.783Z</time></trkpt><trkpt lat="46.0732271" lon="11.9153264"><ele>563.8</ele><time>2026-04-02T11:59:54.784Z</time></trkpt><trkpt lat="46.0731564" lon="11.9154464"><ele>564.0</ele><time>2026-04-02T11:59:56.784Z</time></trkpt><trkpt lat="46.0730782" lon="11.9155254"><ele>559.4</ele><time>2026-04-02T11:59:58.783Z</time></trkpt><trkpt lat="46.0729771" lon="11.9155375"><ele>554.8</ele><time>2026-04-02T12:00:00.785Z</time></trkpt><trkpt lat="46.0728919" lon="11.915586"><ele>550.2</ele><time>2026-04-02T12:00:02.784Z</time></trkpt><trkpt lat="46.0728193" lon="11.915686"><ele>545.6</ele><time>2026-04-02T12:00:04.785Z</time></trkpt><trkpt lat="46.0727414" lon="11.9158025"><ele>541.0</ele><time>2026-04-02T12:00:06.785Z</time></trkpt><trkpt lat="46.0726569" lon="11.9158972"><ele>540.6666666666667</ele><time>2026-04-02T12:00:08.785Z</time></trkpt><trkpt lat="46.0725675" lon="11.9159697"><ele>540.3333333333334</ele><time>2026-04-02T12:00:10.783Z</time></trkpt><trkpt lat="46.0724994" lon="11.9160622"><ele>540.0</ele><time>2026-04-02T12:00:12.785Z</time></trkpt><trkpt lat="46.0724677" lon="11.9161543"><ele>539.6666666666666</ele><time>2026-04-02T12:00:14.785Z</time></trkpt><trkpt lat="46.072406" lon="11.9161988"><ele>539.3333333333333</ele><time>2026-04-02T12:00:17.785Z</time></trkpt><trkpt lat="46.0723506" lon="11.9161557"><ele>539.0</ele><time>2026-04-02T12:00:19.784Z</time></trkpt><trkpt lat="46.0723106" lon="11.9160571"><ele>535.2</ele><time>2026-04-02T12:00:21.784Z</time></trkpt><trkpt lat="46.0722841" lon="11.9159487"><ele>531.4</ele><time>2026-04-02T12:00:23.783Z</time></trkpt><trkpt lat="46.0722756" lon="11.9158193"><ele>527.6</ele><time>2026-04-02T12:00:25.783Z</time></trkpt><trkpt lat="46.0722903" lon="11.915674"><ele>523.8</ele><time>2026-04-02T12:00:27.782Z</time></trkpt><trkpt lat="46.0723129" lon="11.9155425"><ele>520.0</ele><time>2026-04-02T12:00:29.785Z</time></trkpt><trkpt lat="46.0723063" lon="11.915418"><ele>520.0</ele><time>2026-04-02T12:00:31.786Z</time></trkpt><trkpt lat="46.0722507" lon="11.9153352"><ele>520.0</ele><time>2026-04-02T12:00:33.783Z</time></trkpt><trkpt lat="46.0721862" lon="11.9152624"><ele>520.0</ele><time>2026-04-02T12:00:35.785Z</time></trkpt><trkpt lat="46.0721225" lon="11.9151951"><ele>520.0</ele><time>2026-04-02T12:00:37.785Z</time></trkpt><trkpt lat="46.0720535" lon="11.9151634"><ele>520.0</ele><time>2026-04-02T12:00:39.785Z</time></trkpt><trkpt lat="46.0719757" lon="11.9151512"><ele>520.0</ele><time>2026-04-02T12:00:41.785Z</time></trkpt><trkpt lat="46.0718863" lon="11.9151561"><ele>520.0</ele><time>2026-04-02T12:00:43.784Z</time></trkpt><trkpt lat="46.0717961" lon="11.9151977"><ele>520.0</ele><time>2026-04-02T12:00:45.785Z</time></trkpt><trkpt lat="46.0717177" lon="11.9152637"><ele>520.0</ele><time>2026-04-02T12:00:47.785Z</time></trkpt><trkpt lat="46.0716491" lon="11.9153378"><ele>520.0</ele><time>2026-04-02T12:00:49.783Z</time></trkpt><trkpt lat="46.0715808" lon="11.915376"><ele>520.0</ele><time>2026-04-02T12:00:51.785Z</time></trkpt><trkpt lat="46.0715143" lon="11.9153642"><ele>520.0</ele><time>2026-04-02T12:00:53.785Z</time></trkpt><trkpt lat="46.0714442" lon="11.9152989"><ele>518.2</ele><time>2026-04-02T12:00:55.784Z</time></trkpt><trkpt lat="46.071391" lon="11.9151893"><ele>516.4</ele><time>2026-04-02T12:00:57.785Z</time></trkpt><trkpt lat="46.0713487" lon="11.9150731"><ele>514.6</ele><time>2026-04-02T12:00:59.783Z</time></trkpt><trkpt lat="46.0712838" lon="11.9149709"><ele>512.8</ele><time>2026-04-02T12:01:01.785Z</time></trkpt><trkpt lat="46.0712027" lon="11.9149"><ele>511.0</ele><time>2026-04-02T12:01:03.785Z</time></trkpt><trkpt lat="46.071088" lon="11.9148499"><ele>511.0</ele><time>2026-04-02T12:01:05.784Z</time></trkpt><trkpt lat="46.0709744" lon="11.9148299"><ele>511.0</ele><time>2026-04-02T12:01:07.785Z</time></trkpt><trkpt lat="46.0708649" lon="11.9148342"><ele>511.0</ele><time>2026-04-02T12:01:09.783Z</time></trkpt><trkpt lat="46.0707569" lon="11.9148653"><ele>511.0</ele><time>2026-04-02T12:01:11.784Z</time></trkpt><trkpt lat="46.0706584" lon="11.914917"><ele>511.0</ele><time>2026-04-02T12:01:13.783Z</time></trkpt><trkpt lat="46.0705562" lon="11.9149695"><ele>507.5</ele><time>2026-04-02T12:01:15.784Z</time></trkpt><trkpt lat="46.0704466" lon="11.9149959"><ele>504.0</ele><time>2026-04-02T12:01:17.785Z</time></trkpt><trkpt lat="46.070327" lon="11.9149803"><ele>500.5</ele><time>2026-04-02T12:01:19.784Z</time></trkpt><trkpt lat="46.0702144" lon="11.9149284"><ele>497.0</ele><time>2026-04-02T12:01:21.785Z</time></trkpt><trkpt lat="46.0701025" lon="11.9148664"><ele>496.99999999999994</ele><time>2026-04-02T12:01:23.785Z</time></trkpt><trkpt lat="46.0699855" lon="11.9148268"><ele>497.0</ele><time>2026-04-02T12:01:25.785Z</time></trkpt><trkpt lat="46.0699208" lon="11.9148141"><ele>497.0</ele><time>2026-04-02T12:01:26.785Z</time></trkpt><trkpt lat="46.0698476" lon="11.9148091"><ele>497.0</ele><time>2026-04-02T12:01:27.785Z</time></trkpt><trkpt lat="46.0697725" lon="11.9148061"><ele>496.99999999999994</ele><time>2026-04-02T12:01:28.785Z</time></trkpt><trkpt lat="46.0697024" lon="11.9148076"><ele>497.0</ele><time>2026-04-02T12:01:29.785Z</time></trkpt><trkpt lat="46.0696352" lon="11.9148123"><ele>493.8</ele><time>2026-04-02T12:01:30.785Z</time></trkpt><trkpt lat="46.0695696" lon="11.9148192"><ele>490.6</ele><time>2026-04-02T12:01:31.785Z</time></trkpt><trkpt lat="46.0694469" lon="11.9148278"><ele>487.40000000000003</ele><time>2026-04-02T12:01:33.783Z</time></trkpt><trkpt lat="46.0693361" lon="11.9148383"><ele>484.20000000000005</ele><time>2026-04-02T12:01:35.785Z</time></trkpt><trkpt lat="46.0692459" lon="11.9148713"><ele>481.0</ele><time>2026-04-02T12:01:37.785Z</time></trkpt><trkpt lat="46.0691767" lon="11.9149644"><ele>481.6</ele><time>2026-04-02T12:01:39.785Z</time></trkpt><trkpt lat="46.0691161" lon="11.9150997"><ele>482.20000000000005</ele><time>2026-04-02T12:01:41.783Z</time></trkpt><trkpt lat="46.0690841" lon="11.9152512"><ele>482.79999999999995</ele><time>2026-04-02T12:01:43.785Z</time></trkpt><trkpt lat="46.0690831" lon="11.9153885"><ele>483.4</ele><time>2026-04-02T12:01:45.783Z</time></trkpt><trkpt lat="46.0690669" lon="11.9155012"><ele>484.0</ele><time>2026-04-02T12:01:47.785Z</time></trkpt><trkpt lat="46.0690096" lon="11.9155644"><ele>478.00000000000006</ele><time>2026-04-02T12:01:49.785Z</time></trkpt><trkpt lat="46.0689365" lon="11.9155486"><ele>472.0</ele><time>2026-04-02T12:01:51.785Z</time></trkpt><trkpt lat="46.068894" lon="11.9154625"><ele>466.0</ele><time>2026-04-02T12:01:53.783Z</time></trkpt><trkpt lat="46.0688816" lon="11.9153395"><ele>460.0</ele><time>2026-04-02T12:01:55.784Z</time></trkpt><trkpt lat="46.0688952" lon="11.9152024"><ele>454.00000000000006</ele><time>2026-04-02T12:01:57.784Z</time></trkpt><trkpt lat="46.0689339" lon="11.9150623"><ele>448.0</ele><time>2026-04-02T12:01:59.782Z</time></trkpt><trkpt lat="46.0689954" lon="11.9149358"><ele>447.79999999999995</ele><time>2026-04-02T12:02:01.784Z</time></trkpt><trkpt lat="46.0690658" lon="11.9148175"><ele>447.59999999999997</ele><time>2026-04-02T12:02:03.783Z</time></trkpt><trkpt lat="46.069114" lon="11.914674"><ele>447.40000000000003</ele><time>2026-04-02T12:02:05.785Z</time></trkpt><trkpt lat="46.0691574" lon="11.9145324"><ele>447.20000000000005</ele><time>2026-04-02T12:02:07.785Z</time></trkpt><trkpt lat="46.0691878" lon="11.9143698"><ele>447.0</ele><time>2026-04-02T12:02:09.783Z</time></trkpt><trkpt lat="46.0692078" lon="11.9142316"><ele>446.0</ele><time>2026-04-02T12:02:11.785Z</time></trkpt><trkpt lat="46.0692198" lon="11.9141141"><ele>445.0</ele><time>2026-04-02T12:02:13.783Z</time></trkpt><trkpt lat="46.0692197" lon="11.9140172"><ele>444.0</ele><time>2026-04-02T12:02:15.785Z</time></trkpt><trkpt lat="46.0692331" lon="11.9139097"><ele>443.0</ele><time>2026-04-02T12:02:18.785Z</time></trkpt><trkpt lat="46.069176" lon="11.9138042"><ele>442.0</ele><time>2026-04-02T12:02:21.782Z</time></trkpt><trkpt lat="46.0690873" lon="11.9138472"><ele>441.0</ele><time>2026-04-02T12:02:24.785Z</time></trkpt><trkpt lat="46.0690382" lon="11.9139463"><ele>441.0</ele><time>2026-04-02T12:02:27.785Z</time></trkpt><trkpt lat="46.0689869" lon="11.9140426"><ele>441.0</ele><time>2026-04-02T12:02:30.785Z</time></trkpt><trkpt lat="46.0689182" lon="11.9141239"><ele>441.0</ele><time>2026-04-02T12:02:33.783Z</time></trkpt><trkpt lat="46.0688613" lon="11.9142232"><ele>441.0</ele><time>2026-04-02T12:02:36.785Z</time></trkpt><trkpt lat="46.0688305" lon="11.9143183"><ele>441.0</ele><time>2026-04-02T12:02:38.784Z</time></trkpt><trkpt lat="46.0687852" lon="11.9144185"><ele>441.0</ele><time>2026-04-02T12:02:40.785Z</time></trkpt><trkpt lat="46.0687273" lon="11.9145079"><ele>442.0</ele><time>2026-04-02T12:02:42.783Z</time></trkpt><trkpt lat="46.0686768" lon="11.9145885"><ele>443.0</ele><time>2026-04-02T12:02:44.784Z</time></trkpt><trkpt lat="46.068631" lon="11.9146943"><ele>444.0</ele><time>2026-04-02T12:02:46.785Z</time></trkpt><trkpt lat="46.0685923" lon="11.9148025"><ele>445.0</ele><time>2026-04-02T12:02:48.783Z</time></trkpt><trkpt lat="46.068544" lon="11.9149271"><ele>446.0</ele><time>2026-04-02T12:02:50.785Z</time></trkpt><trkpt lat="46.0685152" lon="11.9150477"><ele>447.0</ele><time>2026-04-02T12:02:52.783Z</time></trkpt><trkpt lat="46.0685002" lon="11.9151746"><ele>447.1666666666667</ele><time>2026-04-02T12:02:54.784Z</time></trkpt><trkpt lat="46.068482" lon="11.9153006"><ele>447.33333333333337</ele><time>2026-04-02T12:02:56.785Z</time></trkpt><trkpt lat="46.0684649" lon="11.9154103"><ele>447.5</ele><time>2026-04-02T12:02:58.785Z</time></trkpt><trkpt lat="46.0684331" lon="11.915513"><ele>447.6666666666667</ele><time>2026-04-02T12:03:00.785Z</time></trkpt><trkpt lat="46.0683958" lon="11.9156237"><ele>447.83333333333337</ele><time>2026-04-02T12:03:02.785Z</time></trkpt><trkpt lat="46.0683592" lon="11.9157529"><ele>448.0</ele><time>2026-04-02T12:03:04.785Z</time></trkpt><trkpt lat="46.0683252" lon="11.9158641"><ele>448.33333333333337</ele><time>2026-04-02T12:03:06.785Z</time></trkpt><trkpt lat="46.0682891" lon="11.9159614"><ele>448.6666666666667</ele><time>2026-04-02T12:03:08.784Z</time></trkpt><trkpt lat="46.068242" lon="11.916067"><ele>449.0</ele><time>2026-04-02T12:03:10.783Z</time></trkpt><trkpt lat="46.0682046" lon="11.91618"><ele>449.33333333333337</ele><time>2026-04-02T12:03:12.782Z</time></trkpt><trkpt lat="46.0681692" lon="11.9162979"><ele>449.6666666666667</ele><time>2026-04-02T12:03:14.781Z</time></trkpt><trkpt lat="46.068132" lon="11.9164085"><ele>450.0</ele><time>2026-04-02T12:03:16.78Z</time></trkpt><trkpt lat="46.0680876" lon="11.916533"><ele>445.8</ele><time>2026-04-02T12:03:18.781Z</time></trkpt><trkpt lat="46.0680526" lon="11.9166707"><ele>441.6</ele><time>2026-04-02T12:03:20.78Z</time></trkpt><trkpt lat="46.0680244" lon="11.9167996"><ele>437.4</ele><time>2026-04-02T12:03:22.782Z</time></trkpt><trkpt lat="46.0679897" lon="11.9169248"><ele>433.2</ele><time>2026-04-02T12:03:24.783Z</time></trkpt><trkpt lat="46.0679527" lon="11.9170581"><ele>429.0</ele><time>2026-04-02T12:03:26.784Z</time></trkpt><trkpt lat="46.0679128" lon="11.9171835"><ele>429.0</ele><time>2026-04-02T12:03:28.783Z</time></trkpt><trkpt lat="46.0678798" lon="11.9173095"><ele>429.0</ele><time>2026-04-02T12:03:30.785Z</time></trkpt><trkpt lat="46.0678443" lon="11.9174178"><ele>429.0</ele><time>2026-04-02T12:03:32.785Z</time></trkpt><trkpt lat="46.0678153" lon="11.9175045"><ele>429.0</ele><time>2026-04-02T12:03:34.785Z</time></trkpt><trkpt lat="46.0677808" lon="11.9176032"><ele>429.0</ele><time>2026-04-02T12:03:36.783Z</time></trkpt><trkpt lat="46.0677415" lon="11.91773"><ele>429.0</ele><time>2026-04-02T12:03:39.785Z</time></trkpt><trkpt lat="46.0676996" lon="11.9178432"><ele>428.1666666666667</ele><time>2026-04-02T12:03:42.783Z</time></trkpt><trkpt lat="46.0676766" lon="11.9179321"><ele>427.33333333333337</ele><time>2026-04-02T12:03:44.781Z</time></trkpt><trkpt lat="46.0676529" lon="11.9180374"><ele>426.5</ele><time>2026-04-02T12:03:46.783Z</time></trkpt><trkpt lat="46.0676128" lon="11.9181225"><ele>425.6666666666667</ele><time>2026-04-02T12:03:48.785Z</time></trkpt><trkpt lat="46.0675295" lon="11.9181755"><ele>424.83333333333337</ele><time>2026-04-02T12:03:51.784Z</time></trkpt><trkpt lat="46.0674461" lon="11.9182145"><ele>424.0</ele><time>2026-04-02T12:03:54.783Z</time></trkpt><trkpt lat="46.0673799" lon="11.9182391"><ele>421.00000000000006</ele><time>2026-04-02T12:03:56.783Z</time></trkpt><trkpt lat="46.0672991" lon="11.9182603"><ele>418.0</ele><time>2026-04-02T12:03:59.785Z</time></trkpt><trkpt lat="46.0672198" lon="11.9182784"><ele>415.0</ele><time>2026-04-02T12:04:02.784Z</time></trkpt><trkpt lat="46.067156" lon="11.9182497"><ele>412.0</ele><time>2026-04-02T12:04:05.784Z</time></trkpt><trkpt lat="46.0671161" lon="11.9181446"><ele>409.00000000000006</ele><time>2026-04-02T12:04:09.784Z</time></trkpt><trkpt lat="46.0671331" lon="11.9180417"><ele>406.0</ele><time>2026-04-02T12:04:12.785Z</time></trkpt><trkpt lat="46.0671572" lon="11.9179059"><ele>406.00000000000006</ele><time>2026-04-02T12:04:15.783Z</time></trkpt><trkpt lat="46.0671562" lon="11.9178059"><ele>406.0</ele><time>2026-04-02T12:04:17.785Z</time></trkpt><trkpt lat="46.0671607" lon="11.9176824"><ele>406.0</ele><time>2026-04-02T12:04:20.784Z</time></trkpt><trkpt lat="46.067166" lon="11.9175582"><ele>406.0</ele><time>2026-04-02T12:04:23.785Z</time></trkpt><trkpt lat="46.0671798" lon="11.9174488"><ele>406.00000000000006</ele><time>2026-04-02T12:04:26.784Z</time></trkpt><trkpt lat="46.0672038" lon="11.9173346"><ele>406.0</ele><time>2026-04-02T12:04:29.783Z</time></trkpt><trkpt lat="46.0671603" lon="11.9172158"><ele>406.0</ele><time>2026-04-02T12:04:32.783Z</time></trkpt><trkpt lat="46.0671011" lon="11.9171639"><ele>406.0</ele><time>2026-04-02T12:04:34.784Z</time></trkpt><trkpt lat="46.0670404" lon="11.9171359"><ele>406.0</ele><time>2026-04-02T12:04:36.784Z</time></trkpt><trkpt lat="46.0669714" lon="11.9171264"><ele>406.0</ele><time>2026-04-02T12:04:38.783Z</time></trkpt><trkpt lat="46.0669018" lon="11.9171628"><ele>406.0</ele><time>2026-04-02T12:04:40.784Z</time></trkpt><trkpt lat="46.0668551" lon="11.9172595"><ele>406.0</ele><time>2026-04-02T12:04:43.782Z</time></trkpt><trkpt lat="46.06684" lon="11.9173711"><ele>406.0</ele><time>2026-04-02T12:04:46.782Z</time></trkpt><trkpt lat="46.0668288" lon="11.9174851"><ele>406.0</ele><time>2026-04-02T12:04:49.784Z</time></trkpt><trkpt lat="46.0668001" lon="11.9175885"><ele>406.0</ele><time>2026-04-02T12:04:52.786Z</time></trkpt><trkpt lat="46.0667801" lon="11.9176809"><ele>406.0</ele><time>2026-04-02T12:04:55.786Z</time></trkpt><trkpt lat="46.066748" lon="11.9177678"><ele>406.0</ele><time>2026-04-02T12:04:58.786Z</time></trkpt><trkpt lat="46.0667087" lon="11.917853"><ele>406.0</ele><time>2026-04-02T12:05:01.786Z</time></trkpt><trkpt lat="46.0666686" lon="11.917952"><ele>406.0</ele><time>2026-04-02T12:05:04.786Z</time></trkpt><trkpt lat="46.0666241" lon="11.9180576"><ele>406.0</ele><time>2026-04-02T12:05:07.786Z</time></trkpt><trkpt lat="46.0665827" lon="11.9181703"><ele>406.0</ele><time>2026-04-02T12:05:10.785Z</time></trkpt><trkpt lat="46.0665867" lon="11.9182889"><ele>406.0</ele><time>2026-04-02T12:05:13.783Z</time></trkpt><trkpt lat="46.0666016" lon="11.9183931"><ele>406.0</ele><time>2026-04-02T12:05:16.786Z</time></trkpt><trkpt lat="46.0666036" lon="11.918484"><ele>406.0</ele><time>2026-04-02T12:05:19.783Z</time></trkpt><trkpt lat="46.0665905" lon="11.9185824"><ele>406.0</ele><time>2026-04-02T12:05:22.781Z</time></trkpt><trkpt lat="46.0665634" lon="11.9186677"><ele>406.0</ele><time>2026-04-02T12:05:25.784Z</time></trkpt><trkpt lat="46.0665225" lon="11.918743"><ele>406.0</ele><time>2026-04-02T12:05:28.783Z</time></trkpt><trkpt lat="46.0664597" lon="11.9186786"><ele>406.0</ele><time>2026-04-02T12:05:34.784Z</time></trkpt><trkpt lat="46.0664465" lon="11.9185722"><ele>406.0</ele><time>2026-04-02T12:05:39.784Z</time></trkpt><trkpt lat="46.0664595" lon="11.9184597"><ele>406.0</ele><time>2026-04-02T12:05:43.784Z</time></trkpt><trkpt lat="46.0664674" lon="11.9183503"><ele>406.0</ele><time>2026-04-02T12:05:46.784Z</time></trkpt><trkpt lat="46.0664766" lon="11.9182587"><ele>406.0</ele><time>2026-04-02T12:05:49.784Z</time></trkpt><trkpt lat="46.0664846" lon="11.9181521"><ele>406.0</ele><time>2026-04-02T12:05:53.785Z</time></trkpt><trkpt lat="46.0665097" lon="11.9180486"><ele>406.0</ele><time>2026-04-02T12:05:56.785Z</time></trkpt><trkpt lat="46.0665329" lon="11.9179359"><ele>406.00000000000006</ele><time>2026-04-02T12:05:59.784Z</time></trkpt><trkpt lat="46.0665628" lon="11.9178345"><ele>406.0</ele><time>2026-04-02T12:06:02.785Z</time></trkpt><trkpt lat="46.0665855" lon="11.917719"><ele>406.0</ele><time>2026-04-02T12:06:05.785Z</time></trkpt><trkpt lat="46.0665999" lon="11.9176232"><ele>406.0</ele><time>2026-04-02T12:06:07.784Z</time></trkpt><trkpt lat="46.0666227" lon="11.9175022"><ele>406.00000000000006</ele><time>2026-04-02T12:06:10.784Z</time></trkpt><trkpt lat="46.0666424" lon="11.9174075"><ele>406.0</ele><time>2026-04-02T12:06:12.783Z</time></trkpt><trkpt lat="46.0666669" lon="11.9172852"><ele>406.00000000000006</ele><time>2026-04-02T12:06:15.785Z</time></trkpt><trkpt lat="46.0666913" lon="11.9171792"><ele>406.0</ele><time>2026-04-02T12:06:18.783Z</time></trkpt><trkpt lat="46.0667192" lon="11.9170767"><ele>406.0</ele><time>2026-04-02T12:06:21.784Z</time></trkpt><trkpt lat="46.0667573" lon="11.9169815"><ele>406.0</ele><time>2026-04-02T12:06:23.783Z</time></trkpt><trkpt lat="46.0668156" lon="11.9168856"><ele>406.00000000000006</ele><time>2026-04-02T12:06:26.783Z</time></trkpt><trkpt lat="46.0668504" lon="11.9167599"><ele>406.0</ele><time>2026-04-02T12:06:29.783Z</time></trkpt><trkpt lat="46.0668715" lon="11.9166294"><ele>405.85714285714283</ele><time>2026-04-02T12:06:32.785Z</time></trkpt><trkpt lat="46.0668776" lon="11.9165375"><ele>405.7142857142857</ele><time>2026-04-02T12:06:34.782Z</time></trkpt><trkpt lat="46.0668615" lon="11.9164131"><ele>405.57142857142856</ele><time>2026-04-02T12:06:37.784Z</time></trkpt><trkpt lat="46.0668503" lon="11.9163114"><ele>405.42857142857144</ele><time>2026-04-02T12:06:40.784Z</time></trkpt><trkpt lat="46.0668767" lon="11.9162098"><ele>405.2857142857143</ele><time>2026-04-02T12:06:44.784Z</time></trkpt><trkpt lat="46.0668912" lon="11.9161122"><ele>405.1428571428571</ele><time>2026-04-02T12:06:47.781Z</time></trkpt><trkpt lat="46.0668508" lon="11.9160301"><ele>405.0</ele><time>2026-04-02T12:06:50.785Z</time></trkpt><trkpt lat="46.0667853" lon="11.9160797"><ele>405.0</ele><time>2026-04-02T12:06:55.782Z</time></trkpt><trkpt lat="46.0667166" lon="11.9161073"><ele>405.0</ele><time>2026-04-02T12:06:58.783Z</time></trkpt><trkpt lat="46.0666596" lon="11.9160672"><ele>405.0</ele><time>2026-04-02T12:07:03.785Z</time></trkpt><trkpt lat="46.0665721" lon="11.9159822"><ele>405.0</ele><time>2026-04-02T12:07:50.783Z</time></trkpt><trkpt lat="46.066565" lon="11.9158816"><ele>405.0</ele><time>2026-04-02T12:08:18.782Z</time></trkpt><trkpt lat="46.0666063" lon="11.9158044"><ele>405.0</ele><time>2026-04-02T12:08:21.782Z</time></trkpt><trkpt lat="46.0666546" lon="11.9157224"><ele>405.3333333333333</ele><time>2026-04-02T12:08:24.784Z</time></trkpt><trkpt lat="46.0667079" lon="11.9156324"><ele>405.66666666666663</ele><time>2026-04-02T12:08:29.782Z</time></trkpt><trkpt lat="46.0667605" lon="11.9155736"><ele>406.0</ele><time>2026-04-02T12:08:32.78Z</time></trkpt><trkpt lat="46.0668078" lon="11.9154996"><ele>406.3333333333333</ele><time>2026-04-02T12:08:34.784Z</time></trkpt><trkpt lat="46.0668499" lon="11.9154158"><ele>406.66666666666663</ele><time>2026-04-02T12:08:38.785Z</time></trkpt><trkpt lat="46.0668796" lon="11.9153068"><ele>407.0</ele><time>2026-04-02T12:08:43.785Z</time></trkpt><trkpt lat="46.0668631" lon="11.9151292"><ele>408.6</ele><time>2026-04-02T12:09:11.785Z</time></trkpt><trkpt lat="46.0668699" lon="11.9150277"><ele>410.20000000000005</ele><time>2026-04-02T12:09:14.782Z</time></trkpt><trkpt lat="46.0668805" lon="11.9149272"><ele>411.8</ele><time>2026-04-02T12:09:17.785Z</time></trkpt><trkpt lat="46.0668719" lon="11.9147052"><ele>413.4</ele><time>2026-04-02T12:09:28.784Z</time></trkpt><trkpt lat="46.0668568" lon="11.9145854"><ele>415.0</ele><time>2026-04-02T12:09:30.785Z</time></trkpt><trkpt lat="46.0668385" lon="11.9144596"><ele>415.0</ele><time>2026-04-02T12:09:33.784Z</time></trkpt><trkpt lat="46.0668483" lon="11.9143583"><ele>415.0</ele><time>2026-04-02T12:09:36.785Z</time></trkpt><trkpt lat="46.0668508" lon="11.9142571"><ele>415.0</ele><time>2026-04-02T12:09:39.784Z</time></trkpt><trkpt lat="46.0668602" lon="11.9141476"><ele>415.0</ele><time>2026-04-02T12:09:42.784Z</time></trkpt><trkpt lat="46.0668746" lon="11.9140219"><ele>415.0</ele><time>2026-04-02T12:09:45.785Z</time></trkpt><trkpt lat="46.0668978" lon="11.9139305"><ele>415.0</ele><time>2026-04-02T12:09:48.785Z</time></trkpt><trkpt lat="46.066925" lon="11.9138368"><ele>415.0</ele><time>2026-04-02T12:09:51.785Z</time></trkpt><trkpt lat="46.0669629" lon="11.9137485"><ele>416.6666666666667</ele><time>2026-04-02T12:09:54.783Z</time></trkpt><trkpt lat="46.0670239" lon="11.9136488"><ele>418.33333333333337</ele><time>2026-04-02T12:09:57.782Z</time></trkpt><trkpt lat="46.0670863" lon="11.9135573"><ele>420.0</ele><time>2026-04-02T12:10:00.784Z</time></trkpt><trkpt lat="46.0671155" lon="11.913441"><ele>421.66666666666663</ele><time>2026-04-02T12:10:03.783Z</time></trkpt><trkpt lat="46.0671573" lon="11.9133575"><ele>423.3333333333333</ele><time>2026-04-02T12:10:06.784Z</time></trkpt><trkpt lat="46.0671743" lon="11.9132416"><ele>425.0</ele><time>2026-04-02T12:10:09.784Z</time></trkpt><trkpt lat="46.0671973" lon="11.9131433"><ele>426.49999999999994</ele><time>2026-04-02T12:10:12.785Z</time></trkpt><trkpt lat="46.0672129" lon="11.9130315"><ele>428.0</ele><time>2026-04-02T12:10:15.783Z</time></trkpt><trkpt lat="46.0672291" lon="11.9129166"><ele>429.5</ele><time>2026-04-02T12:10:18.783Z</time></trkpt><trkpt lat="46.0672862" lon="11.9128458"><ele>431.0</ele><time>2026-04-02T12:10:22.783Z</time></trkpt><trkpt lat="46.0673184" lon="11.9127314"><ele>432.49999999999994</ele><time>2026-04-02T12:10:26.785Z</time></trkpt><trkpt lat="46.0673629" lon="11.9126337"><ele>434.0</ele><time>2026-04-02T12:10:29.783Z</time></trkpt><trkpt lat="46.0673637" lon="11.9125402"><ele>433.99999999999994</ele><time>2026-04-02T12:10:33.785Z</time></trkpt><trkpt lat="46.0672956" lon="11.912532"><ele>434.0</ele><time>2026-04-02T12:10:36.785Z</time></trkpt><trkpt lat="46.0672205" lon="11.9125486"><ele>434.0</ele><time>2026-04-02T12:10:39.785Z</time></trkpt><trkpt lat="46.0671531" lon="11.912571"><ele>434.0</ele><time>2026-04-02T12:10:42.785Z</time></trkpt><trkpt lat="46.0670834" lon="11.9126115"><ele>433.99999999999994</ele><time>2026-04-02T12:10:45.785Z</time></trkpt><trkpt lat="46.0670182" lon="11.9126514"><ele>434.0</ele><time>2026-04-02T12:10:48.784Z</time></trkpt><trkpt lat="46.0669341" lon="11.9127177"><ele>433.99999999999994</ele><time>2026-04-02T12:11:04.785Z</time></trkpt><trkpt lat="46.0668816" lon="11.9127861"><ele>434.0</ele><time>2026-04-02T12:11:08.783Z</time></trkpt><trkpt lat="46.0668888" lon="11.9126818"><ele>434.0</ele><time>2026-04-02T12:11:50.783Z</time></trkpt><trkpt lat="46.0669142" lon="11.9125316"><ele>434.0</ele><time>2026-04-02T12:11:57.785Z</time></trkpt><trkpt lat="46.0669" lon="11.9124274"><ele>433.99999999999994</ele><time>2026-04-02T12:12:01.783Z</time></trkpt><trkpt lat="46.066927" lon="11.9123202"><ele>434.0</ele><time>2026-04-02T12:12:05.785Z</time></trkpt><trkpt lat="46.0669523" lon="11.912213"><ele>436.0</ele><time>2026-04-02T12:12:08.785Z</time></trkpt><trkpt lat="46.0669767" lon="11.9121155"><ele>438.0</ele><time>2026-04-02T12:12:12.783Z</time></trkpt><trkpt lat="46.0669019" lon="11.912092"><ele>440.0</ele><time>2026-04-02T12:12:18.785Z</time></trkpt><trkpt lat="46.0668262" lon="11.9121417"><ele>442.0</ele><time>2026-04-02T12:12:21.784Z</time></trkpt><trkpt lat="46.0667744" lon="11.912201"><ele>444.0</ele><time>2026-04-02T12:12:24.782Z</time></trkpt><trkpt lat="46.0667198" lon="11.9122787"><ele>446.0</ele><time>2026-04-02T12:12:28.785Z</time></trkpt><trkpt lat="46.0666683" lon="11.912342"><ele>448.0</ele><time>2026-04-02T12:12:32.783Z</time></trkpt><trkpt lat="46.066617" lon="11.9124228"><ele>448.0</ele><time>2026-04-02T12:12:37.784Z</time></trkpt><trkpt lat="46.0665582" lon="11.9123861"><ele>448.0</ele><time>2026-04-02T12:12:45.784Z</time></trkpt><trkpt lat="46.0666101" lon="11.9123082"><ele>448.0</ele><time>2026-04-02T12:12:48.785Z</time></trkpt><trkpt lat="46.0666519" lon="11.9122262"><ele>448.0</ele><time>2026-04-02T12:12:51.784Z</time></trkpt><trkpt lat="46.0666751" lon="11.9121329"><ele>448.0</ele><time>2026-04-02T12:12:54.783Z</time></trkpt><trkpt lat="46.0667018" lon="11.9120408"><ele>448.0</ele><time>2026-04-02T12:12:57.784Z</time></trkpt><trkpt lat="46.0667266" lon="11.9119136"><ele>448.0</ele><time>2026-04-02T12:13:00.785Z</time></trkpt><trkpt lat="46.0667591" lon="11.9117914"><ele>451.1666666666667</ele><time>2026-04-02T12:13:06.781Z</time></trkpt><trkpt lat="46.0668207" lon="11.9117131"><ele>454.33333333333337</ele><time>2026-04-02T12:13:10.784Z</time></trkpt><trkpt lat="46.0668682" lon="11.911651"><ele>457.5</ele><time>2026-04-02T12:13:13.783Z</time></trkpt><trkpt lat="46.066917" lon="11.9115697"><ele>460.66666666666663</ele><time>2026-04-02T12:13:16.784Z</time></trkpt><trkpt lat="46.06695" lon="11.9114663"><ele>463.8333333333333</ele><time>2026-04-02T12:13:19.784Z</time></trkpt><trkpt lat="46.0669893" lon="11.9113763"><ele>467.0</ele><time>2026-04-02T12:13:22.783Z</time></trkpt><trkpt lat="46.0670549" lon="11.9112681"><ele>466.99999999999994</ele><time>2026-04-02T12:13:25.785Z</time></trkpt><trkpt lat="46.0670716" lon="11.911173"><ele>467.0</ele><time>2026-04-02T12:13:27.783Z</time></trkpt><trkpt lat="46.067098" lon="11.9110873"><ele>467.0</ele><time>2026-04-02T12:13:32.785Z</time></trkpt><trkpt lat="46.0671335" lon="11.9109582"><ele>467.0</ele><time>2026-04-02T12:13:43.784Z</time></trkpt><trkpt lat="46.0671376" lon="11.9108242"><ele>466.99999999999994</ele><time>2026-04-02T12:13:47.785Z</time></trkpt><trkpt lat="46.06715" lon="11.9106984"><ele>467.0</ele><time>2026-04-02T12:13:50.783Z</time></trkpt><trkpt lat="46.0671497" lon="11.9105828"><ele>469.5714285714285</ele><time>2026-04-02T12:13:52.783Z</time></trkpt><trkpt lat="46.0671207" lon="11.9104832"><ele>472.1428571428571</ele><time>2026-04-02T12:13:56.785Z</time></trkpt><trkpt lat="46.0670914" lon="11.9103856"><ele>474.7142857142857</ele><time>2026-04-02T12:13:58.783Z</time></trkpt><trkpt lat="46.0670595" lon="11.9102877"><ele>477.2857142857143</ele><time>2026-04-02T12:14:05.783Z</time></trkpt><trkpt lat="46.0670241" lon="11.9102087"><ele>479.8571428571429</ele><time>2026-04-02T12:14:09.784Z</time></trkpt><trkpt lat="46.0669729" lon="11.9101403"><ele>482.4285714285715</ele><time>2026-04-02T12:14:13.782Z</time></trkpt><trkpt lat="46.066947" lon="11.9100372"><ele>485.00000000000006</ele><time>2026-04-02T12:14:18.784Z</time></trkpt><trkpt lat="46.0669231" lon="11.9099495"><ele>485.8571428571429</ele><time>2026-04-02T12:14:21.784Z</time></trkpt><trkpt lat="46.0668925" lon="11.9098445"><ele>486.7142857142857</ele><time>2026-04-02T12:14:26.785Z</time></trkpt><trkpt lat="46.0668843" lon="11.9097494"><ele>487.57142857142856</ele><time>2026-04-02T12:14:30.784Z</time></trkpt><trkpt lat="46.0668775" lon="11.9096544"><ele>488.42857142857144</ele><time>2026-04-02T12:14:33.785Z</time></trkpt><trkpt lat="46.0668632" lon="11.9095604"><ele>489.2857142857142</ele><time>2026-04-02T12:14:37.784Z</time></trkpt><trkpt lat="46.0668671" lon="11.909433"><ele>490.1428571428571</ele><time>2026-04-02T12:14:43.785Z</time></trkpt><trkpt lat="46.0668337" lon="11.9093388"><ele>491.0</ele><time>2026-04-02T12:14:46.783Z</time></trkpt><trkpt lat="46.0667982" lon="11.9092169"><ele>491.0</ele><time>2026-04-02T12:14:53.78Z</time></trkpt><trkpt lat="46.0667674" lon="11.909007"><ele>491.0</ele><time>2026-04-02T12:15:04.781Z</time></trkpt><trkpt lat="46.0667323" lon="11.9089144"><ele>491.0</ele><time>2026-04-02T12:15:06.78Z</time></trkpt><trkpt lat="46.0667096" lon="11.908825"><ele>491.0</ele><time>2026-04-02T12:15:08.78Z</time></trkpt><trkpt lat="46.0666705" lon="11.9086928"><ele>491.0</ele><time>2026-04-02T12:15:11.781Z</time></trkpt><trkpt lat="46.066601" lon="11.9087425"><ele>491.57142857142856</ele><time>2026-04-02T12:15:19.783Z</time></trkpt><trkpt lat="46.0665624" lon="11.9088237"><ele>492.1428571428571</ele><time>2026-04-02T12:15:23.783Z</time></trkpt><trkpt lat="46.0664919" lon="11.9089005"><ele>492.71428571428567</ele><time>2026-04-02T12:15:27.785Z</time></trkpt><trkpt lat="46.0664253" lon="11.9089239"><ele>493.2857142857142</ele><time>2026-04-02T12:15:30.784Z</time></trkpt><trkpt lat="46.0663571" lon="11.908931"><ele>493.85714285714283</ele><time>2026-04-02T12:15:33.782Z</time></trkpt><trkpt lat="46.0662726" lon="11.9089561"><ele>494.42857142857133</ele><time>2026-04-02T12:15:36.783Z</time></trkpt><trkpt lat="46.0662077" lon="11.9089854"><ele>494.99999999999994</ele><time>2026-04-02T12:15:38.784Z</time></trkpt><trkpt lat="46.0661409" lon="11.9090147"><ele>494.99999999999994</ele><time>2026-04-02T12:15:40.782Z</time></trkpt><trkpt lat="46.0660726" lon="11.9090437"><ele>495.0</ele><time>2026-04-02T12:15:42.784Z</time></trkpt><trkpt lat="46.066011" lon="11.909075"><ele>494.99999999999994</ele><time>2026-04-02T12:15:44.784Z</time></trkpt><trkpt lat="46.065943" lon="11.909108"><ele>494.99999999999994</ele><time>2026-04-02T12:15:46.783Z</time></trkpt><trkpt lat="46.06587" lon="11.9091346"><ele>495.0</ele><time>2026-04-02T12:15:48.784Z</time></trkpt><trkpt lat="46.065802" lon="11.90916"><ele>494.99999999999994</ele><time>2026-04-02T12:15:50.783Z</time></trkpt><trkpt lat="46.0657287" lon="11.9091897"><ele>494.99999999999994</ele><time>2026-04-02T12:15:52.781Z</time></trkpt><trkpt lat="46.0656496" lon="11.9092194"><ele>493.8333333333333</ele><time>2026-04-02T12:15:54.785Z</time></trkpt><trkpt lat="46.0655681" lon="11.909252"><ele>492.66666666666663</ele><time>2026-04-02T12:15:56.784Z</time></trkpt><trkpt lat="46.065483" lon="11.9092855"><ele>491.5</ele><time>2026-04-02T12:15:58.783Z</time></trkpt><trkpt lat="46.0653947" lon="11.9093259"><ele>490.3333333333333</ele><time>2026-04-02T12:16:00.784Z</time></trkpt><trkpt lat="46.0653123" lon="11.90937"><ele>489.16666666666663</ele><time>2026-04-02T12:16:02.784Z</time></trkpt><trkpt lat="46.0652352" lon="11.9094091"><ele>488.0</ele><time>2026-04-02T12:16:04.781Z</time></trkpt><trkpt lat="46.0651571" lon="11.9094438"><ele>487.99999999999994</ele><time>2026-04-02T12:16:06.783Z</time></trkpt><trkpt lat="46.0650815" lon="11.909471"><ele>488.0</ele><time>2026-04-02T12:16:08.785Z</time></trkpt><trkpt lat="46.0650077" lon="11.9094835"><ele>488.0</ele><time>2026-04-02T12:16:10.782Z</time></trkpt><trkpt lat="46.0649324" lon="11.9094915"><ele>488.0</ele><time>2026-04-02T12:16:12.785Z</time></trkpt><trkpt lat="46.0648483" lon="11.9094984"><ele>487.99999999999994</ele><time>2026-04-02T12:16:14.784Z</time></trkpt><trkpt lat="46.0647572" lon="11.9095052"><ele>488.0</ele><time>2026-04-02T12:16:16.78Z</time></trkpt><trkpt lat="46.0646588" lon="11.9095227"><ele>487.79999999999995</ele><time>2026-04-02T12:16:18.781Z</time></trkpt><trkpt lat="46.064553" lon="11.9095392"><ele>487.59999999999997</ele><time>2026-04-02T12:16:20.784Z</time></trkpt><trkpt lat="46.0644548" lon="11.9095556"><ele>487.40000000000003</ele><time>2026-04-02T12:16:22.783Z</time></trkpt><trkpt lat="46.0643549" lon="11.9095817"><ele>487.20000000000005</ele><time>2026-04-02T12:16:24.784Z</time></trkpt><trkpt lat="46.0642453" lon="11.9095899"><ele>487.0</ele><time>2026-04-02T12:16:26.785Z</time></trkpt><trkpt lat="46.0641439" lon="11.9095982"><ele>486.40000000000003</ele><time>2026-04-02T12:16:28.782Z</time></trkpt><trkpt lat="46.0640433" lon="11.9096011"><ele>485.80000000000007</ele><time>2026-04-02T12:16:30.784Z</time></trkpt><trkpt lat="46.0639406" lon="11.909604"><ele>485.2</ele><time>2026-04-02T12:16:32.785Z</time></trkpt><trkpt lat="46.0638319" lon="11.9096149"><ele>484.6</ele><time>2026-04-02T12:16:34.782Z</time></trkpt><trkpt lat="46.0637289" lon="11.9095668"><ele>484.0</ele><time>2026-04-02T12:16:36.784Z</time></trkpt><trkpt lat="46.0636436" lon="11.9094802"><ele>484.0</ele><time>2026-04-02T12:16:38.784Z</time></trkpt><trkpt lat="46.0635613" lon="11.9094087"><ele>484.0</ele><time>2026-04-02T12:16:40.784Z</time></trkpt><trkpt lat="46.0634777" lon="11.9093448"><ele>484.0</ele><time>2026-04-02T12:16:42.783Z</time></trkpt><trkpt lat="46.0633923" lon="11.9092874"><ele>484.0</ele><time>2026-04-02T12:16:44.785Z</time></trkpt><trkpt lat="46.0633079" lon="11.9092338"><ele>484.0</ele><time>2026-04-02T12:16:46.782Z</time></trkpt><trkpt lat="46.0632309" lon="11.9091939"><ele>485.6</ele><time>2026-04-02T12:16:48.784Z</time></trkpt><trkpt lat="46.0631476" lon="11.9091475"><ele>487.2</ele><time>2026-04-02T12:16:50.784Z</time></trkpt><trkpt lat="46.0630642" lon="11.9090895"><ele>488.80000000000007</ele><time>2026-04-02T12:16:52.783Z</time></trkpt><trkpt lat="46.0629812" lon="11.9090316"><ele>490.40000000000003</ele><time>2026-04-02T12:16:54.784Z</time></trkpt><trkpt lat="46.0628934" lon="11.9089776"><ele>492.0</ele><time>2026-04-02T12:16:56.783Z</time></trkpt><trkpt lat="46.0628101" lon="11.9089522"><ele>492.0</ele><time>2026-04-02T12:16:58.783Z</time></trkpt><trkpt lat="46.0627192" lon="11.9089404"><ele>492.0</ele><time>2026-04-02T12:17:00.782Z</time></trkpt><trkpt lat="46.0626468" lon="11.9089452"><ele>492.0</ele><time>2026-04-02T12:17:02.784Z</time></trkpt><trkpt lat="46.0625755" lon="11.9089265"><ele>492.0</ele><time>2026-04-02T12:17:04.784Z</time></trkpt><trkpt lat="46.0625206" lon="11.9088474"><ele>492.0</ele><time>2026-04-02T12:17:06.782Z</time></trkpt><trkpt lat="46.0625012" lon="11.9087416"><ele>492.0</ele><time>2026-04-02T12:17:08.784Z</time></trkpt><trkpt lat="46.0624954" lon="11.9086285"><ele>492.0</ele><time>2026-04-02T12:17:10.783Z</time></trkpt><trkpt lat="46.0624807" lon="11.9085077"><ele>492.0</ele><time>2026-04-02T12:17:12.784Z</time></trkpt><trkpt lat="46.0624628" lon="11.9083851"><ele>492.0</ele><time>2026-04-02T12:17:14.783Z</time></trkpt><trkpt lat="46.0624413" lon="11.9082671"><ele>492.0</ele><time>2026-04-02T12:17:16.782Z</time></trkpt><trkpt lat="46.0624175" lon="11.908163"><ele>492.0</ele><time>2026-04-02T12:17:18.785Z</time></trkpt><trkpt lat="46.0623838" lon="11.9080753"><ele>492.0</ele><time>2026-04-02T12:17:20.783Z</time></trkpt><trkpt lat="46.0623411" lon="11.907981"><ele>492.1666666666667</ele><time>2026-04-02T12:17:22.782Z</time></trkpt><trkpt lat="46.0622985" lon="11.9078827"><ele>492.33333333333337</ele><time>2026-04-02T12:17:24.784Z</time></trkpt><trkpt lat="46.0622465" lon="11.9077901"><ele>492.5</ele><time>2026-04-02T12:17:26.784Z</time></trkpt><trkpt lat="46.0621934" lon="11.9077026"><ele>492.6666666666667</ele><time>2026-04-02T12:17:28.784Z</time></trkpt><trkpt lat="46.0621365" lon="11.9076103"><ele>492.83333333333337</ele><time>2026-04-02T12:17:30.783Z</time></trkpt><trkpt lat="46.0620725" lon="11.9075357"><ele>493.0</ele><time>2026-04-02T12:17:32.783Z</time></trkpt><trkpt lat="46.0620076" lon="11.9074726"><ele>493.00000000000006</ele><time>2026-04-02T12:17:34.78Z</time></trkpt><trkpt lat="46.0619305" lon="11.9074108"><ele>493.0</ele><time>2026-04-02T12:17:36.785Z</time></trkpt><trkpt lat="46.0618722" lon="11.9073719"><ele>493.0</ele><time>2026-04-02T12:17:38.784Z</time></trkpt><trkpt lat="46.0618137" lon="11.9072831"><ele>493.0</ele><time>2026-04-02T12:17:41.784Z</time></trkpt><trkpt lat="46.0618563" lon="11.9071881"><ele>493.00000000000006</ele><time>2026-04-02T12:17:44.784Z</time></trkpt><trkpt lat="46.0619267" lon="11.9071398"><ele>493.0</ele><time>2026-04-02T12:17:46.784Z</time></trkpt><trkpt lat="46.0620001" lon="11.9070819"><ele>493.00000000000006</ele><time>2026-04-02T12:17:48.784Z</time></trkpt><trkpt lat="46.0620609" lon="11.9070266"><ele>493.0</ele><time>2026-04-02T12:17:50.782Z</time></trkpt><trkpt lat="46.0621295" lon="11.906958"><ele>493.0</ele><time>2026-04-02T12:17:52.783Z</time></trkpt><trkpt lat="46.0621924" lon="11.906888"><ele>493.0</ele><time>2026-04-02T12:17:54.782Z</time></trkpt><trkpt lat="46.062244" lon="11.9068161"><ele>493.00000000000006</ele><time>2026-04-02T12:17:56.782Z</time></trkpt><trkpt lat="46.0622785" lon="11.906713"><ele>493.0</ele><time>2026-04-02T12:17:58.781Z</time></trkpt><trkpt lat="46.0623012" lon="11.9066248"><ele>493.4</ele><time>2026-04-02T12:18:00.784Z</time></trkpt><trkpt lat="46.0623144" lon="11.9065164"><ele>493.79999999999995</ele><time>2026-04-02T12:18:03.784Z</time></trkpt><trkpt lat="46.0623156" lon="11.9063814"><ele>494.2</ele><time>2026-04-02T12:18:06.784Z</time></trkpt><trkpt lat="46.0622963" lon="11.906248"><ele>494.6</ele><time>2026-04-02T12:18:08.784Z</time></trkpt><trkpt lat="46.0622704" lon="11.9061081"><ele>495.0</ele><time>2026-04-02T12:18:10.784Z</time></trkpt><trkpt lat="46.0622498" lon="11.9059664"><ele>497.5</ele><time>2026-04-02T12:18:12.783Z</time></trkpt><trkpt lat="46.0622494" lon="11.9058282"><ele>500.0</ele><time>2026-04-02T12:18:15.782Z</time></trkpt><trkpt lat="46.0622593" lon="11.9057124"><ele>502.5</ele><time>2026-04-02T12:18:17.784Z</time></trkpt><trkpt lat="46.0622959" lon="11.9056"><ele>505.0</ele><time>2026-04-02T12:18:20.784Z</time></trkpt><trkpt lat="46.0623457" lon="11.9055034"><ele>507.5</ele><time>2026-04-02T12:18:23.785Z</time></trkpt><trkpt lat="46.0623752" lon="11.9054133"><ele>510.0</ele><time>2026-04-02T12:18:26.783Z</time></trkpt><trkpt lat="46.0624135" lon="11.9053309"><ele>509.3333333333333</ele><time>2026-04-02T12:18:29.782Z</time></trkpt><trkpt lat="46.0624522" lon="11.9052486"><ele>508.66666666666663</ele><time>2026-04-02T12:18:32.785Z</time></trkpt><trkpt lat="46.0624955" lon="11.9051599"><ele>508.0</ele><time>2026-04-02T12:18:36.782Z</time></trkpt><trkpt lat="46.0625499" lon="11.905066"><ele>507.3333333333333</ele><time>2026-04-02T12:18:39.78Z</time></trkpt><trkpt lat="46.0626065" lon="11.9049913"><ele>506.66666666666663</ele><time>2026-04-02T12:18:42.781Z</time></trkpt><trkpt lat="46.0626483" lon="11.90488"><ele>506.0</ele><time>2026-04-02T12:18:46.779Z</time></trkpt><trkpt lat="46.0626653" lon="11.9047875"><ele>507.1428571428572</ele><time>2026-04-02T12:18:49.78Z</time></trkpt><trkpt lat="46.0627012" lon="11.9047117"><ele>508.28571428571433</ele><time>2026-04-02T12:18:52.78Z</time></trkpt><trkpt lat="46.0627418" lon="11.90463"><ele>509.42857142857144</ele><time>2026-04-02T12:18:55.784Z</time></trkpt><trkpt lat="46.0627911" lon="11.9045717"><ele>510.5714285714286</ele><time>2026-04-02T12:18:58.782Z</time></trkpt><trkpt lat="46.0628487" lon="11.904487"><ele>511.7142857142858</ele><time>2026-04-02T12:19:02.784Z</time></trkpt><trkpt lat="46.0628917" lon="11.9044024"><ele>512.8571428571429</ele><time>2026-04-02T12:19:05.782Z</time></trkpt><trkpt lat="46.062937" lon="11.9043215"><ele>514.0</ele><time>2026-04-02T12:19:08.781Z</time></trkpt><trkpt lat="46.0629829" lon="11.9042405"><ele>514.1666666666667</ele><time>2026-04-02T12:19:11.781Z</time></trkpt><trkpt lat="46.0630369" lon="11.9041598"><ele>514.3333333333334</ele><time>2026-04-02T12:19:14.782Z</time></trkpt><trkpt lat="46.0630956" lon="11.9040855"><ele>514.5</ele><time>2026-04-02T12:19:17.785Z</time></trkpt><trkpt lat="46.063152" lon="11.9039972"><ele>514.6666666666666</ele><time>2026-04-02T12:19:20.783Z</time></trkpt><trkpt lat="46.0632005" lon="11.9039044"><ele>514.8333333333333</ele><time>2026-04-02T12:19:23.784Z</time></trkpt><trkpt lat="46.0632602" lon="11.9038051"><ele>515.0</ele><time>2026-04-02T12:19:26.785Z</time></trkpt><trkpt lat="46.063312" lon="11.9037454"><ele>516.5</ele><time>2026-04-02T12:19:28.784Z</time></trkpt><trkpt lat="46.0633778" lon="11.9036557"><ele>518.0</ele><time>2026-04-02T12:19:31.784Z</time></trkpt><trkpt lat="46.0634424" lon="11.9035863"><ele>519.5</ele><time>2026-04-02T12:19:34.782Z</time></trkpt><trkpt lat="46.0634971" lon="11.903509"><ele>521.0</ele><time>2026-04-02T12:19:37.784Z</time></trkpt><trkpt lat="46.0635592" lon="11.9034271"><ele>522.5</ele><time>2026-04-02T12:19:40.781Z</time></trkpt><trkpt lat="46.0636222" lon="11.9033371"><ele>524.0</ele><time>2026-04-02T12:19:43.783Z</time></trkpt><trkpt lat="46.0636706" lon="11.9032444"><ele>524.0</ele><time>2026-04-02T12:19:46.784Z</time></trkpt><trkpt lat="46.0637186" lon="11.9031623"><ele>524.0</ele><time>2026-04-02T12:19:49.785Z</time></trkpt><trkpt lat="46.0637648" lon="11.9030827"><ele>524.0</ele><time>2026-04-02T12:19:52.782Z</time></trkpt><trkpt lat="46.0632005" lon="11.9039044"><ele>524.6666666666666</ele><time>2026-04-02T12:19:23.784Z</time></trkpt><trkpt lat="46.0632602" lon="11.9038051"><ele>525.3333333333333</ele><time>2026-04-02T12:19:26.785Z</time></trkpt><trkpt lat="46.063312" lon="11.9037454"><ele>526.0</ele><time>2026-04-02T12:19:28.784Z</time></trkpt><trkpt lat="46.0633778" lon="11.9036557"><ele>526.6666666666666</ele><time>2026-04-02T12:19:31.784Z</time></trkpt><trkpt lat="46.0634424" lon="11.9035863"><ele>527.3333333333334</ele><time>2026-04-02T12:19:34.782Z</time></trkpt><trkpt lat="46.0634971" lon="11.903509"><ele>528.0</ele><time>2026-04-02T12:19:37.784Z</time></trkpt><trkpt lat="46.0635592" lon="11.9034271"><ele>527.3333333333334</ele><time>2026-04-02T12:19:40.781Z</time></trkpt><trkpt lat="46.0636222" lon="11.9033371"><ele>526.6666666666666</ele><time>2026-04-02T12:19:43.783Z</time></trkpt><trkpt lat="46.0636706" lon="11.9032444"><ele>526.0</ele><time>2026-04-02T12:19:46.784Z</time></trkpt><trkpt lat="46.0637186" lon="11.9031623"><ele>525.3333333333333</ele><time>2026-04-02T12:19:49.785Z</time></trkpt><trkpt lat="46.0637648" lon="11.9030827"><ele>524.6666666666666</ele><time>2026-04-02T12:19:52.782Z</time></trkpt><trkpt lat="46.0638169" lon="11.9029963"><ele>524.0</ele><time>2026-04-02T12:19:55.782Z</time></trkpt><trkpt lat="46.0638749" lon="11.9028999"><ele>524.0</ele><time>2026-04-02T12:19:58.782Z</time></trkpt><trkpt lat="46.0639385" lon="11.9028302"><ele>524.0</ele><time>2026-04-02T12:20:01.782Z</time></trkpt><trkpt lat="46.0640106" lon="11.902777"><ele>524.0</ele><time>2026-04-02T12:20:04.783Z</time></trkpt><trkpt lat="46.0640799" lon="11.902721"><ele>524.0</ele><time>2026-04-02T12:20:07.782Z</time></trkpt><trkpt lat="46.0641377" lon="11.9026506"><ele>524.0</ele><time>2026-04-02T12:20:10.781Z</time></trkpt><trkpt lat="46.06414" lon="11.9025344"><ele>524.0</ele><time>2026-04-02T12:20:13.784Z</time></trkpt><trkpt lat="46.0641197" lon="11.9024356"><ele>524.5</ele><time>2026-04-02T12:20:15.784Z</time></trkpt><trkpt lat="46.0640881" lon="11.9023201"><ele>525.0</ele><time>2026-04-02T12:20:18.781Z</time></trkpt><trkpt lat="46.0640587" lon="11.9022384"><ele>525.5</ele><time>2026-04-02T12:20:20.784Z</time></trkpt><trkpt lat="46.0640131" lon="11.9021286"><ele>526.0</ele><time>2026-04-02T12:20:23.782Z</time></trkpt><trkpt lat="46.0639744" lon="11.9020143"><ele>526.5</ele><time>2026-04-02T12:20:26.785Z</time></trkpt><trkpt lat="46.063928" lon="11.901901"><ele>527.0</ele><time>2026-04-02T12:20:29.782Z</time></trkpt><trkpt lat="46.0638861" lon="11.9017976"><ele>529.0</ele><time>2026-04-02T12:20:32.782Z</time></trkpt><trkpt lat="46.0638603" lon="11.9017137"><ele>531.0</ele><time>2026-04-02T12:20:35.785Z</time></trkpt><trkpt lat="46.0638335" lon="11.9016149"><ele>533.0</ele><time>2026-04-02T12:20:38.783Z</time></trkpt><trkpt lat="46.0637933" lon="11.9015208"><ele>535.0</ele><time>2026-04-02T12:20:41.784Z</time></trkpt><trkpt lat="46.0637502" lon="11.9014041"><ele>537.0</ele><time>2026-04-02T12:20:44.785Z</time></trkpt><trkpt lat="46.0637029" lon="11.9013194"><ele>539.0</ele><time>2026-04-02T12:20:47.784Z</time></trkpt><trkpt lat="46.0636511" lon="11.9012501"><ele>539.0</ele><time>2026-04-02T12:20:50.783Z</time></trkpt><trkpt lat="46.0636031" lon="11.9011802"><ele>539.0</ele><time>2026-04-02T12:20:52.783Z</time></trkpt><trkpt lat="46.0635407" lon="11.9011238"><ele>539.0</ele><time>2026-04-02T12:20:55.782Z</time></trkpt><trkpt lat="46.0634908" lon="11.9010193"><ele>539.0</ele><time>2026-04-02T12:20:59.781Z</time></trkpt><trkpt lat="46.0634623" lon="11.9009225"><ele>539.0</ele><time>2026-04-02T12:21:02.784Z</time></trkpt><trkpt lat="46.0634357" lon="11.9008069"><ele>539.0</ele><time>2026-04-02T12:21:05.782Z</time></trkpt><trkpt lat="46.0634099" lon="11.9007163"><ele>540.5</ele><time>2026-04-02T12:21:07.781Z</time></trkpt><trkpt lat="46.0633815" lon="11.9006343"><ele>542.0</ele><time>2026-04-02T12:21:09.78Z</time></trkpt><trkpt lat="46.0633349" lon="11.9005286"><ele>543.5</ele><time>2026-04-02T12:21:12.783Z</time></trkpt><trkpt lat="46.0632768" lon="11.9004381"><ele>545.0</ele><time>2026-04-02T12:21:15.783Z</time></trkpt><trkpt lat="46.0632292" lon="11.9003677"><ele>546.5</ele><time>2026-04-02T12:21:18.78Z</time></trkpt><trkpt lat="46.063193" lon="11.9002478"><ele>548.0</ele><time>2026-04-02T12:21:21.782Z</time></trkpt><trkpt lat="46.0631427" lon="11.9001173"><ele>549.0</ele><time>2026-04-02T12:21:24.781Z</time></trkpt><trkpt lat="46.0630955" lon="11.9000016"><ele>550.0</ele><time>2026-04-02T12:21:27.784Z</time></trkpt><trkpt lat="46.0630355" lon="11.8998968"><ele>551.0</ele><time>2026-04-02T12:21:30.784Z</time></trkpt><trkpt lat="46.0629838" lon="11.899788"><ele>552.0</ele><time>2026-04-02T12:21:33.784Z</time></trkpt><trkpt lat="46.0629278" lon="11.8996811"><ele>553.0</ele><time>2026-04-02T12:21:36.783Z</time></trkpt><trkpt lat="46.0628808" lon="11.8995864"><ele>553.0</ele><time>2026-04-02T12:21:38.783Z</time></trkpt><trkpt lat="46.0628407" lon="11.8995075"><ele>553.0</ele><time>2026-04-02T12:21:40.782Z</time></trkpt><trkpt lat="46.0628028" lon="11.8994275"><ele>553.0</ele><time>2026-04-02T12:21:42.783Z</time></trkpt><trkpt lat="46.0627587" lon="11.8993254"><ele>553.0</ele><time>2026-04-02T12:21:44.784Z</time></trkpt><trkpt lat="46.0627112" lon="11.8992381"><ele>553.0</ele><time>2026-04-02T12:21:46.783Z</time></trkpt><trkpt lat="46.0626706" lon="11.8991641"><ele>553.0</ele><time>2026-04-02T12:21:48.784Z</time></trkpt><trkpt lat="46.0626096" lon="11.8990675"><ele>551.5</ele><time>2026-04-02T12:21:51.783Z</time></trkpt><trkpt lat="46.0625648" lon="11.8989954"><ele>550.0</ele><time>2026-04-02T12:21:53.783Z</time></trkpt><trkpt lat="46.0625183" lon="11.898918"><ele>548.5</ele><time>2026-04-02T12:21:55.782Z</time></trkpt><trkpt lat="46.0624678" lon="11.8988415"><ele>547.0</ele><time>2026-04-02T12:21:57.782Z</time></trkpt><trkpt lat="46.0624119" lon="11.8987673"><ele>545.5</ele><time>2026-04-02T12:22:00.783Z</time></trkpt><trkpt lat="46.0623701" lon="11.8986872"><ele>544.0</ele><time>2026-04-02T12:22:02.782Z</time></trkpt><trkpt lat="46.0623048" lon="11.8985815"><ele>543.7142857142857</ele><time>2026-04-02T12:22:05.783Z</time></trkpt><trkpt lat="46.0622602" lon="11.898488"><ele>543.4285714285714</ele><time>2026-04-02T12:22:07.782Z</time></trkpt><trkpt lat="46.0622105" lon="11.8984"><ele>543.1428571428571</ele><time>2026-04-02T12:22:09.782Z</time></trkpt><trkpt lat="46.0621659" lon="11.898319"><ele>542.8571428571429</ele><time>2026-04-02T12:22:11.785Z</time></trkpt><trkpt lat="46.0621201" lon="11.8982279"><ele>542.5714285714286</ele><time>2026-04-02T12:22:13.785Z</time></trkpt><trkpt lat="46.0620783" lon="11.8981461"><ele>542.2857142857142</ele><time>2026-04-02T12:22:15.783Z</time></trkpt><trkpt lat="46.0620375" lon="11.8980693"><ele>542.0</ele><time>2026-04-02T12:22:18.785Z</time></trkpt><trkpt lat="46.0620832" lon="11.8979909"><ele>542.1428571428571</ele><time>2026-04-02T12:22:22.785Z</time></trkpt><trkpt lat="46.0621554" lon="11.8979944"><ele>542.2857142857143</ele><time>2026-04-02T12:22:25.785Z</time></trkpt><trkpt lat="46.0622199" lon="11.8979998"><ele>542.4285714285714</ele><time>2026-04-02T12:22:28.784Z</time></trkpt><trkpt lat="46.0623009" lon="11.8979993"><ele>542.5714285714286</ele><time>2026-04-02T12:22:31.785Z</time></trkpt><trkpt lat="46.062369" lon="11.8979788"><ele>542.7142857142857</ele><time>2026-04-02T12:22:34.785Z</time></trkpt><trkpt lat="46.0624345" lon="11.897966"><ele>542.8571428571429</ele><time>2026-04-02T12:22:37.784Z</time></trkpt><trkpt lat="46.0625053" lon="11.8979555"><ele>543.0</ele><time>2026-04-02T12:22:40.784Z</time></trkpt><trkpt lat="46.0625724" lon="11.8979537"><ele>543.0</ele><time>2026-04-02T12:22:43.786Z</time></trkpt><trkpt lat="46.0626515" lon="11.8979611"><ele>543.0</ele><time>2026-04-02T12:22:47.785Z</time></trkpt><trkpt lat="46.0627216" lon="11.8979636"><ele>543.0</ele><time>2026-04-02T12:22:50.783Z</time></trkpt><trkpt lat="46.0627969" lon="11.8979471"><ele>543.0</ele><time>2026-04-02T12:22:53.784Z</time></trkpt><trkpt lat="46.0628629" lon="11.8979271"><ele>543.0</ele><time>2026-04-02T12:22:56.784Z</time></trkpt><trkpt lat="46.0629046" lon="11.8978133"><ele>543.0</ele><time>2026-04-02T12:23:00.785Z</time></trkpt><trkpt lat="46.0629009" lon="11.8977135"><ele>543.0</ele><time>2026-04-02T12:23:03.785Z</time></trkpt><trkpt lat="46.0628891" lon="11.8976124"><ele>543.0</ele><time>2026-04-02T12:23:07.785Z</time></trkpt><trkpt lat="46.0628794" lon="11.8975129"><ele>543.0</ele><time>2026-04-02T12:23:10.784Z</time></trkpt><trkpt lat="46.0628597" lon="11.8974251"><ele>543.0</ele><time>2026-04-02T12:23:12.783Z</time></trkpt><trkpt lat="46.0628271" lon="11.8973046"><ele>543.0</ele><time>2026-04-02T12:23:15.785Z</time></trkpt><trkpt lat="46.0628061" lon="11.8972062"><ele>543.0</ele><time>2026-04-02T12:23:18.784Z</time></trkpt><trkpt lat="46.062787" lon="11.8970866"><ele>544.0</ele><time>2026-04-02T12:23:22.785Z</time></trkpt><trkpt lat="46.0627614" lon="11.896976"><ele>545.0</ele><time>2026-04-02T12:23:25.785Z</time></trkpt><trkpt lat="46.0627344" lon="11.8968882"><ele>546.0</ele><time>2026-04-02T12:23:28.785Z</time></trkpt><trkpt lat="46.0626847" lon="11.8967776"><ele>547.0</ele><time>2026-04-02T12:23:32.786Z</time></trkpt><trkpt lat="46.0626596" lon="11.8966843"><ele>548.0</ele><time>2026-04-02T12:23:34.783Z</time></trkpt><trkpt lat="46.0626446" lon="11.8965906"><ele>549.0</ele><time>2026-04-02T12:23:36.786Z</time></trkpt><trkpt lat="46.0626256" lon="11.8964715"><ele>550.5</ele><time>2026-04-02T12:23:39.785Z</time></trkpt><trkpt lat="46.0626185" lon="11.8963594"><ele>552.0</ele><time>2026-04-02T12:23:42.784Z</time></trkpt><trkpt lat="46.0626076" lon="11.8962565"><ele>553.5</ele><time>2026-04-02T12:23:44.785Z</time></trkpt><trkpt lat="46.0625882" lon="11.8961437"><ele>555.0</ele><time>2026-04-02T12:23:46.785Z</time></trkpt><trkpt lat="46.0625821" lon="11.8960081"><ele>556.5</ele><time>2026-04-02T12:23:49.785Z</time></trkpt><trkpt lat="46.0625775" lon="11.8958865"><ele>558.0</ele><time>2026-04-02T12:23:53.783Z</time></trkpt><trkpt lat="46.0625617" lon="11.8957762"><ele>557.8333333333334</ele><time>2026-04-02T12:23:56.785Z</time></trkpt><trkpt lat="46.0625509" lon="11.8956678"><ele>557.6666666666666</ele><time>2026-04-02T12:23:59.785Z</time></trkpt><trkpt lat="46.0625539" lon="11.8955519"><ele>557.5</ele><time>2026-04-02T12:24:02.785Z</time></trkpt><trkpt lat="46.0625511" lon="11.8954577"><ele>557.3333333333333</ele><time>2026-04-02T12:24:04.785Z</time></trkpt><trkpt lat="46.0625364" lon="11.8953404"><ele>557.1666666666666</ele><time>2026-04-02T12:24:10.785Z</time></trkpt><trkpt lat="46.0624925" lon="11.895254"><ele>557.0</ele><time>2026-04-02T12:24:15.783Z</time></trkpt><trkpt lat="46.0624406" lon="11.8951674"><ele>557.0</ele><time>2026-04-02T12:24:18.784Z</time></trkpt><trkpt lat="46.0624048" lon="11.895089"><ele>557.0</ele><time>2026-04-02T12:24:21.785Z</time></trkpt><trkpt lat="46.0623658" lon="11.8949945"><ele>557.0</ele><time>2026-04-02T12:24:26.785Z</time></trkpt><trkpt lat="46.0623236" lon="11.8949212"><ele>557.0</ele><time>2026-04-02T12:24:30.784Z</time></trkpt><trkpt lat="46.0622876" lon="11.894845"><ele>557.0</ele><time>2026-04-02T12:24:34.785Z</time></trkpt><trkpt lat="46.0622489" lon="11.8947503"><ele>557.0</ele><time>2026-04-02T12:24:40.784Z</time></trkpt><trkpt lat="46.0622088" lon="11.8946398"><ele>557.0</ele><time>2026-04-02T12:24:42.783Z</time></trkpt><trkpt lat="46.0621618" lon="11.8945257"><ele>558.8571428571429</ele><time>2026-04-02T12:24:46.785Z</time></trkpt><trkpt lat="46.0621361" lon="11.8944386"><ele>560.7142857142857</ele><time>2026-04-02T12:24:48.784Z</time></trkpt><trkpt lat="46.0620969" lon="11.8943278"><ele>562.5714285714286</ele><time>2026-04-02T12:24:52.785Z</time></trkpt><trkpt lat="46.0620688" lon="11.8942317"><ele>564.4285714285714</ele><time>2026-04-02T12:24:54.785Z</time></trkpt><trkpt lat="46.0620437" lon="11.8941204"><ele>566.2857142857143</ele><time>2026-04-02T12:24:57.783Z</time></trkpt><trkpt lat="46.0620453" lon="11.8940227"><ele>568.1428571428571</ele><time>2026-04-02T12:25:00.784Z</time></trkpt><trkpt lat="46.0620563" lon="11.8939323"><ele>570.0</ele><time>2026-04-02T12:25:03.785Z</time></trkpt><trkpt lat="46.0620584" lon="11.8938272"><ele>570.5</ele><time>2026-04-02T12:25:06.783Z</time></trkpt><trkpt lat="46.0620571" lon="11.8937165"><ele>571.0</ele><time>2026-04-02T12:25:09.784Z</time></trkpt><trkpt lat="46.0620978" lon="11.8936412"><ele>571.5</ele><time>2026-04-02T12:25:12.785Z</time></trkpt><trkpt lat="46.0621479" lon="11.8935737"><ele>572.0</ele><time>2026-04-02T12:25:15.785Z</time></trkpt><trkpt lat="46.0621413" lon="11.8934567"><ele>572.5</ele><time>2026-04-02T12:25:19.784Z</time></trkpt><trkpt lat="46.0620767" lon="11.8933765"><ele>573.0</ele><time>2026-04-02T12:25:22.782Z</time></trkpt><trkpt lat="46.0620204" lon="11.8932857"><ele>574.8333333333334</ele><time>2026-04-02T12:25:25.785Z</time></trkpt><trkpt lat="46.0619643" lon="11.8931952"><ele>576.6666666666666</ele><time>2026-04-02T12:25:28.784Z</time></trkpt><trkpt lat="46.0619053" lon="11.8931146"><ele>578.5</ele><time>2026-04-02T12:25:31.785Z</time></trkpt><trkpt lat="46.0618546" lon="11.8930314"><ele>580.3333333333333</ele><time>2026-04-02T12:25:34.785Z</time></trkpt><trkpt lat="46.0618008" lon="11.892943"><ele>582.1666666666666</ele><time>2026-04-02T12:25:37.785Z</time></trkpt><trkpt lat="46.0617616" lon="11.8928697"><ele>584.0</ele><time>2026-04-02T12:25:39.784Z</time></trkpt><trkpt lat="46.0617114" lon="11.8927658"><ele>584.0</ele><time>2026-04-02T12:25:42.785Z</time></trkpt><trkpt lat="46.0616711" lon="11.8926816"><ele>584.0</ele><time>2026-04-02T12:25:45.785Z</time></trkpt><trkpt lat="46.0616329" lon="11.8925909"><ele>584.0</ele><time>2026-04-02T12:25:48.784Z</time></trkpt><trkpt lat="46.0615842" lon="11.8924866"><ele>584.0</ele><time>2026-04-02T12:25:51.784Z</time></trkpt><trkpt lat="46.0615471" lon="11.8924104"><ele>584.0</ele><time>2026-04-02T12:25:53.78Z</time></trkpt><trkpt lat="46.0615083" lon="11.8923344"><ele>584.0</ele><time>2026-04-02T12:25:55.785Z</time></trkpt><trkpt lat="46.0614557" lon="11.8922373"><ele>584.0</ele><time>2026-04-02T12:25:58.784Z</time></trkpt><trkpt lat="46.061408" lon="11.8921382"><ele>584.0</ele><time>2026-04-02T12:26:01.784Z</time></trkpt><trkpt lat="46.0613563" lon="11.8920242"><ele>584.0</ele><time>2026-04-02T12:26:04.782Z</time></trkpt><trkpt lat="46.0613189" lon="11.8919414"><ele>584.0</ele><time>2026-04-02T12:26:06.786Z</time></trkpt><trkpt lat="46.0612675" lon="11.8918431"><ele>584.0</ele><time>2026-04-02T12:26:09.784Z</time></trkpt><trkpt lat="46.0612313" lon="11.8917503"><ele>584.0</ele><time>2026-04-02T12:26:12.783Z</time></trkpt><trkpt lat="46.0612214" lon="11.8916457"><ele>584.0</ele><time>2026-04-02T12:26:15.784Z</time></trkpt><trkpt lat="46.0612557" lon="11.8915334"><ele>585.1666666666666</ele><time>2026-04-02T12:26:18.784Z</time></trkpt><trkpt lat="46.0612857" lon="11.8914183"><ele>586.3333333333333</ele><time>2026-04-02T12:26:21.785Z</time></trkpt><trkpt lat="46.0612707" lon="11.8913045"><ele>587.5</ele><time>2026-04-02T12:26:24.784Z</time></trkpt><trkpt lat="46.0612159" lon="11.891215"><ele>588.6666666666666</ele><time>2026-04-02T12:26:28.784Z</time></trkpt><trkpt lat="46.061153" lon="11.8911787"><ele>589.8333333333334</ele><time>2026-04-02T12:26:32.784Z</time></trkpt><trkpt lat="46.0610836" lon="11.8911312"><ele>591.0</ele><time>2026-04-02T12:26:35.783Z</time></trkpt><trkpt lat="46.0610285" lon="11.8910786"><ele>591.0</ele><time>2026-04-02T12:26:37.783Z</time></trkpt><trkpt lat="46.0609699" lon="11.8910074"><ele>591.0</ele><time>2026-04-02T12:26:39.783Z</time></trkpt><trkpt lat="46.0608973" lon="11.8909209"><ele>591.0</ele><time>2026-04-02T12:26:41.784Z</time></trkpt><trkpt lat="46.0608171" lon="11.8908376"><ele>591.0</ele><time>2026-04-02T12:26:43.783Z</time></trkpt><trkpt lat="46.0607368" lon="11.890748"><ele>591.0</ele><time>2026-04-02T12:26:45.783Z</time></trkpt><trkpt lat="46.0606586" lon="11.8906609"><ele>590.5</ele><time>2026-04-02T12:26:47.785Z</time></trkpt><trkpt lat="46.0605828" lon="11.8905795"><ele>590.0</ele><time>2026-04-02T12:26:49.784Z</time></trkpt><trkpt lat="46.060503" lon="11.8905096"><ele>589.5</ele><time>2026-04-02T12:26:51.783Z</time></trkpt><trkpt lat="46.0604293" lon="11.8904339"><ele>589.0</ele><time>2026-04-02T12:26:53.784Z</time></trkpt><trkpt lat="46.0603656" lon="11.8903651"><ele>588.5</ele><time>2026-04-02T12:26:55.784Z</time></trkpt><trkpt lat="46.0603134" lon="11.890283"><ele>588.0</ele><time>2026-04-02T12:26:57.784Z</time></trkpt><trkpt lat="46.0602724" lon="11.8902014"><ele>588.0</ele><time>2026-04-02T12:26:59.785Z</time></trkpt><trkpt lat="46.0602325" lon="11.8901087"><ele>588.0</ele><time>2026-04-02T12:27:01.784Z</time></trkpt><trkpt lat="46.0601879" lon="11.8900027"><ele>588.0</ele><time>2026-04-02T12:27:03.784Z</time></trkpt><trkpt lat="46.0601423" lon="11.8898829"><ele>588.0</ele><time>2026-04-02T12:27:05.784Z</time></trkpt><trkpt lat="46.0600935" lon="11.8897685"><ele>588.0</ele><time>2026-04-02T12:27:07.785Z</time></trkpt><trkpt lat="46.0600483" lon="11.8896672"><ele>588.0</ele><time>2026-04-02T12:27:09.785Z</time></trkpt><trkpt lat="46.0600002" lon="11.8895778"><ele>588.1666666666666</ele><time>2026-04-02T12:27:11.783Z</time></trkpt><trkpt lat="46.0599511" lon="11.8895031"><ele>588.3333333333334</ele><time>2026-04-02T12:27:13.782Z</time></trkpt><trkpt lat="46.0599026" lon="11.8894409"><ele>588.5</ele><time>2026-04-02T12:27:15.786Z</time></trkpt><trkpt lat="46.0598507" lon="11.8893831"><ele>588.6666666666667</ele><time>2026-04-02T12:27:17.785Z</time></trkpt><trkpt lat="46.059778" lon="11.8892918"><ele>588.8333333333334</ele><time>2026-04-02T12:27:20.785Z</time></trkpt><trkpt lat="46.0597095" lon="11.8892101"><ele>589.0</ele><time>2026-04-02T12:27:23.783Z</time></trkpt><trkpt lat="46.059656" lon="11.8891535"><ele>589.6666666666667</ele><time>2026-04-02T12:27:25.785Z</time></trkpt><trkpt lat="46.0595977" lon="11.8890934"><ele>590.3333333333334</ele><time>2026-04-02T12:27:27.783Z</time></trkpt><trkpt lat="46.0595333" lon="11.8890336"><ele>591.0</ele><time>2026-04-02T12:27:29.785Z</time></trkpt><trkpt lat="46.0594657" lon="11.8889769"><ele>591.6666666666666</ele><time>2026-04-02T12:27:31.785Z</time></trkpt><trkpt lat="46.0593987" lon="11.8889289"><ele>592.3333333333333</ele><time>2026-04-02T12:27:33.785Z</time></trkpt><trkpt lat="46.059328" lon="11.8888618"><ele>593.0</ele><time>2026-04-02T12:27:35.785Z</time></trkpt><trkpt lat="46.0592652" lon="11.8887896"><ele>593.0</ele><time>2026-04-02T12:27:37.784Z</time></trkpt><trkpt lat="46.0592071" lon="11.8887238"><ele>593.0</ele><time>2026-04-02T12:27:39.785Z</time></trkpt><trkpt lat="46.0591552" lon="11.8886723"><ele>593.0</ele><time>2026-04-02T12:27:41.785Z</time></trkpt><trkpt lat="46.059097" lon="11.8886067"><ele>593.0</ele><time>2026-04-02T12:27:43.78Z</time></trkpt><trkpt lat="46.0590402" lon="11.8885354"><ele>593.0</ele><time>2026-04-02T12:27:45.784Z</time></trkpt><trkpt lat="46.0589778" lon="11.8884452"><ele>593.0</ele><time>2026-04-02T12:27:47.784Z</time></trkpt><trkpt lat="46.0589147" lon="11.8883178"><ele>591.6</ele><time>2026-04-02T12:27:49.785Z</time></trkpt><trkpt lat="46.058846" lon="11.888187"><ele>590.1999999999999</ele><time>2026-04-02T12:27:51.783Z</time></trkpt><trkpt lat="46.058779" lon="11.8880394"><ele>588.8</ele><time>2026-04-02T12:27:53.784Z</time></trkpt><trkpt lat="46.058729" lon="11.8879131"><ele>587.4</ele><time>2026-04-02T12:27:55.783Z</time></trkpt><trkpt lat="46.0587" lon="11.8878083"><ele>586.0</ele><time>2026-04-02T12:27:57.785Z</time></trkpt><trkpt lat="46.0586765" lon="11.8876908"><ele>586.1666666666667</ele><time>2026-04-02T12:28:00.784Z</time></trkpt><trkpt lat="46.0586745" lon="11.8875783"><ele>586.3333333333334</ele><time>2026-04-02T12:29:47.782Z</time></trkpt><trkpt lat="46.058619" lon="11.8874856"><ele>586.5</ele><time>2026-04-02T12:29:50.784Z</time></trkpt><trkpt lat="46.0585662" lon="11.8874073"><ele>586.6666666666666</ele><time>2026-04-02T12:29:52.78Z</time></trkpt><trkpt lat="46.0585133" lon="11.8873211"><ele>586.8333333333333</ele><time>2026-04-02T12:29:54.783Z</time></trkpt><trkpt lat="46.0584644" lon="11.887207"><ele>587.0</ele><time>2026-04-02T12:29:56.784Z</time></trkpt><trkpt lat="46.0584148" lon="11.8870764"><ele>587.0</ele><time>2026-04-02T12:29:58.782Z</time></trkpt><trkpt lat="46.0583508" lon="11.886948"><ele>587.0</ele><time>2026-04-02T12:30:00.781Z</time></trkpt><trkpt lat="46.0582876" lon="11.886824"><ele>587.0</ele><time>2026-04-02T12:30:02.783Z</time></trkpt><trkpt lat="46.0582241" lon="11.8867035"><ele>587.0</ele><time>2026-04-02T12:30:04.785Z</time></trkpt><trkpt lat="46.0581692" lon="11.8865645"><ele>587.0</ele><time>2026-04-02T12:30:06.782Z</time></trkpt><trkpt lat="46.0581265" lon="11.886416"><ele>586.25</ele><time>2026-04-02T12:30:08.785Z</time></trkpt><trkpt lat="46.058078" lon="11.8862638"><ele>585.5</ele><time>2026-04-02T12:30:10.781Z</time></trkpt><trkpt lat="46.0580235" lon="11.8861044"><ele>584.75</ele><time>2026-04-02T12:30:12.785Z</time></trkpt><trkpt lat="46.0579702" lon="11.8859786"><ele>584.0</ele><time>2026-04-02T12:30:14.784Z</time></trkpt><trkpt lat="46.0579133" lon="11.8858339"><ele>584.0</ele><time>2026-04-02T12:30:16.783Z</time></trkpt><trkpt lat="46.0578761" lon="11.8856828"><ele>584.0</ele><time>2026-04-02T12:30:18.784Z</time></trkpt><trkpt lat="46.0578465" lon="11.8855235"><ele>584.0</ele><time>2026-04-02T12:30:20.78Z</time></trkpt><trkpt lat="46.0578084" lon="11.8853693"><ele>584.0</ele><time>2026-04-02T12:30:22.78Z</time></trkpt><trkpt lat="46.0577687" lon="11.8852831"><ele>584.0</ele><time>2026-04-02T12:30:24.783Z</time></trkpt><trkpt lat="46.0577211" lon="11.8851703"><ele>584.0</ele><time>2026-04-02T12:30:26.785Z</time></trkpt><trkpt lat="46.0576739" lon="11.8850735"><ele>584.0</ele><time>2026-04-02T12:30:28.784Z</time></trkpt><trkpt lat="46.0576375" lon="11.8849598"><ele>584.0</ele><time>2026-04-02T12:30:30.782Z</time></trkpt><trkpt lat="46.057608" lon="11.8848667"><ele>584.0</ele><time>2026-04-02T12:30:32.781Z</time></trkpt><trkpt lat="46.0575774" lon="11.8847791"><ele>584.0</ele><time>2026-04-02T12:30:34.781Z</time></trkpt><trkpt lat="46.0575453" lon="11.88468"><ele>584.0</ele><time>2026-04-02T12:30:36.784Z</time></trkpt><trkpt lat="46.0575224" lon="11.8845895"><ele>584.0</ele><time>2026-04-02T12:30:38.784Z</time></trkpt><trkpt lat="46.0575102" lon="11.8844991"><ele>584.0</ele><time>2026-04-02T12:30:40.784Z</time></trkpt><trkpt lat="46.0574947" lon="11.8844087"><ele>584.0</ele><time>2026-04-02T12:30:42.785Z</time></trkpt><trkpt lat="46.0574638" lon="11.8842863"><ele>584.0</ele><time>2026-04-02T12:30:45.785Z</time></trkpt><trkpt lat="46.0574236" lon="11.8842108"><ele>584.0</ele><time>2026-04-02T12:30:47.783Z</time></trkpt><trkpt lat="46.0573503" lon="11.8841308"><ele>584.0</ele><time>2026-04-02T12:30:50.784Z</time></trkpt><trkpt lat="46.0572985" lon="11.8840768"><ele>584.0</ele><time>2026-04-02T12:30:52.784Z</time></trkpt><trkpt lat="46.0572217" lon="11.8839968"><ele>584.5</ele><time>2026-04-02T12:30:55.782Z</time></trkpt><trkpt lat="46.0571608" lon="11.883936"><ele>585.0</ele><time>2026-04-02T12:30:57.785Z</time></trkpt><trkpt lat="46.0571031" lon="11.8838647"><ele>585.5</ele><time>2026-04-02T12:30:59.784Z</time></trkpt><trkpt lat="46.0570457" lon="11.88378"><ele>586.0</ele><time>2026-04-02T12:31:01.783Z</time></trkpt><trkpt lat="46.0570065" lon="11.8836937"><ele>586.5</ele><time>2026-04-02T12:31:03.783Z</time></trkpt><trkpt lat="46.0569537" lon="11.8835733"><ele>587.0</ele><time>2026-04-02T12:31:06.783Z</time></trkpt><trkpt lat="46.056904" lon="11.8834614"><ele>586.5714285714286</ele><time>2026-04-02T12:31:09.784Z</time></trkpt><trkpt lat="46.0568622" lon="11.8833746"><ele>586.1428571428572</ele><time>2026-04-02T12:31:11.784Z</time></trkpt><trkpt lat="46.0568269" lon="11.8832958"><ele>585.7142857142858</ele><time>2026-04-02T12:31:13.785Z</time></trkpt><trkpt lat="46.0567957" lon="11.8832123"><ele>585.2857142857143</ele><time>2026-04-02T12:31:15.783Z</time></trkpt><trkpt lat="46.056757" lon="11.8831322"><ele>584.8571428571429</ele><time>2026-04-02T12:31:17.782Z</time></trkpt><trkpt lat="46.0567037" lon="11.8830578"><ele>584.4285714285714</ele><time>2026-04-02T12:31:19.785Z</time></trkpt><trkpt lat="46.056648" lon="11.8829915"><ele>584.0</ele><time>2026-04-02T12:31:21.785Z</time></trkpt><trkpt lat="46.0565877" lon="11.8829355"><ele>582.8571428571429</ele><time>2026-04-02T12:31:23.785Z</time></trkpt><trkpt lat="46.0565207" lon="11.8828751"><ele>581.7142857142858</ele><time>2026-04-02T12:31:25.782Z</time></trkpt><trkpt lat="46.0564493" lon="11.882807"><ele>580.5714285714287</ele><time>2026-04-02T12:31:27.784Z</time></trkpt><trkpt lat="46.0563793" lon="11.8827649"><ele>579.4285714285714</ele><time>2026-04-02T12:31:29.784Z</time></trkpt><trkpt lat="46.0563173" lon="11.8827291"><ele>578.2857142857143</ele><time>2026-04-02T12:31:31.784Z</time></trkpt><trkpt lat="46.0562557" lon="11.882709"><ele>577.1428571428572</ele><time>2026-04-02T12:31:33.785Z</time></trkpt><trkpt lat="46.0561808" lon="11.8826794"><ele>576.0</ele><time>2026-04-02T12:31:35.784Z</time></trkpt><trkpt lat="46.0561003" lon="11.8826539"><ele>576.0</ele><time>2026-04-02T12:31:37.784Z</time></trkpt><trkpt lat="46.0560318" lon="11.8826228"><ele>576.0</ele><time>2026-04-02T12:31:39.784Z</time></trkpt><trkpt lat="46.0559344" lon="11.8825956"><ele>576.0</ele><time>2026-04-02T12:31:42.784Z</time></trkpt><trkpt lat="46.0558499" lon="11.8825581"><ele>576.0</ele><time>2026-04-02T12:31:44.785Z</time></trkpt><trkpt lat="46.0557519" lon="11.8825349"><ele>576.0</ele><time>2026-04-02T12:31:47.785Z</time></trkpt><trkpt lat="46.0556784" lon="11.8825017"><ele>576.0</ele><time>2026-04-02T12:31:49.784Z</time></trkpt><trkpt lat="46.0556092" lon="11.8824645"><ele>572.5</ele><time>2026-04-02T12:31:51.784Z</time></trkpt><trkpt lat="46.0555312" lon="11.8824297"><ele>569.0</ele><time>2026-04-02T12:31:53.784Z</time></trkpt><trkpt lat="46.0554303" lon="11.8824279"><ele>565.5</ele><time>2026-04-02T12:31:55.782Z</time></trkpt><trkpt lat="46.05534" lon="11.8824426"><ele>562.0</ele><time>2026-04-02T12:31:57.785Z</time></trkpt><trkpt lat="46.0552573" lon="11.8824547"><ele>558.5</ele><time>2026-04-02T12:31:59.782Z</time></trkpt><trkpt lat="46.0551813" lon="11.8824711"><ele>555.0</ele><time>2026-04-02T12:32:01.783Z</time></trkpt><trkpt lat="46.0551127" lon="11.8824973"><ele>555.0000000000001</ele><time>2026-04-02T12:32:03.784Z</time></trkpt><trkpt lat="46.0550448" lon="11.8825148"><ele>555.0</ele><time>2026-04-02T12:32:05.783Z</time></trkpt><trkpt lat="46.0549804" lon="11.8825169"><ele>555.0</ele><time>2026-04-02T12:32:07.784Z</time></trkpt><trkpt lat="46.0549065" lon="11.8825116"><ele>555.0</ele><time>2026-04-02T12:32:09.783Z</time></trkpt><trkpt lat="46.0548326" lon="11.8825191"><ele>555.0</ele><time>2026-04-02T12:32:11.781Z</time></trkpt><trkpt lat="46.0547646" lon="11.8825098"><ele>555.0000000000001</ele><time>2026-04-02T12:32:13.785Z</time></trkpt><trkpt lat="46.0547009" lon="11.882479"><ele>555.0</ele><time>2026-04-02T12:32:15.785Z</time></trkpt><trkpt lat="46.0546351" lon="11.8824425"><ele>553.1666666666666</ele><time>2026-04-02T12:32:17.784Z</time></trkpt><trkpt lat="46.0545743" lon="11.882405"><ele>551.3333333333334</ele><time>2026-04-02T12:32:19.785Z</time></trkpt><trkpt lat="46.0545001" lon="11.8823752"><ele>549.5</ele><time>2026-04-02T12:32:21.784Z</time></trkpt><trkpt lat="46.0544274" lon="11.8823448"><ele>547.6666666666667</ele><time>2026-04-02T12:32:23.781Z</time></trkpt><trkpt lat="46.0543549" lon="11.8823178"><ele>545.8333333333334</ele><time>2026-04-02T12:32:25.784Z</time></trkpt><trkpt lat="46.0542757" lon="11.8823021"><ele>544.0</ele><time>2026-04-02T12:32:27.782Z</time></trkpt><trkpt lat="46.0541978" lon="11.8822942"><ele>542.1666666666667</ele><time>2026-04-02T12:32:29.785Z</time></trkpt><trkpt lat="46.0541137" lon="11.8822953"><ele>540.3333333333334</ele><time>2026-04-02T12:32:31.783Z</time></trkpt><trkpt lat="46.0540495" lon="11.8822834"><ele>538.5</ele><time>2026-04-02T12:32:33.784Z</time></trkpt><trkpt lat="46.0539566" lon="11.8822699"><ele>536.6666666666666</ele><time>2026-04-02T12:32:36.784Z</time></trkpt><trkpt lat="46.0538748" lon="11.8822709"><ele>534.8333333333333</ele><time>2026-04-02T12:32:38.784Z</time></trkpt><trkpt lat="46.0538066" lon="11.8822826"><ele>533.0</ele><time>2026-04-02T12:32:40.783Z</time></trkpt><trkpt lat="46.0537421" lon="11.8823003"><ele>533.0</ele><time>2026-04-02T12:32:42.783Z</time></trkpt><trkpt lat="46.0536523" lon="11.882323"><ele>533.0</ele><time>2026-04-02T12:32:45.783Z</time></trkpt><trkpt lat="46.0535718" lon="11.8823566"><ele>533.0</ele><time>2026-04-02T12:32:48.784Z</time></trkpt><trkpt lat="46.0534999" lon="11.8823769"><ele>533.0</ele><time>2026-04-02T12:32:50.785Z</time></trkpt><trkpt lat="46.0534171" lon="11.8824045"><ele>533.0</ele><time>2026-04-02T12:32:52.783Z</time></trkpt><trkpt lat="46.0533242" lon="11.8824394"><ele>533.0</ele><time>2026-04-02T12:32:54.784Z</time></trkpt><trkpt lat="46.0532367" lon="11.8824657"><ele>531.1428571428571</ele><time>2026-04-02T12:32:56.785Z</time></trkpt><trkpt lat="46.0531556" lon="11.8824709"><ele>529.2857142857142</ele><time>2026-04-02T12:32:58.783Z</time></trkpt><trkpt lat="46.0530809" lon="11.882459"><ele>527.4285714285714</ele><time>2026-04-02T12:33:00.784Z</time></trkpt><trkpt lat="46.0530214" lon="11.8824093"><ele>525.5714285714286</ele><time>2026-04-02T12:33:02.785Z</time></trkpt><trkpt lat="46.0529779" lon="11.8823403"><ele>523.7142857142858</ele><time>2026-04-02T12:33:04.785Z</time></trkpt><trkpt lat="46.0529367" lon="11.882252"><ele>521.8571428571429</ele><time>2026-04-02T12:33:07.783Z</time></trkpt><trkpt lat="46.0529033" lon="11.8821484"><ele>520.0</ele><time>2026-04-02T12:33:10.783Z</time></trkpt><trkpt lat="46.0528751" lon="11.8820551"><ele>520.0</ele><time>2026-04-02T12:33:12.784Z</time></trkpt><trkpt lat="46.0528439" lon="11.8819563"><ele>520.0</ele><time>2026-04-02T12:33:14.785Z</time></trkpt><trkpt lat="46.0528147" lon="11.8818612"><ele>520.0</ele><time>2026-04-02T12:33:16.785Z</time></trkpt><trkpt lat="46.0527796" lon="11.8817692"><ele>520.0</ele><time>2026-04-02T12:33:18.785Z</time></trkpt><trkpt lat="46.0527246" lon="11.8816746"><ele>520.0</ele><time>2026-04-02T12:33:21.784Z</time></trkpt><trkpt lat="46.0526686" lon="11.8815845"><ele>520.0</ele><time>2026-04-02T12:33:24.784Z</time></trkpt><trkpt lat="46.0525998" lon="11.8814816"><ele>520.5</ele><time>2026-04-02T12:33:27.784Z</time></trkpt><trkpt lat="46.05255" lon="11.881417"><ele>521.0</ele><time>2026-04-02T12:33:29.782Z</time></trkpt><trkpt lat="46.0524915" lon="11.881372"><ele>521.5</ele><time>2026-04-02T12:33:31.784Z</time></trkpt><trkpt lat="46.0524209" lon="11.8813053"><ele>522.0</ele><time>2026-04-02T12:33:34.784Z</time></trkpt><trkpt lat="46.0523568" lon="11.8812156"><ele>522.5</ele><time>2026-04-02T12:33:37.784Z</time></trkpt><trkpt lat="46.052292" lon="11.8811507"><ele>523.0</ele><time>2026-04-02T12:33:40.784Z</time></trkpt><trkpt lat="46.0522311" lon="11.8810903"><ele>520.6666666666667</ele><time>2026-04-02T12:33:43.784Z</time></trkpt><trkpt lat="46.0521579" lon="11.8810462"><ele>518.3333333333334</ele><time>2026-04-02T12:33:46.782Z</time></trkpt><trkpt lat="46.052069" lon="11.8810249"><ele>516.0</ele><time>2026-04-02T12:33:49.784Z</time></trkpt><trkpt lat="46.0519863" lon="11.8809927"><ele>513.6666666666666</ele><time>2026-04-02T12:33:51.784Z</time></trkpt><trkpt lat="46.0519153" lon="11.880964"><ele>511.3333333333333</ele><time>2026-04-02T12:33:53.784Z</time></trkpt><trkpt lat="46.0518412" lon="11.8809618"><ele>509.0</ele><time>2026-04-02T12:33:55.783Z</time></trkpt><trkpt lat="46.0517574" lon="11.8809895"><ele>508.99999999999994</ele><time>2026-04-02T12:33:57.782Z</time></trkpt><trkpt lat="46.0516873" lon="11.8810428"><ele>509.0</ele><time>2026-04-02T12:33:59.785Z</time></trkpt><trkpt lat="46.0516243" lon="11.8811297"><ele>509.0</ele><time>2026-04-02T12:34:01.784Z</time></trkpt><trkpt lat="46.0515668" lon="11.8812406"><ele>509.0</ele><time>2026-04-02T12:34:03.785Z</time></trkpt><trkpt lat="46.0515198" lon="11.8813393"><ele>508.99999999999994</ele><time>2026-04-02T12:34:05.783Z</time></trkpt><trkpt lat="46.051483" lon="11.8814483"><ele>509.0</ele><time>2026-04-02T12:34:07.78Z</time></trkpt><trkpt lat="46.0514507" lon="11.8815742"><ele>507.3333333333333</ele><time>2026-04-02T12:34:09.78Z</time></trkpt><trkpt lat="46.0514315" lon="11.8816997"><ele>505.66666666666663</ele><time>2026-04-02T12:34:13.78Z</time></trkpt><trkpt lat="46.051409" lon="11.8817997"><ele>504.0</ele><time>2026-04-02T12:34:16.78Z</time></trkpt><trkpt lat="46.0514119" lon="11.8819178"><ele>502.33333333333337</ele><time>2026-04-02T12:34:19.782Z</time></trkpt><trkpt lat="46.0514335" lon="11.8820512"><ele>500.6666666666667</ele><time>2026-04-02T12:34:22.782Z</time></trkpt><trkpt lat="46.0514479" lon="11.8821483"><ele>499.0</ele><time>2026-04-02T12:34:24.784Z</time></trkpt><trkpt lat="46.0514545" lon="11.8822459"><ele>499.00000000000006</ele><time>2026-04-02T12:34:26.782Z</time></trkpt><trkpt lat="46.0514549" lon="11.8823413"><ele>499.0</ele><time>2026-04-02T12:34:28.785Z</time></trkpt><trkpt lat="46.0514767" lon="11.8824648"><ele>499.0</ele><time>2026-04-02T12:34:31.784Z</time></trkpt><trkpt lat="46.0514488" lon="11.8825582"><ele>499.0</ele><time>2026-04-02T12:34:35.783Z</time></trkpt><trkpt lat="46.0513833" lon="11.8825328"><ele>499.00000000000006</ele><time>2026-04-02T12:34:38.785Z</time></trkpt><trkpt lat="46.0513112" lon="11.8824844"><ele>499.0</ele><time>2026-04-02T12:34:41.784Z</time></trkpt><trkpt lat="46.0512404" lon="11.8824234"><ele>499.00000000000006</ele><time>2026-04-02T12:34:44.782Z</time></trkpt><trkpt lat="46.0511897" lon="11.8823666"><ele>499.0</ele><time>2026-04-02T12:34:46.78Z</time></trkpt><trkpt lat="46.0511291" lon="11.8823097"><ele>499.0</ele><time>2026-04-02T12:34:48.781Z</time></trkpt><trkpt lat="46.0510572" lon="11.8822567"><ele>499.0</ele><time>2026-04-02T12:34:50.784Z</time></trkpt><trkpt lat="46.0509873" lon="11.8821887"><ele>499.00000000000006</ele><time>2026-04-02T12:34:52.782Z</time></trkpt><trkpt lat="46.0509204" lon="11.8821184"><ele>499.0</ele><time>2026-04-02T12:34:54.782Z</time></trkpt><trkpt lat="46.0508465" lon="11.8820583"><ele>496.57142857142867</ele><time>2026-04-02T12:34:56.781Z</time></trkpt><trkpt lat="46.0507807" lon="11.8819907"><ele>494.14285714285717</ele><time>2026-04-02T12:34:58.781Z</time></trkpt><trkpt lat="46.0507257" lon="11.8819202"><ele>491.7142857142858</ele><time>2026-04-02T12:35:00.783Z</time></trkpt><trkpt lat="46.0506768" lon="11.8818025"><ele>489.28571428571433</ele><time>2026-04-02T12:35:03.783Z</time></trkpt><trkpt lat="46.0506555" lon="11.8817145"><ele>486.8571428571429</ele><time>2026-04-02T12:35:05.784Z</time></trkpt><trkpt lat="46.0506493" lon="11.8816209"><ele>484.42857142857144</ele><time>2026-04-02T12:35:07.78Z</time></trkpt><trkpt lat="46.0506503" lon="11.8815218"><ele>482.0</ele><time>2026-04-02T12:35:09.784Z</time></trkpt><trkpt lat="46.05066" lon="11.8814091"><ele>481.99999999999994</ele><time>2026-04-02T12:35:11.784Z</time></trkpt><trkpt lat="46.0506759" lon="11.8813063"><ele>482.0</ele><time>2026-04-02T12:35:13.782Z</time></trkpt><trkpt lat="46.0506615" lon="11.8811806"><ele>482.0</ele><time>2026-04-02T12:35:16.782Z</time></trkpt><trkpt lat="46.0506848" lon="11.8810878"><ele>482.0</ele><time>2026-04-02T12:35:18.784Z</time></trkpt><trkpt lat="46.0507276" lon="11.8810009"><ele>481.99999999999994</ele><time>2026-04-02T12:35:20.785Z</time></trkpt><trkpt lat="46.0507755" lon="11.8809305"><ele>482.0</ele><time>2026-04-02T12:35:22.782Z</time></trkpt><trkpt lat="46.0508631" lon="11.8808859"><ele>484.16666666666663</ele><time>2026-04-02T12:35:25.783Z</time></trkpt><trkpt lat="46.0509299" lon="11.8808634"><ele>486.3333333333333</ele><time>2026-04-02T12:35:27.784Z</time></trkpt><trkpt lat="46.0509934" lon="11.8808242"><ele>488.5</ele><time>2026-04-02T12:35:29.782Z</time></trkpt><trkpt lat="46.0510666" lon="11.8807696"><ele>490.66666666666663</ele><time>2026-04-02T12:35:31.782Z</time></trkpt><trkpt lat="46.0511113" lon="11.8806864"><ele>492.8333333333333</ele><time>2026-04-02T12:35:33.784Z</time></trkpt><trkpt lat="46.0511514" lon="11.8805824"><ele>495.0</ele><time>2026-04-02T12:35:35.783Z</time></trkpt><trkpt lat="46.0512048" lon="11.8804831"><ele>495.0</ele><time>2026-04-02T12:35:37.784Z</time></trkpt><trkpt lat="46.051251" lon="11.8803981"><ele>495.0</ele><time>2026-04-02T12:35:39.783Z</time></trkpt><trkpt lat="46.051304" lon="11.8803153"><ele>495.0</ele><time>2026-04-02T12:35:41.784Z</time></trkpt><trkpt lat="46.0513887" lon="11.8802623"><ele>495.0</ele><time>2026-04-02T12:35:43.784Z</time></trkpt><trkpt lat="46.0514902" lon="11.8802363"><ele>495.0</ele><time>2026-04-02T12:35:45.784Z</time></trkpt><trkpt lat="46.0515785" lon="11.8802204"><ele>495.0</ele><time>2026-04-02T12:35:46.784Z</time></trkpt><trkpt lat="46.0516954" lon="11.8802031"><ele>496.8333333333333</ele><time>2026-04-02T12:35:48.783Z</time></trkpt><trkpt lat="46.0517643" lon="11.8801969"><ele>498.66666666666663</ele><time>2026-04-02T12:35:49.783Z</time></trkpt><trkpt lat="46.0518922" lon="11.8801873"><ele>500.5</ele><time>2026-04-02T12:35:51.784Z</time></trkpt><trkpt lat="46.0519651" lon="11.8801943"><ele>502.3333333333333</ele><time>2026-04-02T12:35:52.784Z</time></trkpt><trkpt lat="46.0520506" lon="11.8801951"><ele>504.16666666666663</ele><time>2026-04-02T12:35:53.783Z</time></trkpt><trkpt lat="46.0521406" lon="11.8801932"><ele>506.0</ele><time>2026-04-02T12:35:54.784Z</time></trkpt><trkpt lat="46.0522287" lon="11.8801968"><ele>506.0</ele><time>2026-04-02T12:35:55.783Z</time></trkpt><trkpt lat="46.0523215" lon="11.8802034"><ele>506.0</ele><time>2026-04-02T12:35:56.785Z</time></trkpt><trkpt lat="46.0524192" lon="11.880205"><ele>506.0</ele><time>2026-04-02T12:35:57.784Z</time></trkpt><trkpt lat="46.0525161" lon="11.8801912"><ele>506.0</ele><time>2026-04-02T12:35:58.782Z</time></trkpt><trkpt lat="46.0526111" lon="11.8801772"><ele>506.0</ele><time>2026-04-02T12:35:59.784Z</time></trkpt><trkpt lat="46.0527081" lon="11.8801537"><ele>506.4</ele><time>2026-04-02T12:36:00.784Z</time></trkpt><trkpt lat="46.0528001" lon="11.8801246"><ele>506.8</ele><time>2026-04-02T12:36:01.784Z</time></trkpt><trkpt lat="46.0528951" lon="11.8801014"><ele>507.19999999999993</ele><time>2026-04-02T12:36:02.783Z</time></trkpt><trkpt lat="46.0529941" lon="11.8800668"><ele>507.59999999999997</ele><time>2026-04-02T12:36:03.783Z</time></trkpt><trkpt lat="46.0530807" lon="11.880037"><ele>508.0</ele><time>2026-04-02T12:36:04.782Z</time></trkpt><trkpt lat="46.0531664" lon="11.8800123"><ele>502.6666666666667</ele><time>2026-04-02T12:36:05.784Z</time></trkpt><trkpt lat="46.0532444" lon="11.8799993"><ele>497.33333333333337</ele><time>2026-04-02T12:36:06.784Z</time></trkpt><trkpt lat="46.0533184" lon="11.8799897"><ele>492.0</ele><time>2026-04-02T12:36:07.784Z</time></trkpt><trkpt lat="46.0533851" lon="11.8799806"><ele>486.66666666666663</ele><time>2026-04-02T12:36:08.785Z</time></trkpt><trkpt lat="46.0534506" lon="11.8799651"><ele>481.3333333333333</ele><time>2026-04-02T12:36:09.784Z</time></trkpt><trkpt lat="46.0535666" lon="11.879927"><ele>476.0</ele><time>2026-04-02T12:36:11.784Z</time></trkpt><trkpt lat="46.0536715" lon="11.8798924"><ele>476.0</ele><time>2026-04-02T12:36:13.782Z</time></trkpt><trkpt lat="46.0537692" lon="11.8798608"><ele>476.0</ele><time>2026-04-02T12:36:15.784Z</time></trkpt><trkpt lat="46.0538522" lon="11.8797906"><ele>476.0</ele><time>2026-04-02T12:36:17.782Z</time></trkpt><trkpt lat="46.0539287" lon="11.8797181"><ele>476.0</ele><time>2026-04-02T12:36:19.784Z</time></trkpt><trkpt lat="46.0540165" lon="11.8796585"><ele>476.0</ele><time>2026-04-02T12:36:21.785Z</time></trkpt><trkpt lat="46.0540984" lon="11.8796206"><ele>476.8333333333333</ele><time>2026-04-02T12:36:23.783Z</time></trkpt><trkpt lat="46.0541863" lon="11.8796112"><ele>477.66666666666663</ele><time>2026-04-02T12:36:25.785Z</time></trkpt><trkpt lat="46.0542736" lon="11.8796097"><ele>478.5</ele><time>2026-04-02T12:36:27.784Z</time></trkpt><trkpt lat="46.0543541" lon="11.8795835"><ele>479.33333333333337</ele><time>2026-04-02T12:36:29.784Z</time></trkpt><trkpt lat="46.0544319" lon="11.879551"><ele>480.1666666666667</ele><time>2026-04-02T12:36:31.782Z</time></trkpt><trkpt lat="46.0545043" lon="11.8795213"><ele>481.0</ele><time>2026-04-02T12:36:33.784Z</time></trkpt><trkpt lat="46.0545742" lon="11.879509"><ele>481.00000000000006</ele><time>2026-04-02T12:36:35.781Z</time></trkpt><trkpt lat="46.0546399" lon="11.8794724"><ele>481.0</ele><time>2026-04-02T12:36:37.784Z</time></trkpt><trkpt lat="46.0547176" lon="11.8794194"><ele>481.0</ele><time>2026-04-02T12:36:40.784Z</time></trkpt><trkpt lat="46.0548005" lon="11.8793664"><ele>481.0</ele><time>2026-04-02T12:36:43.784Z</time></trkpt><trkpt lat="46.0548616" lon="11.8793321"><ele>481.00000000000006</ele><time>2026-04-02T12:36:46.784Z</time></trkpt><trkpt lat="46.0549432" lon="11.8792993"><ele>481.0</ele><time>2026-04-02T12:36:49.782Z</time></trkpt><trkpt lat="46.0550201" lon="11.8792663"><ele>478.83333333333337</ele><time>2026-04-02T12:36:51.782Z</time></trkpt><trkpt lat="46.0550984" lon="11.879243"><ele>476.6666666666667</ele><time>2026-04-02T12:36:53.784Z</time></trkpt><trkpt lat="46.055182" lon="11.8792291"><ele>474.5</ele><time>2026-04-02T12:36:55.783Z</time></trkpt><trkpt lat="46.0552661" lon="11.8792098"><ele>472.33333333333337</ele><time>2026-04-02T12:36:57.784Z</time></trkpt><trkpt lat="46.0553505" lon="11.8791831"><ele>470.1666666666667</ele><time>2026-04-02T12:36:59.783Z</time></trkpt><trkpt lat="46.0554315" lon="11.8791662"><ele>468.0</ele><time>2026-04-02T12:37:01.781Z</time></trkpt><trkpt lat="46.0554972" lon="11.8791622"><ele>468.0</ele><time>2026-04-02T12:37:03.783Z</time></trkpt><trkpt lat="46.0555722" lon="11.879205"><ele>468.0</ele><time>2026-04-02T12:37:07.784Z</time></trkpt><trkpt lat="46.0556537" lon="11.8792234"><ele>468.0</ele><time>2026-04-02T12:37:10.784Z</time></trkpt><trkpt lat="46.0557407" lon="11.8791606"><ele>468.0</ele><time>2026-04-02T12:37:13.784Z</time></trkpt><trkpt lat="46.0557662" lon="11.879055"><ele>468.0</ele><time>2026-04-02T12:37:16.784Z</time></trkpt><trkpt lat="46.055792" lon="11.8789624"><ele>468.0</ele><time>2026-04-02T12:37:19.783Z</time></trkpt><trkpt lat="46.0558454" lon="11.8788875"><ele>470.0</ele><time>2026-04-02T12:37:22.783Z</time></trkpt><trkpt lat="46.0559047" lon="11.8788395"><ele>472.0</ele><time>2026-04-02T12:37:24.784Z</time></trkpt><trkpt lat="46.0559907" lon="11.8787733"><ele>474.0</ele><time>2026-04-02T12:37:27.785Z</time></trkpt><trkpt lat="46.0560509" lon="11.8787238"><ele>476.0</ele><time>2026-04-02T12:37:29.781Z</time></trkpt><trkpt lat="46.0561338" lon="11.8786665"><ele>478.0</ele><time>2026-04-02T12:37:32.783Z</time></trkpt><trkpt lat="46.0561979" lon="11.8786074"><ele>480.0</ele><time>2026-04-02T12:37:35.784Z</time></trkpt><trkpt lat="46.056244" lon="11.8785337"><ele>477.6666666666667</ele><time>2026-04-02T12:37:38.784Z</time></trkpt><trkpt lat="46.0562968" lon="11.8784236"><ele>475.33333333333337</ele><time>2026-04-02T12:37:41.784Z</time></trkpt><trkpt lat="46.0563342" lon="11.878339"><ele>473.0</ele><time>2026-04-02T12:37:43.784Z</time></trkpt><trkpt lat="46.056371" lon="11.878252"><ele>470.6666666666667</ele><time>2026-04-02T12:37:45.782Z</time></trkpt><trkpt lat="46.0564163" lon="11.8781359"><ele>468.33333333333337</ele><time>2026-04-02T12:37:48.784Z</time></trkpt><trkpt lat="46.0564526" lon="11.8780532"><ele>466.0</ele><time>2026-04-02T12:37:50.784Z</time></trkpt><trkpt lat="46.0564881" lon="11.8779759"><ele>466.0</ele><time>2026-04-02T12:37:52.784Z</time></trkpt><trkpt lat="46.0565188" lon="11.8778881"><ele>466.0</ele><time>2026-04-02T12:37:55.784Z</time></trkpt><trkpt lat="46.0565582" lon="11.8778076"><ele>466.0</ele><time>2026-04-02T12:37:58.782Z</time></trkpt><trkpt lat="46.0566295" lon="11.8777789"><ele>466.0</ele><time>2026-04-02T12:38:01.784Z</time></trkpt><trkpt lat="46.0566998" lon="11.8777492"><ele>466.0</ele><time>2026-04-02T12:38:04.784Z</time></trkpt><trkpt lat="46.0567622" lon="11.8777125"><ele>466.0</ele><time>2026-04-02T12:38:07.785Z</time></trkpt><trkpt lat="46.0568234" lon="11.8776889"><ele>466.0</ele><time>2026-04-02T12:38:09.784Z</time></trkpt><trkpt lat="46.0568901" lon="11.8777056"><ele>464.7142857142857</ele><time>2026-04-02T12:38:12.783Z</time></trkpt><trkpt lat="46.056894" lon="11.8776015"><ele>463.42857142857144</ele><time>2026-04-02T12:38:18.785Z</time></trkpt><trkpt lat="46.0568382" lon="11.8775431"><ele>462.14285714285717</ele><time>2026-04-02T12:38:22.784Z</time></trkpt><trkpt lat="46.0567738" lon="11.8775662"><ele>460.8571428571429</ele><time>2026-04-02T12:38:25.783Z</time></trkpt><trkpt lat="46.0567054" lon="11.8775884"><ele>459.57142857142856</ele><time>2026-04-02T12:38:29.781Z</time></trkpt><trkpt lat="46.056675" lon="11.87747"><ele>458.28571428571433</ele><time>2026-04-02T12:38:33.784Z</time></trkpt><trkpt lat="46.0566484" lon="11.8773579"><ele>457.00000000000006</ele><time>2026-04-02T12:38:36.784Z</time></trkpt><trkpt lat="46.0565845" lon="11.8772949"><ele>457.00000000000006</ele><time>2026-04-02T12:38:40.783Z</time></trkpt><trkpt lat="46.0565172" lon="11.877358"><ele>457.0</ele><time>2026-04-02T12:38:43.781Z</time></trkpt><trkpt lat="46.0564653" lon="11.8774149"><ele>457.00000000000006</ele><time>2026-04-02T12:38:45.784Z</time></trkpt><trkpt lat="46.0564247" lon="11.8774906"><ele>457.00000000000006</ele><time>2026-04-02T12:38:48.78Z</time></trkpt><trkpt lat="46.0563689" lon="11.8775512"><ele>457.0</ele><time>2026-04-02T12:38:51.784Z</time></trkpt><trkpt lat="46.0562795" lon="11.8775607"><ele>457.00000000000006</ele><time>2026-04-02T12:38:54.784Z</time></trkpt><trkpt lat="46.0562102" lon="11.8775274"><ele>457.00000000000006</ele><time>2026-04-02T12:38:56.784Z</time></trkpt><trkpt lat="46.0561435" lon="11.8775253"><ele>457.00000000000006</ele><time>2026-04-02T12:38:58.784Z</time></trkpt><trkpt lat="46.0560752" lon="11.8775602"><ele>457.0</ele><time>2026-04-02T12:39:00.782Z</time></trkpt><trkpt lat="46.0560116" lon="11.8775964"><ele>457.00000000000006</ele><time>2026-04-02T12:39:02.784Z</time></trkpt><trkpt lat="46.0559444" lon="11.8776308"><ele>457.00000000000006</ele><time>2026-04-02T12:39:04.782Z</time></trkpt><trkpt lat="46.055872" lon="11.8776585"><ele>457.0</ele><time>2026-04-02T12:39:06.784Z</time></trkpt><trkpt lat="46.0558" lon="11.8776901"><ele>457.00000000000006</ele><time>2026-04-02T12:39:08.784Z</time></trkpt><trkpt lat="46.0557319" lon="11.8777275"><ele>457.00000000000006</ele><time>2026-04-02T12:39:10.785Z</time></trkpt><trkpt lat="46.0556653" lon="11.8777577"><ele>457.00000000000006</ele><time>2026-04-02T12:39:12.783Z</time></trkpt><trkpt lat="46.0556063" lon="11.8777899"><ele>457.0</ele><time>2026-04-02T12:39:14.783Z</time></trkpt><trkpt lat="46.055531" lon="11.8777999"><ele>457.0</ele><time>2026-04-02T12:39:16.785Z</time></trkpt><trkpt lat="46.055457" lon="11.8777754"><ele>457.0</ele><time>2026-04-02T12:39:18.785Z</time></trkpt><trkpt lat="46.0553812" lon="11.8777096"><ele>457.00000000000006</ele><time>2026-04-02T12:39:21.784Z</time></trkpt><trkpt lat="46.0552977" lon="11.8776436"><ele>457.0</ele><time>2026-04-02T12:39:24.785Z</time></trkpt><trkpt lat="46.055219" lon="11.8775807"><ele>455.83333333333337</ele><time>2026-04-02T12:39:27.785Z</time></trkpt><trkpt lat="46.0551583" lon="11.8775538"><ele>454.6666666666667</ele><time>2026-04-02T12:39:30.786Z</time></trkpt><trkpt lat="46.0550935" lon="11.8775507"><ele>453.5</ele><time>2026-04-02T12:39:35.783Z</time></trkpt><trkpt lat="46.0550173" lon="11.8775881"><ele>452.33333333333337</ele><time>2026-04-02T12:39:39.785Z</time></trkpt><trkpt lat="46.0549363" lon="11.8775974"><ele>451.1666666666667</ele><time>2026-04-02T12:39:42.785Z</time></trkpt><trkpt lat="46.054863" lon="11.8775818"><ele>450.0</ele><time>2026-04-02T12:39:46.784Z</time></trkpt><trkpt lat="46.054787" lon="11.8775155"><ele>448.7142857142858</ele><time>2026-04-02T12:39:54.784Z</time></trkpt><trkpt lat="46.0547392" lon="11.8774445"><ele>447.42857142857144</ele><time>2026-04-02T12:39:57.785Z</time></trkpt><trkpt lat="46.054686" lon="11.8773757"><ele>446.14285714285717</ele><time>2026-04-02T12:40:00.785Z</time></trkpt><trkpt lat="46.0546332" lon="11.8772982"><ele>444.8571428571429</ele><time>2026-04-02T12:40:04.784Z</time></trkpt><trkpt lat="46.054567" lon="11.8772947"><ele>443.57142857142856</ele><time>2026-04-02T12:40:08.786Z</time></trkpt><trkpt lat="46.0544832" lon="11.8773003"><ele>442.2857142857143</ele><time>2026-04-02T12:40:12.783Z</time></trkpt><trkpt lat="46.0544212" lon="11.8772319"><ele>441.0</ele><time>2026-04-02T12:40:15.784Z</time></trkpt><trkpt lat="46.0543801" lon="11.8771554"><ele>441.0</ele><time>2026-04-02T12:40:18.785Z</time></trkpt><trkpt lat="46.0543459" lon="11.8770424"><ele>441.0</ele><time>2026-04-02T12:40:21.785Z</time></trkpt><trkpt lat="46.0542948" lon="11.876947"><ele>441.0</ele><time>2026-04-02T12:40:24.784Z</time></trkpt><trkpt lat="46.054248" lon="11.8768551"><ele>441.0</ele><time>2026-04-02T12:40:27.782Z</time></trkpt><trkpt lat="46.0541777" lon="11.8767976"><ele>441.0</ele><time>2026-04-02T12:40:30.783Z</time></trkpt><trkpt lat="46.0540995" lon="11.876776"><ele>441.0</ele><time>2026-04-02T12:40:33.782Z</time></trkpt><trkpt lat="46.0540308" lon="11.8767266"><ele>440.3333333333333</ele><time>2026-04-02T12:40:36.785Z</time></trkpt><trkpt lat="46.0539675" lon="11.8766276"><ele>439.66666666666663</ele><time>2026-04-02T12:40:39.783Z</time></trkpt><trkpt lat="46.0539225" lon="11.8765256"><ele>439.0</ele><time>2026-04-02T12:40:42.782Z</time></trkpt><trkpt lat="46.0538852" lon="11.876452"><ele>438.3333333333333</ele><time>2026-04-02T12:40:44.783Z</time></trkpt><trkpt lat="46.0538496" lon="11.8763743"><ele>437.66666666666663</ele><time>2026-04-02T12:40:46.784Z</time></trkpt><trkpt lat="46.0538007" lon="11.8762724"><ele>437.0</ele><time>2026-04-02T12:40:49.785Z</time></trkpt><trkpt lat="46.0537297" lon="11.8762386"><ele>437.0</ele><time>2026-04-02T12:40:52.78Z</time></trkpt><trkpt lat="46.0536559" lon="11.8762331"><ele>437.00000000000006</ele><time>2026-04-02T12:40:54.785Z</time></trkpt><trkpt lat="46.0535632" lon="11.8762538"><ele>437.00000000000006</ele><time>2026-04-02T12:40:56.785Z</time></trkpt><trkpt lat="46.0534722" lon="11.8762585"><ele>437.0</ele><time>2026-04-02T12:40:58.783Z</time></trkpt><trkpt lat="46.0533794" lon="11.8762869"><ele>437.0</ele><time>2026-04-02T12:41:00.783Z</time></trkpt><trkpt lat="46.0532842" lon="11.8763087"><ele>435.49999999999994</ele><time>2026-04-02T12:41:02.785Z</time></trkpt><trkpt lat="46.053187" lon="11.8763052"><ele>434.0</ele><time>2026-04-02T12:41:04.783Z</time></trkpt><trkpt lat="46.0530851" lon="11.8762944"><ele>432.5</ele><time>2026-04-02T12:41:06.783Z</time></trkpt><trkpt lat="46.0529832" lon="11.8762541"><ele>431.0</ele><time>2026-04-02T12:41:08.785Z</time></trkpt><trkpt lat="46.0529204" lon="11.8762385"><ele>429.49999999999994</ele><time>2026-04-02T12:41:09.785Z</time></trkpt><trkpt lat="46.0528541" lon="11.8762171"><ele>428.0</ele><time>2026-04-02T12:41:10.785Z</time></trkpt><trkpt lat="46.0527421" lon="11.8761773"><ele>427.99999999999994</ele><time>2026-04-02T12:41:12.785Z</time></trkpt><trkpt lat="46.0526327" lon="11.8761646"><ele>428.0</ele><time>2026-04-02T12:41:14.785Z</time></trkpt><trkpt lat="46.0525633" lon="11.8761558"><ele>428.0</ele><time>2026-04-02T12:41:15.785Z</time></trkpt><trkpt lat="46.0524919" lon="11.8761252"><ele>428.0</ele><time>2026-04-02T12:41:16.784Z</time></trkpt><trkpt lat="46.0524125" lon="11.8760893"><ele>427.99999999999994</ele><time>2026-04-02T12:41:17.783Z</time></trkpt><trkpt lat="46.0523347" lon="11.8760592"><ele>428.0</ele><time>2026-04-02T12:41:18.785Z</time></trkpt><trkpt lat="46.0522668" lon="11.8760199"><ele>426.79999999999995</ele><time>2026-04-02T12:41:19.784Z</time></trkpt><trkpt lat="46.0522065" lon="11.8759834"><ele>425.59999999999997</ele><time>2026-04-02T12:41:20.785Z</time></trkpt><trkpt lat="46.0521215" lon="11.8759266"><ele>424.4</ele><time>2026-04-02T12:41:22.784Z</time></trkpt><trkpt lat="46.0520392" lon="11.8758793"><ele>423.20000000000005</ele><time>2026-04-02T12:41:24.785Z</time></trkpt><trkpt lat="46.0519297" lon="11.8758582"><ele>422.0</ele><time>2026-04-02T12:41:26.785Z</time></trkpt><trkpt lat="46.0518095" lon="11.8758494"><ele>421.3333333333333</ele><time>2026-04-02T12:41:28.784Z</time></trkpt><trkpt lat="46.0516756" lon="11.8758557"><ele>420.66666666666663</ele><time>2026-04-02T12:41:30.785Z</time></trkpt><trkpt lat="46.0515936" lon="11.8758713"><ele>420.0</ele><time>2026-04-02T12:41:31.785Z</time></trkpt><trkpt lat="46.0515224" lon="11.8758628"><ele>419.33333333333337</ele><time>2026-04-02T12:41:32.784Z</time></trkpt><trkpt lat="46.051456" lon="11.875844"><ele>418.6666666666667</ele><time>2026-04-02T12:41:33.785Z</time></trkpt><trkpt lat="46.0513915" lon="11.8758124"><ele>418.0</ele><time>2026-04-02T12:41:34.782Z</time></trkpt><trkpt lat="46.0513241" lon="11.8757844"><ele>418.00000000000006</ele><time>2026-04-02T12:41:35.785Z</time></trkpt><trkpt lat="46.0512576" lon="11.8757575"><ele>418.0</ele><time>2026-04-02T12:41:36.784Z</time></trkpt><trkpt lat="46.0511915" lon="11.875734"><ele>418.0</ele><time>2026-04-02T12:41:37.785Z</time></trkpt><trkpt lat="46.0511273" lon="11.8757103"><ele>418.0</ele><time>2026-04-02T12:41:38.785Z</time></trkpt><trkpt lat="46.0510096" lon="11.8756631"><ele>418.00000000000006</ele><time>2026-04-02T12:41:40.784Z</time></trkpt><trkpt lat="46.0509075" lon="11.8756066"><ele>418.0</ele><time>2026-04-02T12:41:42.785Z</time></trkpt><trkpt lat="46.0508049" lon="11.8755775"><ele>416.50000000000006</ele><time>2026-04-02T12:41:44.783Z</time></trkpt><trkpt lat="46.0506943" lon="11.875593"><ele>415.0</ele><time>2026-04-02T12:41:46.783Z</time></trkpt><trkpt lat="46.0505799" lon="11.8756283"><ele>413.5</ele><time>2026-04-02T12:41:48.785Z</time></trkpt><trkpt lat="46.0505177" lon="11.8756538"><ele>412.0</ele><time>2026-04-02T12:41:49.785Z</time></trkpt><trkpt lat="46.0504526" lon="11.8756777"><ele>410.50000000000006</ele><time>2026-04-02T12:41:50.783Z</time></trkpt><trkpt lat="46.0503843" lon="11.8756875"><ele>409.0</ele><time>2026-04-02T12:41:51.784Z</time></trkpt><trkpt lat="46.0503165" lon="11.8756958"><ele>409.0</ele><time>2026-04-02T12:41:52.785Z</time></trkpt><trkpt lat="46.0502508" lon="11.8756983"><ele>409.0</ele><time>2026-04-02T12:41:53.785Z</time></trkpt><trkpt lat="46.0501831" lon="11.8757044"><ele>409.0</ele><time>2026-04-02T12:41:54.785Z</time></trkpt><trkpt lat="46.050117" lon="11.8757038"><ele>409.0</ele><time>2026-04-02T12:41:55.783Z</time></trkpt><trkpt lat="46.0500509" lon="11.8756988"><ele>409.0</ele><time>2026-04-02T12:41:56.784Z</time></trkpt><trkpt lat="46.0499803" lon="11.875689"><ele>409.0</ele><time>2026-04-02T12:41:57.786Z</time></trkpt><trkpt lat="46.0499074" lon="11.8756842"><ele>409.0</ele><time>2026-04-02T12:41:58.784Z</time></trkpt><trkpt lat="46.0498374" lon="11.8756696"><ele>409.2</ele><time>2026-04-02T12:41:59.786Z</time></trkpt><trkpt lat="46.0497672" lon="11.8756586"><ele>409.4</ele><time>2026-04-02T12:42:00.783Z</time></trkpt><trkpt lat="46.0497034" lon="11.8756577"><ele>409.6</ele><time>2026-04-02T12:42:01.783Z</time></trkpt><trkpt lat="46.0495943" lon="11.8756677"><ele>409.8</ele><time>2026-04-02T12:42:03.785Z</time></trkpt><trkpt lat="46.0494917" lon="11.875676"><ele>410.0</ele><time>2026-04-02T12:42:05.785Z</time></trkpt><trkpt lat="46.0493775" lon="11.8756963"><ele>410.0</ele><time>2026-04-02T12:42:07.785Z</time></trkpt><trkpt lat="46.0492559" lon="11.8757517"><ele>410.0</ele><time>2026-04-02T12:42:09.785Z</time></trkpt><trkpt lat="46.0491979" lon="11.8757924"><ele>410.0</ele><time>2026-04-02T12:42:10.784Z</time></trkpt><trkpt lat="46.0491088" lon="11.8758664"><ele>410.0</ele><time>2026-04-02T12:42:12.784Z</time></trkpt><trkpt lat="46.049041" lon="11.8759579"><ele>410.0</ele><time>2026-04-02T12:42:14.783Z</time></trkpt><trkpt lat="46.0489668" lon="11.8760887"><ele>408.75</ele><time>2026-04-02T12:42:16.785Z</time></trkpt><trkpt lat="46.0488798" lon="11.8762205"><ele>407.5</ele><time>2026-04-02T12:42:18.785Z</time></trkpt><trkpt lat="46.0488042" lon="11.8763455"><ele>406.25</ele><time>2026-04-02T12:42:20.785Z</time></trkpt><trkpt lat="46.0487229" lon="11.8764915"><ele>405.0</ele><time>2026-04-02T12:42:22.784Z</time></trkpt><trkpt lat="46.0486536" lon="11.8766156"><ele>405.0</ele><time>2026-04-02T12:42:24.783Z</time></trkpt><trkpt lat="46.0485952" lon="11.8767285"><ele>405.0</ele><time>2026-04-02T12:42:26.783Z</time></trkpt><trkpt lat="46.0485462" lon="11.8768663"><ele>405.0</ele><time>2026-04-02T12:42:28.783Z</time></trkpt><trkpt lat="46.0484961" lon="11.8770003"><ele>405.0</ele><time>2026-04-02T12:42:30.785Z</time></trkpt><trkpt lat="46.048433" lon="11.8771411"><ele>405.0</ele><time>2026-04-02T12:42:32.785Z</time></trkpt><trkpt lat="46.0483699" lon="11.8772682"><ele>403.2</ele><time>2026-04-02T12:42:34.784Z</time></trkpt><trkpt lat="46.0483059" lon="11.8773624"><ele>401.4</ele><time>2026-04-02T12:42:36.785Z</time></trkpt><trkpt lat="46.048212" lon="11.8774478"><ele>399.6</ele><time>2026-04-02T12:42:38.781Z</time></trkpt><trkpt lat="46.0481092" lon="11.8775259"><ele>397.8</ele><time>2026-04-02T12:42:40.783Z</time></trkpt><trkpt lat="46.0480105" lon="11.8775984"><ele>396.0</ele><time>2026-04-02T12:42:42.784Z</time></trkpt><trkpt lat="46.0478981" lon="11.8776466"><ele>394.20000000000005</ele><time>2026-04-02T12:42:44.785Z</time></trkpt><trkpt lat="46.0477976" lon="11.8776885"><ele>392.40000000000003</ele><time>2026-04-02T12:42:46.783Z</time></trkpt><trkpt lat="46.0477049" lon="11.8777395"><ele>390.6</ele><time>2026-04-02T12:42:48.785Z</time></trkpt><trkpt lat="46.0475944" lon="11.8777754"><ele>388.8</ele><time>2026-04-02T12:42:50.785Z</time></trkpt><trkpt lat="46.0474843" lon="11.8777793"><ele>387.0</ele><time>2026-04-02T12:42:52.785Z</time></trkpt><trkpt lat="46.0474006" lon="11.8777727"><ele>385.6</ele><time>2026-04-02T12:42:54.785Z</time></trkpt><trkpt lat="46.0473147" lon="11.8778004"><ele>384.20000000000005</ele><time>2026-04-02T12:42:56.783Z</time></trkpt><trkpt lat="46.0472301" lon="11.8778391"><ele>382.8</ele><time>2026-04-02T12:42:58.785Z</time></trkpt><trkpt lat="46.0471412" lon="11.8778747"><ele>381.4</ele><time>2026-04-02T12:43:00.781Z</time></trkpt><trkpt lat="46.0470493" lon="11.8778993"><ele>380.0</ele><time>2026-04-02T12:43:02.784Z</time></trkpt><trkpt lat="46.046951" lon="11.877885"><ele>380.0</ele><time>2026-04-02T12:43:04.784Z</time></trkpt><trkpt lat="46.0468564" lon="11.8778537"><ele>380.0</ele><time>2026-04-02T12:43:06.781Z</time></trkpt><trkpt lat="46.0467575" lon="11.8778185"><ele>380.0</ele><time>2026-04-02T12:43:08.784Z</time></trkpt><trkpt lat="46.0466578" lon="11.8778268"><ele>380.0</ele><time>2026-04-02T12:43:10.785Z</time></trkpt><trkpt lat="46.046556" lon="11.8778628"><ele>380.0</ele><time>2026-04-02T12:43:12.785Z</time></trkpt><trkpt lat="46.0464394" lon="11.8779185"><ele>379.14285714285717</ele><time>2026-04-02T12:43:14.784Z</time></trkpt><trkpt lat="46.0463774" lon="11.8779402"><ele>378.28571428571433</ele><time>2026-04-02T12:43:15.783Z</time></trkpt><trkpt lat="46.0463153" lon="11.877956"><ele>377.42857142857144</ele><time>2026-04-02T12:43:16.785Z</time></trkpt><trkpt lat="46.0462494" lon="11.8779708"><ele>376.57142857142856</ele><time>2026-04-02T12:43:17.783Z</time></trkpt><trkpt lat="46.0461818" lon="11.8779771"><ele>375.7142857142857</ele><time>2026-04-02T12:43:18.783Z</time></trkpt><trkpt lat="46.0461131" lon="11.8779793"><ele>374.85714285714283</ele><time>2026-04-02T12:43:19.784Z</time></trkpt><trkpt lat="46.046043" lon="11.8779817"><ele>374.0</ele><time>2026-04-02T12:43:20.785Z</time></trkpt><trkpt lat="46.0459705" lon="11.8779781"><ele>374.0</ele><time>2026-04-02T12:43:21.783Z</time></trkpt><trkpt lat="46.0458996" lon="11.8779674"><ele>374.0</ele><time>2026-04-02T12:43:22.783Z</time></trkpt><trkpt lat="46.0458304" lon="11.8779368"><ele>374.0</ele><time>2026-04-02T12:43:23.785Z</time></trkpt><trkpt lat="46.0457754" lon="11.8778851"><ele>374.0</ele><time>2026-04-02T12:43:24.785Z</time></trkpt><trkpt lat="46.0457115" lon="11.8778391"><ele>374.0</ele><time>2026-04-02T12:43:25.784Z</time></trkpt><trkpt lat="46.0456463" lon="11.8777924"><ele>374.0</ele><time>2026-04-02T12:43:26.783Z</time></trkpt><trkpt lat="46.0455869" lon="11.8777418"><ele>374.0</ele><time>2026-04-02T12:43:27.78Z</time></trkpt><trkpt lat="46.0455285" lon="11.8776961"><ele>373.79999999999995</ele><time>2026-04-02T12:43:28.782Z</time></trkpt><trkpt lat="46.0454738" lon="11.8776444"><ele>373.59999999999997</ele><time>2026-04-02T12:43:29.783Z</time></trkpt><trkpt lat="46.0453773" lon="11.8775533"><ele>373.4</ele><time>2026-04-02T12:43:31.783Z</time></trkpt><trkpt lat="46.0452951" lon="11.8774901"><ele>373.2</ele><time>2026-04-02T12:43:33.785Z</time></trkpt><trkpt lat="46.0452102" lon="11.8774506"><ele>373.0</ele><time>2026-04-02T12:43:35.782Z</time></trkpt><trkpt lat="46.0451285" lon="11.8774066"><ele>373.0</ele><time>2026-04-02T12:43:37.785Z</time></trkpt><trkpt lat="46.045047" lon="11.8773616"><ele>373.0</ele><time>2026-04-02T12:43:39.785Z</time></trkpt><trkpt lat="46.0449632" lon="11.877318"><ele>373.0</ele><time>2026-04-02T12:43:41.784Z</time></trkpt><trkpt lat="46.04487" lon="11.8772818"><ele>373.0</ele><time>2026-04-02T12:43:43.784Z</time></trkpt><trkpt lat="46.0447726" lon="11.8772361"><ele>373.0</ele><time>2026-04-02T12:43:45.785Z</time></trkpt><trkpt lat="46.0446763" lon="11.8771844"><ele>372.59999999999997</ele><time>2026-04-02T12:43:47.784Z</time></trkpt><trkpt lat="46.0445849" lon="11.8771312"><ele>372.2</ele><time>2026-04-02T12:43:49.784Z</time></trkpt><trkpt lat="46.0445055" lon="11.8770627"><ele>371.8</ele><time>2026-04-02T12:43:51.784Z</time></trkpt><trkpt lat="46.0444319" lon="11.8769793"><ele>371.4</ele><time>2026-04-02T12:43:53.785Z</time></trkpt><trkpt lat="46.0443656" lon="11.8768826"><ele>371.0</ele><time>2026-04-02T12:43:55.782Z</time></trkpt><trkpt lat="46.0443044" lon="11.8767858"><ele>370.6666666666667</ele><time>2026-04-02T12:43:57.784Z</time></trkpt><trkpt lat="46.0442472" lon="11.8766914"><ele>370.33333333333337</ele><time>2026-04-02T12:43:59.785Z</time></trkpt><trkpt lat="46.0441972" lon="11.8765929"><ele>370.0</ele><time>2026-04-02T12:44:01.785Z</time></trkpt><trkpt lat="46.0441597" lon="11.8764899"><ele>369.6666666666667</ele><time>2026-04-02T12:44:03.784Z</time></trkpt><trkpt lat="46.0441284" lon="11.8763819"><ele>369.3333333333333</ele><time>2026-04-02T12:44:05.782Z</time></trkpt><trkpt lat="46.0441038" lon="11.8762846"><ele>369.0</ele><time>2026-04-02T12:44:07.783Z</time></trkpt><trkpt lat="46.0440239" lon="11.876278"><ele>369.0</ele><time>2026-04-02T12:44:11.783Z</time></trkpt><trkpt lat="46.0439862" lon="11.8763531"><ele>369.0</ele><time>2026-04-02T12:44:13.782Z</time></trkpt><trkpt lat="46.0439395" lon="11.8764287"><ele>369.0</ele><time>2026-04-02T12:44:15.782Z</time></trkpt><trkpt lat="46.0438988" lon="11.8765286"><ele>369.0</ele><time>2026-04-02T12:44:17.784Z</time></trkpt><trkpt lat="46.0438461" lon="11.8766584"><ele>369.0</ele><time>2026-04-02T12:44:19.783Z</time></trkpt><trkpt lat="46.0437798" lon="11.8767747"><ele>369.0</ele><time>2026-04-02T12:44:21.783Z</time></trkpt><trkpt lat="46.0436852" lon="11.8768477"><ele>368.5</ele><time>2026-04-02T12:44:23.783Z</time></trkpt><trkpt lat="46.043575" lon="11.8769039"><ele>368.0</ele><time>2026-04-02T12:44:25.781Z</time></trkpt><trkpt lat="46.0434661" lon="11.8769409"><ele>367.5</ele><time>2026-04-02T12:44:27.784Z</time></trkpt><trkpt lat="46.043349" lon="11.8769574"><ele>367.0</ele><time>2026-04-02T12:44:29.782Z</time></trkpt><trkpt lat="46.0432239" lon="11.8769877"><ele>366.40000000000003</ele><time>2026-04-02T12:44:31.785Z</time></trkpt><trkpt lat="46.0431107" lon="11.8770486"><ele>365.8</ele><time>2026-04-02T12:44:33.784Z</time></trkpt><trkpt lat="46.0430227" lon="11.8771431"><ele>365.2</ele><time>2026-04-02T12:44:35.785Z</time></trkpt><trkpt lat="46.04296" lon="11.8772496"><ele>364.6</ele><time>2026-04-02T12:44:37.783Z</time></trkpt><trkpt lat="46.0428897" lon="11.8773045"><ele>364.0</ele><time>2026-04-02T12:44:39.784Z</time></trkpt><trkpt lat="46.0428117" lon="11.8772479"><ele>364.0</ele><time>2026-04-02T12:44:42.783Z</time></trkpt><trkpt lat="46.0427848" lon="11.8771207"><ele>364.0</ele><time>2026-04-02T12:44:45.781Z</time></trkpt><trkpt lat="46.0427606" lon="11.8770002"><ele>364.0</ele><time>2026-04-02T12:44:48.783Z</time></trkpt><trkpt lat="46.0427199" lon="11.8768857"><ele>364.0</ele><time>2026-04-02T12:44:51.784Z</time></trkpt><trkpt lat="46.0426888" lon="11.8768059"><ele>364.0</ele><time>2026-04-02T12:44:53.785Z</time></trkpt><trkpt lat="46.0426525" lon="11.8767293"><ele>364.0</ele><time>2026-04-02T12:44:55.785Z</time></trkpt><trkpt lat="46.0425856" lon="11.8767088"><ele>364.5</ele><time>2026-04-02T12:44:57.784Z</time></trkpt><trkpt lat="46.0425087" lon="11.8767223"><ele>365.0</ele><time>2026-04-02T12:44:59.785Z</time></trkpt><trkpt lat="46.0424118" lon="11.8767666"><ele>365.5</ele><time>2026-04-02T12:45:01.783Z</time></trkpt><trkpt lat="46.0422927" lon="11.8768345"><ele>366.0</ele><time>2026-04-02T12:45:03.783Z</time></trkpt><trkpt lat="46.0422285" lon="11.8768627"><ele>366.5</ele><time>2026-04-02T12:45:04.785Z</time></trkpt><trkpt lat="46.0421657" lon="11.8768919"><ele>367.0</ele><time>2026-04-02T12:45:05.784Z</time></trkpt><trkpt lat="46.0421037" lon="11.8769207"><ele>365.85714285714283</ele><time>2026-04-02T12:45:06.784Z</time></trkpt><trkpt lat="46.0420414" lon="11.8769481"><ele>364.7142857142857</ele><time>2026-04-02T12:45:07.785Z</time></trkpt><trkpt lat="46.0419767" lon="11.8769769"><ele>363.57142857142856</ele><time>2026-04-02T12:45:08.783Z</time></trkpt><trkpt lat="46.0419129" lon="11.8770114"><ele>362.42857142857144</ele><time>2026-04-02T12:45:09.785Z</time></trkpt><trkpt lat="46.0418516" lon="11.8770466"><ele>361.28571428571433</ele><time>2026-04-02T12:45:10.784Z</time></trkpt><trkpt lat="46.0417927" lon="11.8770842"><ele>360.14285714285717</ele><time>2026-04-02T12:45:11.783Z</time></trkpt><trkpt lat="46.041733" lon="11.877128"><ele>359.0</ele><time>2026-04-02T12:45:12.785Z</time></trkpt><trkpt lat="46.0416753" lon="11.8771792"><ele>358.0</ele><time>2026-04-02T12:45:13.782Z</time></trkpt><trkpt lat="46.0416216" lon="11.8772319"><ele>357.0</ele><time>2026-04-02T12:45:14.785Z</time></trkpt><trkpt lat="46.0415198" lon="11.8773384"><ele>356.0</ele><time>2026-04-02T12:45:16.782Z</time></trkpt><trkpt lat="46.0414601" lon="11.8773872"><ele>355.0</ele><time>2026-04-02T12:45:17.784Z</time></trkpt><trkpt lat="46.0413977" lon="11.8774379"><ele>354.0</ele><time>2026-04-02T12:45:18.781Z</time></trkpt><trkpt lat="46.0413339" lon="11.8774913"><ele>353.0</ele><time>2026-04-02T12:45:19.784Z</time></trkpt><trkpt lat="46.0412664" lon="11.8775444"><ele>353.0</ele><time>2026-04-02T12:45:20.783Z</time></trkpt><trkpt lat="46.0411969" lon="11.8775924"><ele>353.0</ele><time>2026-04-02T12:45:21.783Z</time></trkpt><trkpt lat="46.0411273" lon="11.8776452"><ele>353.0</ele><time>2026-04-02T12:45:22.783Z</time></trkpt><trkpt lat="46.0410586" lon="11.8777032"><ele>353.0</ele><time>2026-04-02T12:45:23.784Z</time></trkpt><trkpt lat="46.0410004" lon="11.8777586"><ele>353.0</ele><time>2026-04-02T12:45:24.785Z</time></trkpt><trkpt lat="46.0409459" lon="11.8778072"><ele>353.0</ele><time>2026-04-02T12:45:25.784Z</time></trkpt><trkpt lat="46.0408418" lon="11.8778314"><ele>352.79999999999995</ele><time>2026-04-02T12:45:27.784Z</time></trkpt><trkpt lat="46.040766" lon="11.8777532"><ele>352.6</ele><time>2026-04-02T12:45:29.783Z</time></trkpt><trkpt lat="46.040716" lon="11.8776104"><ele>352.4</ele><time>2026-04-02T12:45:31.785Z</time></trkpt><trkpt lat="46.0406649" lon="11.8774581"><ele>352.20000000000005</ele><time>2026-04-02T12:45:33.785Z</time></trkpt><trkpt lat="46.0406088" lon="11.8773195"><ele>352.0</ele><time>2026-04-02T12:45:35.785Z</time></trkpt><trkpt lat="46.0405421" lon="11.8772015"><ele>352.0</ele><time>2026-04-02T12:45:37.785Z</time></trkpt><trkpt lat="46.0404665" lon="11.8770948"><ele>352.0</ele><time>2026-04-02T12:45:39.783Z</time></trkpt><trkpt lat="46.040389" lon="11.8769936"><ele>352.0</ele><time>2026-04-02T12:45:41.783Z</time></trkpt><trkpt lat="46.0403154" lon="11.8768898"><ele>352.0</ele><time>2026-04-02T12:45:43.783Z</time></trkpt><trkpt lat="46.0402482" lon="11.8768084"><ele>352.0</ele><time>2026-04-02T12:45:45.782Z</time></trkpt><trkpt lat="46.0401874" lon="11.8767206"><ele>352.20000000000005</ele><time>2026-04-02T12:45:47.785Z</time></trkpt><trkpt lat="46.0401232" lon="11.8766369"><ele>352.4</ele><time>2026-04-02T12:45:49.785Z</time></trkpt><trkpt lat="46.0400507" lon="11.8765419"><ele>352.6</ele><time>2026-04-02T12:45:51.785Z</time></trkpt><trkpt lat="46.0399871" lon="11.876449"><ele>352.79999999999995</ele><time>2026-04-02T12:45:53.784Z</time></trkpt><trkpt lat="46.0399244" lon="11.8763629"><ele>353.0</ele><time>2026-04-02T12:45:55.783Z</time></trkpt><trkpt lat="46.0398651" lon="11.8762694"><ele>353.0</ele><time>2026-04-02T12:45:57.784Z</time></trkpt><trkpt lat="46.039813" lon="11.8761893"><ele>353.0</ele><time>2026-04-02T12:45:59.785Z</time></trkpt><trkpt lat="46.0397434" lon="11.8761048"><ele>353.0</ele><time>2026-04-02T12:46:02.785Z</time></trkpt><trkpt lat="46.0396837" lon="11.8760555"><ele>353.0</ele><time>2026-04-02T12:46:04.785Z</time></trkpt><trkpt lat="46.0396178" lon="11.8760122"><ele>353.0</ele><time>2026-04-02T12:46:06.783Z</time></trkpt><trkpt lat="46.039537" lon="11.8759726"><ele>353.0</ele><time>2026-04-02T12:46:08.785Z</time></trkpt><trkpt lat="46.0394504" lon="11.8759137"><ele>353.4</ele><time>2026-04-02T12:46:10.785Z</time></trkpt><trkpt lat="46.0393655" lon="11.8758585"><ele>353.79999999999995</ele><time>2026-04-02T12:46:12.785Z</time></trkpt><trkpt lat="46.0392878" lon="11.8758131"><ele>354.2</ele><time>2026-04-02T12:46:14.785Z</time></trkpt><trkpt lat="46.0392084" lon="11.8757522"><ele>354.6</ele><time>2026-04-02T12:46:16.784Z</time></trkpt><trkpt lat="46.0391207" lon="11.8757014"><ele>355.0</ele><time>2026-04-02T12:46:18.784Z</time></trkpt><trkpt lat="46.039026" lon="11.8756698"><ele>354.0</ele><time>2026-04-02T12:46:20.784Z</time></trkpt><trkpt lat="46.0389337" lon="11.8756258"><ele>353.0</ele><time>2026-04-02T12:46:22.782Z</time></trkpt><trkpt lat="46.0388496" lon="11.8755818"><ele>352.0</ele><time>2026-04-02T12:46:24.784Z</time></trkpt><trkpt lat="46.0387662" lon="11.8755388"><ele>351.0</ele><time>2026-04-02T12:46:26.782Z</time></trkpt><trkpt lat="46.0386861" lon="11.8754958"><ele>350.0</ele><time>2026-04-02T12:46:28.784Z</time></trkpt><trkpt lat="46.0386032" lon="11.8754501"><ele>350.0</ele><time>2026-04-02T12:46:30.783Z</time></trkpt><trkpt lat="46.0385346" lon="11.875392"><ele>350.0</ele><time>2026-04-02T12:46:32.784Z</time></trkpt><trkpt lat="46.0384661" lon="11.8753517"><ele>350.0</ele><time>2026-04-02T12:46:34.785Z</time></trkpt><trkpt lat="46.0383912" lon="11.8753015"><ele>350.0</ele><time>2026-04-02T12:46:36.783Z</time></trkpt><trkpt lat="46.0383067" lon="11.8752502"><ele>350.0</ele><time>2026-04-02T12:46:38.783Z</time></trkpt><trkpt lat="46.038221" lon="11.8751994"><ele>350.0</ele><time>2026-04-02T12:46:40.783Z</time></trkpt><trkpt lat="46.0381349" lon="11.875148"><ele>349.4</ele><time>2026-04-02T12:46:42.784Z</time></trkpt><trkpt lat="46.0380508" lon="11.8750955"><ele>348.8</ele><time>2026-04-02T12:46:44.784Z</time></trkpt><trkpt lat="46.0379654" lon="11.8750511"><ele>348.20000000000005</ele><time>2026-04-02T12:46:46.782Z</time></trkpt><trkpt lat="46.0378733" lon="11.8750344"><ele>347.6</ele><time>2026-04-02T12:46:48.784Z</time></trkpt><trkpt lat="46.0377767" lon="11.875052"><ele>347.0</ele><time>2026-04-02T12:46:50.785Z</time></trkpt><trkpt lat="46.0376941" lon="11.8751499"><ele>347.0</ele><time>2026-04-02T12:46:52.784Z</time></trkpt><trkpt lat="46.0376599" lon="11.8752277"><ele>347.0</ele><time>2026-04-02T12:46:53.785Z</time></trkpt><trkpt lat="46.0375705" lon="11.8753529"><ele>347.0</ele><time>2026-04-02T12:46:55.783Z</time></trkpt><trkpt lat="46.0374647" lon="11.875321"><ele>347.0</ele><time>2026-04-02T12:46:57.784Z</time></trkpt><trkpt lat="46.0373719" lon="11.8752148"><ele>347.0</ele><time>2026-04-02T12:46:59.784Z</time></trkpt><trkpt lat="46.0372884" lon="11.8751237"><ele>347.33333333333337</ele><time>2026-04-02T12:47:01.784Z</time></trkpt><trkpt lat="46.0372064" lon="11.8750464"><ele>347.6666666666667</ele><time>2026-04-02T12:47:03.785Z</time></trkpt><trkpt lat="46.0371273" lon="11.8749956"><ele>348.0</ele><time>2026-04-02T12:47:05.785Z</time></trkpt><trkpt lat="46.0370508" lon="11.8749668"><ele>348.3333333333333</ele><time>2026-04-02T12:47:07.784Z</time></trkpt><trkpt lat="46.0369703" lon="11.8749634"><ele>348.66666666666663</ele><time>2026-04-02T12:47:09.784Z</time></trkpt><trkpt lat="46.0368849" lon="11.8749864"><ele>349.0</ele><time>2026-04-02T12:47:11.784Z</time></trkpt><trkpt lat="46.0367824" lon="11.8750268"><ele>348.99999999999994</ele><time>2026-04-02T12:47:13.784Z</time></trkpt><trkpt lat="46.0367202" lon="11.8750473"><ele>349.0</ele><time>2026-04-02T12:47:14.783Z</time></trkpt><trkpt lat="46.0366582" lon="11.8750757"><ele>349.0</ele><time>2026-04-02T12:47:15.785Z</time></trkpt><trkpt lat="46.0365972" lon="11.8751086"><ele>349.0</ele><time>2026-04-02T12:47:16.784Z</time></trkpt><trkpt lat="46.0365363" lon="11.8751543"><ele>349.0</ele><time>2026-04-02T12:47:17.784Z</time></trkpt><trkpt lat="46.0364832" lon="11.875212"><ele>348.99999999999994</ele><time>2026-04-02T12:47:18.784Z</time></trkpt><trkpt lat="46.0364302" lon="11.8752687"><ele>349.0</ele><time>2026-04-02T12:47:19.784Z</time></trkpt><trkpt lat="46.0363372" lon="11.8753822"><ele>347.4</ele><time>2026-04-02T12:47:21.781Z</time></trkpt><trkpt lat="46.0362539" lon="11.8754915"><ele>345.79999999999995</ele><time>2026-04-02T12:47:23.784Z</time></trkpt><trkpt lat="46.0361769" lon="11.8756117"><ele>344.20000000000005</ele><time>2026-04-02T12:47:25.784Z</time></trkpt><trkpt lat="46.0361082" lon="11.8757343"><ele>342.6</ele><time>2026-04-02T12:47:27.783Z</time></trkpt><trkpt lat="46.0360276" lon="11.8758256"><ele>341.0</ele><time>2026-04-02T12:47:29.785Z</time></trkpt><trkpt lat="46.0359357" lon="11.8757957"><ele>341.0</ele><time>2026-04-02T12:47:31.783Z</time></trkpt><trkpt lat="46.035886" lon="11.8756909"><ele>341.0</ele><time>2026-04-02T12:47:33.784Z</time></trkpt><trkpt lat="46.0358405" lon="11.8755736"><ele>341.0</ele><time>2026-04-02T12:47:35.784Z</time></trkpt><trkpt lat="46.035797" lon="11.8754715"><ele>341.0</ele><time>2026-04-02T12:47:37.785Z</time></trkpt><trkpt lat="46.0357543" lon="11.8753597"><ele>341.0</ele><time>2026-04-02T12:47:39.783Z</time></trkpt><trkpt lat="46.0357123" lon="11.8752437"><ele>341.0</ele><time>2026-04-02T12:47:41.785Z</time></trkpt><trkpt lat="46.0356663" lon="11.8751348"><ele>341.33333333333337</ele><time>2026-04-02T12:47:43.785Z</time></trkpt><trkpt lat="46.035615" lon="11.8750466"><ele>341.6666666666667</ele><time>2026-04-02T12:47:45.784Z</time></trkpt><trkpt lat="46.0355502" lon="11.8749585"><ele>342.0</ele><time>2026-04-02T12:47:47.784Z</time></trkpt><trkpt lat="46.0354807" lon="11.8748752"><ele>342.3333333333333</ele><time>2026-04-02T12:47:49.783Z</time></trkpt><trkpt lat="46.0354058" lon="11.8748007"><ele>342.66666666666663</ele><time>2026-04-02T12:47:51.783Z</time></trkpt><trkpt lat="46.0353311" lon="11.8747367"><ele>343.0</ele><time>2026-04-02T12:47:53.785Z</time></trkpt><trkpt lat="46.0352511" lon="11.8746783"><ele>343.0</ele><time>2026-04-02T12:47:55.782Z</time></trkpt><trkpt lat="46.035179" lon="11.8746311"><ele>343.0</ele><time>2026-04-02T12:47:57.784Z</time></trkpt><trkpt lat="46.0351046" lon="11.8745767"><ele>343.0</ele><time>2026-04-02T12:47:59.782Z</time></trkpt><trkpt lat="46.0350297" lon="11.8745228"><ele>343.0</ele><time>2026-04-02T12:48:01.783Z</time></trkpt><trkpt lat="46.0349572" lon="11.8744652"><ele>343.0</ele><time>2026-04-02T12:48:03.785Z</time></trkpt><trkpt lat="46.0348816" lon="11.8744"><ele>343.0</ele><time>2026-04-02T12:48:05.783Z</time></trkpt><trkpt lat="46.0348071" lon="11.8743353"><ele>344.0</ele><time>2026-04-02T12:48:07.783Z</time></trkpt><trkpt lat="46.0347369" lon="11.8742661"><ele>345.0</ele><time>2026-04-02T12:48:09.784Z</time></trkpt><trkpt lat="46.0346676" lon="11.8741932"><ele>346.0</ele><time>2026-04-02T12:48:11.783Z</time></trkpt><trkpt lat="46.0345982" lon="11.874125"><ele>347.0</ele><time>2026-04-02T12:48:13.783Z</time></trkpt><trkpt lat="46.0345262" lon="11.8740636"><ele>348.0</ele><time>2026-04-02T12:48:15.783Z</time></trkpt><trkpt lat="46.034453" lon="11.8740192"><ele>349.0</ele><time>2026-04-02T12:48:17.784Z</time></trkpt><trkpt lat="46.0343824" lon="11.8739752"><ele>348.99999999999994</ele><time>2026-04-02T12:48:19.784Z</time></trkpt><trkpt lat="46.0343088" lon="11.8739342"><ele>349.0</ele><time>2026-04-02T12:48:21.784Z</time></trkpt><trkpt lat="46.0342449" lon="11.8738924"><ele>349.0</ele><time>2026-04-02T12:48:23.784Z</time></trkpt><trkpt lat="46.0341843" lon="11.8738595"><ele>349.0</ele><time>2026-04-02T12:48:25.782Z</time></trkpt><trkpt lat="46.0341199" lon="11.873834"><ele>349.0</ele><time>2026-04-02T12:48:27.782Z</time></trkpt><trkpt lat="46.0340602" lon="11.8737994"><ele>348.99999999999994</ele><time>2026-04-02T12:48:29.783Z</time></trkpt><trkpt lat="46.0339978" lon="11.8737657"><ele>349.0</ele><time>2026-04-02T12:48:31.781Z</time></trkpt><trkpt lat="46.0339327" lon="11.8737313"><ele>348.99999999999994</ele><time>2026-04-02T12:48:33.784Z</time></trkpt><trkpt lat="46.0338693" lon="11.8737063"><ele>349.0</ele><time>2026-04-02T12:48:35.784Z</time></trkpt><trkpt lat="46.0337794" lon="11.8736713"><ele>349.0</ele><time>2026-04-02T12:48:38.782Z</time></trkpt><trkpt lat="46.0336984" lon="11.8736338"><ele>349.0</ele><time>2026-04-02T12:48:41.783Z</time></trkpt><trkpt lat="46.0336384" lon="11.8736009"><ele>349.0</ele><time>2026-04-02T12:48:43.784Z</time></trkpt><trkpt lat="46.0335784" lon="11.8735682"><ele>348.99999999999994</ele><time>2026-04-02T12:48:45.784Z</time></trkpt><trkpt lat="46.0335181" lon="11.8735369"><ele>349.0</ele><time>2026-04-02T12:48:47.784Z</time></trkpt><trkpt lat="46.0334345" lon="11.8734872"><ele>348.66666666666663</ele><time>2026-04-02T12:48:50.784Z</time></trkpt><trkpt lat="46.033363" lon="11.8734382"><ele>348.3333333333333</ele><time>2026-04-02T12:48:53.785Z</time></trkpt><trkpt lat="46.0333031" lon="11.8734001"><ele>348.0</ele><time>2026-04-02T12:48:56.785Z</time></trkpt><trkpt lat="46.0332424" lon="11.8734776"><ele>347.6666666666667</ele><time>2026-04-02T12:49:00.784Z</time></trkpt><trkpt lat="46.0332184" lon="11.8735893"><ele>347.33333333333337</ele><time>2026-04-02T12:49:03.784Z</time></trkpt><trkpt lat="46.0331898" lon="11.8736877"><ele>347.0</ele><time>2026-04-02T12:49:06.782Z</time></trkpt><trkpt lat="46.0331566" lon="11.873778"><ele>347.0</ele><time>2026-04-02T12:49:09.783Z</time></trkpt><trkpt lat="46.0331233" lon="11.8738622"><ele>347.0</ele><time>2026-04-02T12:49:12.784Z</time></trkpt><trkpt lat="46.0330767" lon="11.8739857"><ele>347.0</ele><time>2026-04-02T12:49:15.782Z</time></trkpt><trkpt lat="46.0330397" lon="11.8740901"><ele>347.0</ele><time>2026-04-02T12:49:17.782Z</time></trkpt><trkpt lat="46.0329984" lon="11.874199"><ele>347.0</ele><time>2026-04-02T12:49:19.782Z</time></trkpt><trkpt lat="46.0329621" lon="11.8742882"><ele>347.0</ele><time>2026-04-02T12:49:21.782Z</time></trkpt><trkpt lat="46.0329372" lon="11.874405"><ele>346.0</ele><time>2026-04-02T12:49:23.783Z</time></trkpt><trkpt lat="46.0329281" lon="11.874551"><ele>345.0</ele><time>2026-04-02T12:49:25.783Z</time></trkpt><trkpt lat="46.0329395" lon="11.874685"><ele>344.0</ele><time>2026-04-02T12:49:27.782Z</time></trkpt><trkpt lat="46.0329747" lon="11.8747984"><ele>343.0</ele><time>2026-04-02T12:49:29.785Z</time></trkpt><trkpt lat="46.0330101" lon="11.8748805"><ele>342.0</ele><time>2026-04-02T12:49:31.784Z</time></trkpt><trkpt lat="46.0330452" lon="11.8749702"><ele>341.0</ele><time>2026-04-02T12:49:33.785Z</time></trkpt><trkpt lat="46.033077" lon="11.8750657"><ele>341.0</ele><time>2026-04-02T12:49:35.783Z</time></trkpt><trkpt lat="46.0330955" lon="11.8752137"><ele>341.0</ele><time>2026-04-02T12:49:37.783Z</time></trkpt><trkpt lat="46.033061" lon="11.8753731"><ele>341.0</ele><time>2026-04-02T12:49:39.783Z</time></trkpt><trkpt lat="46.0329899" lon="11.8755067"><ele>341.0</ele><time>2026-04-02T12:49:41.784Z</time></trkpt><trkpt lat="46.0329298" lon="11.8756421"><ele>341.0</ele><time>2026-04-02T12:49:43.784Z</time></trkpt><trkpt lat="46.0328832" lon="11.8757769"><ele>341.0</ele><time>2026-04-02T12:49:45.782Z</time></trkpt><trkpt lat="46.032864" lon="11.8759096"><ele>341.0</ele><time>2026-04-02T12:49:47.784Z</time></trkpt><trkpt lat="46.0328702" lon="11.8760487"><ele>341.0</ele><time>2026-04-02T12:49:49.782Z</time></trkpt><trkpt lat="46.0328843" lon="11.8761496"><ele>341.0</ele><time>2026-04-02T12:49:51.783Z</time></trkpt><trkpt lat="46.0328792" lon="11.8762463"><ele>341.0</ele><time>2026-04-02T12:49:53.78Z</time></trkpt><trkpt lat="46.0328704" lon="11.8763421"><ele>341.0</ele><time>2026-04-02T12:49:55.782Z</time></trkpt><trkpt lat="46.0329324" lon="11.8764398"><ele>340.0</ele><time>2026-04-02T12:49:58.786Z</time></trkpt><trkpt lat="46.033007" lon="11.8764813"><ele>339.0</ele><time>2026-04-02T12:50:00.78Z</time></trkpt><trkpt lat="46.0330864" lon="11.8765355"><ele>338.0</ele><time>2026-04-02T12:50:02.784Z</time></trkpt><trkpt lat="46.0331643" lon="11.8765819"><ele>337.0</ele><time>2026-04-02T12:50:04.784Z</time></trkpt><trkpt lat="46.0332573" lon="11.8766377"><ele>336.0</ele><time>2026-04-02T12:50:06.781Z</time></trkpt><trkpt lat="46.0333531" lon="11.8766952"><ele>335.8</ele><time>2026-04-02T12:50:08.782Z</time></trkpt><trkpt lat="46.0334494" lon="11.8767488"><ele>335.6</ele><time>2026-04-02T12:50:10.785Z</time></trkpt><trkpt lat="46.0335472" lon="11.8768085"><ele>335.4</ele><time>2026-04-02T12:50:12.782Z</time></trkpt><trkpt lat="46.0336391" lon="11.8768646"><ele>335.2</ele><time>2026-04-02T12:50:14.785Z</time></trkpt><trkpt lat="46.0337259" lon="11.8769194"><ele>335.0</ele><time>2026-04-02T12:50:16.782Z</time></trkpt><trkpt lat="46.0338142" lon="11.876972"><ele>334.33333333333337</ele><time>2026-04-02T12:50:18.781Z</time></trkpt><trkpt lat="46.0338999" lon="11.8770047"><ele>333.6666666666667</ele><time>2026-04-02T12:50:20.783Z</time></trkpt><trkpt lat="46.0339851" lon="11.8770377"><ele>333.0</ele><time>2026-04-02T12:50:22.781Z</time></trkpt><trkpt lat="46.0340533" lon="11.8771012"><ele>332.3333333333333</ele><time>2026-04-02T12:50:24.781Z</time></trkpt><trkpt lat="46.0340531" lon="11.8772011"><ele>331.66666666666663</ele><time>2026-04-02T12:50:26.784Z</time></trkpt><trkpt lat="46.0340125" lon="11.8773174"><ele>331.0</ele><time>2026-04-02T12:50:28.784Z</time></trkpt><trkpt lat="46.0339591" lon="11.8774383"><ele>331.0</ele><time>2026-04-02T12:50:30.782Z</time></trkpt><trkpt lat="46.0339056" lon="11.8775556"><ele>331.0</ele><time>2026-04-02T12:50:32.784Z</time></trkpt><trkpt lat="46.0338553" lon="11.8776764"><ele>331.0</ele><time>2026-04-02T12:50:34.782Z</time></trkpt><trkpt lat="46.0338195" lon="11.8778116"><ele>331.0</ele><time>2026-04-02T12:50:36.783Z</time></trkpt><trkpt lat="46.0337902" lon="11.8779417"><ele>331.0</ele><time>2026-04-02T12:50:38.783Z</time></trkpt><trkpt lat="46.0337703" lon="11.87807"><ele>331.0</ele><time>2026-04-02T12:50:40.782Z</time></trkpt><trkpt lat="46.0337466" lon="11.8782002"><ele>331.0</ele><time>2026-04-02T12:50:42.784Z</time></trkpt><trkpt lat="46.0337203" lon="11.8783206"><ele>331.0</ele><time>2026-04-02T12:50:44.784Z</time></trkpt><trkpt lat="46.0336941" lon="11.8784349"><ele>331.0</ele><time>2026-04-02T12:50:46.785Z</time></trkpt><trkpt lat="46.0336663" lon="11.8785417"><ele>331.0</ele><time>2026-04-02T12:50:48.781Z</time></trkpt><trkpt lat="46.0336275" lon="11.8786446"><ele>331.0</ele><time>2026-04-02T12:50:50.783Z</time></trkpt><trkpt lat="46.0335763" lon="11.878736"><ele>331.3333333333333</ele><time>2026-04-02T12:50:52.781Z</time></trkpt><trkpt lat="46.0335132" lon="11.8788319"><ele>331.66666666666663</ele><time>2026-04-02T12:50:54.785Z</time></trkpt><trkpt lat="46.0334431" lon="11.8789343"><ele>332.0</ele><time>2026-04-02T12:50:56.786Z</time></trkpt><trkpt lat="46.0333792" lon="11.8790101"><ele>332.3333333333333</ele><time>2026-04-02T12:50:58.786Z</time></trkpt><trkpt lat="46.0333178" lon="11.8790737"><ele>332.6666666666667</ele><time>2026-04-02T12:51:00.784Z</time></trkpt><trkpt lat="46.0332479" lon="11.8791379"><ele>333.0</ele><time>2026-04-02T12:51:02.784Z</time></trkpt><trkpt lat="46.0331802" lon="11.8792034"><ele>335.3333333333333</ele><time>2026-04-02T12:51:04.782Z</time></trkpt><trkpt lat="46.0331188" lon="11.8792849"><ele>337.6666666666667</ele><time>2026-04-02T12:51:06.785Z</time></trkpt><trkpt lat="46.0330529" lon="11.8793643"><ele>340.0</ele><time>2026-04-02T12:51:08.784Z</time></trkpt><trkpt lat="46.032987" lon="11.8794363"><ele>342.33333333333337</ele><time>2026-04-02T12:51:10.784Z</time></trkpt><trkpt lat="46.0329234" lon="11.879502"><ele>344.6666666666667</ele><time>2026-04-02T12:51:12.785Z</time></trkpt><trkpt lat="46.0328691" lon="11.879565"><ele>347.0</ele><time>2026-04-02T12:51:14.786Z</time></trkpt><trkpt lat="46.0328189" lon="11.8796272"><ele>347.0</ele><time>2026-04-02T12:51:16.783Z</time></trkpt><trkpt lat="46.0327754" lon="11.8796955"><ele>347.0</ele><time>2026-04-02T12:51:18.784Z</time></trkpt><trkpt lat="46.0327127" lon="11.8797913"><ele>347.0</ele><time>2026-04-02T12:51:21.785Z</time></trkpt><trkpt lat="46.0326638" lon="11.8798867"><ele>347.0</ele><time>2026-04-02T12:51:24.782Z</time></trkpt><trkpt lat="46.0326176" lon="11.8799959"><ele>347.0</ele><time>2026-04-02T12:51:27.785Z</time></trkpt><trkpt lat="46.0325694" lon="11.8800962"><ele>347.0</ele><time>2026-04-02T12:51:30.785Z</time></trkpt><trkpt lat="46.0325187" lon="11.8801929"><ele>347.0</ele><time>2026-04-02T12:51:33.783Z</time></trkpt><trkpt lat="46.0324715" lon="11.8802675"><ele>347.0</ele><time>2026-04-02T12:51:36.785Z</time></trkpt><trkpt lat="46.0323969" lon="11.8803184"><ele>347.0</ele><time>2026-04-02T12:51:39.784Z</time></trkpt><trkpt lat="46.0323152" lon="11.8803497"><ele>347.0</ele><time>2026-04-02T12:51:42.784Z</time></trkpt><trkpt lat="46.0322299" lon="11.8803464"><ele>347.0</ele><time>2026-04-02T12:51:45.784Z</time></trkpt><trkpt lat="46.0321489" lon="11.880307"><ele>347.0</ele><time>2026-04-02T12:51:48.781Z</time></trkpt><trkpt lat="46.0320714" lon="11.8802477"><ele>347.0</ele><time>2026-04-02T12:51:51.783Z</time></trkpt><trkpt lat="46.0319984" lon="11.8801891"><ele>347.0</ele><time>2026-04-02T12:51:54.785Z</time></trkpt><trkpt lat="46.0319215" lon="11.8801386"><ele>347.0</ele><time>2026-04-02T12:51:57.784Z</time></trkpt><trkpt lat="46.0318385" lon="11.8800788"><ele>347.0</ele><time>2026-04-02T12:52:00.786Z</time></trkpt><trkpt lat="46.0317702" lon="11.8800078"><ele>347.0</ele><time>2026-04-02T12:52:03.785Z</time></trkpt><trkpt lat="46.0317142" lon="11.8799426"><ele>347.0</ele><time>2026-04-02T12:52:06.785Z</time></trkpt><trkpt lat="46.0316592" lon="11.8798591"><ele>348.33333333333337</ele><time>2026-04-02T12:52:09.785Z</time></trkpt><trkpt lat="46.0315934" lon="11.8797967"><ele>349.6666666666667</ele><time>2026-04-02T12:52:12.785Z</time></trkpt><trkpt lat="46.0315235" lon="11.8797248"><ele>351.0</ele><time>2026-04-02T12:52:15.785Z</time></trkpt><trkpt lat="46.0314478" lon="11.8796574"><ele>352.3333333333333</ele><time>2026-04-02T12:52:18.783Z</time></trkpt><trkpt lat="46.0313804" lon="11.8795765"><ele>353.66666666666663</ele><time>2026-04-02T12:52:21.784Z</time></trkpt><trkpt lat="46.0313188" lon="11.8794857"><ele>355.0</ele><time>2026-04-02T12:52:24.784Z</time></trkpt><trkpt lat="46.0312594" lon="11.8794055"><ele>355.0</ele><time>2026-04-02T12:52:27.785Z</time></trkpt><trkpt lat="46.0312086" lon="11.879335"><ele>355.0</ele><time>2026-04-02T12:52:30.785Z</time></trkpt><trkpt lat="46.0311427" lon="11.879309"><ele>355.0</ele><time>2026-04-02T12:52:33.785Z</time></trkpt><trkpt lat="46.0310795" lon="11.8792899"><ele>355.0</ele><time>2026-04-02T12:52:36.785Z</time></trkpt><trkpt lat="46.0310813" lon="11.8791908"><ele>355.0</ele><time>2026-04-02T12:52:40.785Z</time></trkpt><trkpt lat="46.0311391" lon="11.8791071"><ele>355.0</ele><time>2026-04-02T12:52:44.782Z</time></trkpt><trkpt lat="46.0311941" lon="11.8790396"><ele>355.0</ele><time>2026-04-02T12:52:47.782Z</time></trkpt><trkpt lat="46.0312566" lon="11.8789938"><ele>355.0</ele><time>2026-04-02T12:52:50.784Z</time></trkpt><trkpt lat="46.0313304" lon="11.8789923"><ele>355.0</ele><time>2026-04-02T12:52:53.782Z</time></trkpt><trkpt lat="46.0313769" lon="11.8790584"><ele>355.0</ele><time>2026-04-02T12:52:56.786Z</time></trkpt><trkpt lat="46.0314215" lon="11.8791224"><ele>355.0</ele><time>2026-04-02T12:53:00.785Z</time></trkpt><trkpt lat="46.0314847" lon="11.8791825"><ele>355.0</ele><time>2026-04-02T12:54:59.781Z</time></trkpt><trkpt lat="46.031482" lon="11.8792938"><ele>355.0</ele><time>2026-04-02T12:57:17.783Z</time></trkpt><trkpt lat="46.0314208" lon="11.8793576"><ele>355.0</ele><time>2026-04-02T12:57:22.783Z</time></trkpt><trkpt lat="46.0314508" lon="11.8792625"><ele>355.42857142857144</ele><time>2026-04-02T12:57:38.782Z</time></trkpt><trkpt lat="46.0314573" lon="11.8791687"><ele>355.8571428571429</ele><time>2026-04-02T12:57:44.78Z</time></trkpt><trkpt lat="46.0314014" lon="11.879115"><ele>356.28571428571433</ele><time>2026-04-02T12:57:50.781Z</time></trkpt><trkpt lat="46.0313666" lon="11.8790295"><ele>356.7142857142857</ele><time>2026-04-02T12:57:54.783Z</time></trkpt><trkpt lat="46.0313058" lon="11.878983"><ele>357.14285714285717</ele><time>2026-04-02T12:57:57.783Z</time></trkpt><trkpt lat="46.0312407" lon="11.8790086"><ele>357.5714285714286</ele><time>2026-04-02T12:58:00.785Z</time></trkpt><trkpt lat="46.0311888" lon="11.8790643"><ele>358.0</ele><time>2026-04-02T12:58:03.785Z</time></trkpt><trkpt lat="46.0311342" lon="11.8791346"><ele>358.00000000000006</ele><time>2026-04-02T12:58:06.781Z</time></trkpt><trkpt lat="46.0311194" lon="11.8792299"><ele>358.0</ele><time>2026-04-02T12:58:09.784Z</time></trkpt><trkpt lat="46.0311693" lon="11.8793109"><ele>358.0</ele><time>2026-04-02T12:58:12.785Z</time></trkpt><trkpt lat="46.0312278" lon="11.8793959"><ele>358.0</ele><time>2026-04-02T12:58:15.785Z</time></trkpt><trkpt lat="46.0312734" lon="11.8794614"><ele>358.0</ele><time>2026-04-02T12:58:17.785Z</time></trkpt><trkpt lat="46.0313251" lon="11.8795327"><ele>358.00000000000006</ele><time>2026-04-02T12:58:19.784Z</time></trkpt><trkpt lat="46.0313866" lon="11.879604"><ele>358.0</ele><time>2026-04-02T12:58:21.785Z</time></trkpt><trkpt lat="46.0314592" lon="11.8796798"><ele>357.5</ele><time>2026-04-02T12:58:23.785Z</time></trkpt><trkpt lat="46.0315326" lon="11.8797483"><ele>357.0</ele><time>2026-04-02T12:58:25.785Z</time></trkpt><trkpt lat="46.0316052" lon="11.879822"><ele>356.5</ele><time>2026-04-02T12:58:27.783Z</time></trkpt><trkpt lat="46.0316727" lon="11.8798881"><ele>356.0</ele><time>2026-04-02T12:58:29.785Z</time></trkpt><trkpt lat="46.0317403" lon="11.8799599"><ele>355.5</ele><time>2026-04-02T12:58:31.783Z</time></trkpt><trkpt lat="46.0317856" lon="11.8800346"><ele>355.0</ele><time>2026-04-02T12:58:33.785Z</time></trkpt><trkpt lat="46.0318457" lon="11.8801073"><ele>353.66666666666663</ele><time>2026-04-02T12:58:35.785Z</time></trkpt><trkpt lat="46.0319225" lon="11.8801786"><ele>352.3333333333333</ele><time>2026-04-02T12:58:37.785Z</time></trkpt><trkpt lat="46.0320006" lon="11.8802498"><ele>351.0</ele><time>2026-04-02T12:58:39.784Z</time></trkpt><trkpt lat="46.0320744" lon="11.8803107"><ele>349.6666666666667</ele><time>2026-04-02T12:58:41.782Z</time></trkpt><trkpt lat="46.0321441" lon="11.880365"><ele>348.33333333333337</ele><time>2026-04-02T12:58:43.785Z</time></trkpt><trkpt lat="46.0322134" lon="11.8803874"><ele>347.0</ele><time>2026-04-02T12:58:45.782Z</time></trkpt><trkpt lat="46.0322755" lon="11.8804044"><ele>347.0</ele><time>2026-04-02T12:58:47.783Z</time></trkpt><trkpt lat="46.0323433" lon="11.8804805"><ele>347.0</ele><time>2026-04-02T12:58:50.783Z</time></trkpt><trkpt lat="46.0323345" lon="11.8806005"><ele>347.0</ele><time>2026-04-02T12:58:53.784Z</time></trkpt><trkpt lat="46.032356" lon="11.8807091"><ele>347.0</ele><time>2026-04-02T12:58:56.785Z</time></trkpt><trkpt lat="46.0324082" lon="11.880817"><ele>347.0</ele><time>2026-04-02T12:58:59.783Z</time></trkpt><trkpt lat="46.032445" lon="11.8808947"><ele>347.0</ele><time>2026-04-02T12:59:01.783Z</time></trkpt><trkpt lat="46.0324749" lon="11.8809843"><ele>346.5714285714286</ele><time>2026-04-02T12:59:03.783Z</time></trkpt><trkpt lat="46.0324994" lon="11.8810784"><ele>346.1428571428571</ele><time>2026-04-02T12:59:05.783Z</time></trkpt><trkpt lat="46.0325306" lon="11.8811764"><ele>345.7142857142857</ele><time>2026-04-02T12:59:07.781Z</time></trkpt><trkpt lat="46.0325589" lon="11.881266"><ele>345.28571428571433</ele><time>2026-04-02T12:59:09.784Z</time></trkpt><trkpt lat="46.0325829" lon="11.8813575"><ele>344.8571428571429</ele><time>2026-04-02T12:59:11.783Z</time></trkpt><trkpt lat="46.0326008" lon="11.8814497"><ele>344.42857142857144</ele><time>2026-04-02T12:59:13.784Z</time></trkpt><trkpt lat="46.0326119" lon="11.8815645"><ele>344.0</ele><time>2026-04-02T12:59:15.784Z</time></trkpt><trkpt lat="46.032625" lon="11.8816853"><ele>344.0</ele><time>2026-04-02T12:59:17.782Z</time></trkpt><trkpt lat="46.0326385" lon="11.8818124"><ele>344.0</ele><time>2026-04-02T12:59:19.784Z</time></trkpt><trkpt lat="46.0326477" lon="11.8819461"><ele>344.0</ele><time>2026-04-02T12:59:21.785Z</time></trkpt><trkpt lat="46.0326497" lon="11.8820835"><ele>344.0</ele><time>2026-04-02T12:59:23.785Z</time></trkpt><trkpt lat="46.0326486" lon="11.8822163"><ele>344.0</ele><time>2026-04-02T12:59:25.785Z</time></trkpt><trkpt lat="46.0326491" lon="11.8823562"><ele>344.0</ele><time>2026-04-02T12:59:27.784Z</time></trkpt><trkpt lat="46.0326558" lon="11.8824921"><ele>344.0</ele><time>2026-04-02T12:59:29.781Z</time></trkpt><trkpt lat="46.0326597" lon="11.8826268"><ele>344.0</ele><time>2026-04-02T12:59:31.781Z</time></trkpt><trkpt lat="46.032668" lon="11.8827568"><ele>344.0</ele><time>2026-04-02T12:59:33.783Z</time></trkpt><trkpt lat="46.0326835" lon="11.882895"><ele>344.0</ele><time>2026-04-02T12:59:35.785Z</time></trkpt><trkpt lat="46.0327126" lon="11.8830326"><ele>343.2</ele><time>2026-04-02T12:59:37.784Z</time></trkpt><trkpt lat="46.0327421" lon="11.8831713"><ele>342.4</ele><time>2026-04-02T12:59:39.784Z</time></trkpt><trkpt lat="46.0327687" lon="11.8833092"><ele>341.6</ele><time>2026-04-02T12:59:41.783Z</time></trkpt><trkpt lat="46.0327667" lon="11.8834591"><ele>340.8</ele><time>2026-04-02T12:59:43.783Z</time></trkpt><trkpt lat="46.0327478" lon="11.8836392"><ele>340.0</ele><time>2026-04-02T12:59:45.784Z</time></trkpt><trkpt lat="46.0327419" lon="11.8838001"><ele>339.5</ele><time>2026-04-02T12:59:47.785Z</time></trkpt><trkpt lat="46.0327682" lon="11.8839143"><ele>339.0</ele><time>2026-04-02T12:59:49.785Z</time></trkpt><trkpt lat="46.0328215" lon="11.8839975"><ele>338.5</ele><time>2026-04-02T12:59:51.783Z</time></trkpt><trkpt lat="46.0328906" lon="11.8840424"><ele>338.0</ele><time>2026-04-02T12:59:53.784Z</time></trkpt><trkpt lat="46.0329658" lon="11.8840499"><ele>337.5</ele><time>2026-04-02T12:59:55.784Z</time></trkpt><trkpt lat="46.0330597" lon="11.8840301"><ele>337.0</ele><time>2026-04-02T12:59:57.784Z</time></trkpt><trkpt lat="46.0331564" lon="11.884003"><ele>337.0</ele><time>2026-04-02T12:59:59.785Z</time></trkpt><trkpt lat="46.0332555" lon="11.8839758"><ele>337.0</ele><time>2026-04-02T13:00:01.783Z</time></trkpt><trkpt lat="46.0333553" lon="11.8839553"><ele>337.0</ele><time>2026-04-02T13:00:03.784Z</time></trkpt><trkpt lat="46.0334516" lon="11.8839182"><ele>337.0</ele><time>2026-04-02T13:00:05.785Z</time></trkpt><trkpt lat="46.0335523" lon="11.8838837"><ele>337.0</ele><time>2026-04-02T13:00:07.785Z</time></trkpt><trkpt lat="46.033648" lon="11.8838463"><ele>336.8</ele><time>2026-04-02T13:00:09.784Z</time></trkpt><trkpt lat="46.0337415" lon="11.8838159"><ele>336.6</ele><time>2026-04-02T13:00:11.785Z</time></trkpt><trkpt lat="46.0338343" lon="11.8837823"><ele>336.40000000000003</ele><time>2026-04-02T13:00:13.784Z</time></trkpt><trkpt lat="46.0339266" lon="11.8837462"><ele>336.20000000000005</ele><time>2026-04-02T13:00:15.783Z</time></trkpt><trkpt lat="46.0340012" lon="11.8836911"><ele>336.0</ele><time>2026-04-02T13:00:17.784Z</time></trkpt><trkpt lat="46.0340738" lon="11.8836294"><ele>336.5</ele><time>2026-04-02T13:00:19.785Z</time></trkpt><trkpt lat="46.0341416" lon="11.883546"><ele>337.0</ele><time>2026-04-02T13:00:21.784Z</time></trkpt><trkpt lat="46.0342125" lon="11.8834435"><ele>337.5</ele><time>2026-04-02T13:00:23.785Z</time></trkpt><trkpt lat="46.0342758" lon="11.8833554"><ele>338.0</ele><time>2026-04-02T13:00:25.783Z</time></trkpt><trkpt lat="46.0343378" lon="11.8832758"><ele>338.5</ele><time>2026-04-02T13:00:28.784Z</time></trkpt><trkpt lat="46.0344055" lon="11.8832184"><ele>339.0</ele><time>2026-04-02T13:00:31.785Z</time></trkpt><trkpt lat="46.0344809" lon="11.8831705"><ele>339.0</ele><time>2026-04-02T13:00:33.783Z</time></trkpt><trkpt lat="46.0345611" lon="11.8831094"><ele>339.0</ele><time>2026-04-02T13:00:35.785Z</time></trkpt><trkpt lat="46.034632" lon="11.8830247"><ele>339.0</ele><time>2026-04-02T13:00:37.785Z</time></trkpt><trkpt lat="46.0346818" lon="11.8829481"><ele>339.0</ele><time>2026-04-02T13:00:39.783Z</time></trkpt><trkpt lat="46.034741" lon="11.8828559"><ele>339.0</ele><time>2026-04-02T13:00:41.785Z</time></trkpt><trkpt lat="46.0347894" lon="11.8827587"><ele>339.0</ele><time>2026-04-02T13:00:43.785Z</time></trkpt><trkpt lat="46.0348346" lon="11.8826504"><ele>339.2</ele><time>2026-04-02T13:00:45.784Z</time></trkpt><trkpt lat="46.0348761" lon="11.8825338"><ele>339.4</ele><time>2026-04-02T13:00:47.785Z</time></trkpt><trkpt lat="46.0349035" lon="11.8824131"><ele>339.6</ele><time>2026-04-02T13:00:49.783Z</time></trkpt><trkpt lat="46.0349305" lon="11.8822877"><ele>339.8</ele><time>2026-04-02T13:00:51.785Z</time></trkpt><trkpt lat="46.0349656" lon="11.8821669"><ele>340.0</ele><time>2026-04-02T13:00:53.784Z</time></trkpt><trkpt lat="46.0349925" lon="11.8820317"><ele>340.0</ele><time>2026-04-02T13:00:55.782Z</time></trkpt><trkpt lat="46.0350074" lon="11.8818965"><ele>340.0</ele><time>2026-04-02T13:00:57.785Z</time></trkpt><trkpt lat="46.0350151" lon="11.8817702"><ele>340.0</ele><time>2026-04-02T13:00:59.785Z</time></trkpt><trkpt lat="46.0350567" lon="11.8816753"><ele>340.0</ele><time>2026-04-02T13:01:01.784Z</time></trkpt><trkpt lat="46.0351433" lon="11.8816221"><ele>340.0</ele><time>2026-04-02T13:01:03.785Z</time></trkpt><trkpt lat="46.0352583" lon="11.8815964"><ele>339.8</ele><time>2026-04-02T13:01:05.785Z</time></trkpt><trkpt lat="46.0353689" lon="11.8815387"><ele>339.6</ele><time>2026-04-02T13:01:07.784Z</time></trkpt><trkpt lat="46.0354662" lon="11.8814611"><ele>339.4</ele><time>2026-04-02T13:01:09.782Z</time></trkpt><trkpt lat="46.0355437" lon="11.8813732"><ele>339.2</ele><time>2026-04-02T13:01:11.783Z</time></trkpt><trkpt lat="46.0356267" lon="11.8812881"><ele>339.0</ele><time>2026-04-02T13:01:13.785Z</time></trkpt><trkpt lat="46.035686" lon="11.8812417"><ele>339.0</ele><time>2026-04-02T13:01:15.785Z</time></trkpt><trkpt lat="46.0357424" lon="11.8811939"><ele>339.0</ele><time>2026-04-02T13:01:17.785Z</time></trkpt><trkpt lat="46.0358144" lon="11.8811436"><ele>339.0</ele><time>2026-04-02T13:01:19.782Z</time></trkpt><trkpt lat="46.0358715" lon="11.8810825"><ele>339.0</ele><time>2026-04-02T13:01:21.785Z</time></trkpt><trkpt lat="46.035928" lon="11.8810153"><ele>339.0</ele><time>2026-04-02T13:01:23.785Z</time></trkpt><trkpt lat="46.0359723" lon="11.8809429"><ele>339.0</ele><time>2026-04-02T13:01:25.782Z</time></trkpt><trkpt lat="46.0360116" lon="11.8808646"><ele>339.0</ele><time>2026-04-02T13:01:27.782Z</time></trkpt><trkpt lat="46.0360761" lon="11.8808039"><ele>338.0</ele><time>2026-04-02T13:01:29.783Z</time></trkpt><trkpt lat="46.0361469" lon="11.8807475"><ele>337.0</ele><time>2026-04-02T13:01:31.786Z</time></trkpt><trkpt lat="46.036213" lon="11.8806839"><ele>336.0</ele><time>2026-04-02T13:01:33.785Z</time></trkpt><trkpt lat="46.0362711" lon="11.8806347"><ele>335.0</ele><time>2026-04-02T13:01:35.785Z</time></trkpt><trkpt lat="46.0363435" lon="11.8805886"><ele>334.0</ele><time>2026-04-02T13:01:37.785Z</time></trkpt><trkpt lat="46.0364082" lon="11.8805448"><ele>333.0</ele><time>2026-04-02T13:01:39.783Z</time></trkpt><trkpt lat="46.0364854" lon="11.8804895"><ele>333.0</ele><time>2026-04-02T13:01:41.781Z</time></trkpt><trkpt lat="46.0365575" lon="11.8804266"><ele>333.0</ele><time>2026-04-02T13:01:43.782Z</time></trkpt><trkpt lat="46.0366389" lon="11.8803709"><ele>333.0</ele><time>2026-04-02T13:01:45.782Z</time></trkpt><trkpt lat="46.0367125" lon="11.8803273"><ele>333.0</ele><time>2026-04-02T13:01:47.782Z</time></trkpt><trkpt lat="46.0368078" lon="11.8803366"><ele>333.0</ele><time>2026-04-02T13:01:50.781Z</time></trkpt><trkpt lat="46.0368694" lon="11.8803621"><ele>333.0</ele><time>2026-04-02T13:01:52.781Z</time></trkpt><trkpt lat="46.0369302" lon="11.8804217"><ele>333.1666666666667</ele><time>2026-04-02T13:01:54.781Z</time></trkpt><trkpt lat="46.0369879" lon="11.8805008"><ele>333.3333333333333</ele><time>2026-04-02T13:01:56.783Z</time></trkpt><trkpt lat="46.0370329" lon="11.880581"><ele>333.5</ele><time>2026-04-02T13:01:58.783Z</time></trkpt><trkpt lat="46.0370948" lon="11.8806724"><ele>333.66666666666663</ele><time>2026-04-02T13:02:00.783Z</time></trkpt><trkpt lat="46.0371597" lon="11.8807778"><ele>333.8333333333333</ele><time>2026-04-02T13:02:02.783Z</time></trkpt><trkpt lat="46.0372303" lon="11.8808883"><ele>334.0</ele><time>2026-04-02T13:02:04.785Z</time></trkpt><trkpt lat="46.0372897" lon="11.880989"><ele>334.0</ele><time>2026-04-02T13:02:06.784Z</time></trkpt><trkpt lat="46.0373483" lon="11.8810852"><ele>334.0</ele><time>2026-04-02T13:02:08.783Z</time></trkpt><trkpt lat="46.0374125" lon="11.8811804"><ele>334.0</ele><time>2026-04-02T13:02:10.783Z</time></trkpt><trkpt lat="46.037471" lon="11.8812723"><ele>334.0</ele><time>2026-04-02T13:02:12.785Z</time></trkpt><trkpt lat="46.0375227" lon="11.8813693"><ele>334.0</ele><time>2026-04-02T13:02:14.784Z</time></trkpt><trkpt lat="46.0375519" lon="11.8814529"><ele>334.0</ele><time>2026-04-02T13:02:16.785Z</time></trkpt><trkpt lat="46.0375956" lon="11.8815421"><ele>334.0</ele><time>2026-04-02T13:02:18.786Z</time></trkpt><trkpt lat="46.0376445" lon="11.8816398"><ele>334.0</ele><time>2026-04-02T13:02:21.784Z</time></trkpt><trkpt lat="46.0375932" lon="11.8817051"><ele>334.0</ele><time>2026-04-02T13:02:25.783Z</time></trkpt><trkpt lat="46.0375268" lon="11.8817662"><ele>334.0</ele><time>2026-04-02T13:02:28.785Z</time></trkpt><trkpt lat="46.0374692" lon="11.8818085"><ele>334.0</ele><time>2026-04-02T13:02:30.784Z</time></trkpt><trkpt lat="46.0374013" lon="11.88185"><ele>334.0</ele><time>2026-04-02T13:02:32.785Z</time></trkpt><trkpt lat="46.0373314" lon="11.881905"><ele>334.0</ele><time>2026-04-02T13:02:34.783Z</time></trkpt><trkpt lat="46.0372552" lon="11.8819567"><ele>333.8333333333333</ele><time>2026-04-02T13:02:36.783Z</time></trkpt><trkpt lat="46.0371666" lon="11.8820276"><ele>333.66666666666663</ele><time>2026-04-02T13:02:38.785Z</time></trkpt><trkpt lat="46.0370806" lon="11.8820877"><ele>333.5</ele><time>2026-04-02T13:02:40.785Z</time></trkpt><trkpt lat="46.0370054" lon="11.882144"><ele>333.3333333333333</ele><time>2026-04-02T13:02:42.785Z</time></trkpt><trkpt lat="46.0369296" lon="11.8821906"><ele>333.1666666666667</ele><time>2026-04-02T13:02:44.785Z</time></trkpt><trkpt lat="46.0368596" lon="11.8822389"><ele>333.0</ele><time>2026-04-02T13:02:46.785Z</time></trkpt><trkpt lat="46.0367824" lon="11.8822899"><ele>333.0</ele><time>2026-04-02T13:02:48.783Z</time></trkpt><trkpt lat="46.0366894" lon="11.8823506"><ele>333.0</ele><time>2026-04-02T13:02:50.785Z</time></trkpt><trkpt lat="46.0366064" lon="11.8824107"><ele>333.0</ele><time>2026-04-02T13:02:52.784Z</time></trkpt><trkpt lat="46.036534" lon="11.8824725"><ele>333.0</ele><time>2026-04-02T13:02:54.785Z</time></trkpt><trkpt lat="46.0364769" lon="11.8825205"><ele>333.0</ele><time>2026-04-02T13:02:56.785Z</time></trkpt><trkpt lat="46.0363879" lon="11.8825928"><ele>333.0</ele><time>2026-04-02T13:02:59.785Z</time></trkpt><trkpt lat="46.036308" lon="11.8826481"><ele>331.79999999999995</ele><time>2026-04-02T13:03:01.783Z</time></trkpt><trkpt lat="46.0362216" lon="11.8827225"><ele>330.6</ele><time>2026-04-02T13:03:03.785Z</time></trkpt><trkpt lat="46.0361372" lon="11.8827944"><ele>329.4</ele><time>2026-04-02T13:03:05.785Z</time></trkpt><trkpt lat="46.036053" lon="11.8828404"><ele>328.20000000000005</ele><time>2026-04-02T13:03:07.784Z</time></trkpt><trkpt lat="46.0359577" lon="11.8829027"><ele>327.0</ele><time>2026-04-02T13:03:09.785Z</time></trkpt><trkpt lat="46.0358601" lon="11.8829762"><ele>328.40000000000003</ele><time>2026-04-02T13:03:11.784Z</time></trkpt><trkpt lat="46.0357594" lon="11.8830546"><ele>329.8</ele><time>2026-04-02T13:03:13.785Z</time></trkpt><trkpt lat="46.0356635" lon="11.8831399"><ele>331.2</ele><time>2026-04-02T13:03:15.785Z</time></trkpt><trkpt lat="46.035576" lon="11.8832183"><ele>332.6</ele><time>2026-04-02T13:03:17.785Z</time></trkpt><trkpt lat="46.0354908" lon="11.8832991"><ele>334.0</ele><time>2026-04-02T13:03:19.783Z</time></trkpt><trkpt lat="46.0354034" lon="11.8833843"><ele>332.6</ele><time>2026-04-02T13:03:21.785Z</time></trkpt><trkpt lat="46.0353236" lon="11.8834426"><ele>331.2</ele><time>2026-04-02T13:03:23.783Z</time></trkpt><trkpt lat="46.035241" lon="11.8835274"><ele>329.8</ele><time>2026-04-02T13:03:25.784Z</time></trkpt><trkpt lat="46.0351569" lon="11.8836064"><ele>328.40000000000003</ele><time>2026-04-02T13:03:27.784Z</time></trkpt><trkpt lat="46.0350674" lon="11.8837173"><ele>327.0</ele><time>2026-04-02T13:03:29.783Z</time></trkpt><trkpt lat="46.0349892" lon="11.8838025"><ele>326.6</ele><time>2026-04-02T13:03:31.785Z</time></trkpt><trkpt lat="46.0349101" lon="11.8839153"><ele>326.20000000000005</ele><time>2026-04-02T13:03:33.783Z</time></trkpt><trkpt lat="46.0348355" lon="11.8840156"><ele>325.8</ele><time>2026-04-02T13:03:35.785Z</time></trkpt><trkpt lat="46.0347733" lon="11.8841063"><ele>325.4</ele><time>2026-04-02T13:03:37.785Z</time></trkpt><trkpt lat="46.0347138" lon="11.8842255"><ele>325.0</ele><time>2026-04-02T13:03:39.781Z</time></trkpt><trkpt lat="46.0346952" lon="11.8843691"><ele>325.0</ele><time>2026-04-02T13:03:41.784Z</time></trkpt><trkpt lat="46.0347446" lon="11.8844865"><ele>325.0</ele><time>2026-04-02T13:03:43.783Z</time></trkpt><trkpt lat="46.0348066" lon="11.8845913"><ele>325.0</ele><time>2026-04-02T13:03:45.784Z</time></trkpt><trkpt lat="46.0348448" lon="11.8846925"><ele>325.0</ele><time>2026-04-02T13:03:47.782Z</time></trkpt><trkpt lat="46.034823" lon="11.8847884"><ele>325.0</ele><time>2026-04-02T13:03:49.784Z</time></trkpt><trkpt lat="46.0347663" lon="11.884862"><ele>325.0</ele><time>2026-04-02T13:03:51.784Z</time></trkpt><trkpt lat="46.0346976" lon="11.8849436"><ele>325.0</ele><time>2026-04-02T13:03:53.781Z</time></trkpt><trkpt lat="46.0346292" lon="11.8850248"><ele>325.0</ele><time>2026-04-02T13:03:55.785Z</time></trkpt><trkpt lat="46.0345607" lon="11.8851184"><ele>325.0</ele><time>2026-04-02T13:03:57.783Z</time></trkpt><trkpt lat="46.0344835" lon="11.8852226"><ele>325.0</ele><time>2026-04-02T13:03:59.782Z</time></trkpt><trkpt lat="46.0344078" lon="11.8853211"><ele>325.0</ele><time>2026-04-02T13:04:01.785Z</time></trkpt><trkpt lat="46.0343289" lon="11.8854281"><ele>324.75</ele><time>2026-04-02T13:04:03.784Z</time></trkpt><trkpt lat="46.034246" lon="11.885547"><ele>324.5</ele><time>2026-04-02T13:04:05.784Z</time></trkpt><trkpt lat="46.0341545" lon="11.8856623"><ele>324.25</ele><time>2026-04-02T13:04:07.783Z</time></trkpt><trkpt lat="46.0340644" lon="11.8857655"><ele>324.0</ele><time>2026-04-02T13:04:09.784Z</time></trkpt><trkpt lat="46.033979" lon="11.8858826"><ele>323.6</ele><time>2026-04-02T13:04:11.784Z</time></trkpt><trkpt lat="46.0338879" lon="11.8860058"><ele>323.2</ele><time>2026-04-02T13:04:13.781Z</time></trkpt><trkpt lat="46.0338403" lon="11.8860701"><ele>322.8</ele><time>2026-04-02T13:04:14.785Z</time></trkpt><trkpt lat="46.0337523" lon="11.8861967"><ele>322.40000000000003</ele><time>2026-04-02T13:04:16.784Z</time></trkpt><trkpt lat="46.0336668" lon="11.886325"><ele>322.0</ele><time>2026-04-02T13:04:18.782Z</time></trkpt><trkpt lat="46.0336338" lon="11.8864059"><ele>322.0</ele><time>2026-04-02T13:04:19.784Z</time></trkpt><trkpt lat="46.0336038" lon="11.8864905"><ele>322.0</ele><time>2026-04-02T13:04:20.785Z</time></trkpt><trkpt lat="46.0335366" lon="11.8866423"><ele>322.0</ele><time>2026-04-02T13:04:22.781Z</time></trkpt><trkpt lat="46.0334742" lon="11.8867863"><ele>322.0</ele><time>2026-04-02T13:04:24.785Z</time></trkpt><trkpt lat="46.0334399" lon="11.8868669"><ele>322.0</ele><time>2026-04-02T13:04:25.783Z</time></trkpt><trkpt lat="46.0333852" lon="11.8870253"><ele>321.40000000000003</ele><time>2026-04-02T13:04:27.784Z</time></trkpt><trkpt lat="46.0333355" lon="11.8871695"><ele>320.8</ele><time>2026-04-02T13:04:29.784Z</time></trkpt><trkpt lat="46.0332879" lon="11.8873115"><ele>320.2</ele><time>2026-04-02T13:04:31.783Z</time></trkpt><trkpt lat="46.033235" lon="11.8874669"><ele>319.6</ele><time>2026-04-02T13:04:33.785Z</time></trkpt><trkpt lat="46.0332029" lon="11.8875487"><ele>319.0</ele><time>2026-04-02T13:04:34.783Z</time></trkpt><trkpt lat="46.0331721" lon="11.8876338"><ele>318.0</ele><time>2026-04-02T13:04:35.783Z</time></trkpt><trkpt lat="46.0331443" lon="11.8877185"><ele>317.0</ele><time>2026-04-02T13:04:36.784Z</time></trkpt><trkpt lat="46.0331213" lon="11.8878064"><ele>316.0</ele><time>2026-04-02T13:04:37.784Z</time></trkpt><trkpt lat="46.0330834" lon="11.8879793"><ele>315.0</ele><time>2026-04-02T13:04:39.784Z</time></trkpt><trkpt lat="46.0330424" lon="11.8881388"><ele>314.0</ele><time>2026-04-02T13:04:41.785Z</time></trkpt><trkpt lat="46.0330016" lon="11.8882892"><ele>313.8</ele><time>2026-04-02T13:04:43.782Z</time></trkpt><trkpt lat="46.032969" lon="11.8884264"><ele>313.59999999999997</ele><time>2026-04-02T13:04:45.783Z</time></trkpt><trkpt lat="46.0329371" lon="11.8885596"><ele>313.4</ele><time>2026-04-02T13:04:47.784Z</time></trkpt><trkpt lat="46.0329143" lon="11.8886674"><ele>313.2</ele><time>2026-04-02T13:04:49.784Z</time></trkpt><trkpt lat="46.0328871" lon="11.8887902"><ele>313.0</ele><time>2026-04-02T13:04:51.783Z</time></trkpt><trkpt lat="46.0328641" lon="11.8889112"><ele>313.0</ele><time>2026-04-02T13:04:53.785Z</time></trkpt><trkpt lat="46.0328423" lon="11.8890348"><ele>313.0</ele><time>2026-04-02T13:04:55.783Z</time></trkpt><trkpt lat="46.032822" lon="11.8891875"><ele>313.0</ele><time>2026-04-02T13:04:57.783Z</time></trkpt><trkpt lat="46.0327967" lon="11.8893205"><ele>313.0</ele><time>2026-04-02T13:04:59.784Z</time></trkpt><trkpt lat="46.0327536" lon="11.8894797"><ele>313.0</ele><time>2026-04-02T13:05:01.785Z</time></trkpt><trkpt lat="46.0327207" lon="11.8896416"><ele>312.75</ele><time>2026-04-02T13:05:03.784Z</time></trkpt><trkpt lat="46.0327027" lon="11.889807"><ele>312.5</ele><time>2026-04-02T13:05:05.786Z</time></trkpt><trkpt lat="46.0326941" lon="11.8899833"><ele>312.25</ele><time>2026-04-02T13:05:07.785Z</time></trkpt><trkpt lat="46.0326819" lon="11.8901573"><ele>312.0</ele><time>2026-04-02T13:05:09.784Z</time></trkpt><trkpt lat="46.0326658" lon="11.8903257"><ele>311.4</ele><time>2026-04-02T13:05:11.785Z</time></trkpt><trkpt lat="46.0326489" lon="11.890491"><ele>310.79999999999995</ele><time>2026-04-02T13:05:13.786Z</time></trkpt><trkpt lat="46.032631" lon="11.8906301"><ele>310.2</ele><time>2026-04-02T13:05:15.783Z</time></trkpt><trkpt lat="46.0326112" lon="11.8907738"><ele>309.59999999999997</ele><time>2026-04-02T13:05:17.785Z</time></trkpt><trkpt lat="46.0325848" lon="11.890911"><ele>309.0</ele><time>2026-04-02T13:05:19.783Z</time></trkpt><trkpt lat="46.0325669" lon="11.8910704"><ele>308.59999999999997</ele><time>2026-04-02T13:05:21.785Z</time></trkpt><trkpt lat="46.0325619" lon="11.8912315"><ele>308.2</ele><time>2026-04-02T13:05:23.784Z</time></trkpt><trkpt lat="46.0325745" lon="11.8913959"><ele>307.79999999999995</ele><time>2026-04-02T13:05:25.785Z</time></trkpt><trkpt lat="46.0325832" lon="11.891527"><ele>307.4</ele><time>2026-04-02T13:05:27.781Z</time></trkpt><trkpt lat="46.0325797" lon="11.8916415"><ele>307.0</ele><time>2026-04-02T13:05:29.786Z</time></trkpt><trkpt lat="46.0325538" lon="11.8917424"><ele>306.8333333333333</ele><time>2026-04-02T13:05:31.786Z</time></trkpt><trkpt lat="46.0325234" lon="11.8918765"><ele>306.66666666666663</ele><time>2026-04-02T13:05:34.785Z</time></trkpt><trkpt lat="46.0325075" lon="11.8919969"><ele>306.5</ele><time>2026-04-02T13:05:36.786Z</time></trkpt><trkpt lat="46.0324954" lon="11.8921194"><ele>306.3333333333333</ele><time>2026-04-02T13:05:38.786Z</time></trkpt><trkpt lat="46.0324803" lon="11.8922401"><ele>306.1666666666667</ele><time>2026-04-02T13:05:40.786Z</time></trkpt><trkpt lat="46.0324672" lon="11.8923733"><ele>306.0</ele><time>2026-04-02T13:05:42.786Z</time></trkpt><trkpt lat="46.0324574" lon="11.8924979"><ele>306.0</ele><time>2026-04-02T13:05:44.786Z</time></trkpt><trkpt lat="46.0324476" lon="11.8926166"><ele>306.0</ele><time>2026-04-02T13:05:46.785Z</time></trkpt><trkpt lat="46.0324364" lon="11.8927499"><ele>306.0</ele><time>2026-04-02T13:05:48.785Z</time></trkpt><trkpt lat="46.0324294" lon="11.892863"><ele>306.0</ele><time>2026-04-02T13:05:50.786Z</time></trkpt><trkpt lat="46.0324225" lon="11.8929896"><ele>306.0</ele><time>2026-04-02T13:05:52.785Z</time></trkpt><trkpt lat="46.0324163" lon="11.8931145"><ele>306.0</ele><time>2026-04-02T13:05:54.785Z</time></trkpt><trkpt lat="46.0324117" lon="11.893226"><ele>306.0</ele><time>2026-04-02T13:05:56.786Z</time></trkpt><trkpt lat="46.0324062" lon="11.8933647"><ele>306.0</ele><time>2026-04-02T13:05:58.785Z</time></trkpt><trkpt lat="46.032431" lon="11.8935147"><ele>306.0</ele><time>2026-04-02T13:06:00.786Z</time></trkpt><trkpt lat="46.0324822" lon="11.8936667"><ele>306.0</ele><time>2026-04-02T13:06:02.783Z</time></trkpt><trkpt lat="46.0325342" lon="11.8938091"><ele>306.0</ele><time>2026-04-02T13:06:04.783Z</time></trkpt><trkpt lat="46.0325849" lon="11.8939442"><ele>305.3333333333333</ele><time>2026-04-02T13:06:06.786Z</time></trkpt><trkpt lat="46.0326171" lon="11.8940797"><ele>304.6666666666667</ele><time>2026-04-02T13:06:08.785Z</time></trkpt><trkpt lat="46.0326114" lon="11.8941902"><ele>304.0</ele><time>2026-04-02T13:06:10.783Z</time></trkpt><trkpt lat="46.0325991" lon="11.8942842"><ele>303.33333333333337</ele><time>2026-04-02T13:06:12.783Z</time></trkpt><trkpt lat="46.0325844" lon="11.8944043"><ele>302.6666666666667</ele><time>2026-04-02T13:06:15.786Z</time></trkpt><trkpt lat="46.0325467" lon="11.8945136"><ele>302.0</ele><time>2026-04-02T13:06:18.786Z</time></trkpt><trkpt lat="46.0324873" lon="11.8945666"><ele>301.83333333333337</ele><time>2026-04-02T13:06:20.784Z</time></trkpt><trkpt lat="46.0324184" lon="11.8946083"><ele>301.6666666666667</ele><time>2026-04-02T13:06:22.783Z</time></trkpt><trkpt lat="46.0323465" lon="11.8946645"><ele>301.5</ele><time>2026-04-02T13:06:24.782Z</time></trkpt><trkpt lat="46.0322779" lon="11.8947353"><ele>301.3333333333333</ele><time>2026-04-02T13:06:26.784Z</time></trkpt><trkpt lat="46.0322202" lon="11.8948319"><ele>301.16666666666663</ele><time>2026-04-02T13:06:28.784Z</time></trkpt><trkpt lat="46.0321731" lon="11.8949428"><ele>301.0</ele><time>2026-04-02T13:06:30.784Z</time></trkpt><trkpt lat="46.0321316" lon="11.8950538"><ele>300.8</ele><time>2026-04-02T13:06:32.784Z</time></trkpt><trkpt lat="46.0320909" lon="11.8951763"><ele>300.6</ele><time>2026-04-02T13:06:34.785Z</time></trkpt><trkpt lat="46.0320439" lon="11.8952926"><ele>300.4</ele><time>2026-04-02T13:06:36.786Z</time></trkpt><trkpt lat="46.032004" lon="11.8954059"><ele>300.2</ele><time>2026-04-02T13:06:38.783Z</time></trkpt><trkpt lat="46.0319606" lon="11.8955298"><ele>300.0</ele><time>2026-04-02T13:06:40.785Z</time></trkpt><trkpt lat="46.0319122" lon="11.8956407"><ele>300.0</ele><time>2026-04-02T13:06:42.785Z</time></trkpt><trkpt lat="46.0318656" lon="11.895738"><ele>300.0</ele><time>2026-04-02T13:06:44.785Z</time></trkpt><trkpt lat="46.0318196" lon="11.8958405"><ele>300.0</ele><time>2026-04-02T13:06:46.785Z</time></trkpt><trkpt lat="46.0317827" lon="11.8959438"><ele>300.0</ele><time>2026-04-02T13:06:48.785Z</time></trkpt><trkpt lat="46.0317396" lon="11.8960491"><ele>300.0</ele><time>2026-04-02T13:06:50.786Z</time></trkpt><trkpt lat="46.0316957" lon="11.8961473"><ele>300.0</ele><time>2026-04-02T13:06:52.786Z</time></trkpt><trkpt lat="46.0316567" lon="11.8962336"><ele>299.57142857142856</ele><time>2026-04-02T13:06:54.783Z</time></trkpt><trkpt lat="46.0316199" lon="11.896317"><ele>299.1428571428571</ele><time>2026-04-02T13:06:56.785Z</time></trkpt><trkpt lat="46.0315777" lon="11.8964057"><ele>298.7142857142857</ele><time>2026-04-02T13:06:59.785Z</time></trkpt><trkpt lat="46.0315407" lon="11.8964859"><ele>298.2857142857143</ele><time>2026-04-02T13:07:01.785Z</time></trkpt><trkpt lat="46.0315098" lon="11.8965667"><ele>297.8571428571429</ele><time>2026-04-02T13:07:03.784Z</time></trkpt><trkpt lat="46.0314687" lon="11.8966515"><ele>297.42857142857144</ele><time>2026-04-02T13:07:05.785Z</time></trkpt><trkpt lat="46.0314251" lon="11.8967458"><ele>297.0</ele><time>2026-04-02T13:07:07.786Z</time></trkpt><trkpt lat="46.0313748" lon="11.8968313"><ele>296.3333333333333</ele><time>2026-04-02T13:07:09.785Z</time></trkpt><trkpt lat="46.031325" lon="11.8969209"><ele>295.6666666666667</ele><time>2026-04-02T13:07:11.785Z</time></trkpt><trkpt lat="46.0312873" lon="11.8970162"><ele>295.0</ele><time>2026-04-02T13:07:13.784Z</time></trkpt><trkpt lat="46.0312477" lon="11.8971135"><ele>294.33333333333337</ele><time>2026-04-02T13:07:15.785Z</time></trkpt><trkpt lat="46.0312027" lon="11.8972284"><ele>293.6666666666667</ele><time>2026-04-02T13:07:17.785Z</time></trkpt><trkpt lat="46.0311359" lon="11.8973492"><ele>293.0</ele><time>2026-04-02T13:07:19.785Z</time></trkpt><trkpt lat="46.031062" lon="11.8974515"><ele>293.0</ele><time>2026-04-02T13:07:21.785Z</time></trkpt><trkpt lat="46.0309903" lon="11.8975563"><ele>293.0</ele><time>2026-04-02T13:07:23.785Z</time></trkpt><trkpt lat="46.0309076" lon="11.8976624"><ele>293.0</ele><time>2026-04-02T13:07:25.785Z</time></trkpt><trkpt lat="46.0308205" lon="11.897747"><ele>293.0</ele><time>2026-04-02T13:07:27.785Z</time></trkpt><trkpt lat="46.0307342" lon="11.8978217"><ele>293.0</ele><time>2026-04-02T13:07:29.784Z</time></trkpt><trkpt lat="46.0306487" lon="11.8978937"><ele>292.6</ele><time>2026-04-02T13:07:31.785Z</time></trkpt><trkpt lat="46.0305709" lon="11.8979604"><ele>292.20000000000005</ele><time>2026-04-02T13:07:33.785Z</time></trkpt><trkpt lat="46.0304875" lon="11.8980272"><ele>291.8</ele><time>2026-04-02T13:07:35.785Z</time></trkpt><trkpt lat="46.030405" lon="11.8981005"><ele>291.40000000000003</ele><time>2026-04-02T13:07:37.783Z</time></trkpt><trkpt lat="46.0303042" lon="11.8981719"><ele>291.0</ele><time>2026-04-02T13:07:39.785Z</time></trkpt><trkpt lat="46.0302052" lon="11.8982298"><ele>291.0</ele><time>2026-04-02T13:07:41.784Z</time></trkpt><trkpt lat="46.0301032" lon="11.8982779"><ele>291.0</ele><time>2026-04-02T13:07:43.783Z</time></trkpt><trkpt lat="46.0300034" lon="11.8983306"><ele>291.0</ele><time>2026-04-02T13:07:45.783Z</time></trkpt><trkpt lat="46.0299096" lon="11.8983775"><ele>291.0</ele><time>2026-04-02T13:07:47.785Z</time></trkpt><trkpt lat="46.0298205" lon="11.8984302"><ele>291.0</ele><time>2026-04-02T13:07:49.783Z</time></trkpt><trkpt lat="46.0297363" lon="11.898478"><ele>291.1666666666667</ele><time>2026-04-02T13:07:51.785Z</time></trkpt><trkpt lat="46.0296783" lon="11.8985487"><ele>291.3333333333333</ele><time>2026-04-02T13:07:53.785Z</time></trkpt><trkpt lat="46.0296894" lon="11.8986748"><ele>291.5</ele><time>2026-04-02T13:07:56.785Z</time></trkpt><trkpt lat="46.0297156" lon="11.8987814"><ele>291.66666666666663</ele><time>2026-04-02T13:07:58.785Z</time></trkpt><trkpt lat="46.0297385" lon="11.898897"><ele>291.8333333333333</ele><time>2026-04-02T13:08:00.783Z</time></trkpt><trkpt lat="46.0297647" lon="11.8990215"><ele>292.0</ele><time>2026-04-02T13:08:02.785Z</time></trkpt><trkpt lat="46.0297937" lon="11.8991411"><ele>291.8</ele><time>2026-04-02T13:08:04.784Z</time></trkpt><trkpt lat="46.0298373" lon="11.899255"><ele>291.6</ele><time>2026-04-02T13:08:06.785Z</time></trkpt><trkpt lat="46.0298777" lon="11.8993742"><ele>291.40000000000003</ele><time>2026-04-02T13:08:08.784Z</time></trkpt><trkpt lat="46.0299212" lon="11.8994954"><ele>291.2</ele><time>2026-04-02T13:08:10.782Z</time></trkpt><trkpt lat="46.0299821" lon="11.8995995"><ele>291.0</ele><time>2026-04-02T13:08:12.785Z</time></trkpt><trkpt lat="46.0300419" lon="11.8997115"><ele>291.0</ele><time>2026-04-02T13:08:14.786Z</time></trkpt><trkpt lat="46.0300563" lon="11.8998244"><ele>291.0</ele><time>2026-04-02T13:08:16.785Z</time></trkpt><trkpt lat="46.0300103" lon="11.8999133"><ele>291.0</ele><time>2026-04-02T13:08:18.784Z</time></trkpt><trkpt lat="46.029946" lon="11.8999956"><ele>291.0</ele><time>2026-04-02T13:08:20.784Z</time></trkpt><trkpt lat="46.0298801" lon="11.9000907"><ele>291.0</ele><time>2026-04-02T13:08:22.785Z</time></trkpt><trkpt lat="46.0298238" lon="11.9001845"><ele>291.0</ele><time>2026-04-02T13:08:24.784Z</time></trkpt><trkpt lat="46.0298118" lon="11.9002966"><ele>290.8</ele><time>2026-04-02T13:08:26.785Z</time></trkpt><trkpt lat="46.0298434" lon="11.9004287"><ele>290.6</ele><time>2026-04-02T13:08:28.786Z</time></trkpt><trkpt lat="46.0298897" lon="11.9005487"><ele>290.4</ele><time>2026-04-02T13:08:30.784Z</time></trkpt><trkpt lat="46.0299456" lon="11.9006656"><ele>290.2</ele><time>2026-04-02T13:08:32.785Z</time></trkpt><trkpt lat="46.0299993" lon="11.9007929"><ele>290.0</ele><time>2026-04-02T13:08:34.783Z</time></trkpt><trkpt lat="46.0300488" lon="11.9009199"><ele>289.8</ele><time>2026-04-02T13:08:36.785Z</time></trkpt><trkpt lat="46.0300843" lon="11.9010488"><ele>289.6</ele><time>2026-04-02T13:08:38.786Z</time></trkpt><trkpt lat="46.0301201" lon="11.9011794"><ele>289.4</ele><time>2026-04-02T13:08:40.785Z</time></trkpt><trkpt lat="46.0301524" lon="11.9013178"><ele>289.2</ele><time>2026-04-02T13:08:42.783Z</time></trkpt><trkpt lat="46.030181" lon="11.9014715"><ele>289.0</ele><time>2026-04-02T13:08:44.784Z</time></trkpt><trkpt lat="46.0302017" lon="11.9016314"><ele>288.8</ele><time>2026-04-02T13:08:46.785Z</time></trkpt><trkpt lat="46.0302121" lon="11.9017837"><ele>288.59999999999997</ele><time>2026-04-02T13:08:48.785Z</time></trkpt><trkpt lat="46.0302156" lon="11.901942"><ele>288.4</ele><time>2026-04-02T13:08:50.784Z</time></trkpt><trkpt lat="46.0302093" lon="11.9021002"><ele>288.2</ele><time>2026-04-02T13:08:52.785Z</time></trkpt><trkpt lat="46.0302036" lon="11.9022594"><ele>288.0</ele><time>2026-04-02T13:08:54.785Z</time></trkpt><trkpt lat="46.0301923" lon="11.9023991"><ele>288.0</ele><time>2026-04-02T13:08:56.786Z</time></trkpt><trkpt lat="46.0301686" lon="11.902528"><ele>288.0</ele><time>2026-04-02T13:08:58.782Z</time></trkpt><trkpt lat="46.0301456" lon="11.9026793"><ele>288.0</ele><time>2026-04-02T13:09:00.785Z</time></trkpt><trkpt lat="46.0301189" lon="11.9028303"><ele>288.0</ele><time>2026-04-02T13:09:02.785Z</time></trkpt><trkpt lat="46.0300915" lon="11.9029265"><ele>288.0</ele><time>2026-04-02T13:09:04.785Z</time></trkpt><trkpt lat="46.0300543" lon="11.9030222"><ele>288.2</ele><time>2026-04-02T13:09:06.786Z</time></trkpt><trkpt lat="46.0300079" lon="11.9031244"><ele>288.4</ele><time>2026-04-02T13:09:08.784Z</time></trkpt><trkpt lat="46.0299592" lon="11.9032348"><ele>288.59999999999997</ele><time>2026-04-02T13:09:10.785Z</time></trkpt><trkpt lat="46.0299029" lon="11.9033351"><ele>288.8</ele><time>2026-04-02T13:09:12.784Z</time></trkpt><trkpt lat="46.0298359" lon="11.9034597"><ele>289.0</ele><time>2026-04-02T13:09:14.786Z</time></trkpt><trkpt lat="46.0297691" lon="11.9035679"><ele>289.2</ele><time>2026-04-02T13:09:16.785Z</time></trkpt><trkpt lat="46.0297001" lon="11.9036787"><ele>289.4</ele><time>2026-04-02T13:09:18.784Z</time></trkpt><trkpt lat="46.0296321" lon="11.9037816"><ele>289.6</ele><time>2026-04-02T13:09:20.784Z</time></trkpt><trkpt lat="46.0295513" lon="11.903888"><ele>289.8</ele><time>2026-04-02T13:09:22.785Z</time></trkpt><trkpt lat="46.0294733" lon="11.9039793"><ele>290.0</ele><time>2026-04-02T13:09:24.783Z</time></trkpt><trkpt lat="46.0293941" lon="11.9040682"><ele>290.0</ele><time>2026-04-02T13:09:26.784Z</time></trkpt><trkpt lat="46.0293079" lon="11.9041404"><ele>290.0</ele><time>2026-04-02T13:09:28.784Z</time></trkpt><trkpt lat="46.0292123" lon="11.904204"><ele>290.0</ele><time>2026-04-02T13:09:30.786Z</time></trkpt><trkpt lat="46.0291195" lon="11.9042577"><ele>290.0</ele><time>2026-04-02T13:09:32.785Z</time></trkpt><trkpt lat="46.0290171" lon="11.9043094"><ele>290.0</ele><time>2026-04-02T13:09:34.785Z</time></trkpt><trkpt lat="46.0289207" lon="11.9043478"><ele>289.0</ele><time>2026-04-02T13:09:36.785Z</time></trkpt><trkpt lat="46.0288306" lon="11.9043687"><ele>288.0</ele><time>2026-04-02T13:09:38.784Z</time></trkpt><trkpt lat="46.0287398" lon="11.9043907"><ele>287.0</ele><time>2026-04-02T13:09:40.785Z</time></trkpt><trkpt lat="46.0286512" lon="11.9044036"><ele>286.0</ele><time>2026-04-02T13:09:42.785Z</time></trkpt><trkpt lat="46.0285623" lon="11.9044065"><ele>285.0</ele><time>2026-04-02T13:09:44.784Z</time></trkpt><trkpt lat="46.0284745" lon="11.9043931"><ele>285.0</ele><time>2026-04-02T13:09:46.785Z</time></trkpt><trkpt lat="46.0283858" lon="11.9044155"><ele>285.0</ele><time>2026-04-02T13:09:48.785Z</time></trkpt><trkpt lat="46.0283174" lon="11.9044604"><ele>285.0</ele><time>2026-04-02T13:09:50.785Z</time></trkpt><trkpt lat="46.0283068" lon="11.9045803"><ele>285.0</ele><time>2026-04-02T13:09:53.785Z</time></trkpt><trkpt lat="46.0283695" lon="11.9046264"><ele>285.0</ele><time>2026-04-02T13:09:55.785Z</time></trkpt><trkpt lat="46.0284409" lon="11.9046589"><ele>285.0</ele><time>2026-04-02T13:09:57.785Z</time></trkpt><trkpt lat="46.0285121" lon="11.9046891"><ele>285.0</ele><time>2026-04-02T13:09:59.785Z</time></trkpt><trkpt lat="46.028585" lon="11.9047225"><ele>285.0</ele><time>2026-04-02T13:10:01.785Z</time></trkpt><trkpt lat="46.0286566" lon="11.9047498"><ele>285.0</ele><time>2026-04-02T13:10:03.783Z</time></trkpt><trkpt lat="46.0287151" lon="11.9048"><ele>285.0</ele><time>2026-04-02T13:10:05.783Z</time></trkpt><trkpt lat="46.0287421" lon="11.9048956"><ele>285.0</ele><time>2026-04-02T13:10:07.783Z</time></trkpt><trkpt lat="46.0287329" lon="11.9049967"><ele>285.0</ele><time>2026-04-02T13:10:09.785Z</time></trkpt><trkpt lat="46.0287221" lon="11.9051045"><ele>285.0</ele><time>2026-04-02T13:10:11.785Z</time></trkpt><trkpt lat="46.0287033" lon="11.9052178"><ele>285.1666666666667</ele><time>2026-04-02T13:10:13.783Z</time></trkpt><trkpt lat="46.0286798" lon="11.9053288"><ele>285.3333333333333</ele><time>2026-04-02T13:10:15.782Z</time></trkpt><trkpt lat="46.0286556" lon="11.9054447"><ele>285.5</ele><time>2026-04-02T13:10:17.783Z</time></trkpt><trkpt lat="46.0286279" lon="11.9055781"><ele>285.66666666666663</ele><time>2026-04-02T13:10:19.785Z</time></trkpt><trkpt lat="46.0286022" lon="11.9057006"><ele>285.8333333333333</ele><time>2026-04-02T13:10:21.784Z</time></trkpt><trkpt lat="46.0285747" lon="11.9058162"><ele>286.0</ele><time>2026-04-02T13:10:23.785Z</time></trkpt><trkpt lat="46.0285405" lon="11.905939"><ele>286.0</ele><time>2026-04-02T13:10:25.784Z</time></trkpt><trkpt lat="46.0285073" lon="11.9060192"><ele>286.0</ele><time>2026-04-02T13:10:27.783Z</time></trkpt><trkpt lat="46.0284768" lon="11.9061202"><ele>286.0</ele><time>2026-04-02T13:10:29.783Z</time></trkpt><trkpt lat="46.0284545" lon="11.9062366"><ele>286.0</ele><time>2026-04-02T13:10:31.784Z</time></trkpt><trkpt lat="46.0284391" lon="11.9063519"><ele>286.0</ele><time>2026-04-02T13:10:33.784Z</time></trkpt><trkpt lat="46.028433" lon="11.9064591"><ele>286.0</ele><time>2026-04-02T13:10:35.783Z</time></trkpt><trkpt lat="46.0284356" lon="11.9065746"><ele>286.0</ele><time>2026-04-02T13:10:37.783Z</time></trkpt><trkpt lat="46.0284444" lon="11.9066966"><ele>286.0</ele><time>2026-04-02T13:10:39.783Z</time></trkpt><trkpt lat="46.0284478" lon="11.9068133"><ele>286.0</ele><time>2026-04-02T13:10:41.784Z</time></trkpt><trkpt lat="46.0284349" lon="11.9069496"><ele>286.0</ele><time>2026-04-02T13:10:43.783Z</time></trkpt><trkpt lat="46.0284176" lon="11.9070723"><ele>286.0</ele><time>2026-04-02T13:10:45.785Z</time></trkpt><trkpt lat="46.0283913" lon="11.9072016"><ele>286.0</ele><time>2026-04-02T13:10:47.785Z</time></trkpt><trkpt lat="46.0283604" lon="11.9073306"><ele>286.0</ele><time>2026-04-02T13:10:49.785Z</time></trkpt><trkpt lat="46.0283241" lon="11.9074454"><ele>286.0</ele><time>2026-04-02T13:10:51.784Z</time></trkpt><trkpt lat="46.0282903" lon="11.907561"><ele>286.0</ele><time>2026-04-02T13:10:53.784Z</time></trkpt><trkpt lat="46.0282706" lon="11.9076897"><ele>286.0</ele><time>2026-04-02T13:10:55.783Z</time></trkpt><trkpt lat="46.0282654" lon="11.9078304"><ele>286.0</ele><time>2026-04-02T13:10:57.783Z</time></trkpt><trkpt lat="46.0282677" lon="11.9079595"><ele>286.0</ele><time>2026-04-02T13:10:59.785Z</time></trkpt><trkpt lat="46.0282746" lon="11.9081005"><ele>286.0</ele><time>2026-04-02T13:11:01.785Z</time></trkpt><trkpt lat="46.0282895" lon="11.9082341"><ele>286.0</ele><time>2026-04-02T13:11:03.784Z</time></trkpt><trkpt lat="46.0283043" lon="11.9083571"><ele>286.0</ele><time>2026-04-02T13:11:05.785Z</time></trkpt><trkpt lat="46.0283275" lon="11.9084926"><ele>286.0</ele><time>2026-04-02T13:11:07.781Z</time></trkpt><trkpt lat="46.0283476" lon="11.9086319"><ele>286.0</ele><time>2026-04-02T13:11:09.785Z</time></trkpt><trkpt lat="46.0283617" lon="11.9087491"><ele>286.0</ele><time>2026-04-02T13:11:11.783Z</time></trkpt><trkpt lat="46.0283739" lon="11.9088611"><ele>286.0</ele><time>2026-04-02T13:11:13.784Z</time></trkpt><trkpt lat="46.028391" lon="11.9089696"><ele>286.0</ele><time>2026-04-02T13:11:15.785Z</time></trkpt><trkpt lat="46.0284056" lon="11.9090835"><ele>286.0</ele><time>2026-04-02T13:11:17.783Z</time></trkpt><trkpt lat="46.0284231" lon="11.9092126"><ele>286.0</ele><time>2026-04-02T13:11:19.783Z</time></trkpt><trkpt lat="46.0284389" lon="11.9093478"><ele>286.0</ele><time>2026-04-02T13:11:21.785Z</time></trkpt><trkpt lat="46.0284509" lon="11.9094721"><ele>286.0</ele><time>2026-04-02T13:11:23.783Z</time></trkpt><trkpt lat="46.0284618" lon="11.9095894"><ele>286.0</ele><time>2026-04-02T13:11:25.783Z</time></trkpt><trkpt lat="46.0284688" lon="11.9097162"><ele>286.0</ele><time>2026-04-02T13:11:27.783Z</time></trkpt><trkpt lat="46.028476" lon="11.9098546"><ele>286.0</ele><time>2026-04-02T13:11:29.782Z</time></trkpt><trkpt lat="46.028484" lon="11.9099979"><ele>286.2</ele><time>2026-04-02T13:11:31.782Z</time></trkpt><trkpt lat="46.0284888" lon="11.91013"><ele>286.40000000000003</ele><time>2026-04-02T13:11:33.785Z</time></trkpt><trkpt lat="46.0284903" lon="11.9102617"><ele>286.6</ele><time>2026-04-02T13:11:35.785Z</time></trkpt><trkpt lat="46.0284871" lon="11.9103963"><ele>286.8</ele><time>2026-04-02T13:11:37.783Z</time></trkpt><trkpt lat="46.0284855" lon="11.9105339"><ele>287.0</ele><time>2026-04-02T13:11:39.783Z</time></trkpt><trkpt lat="46.0284872" lon="11.9106674"><ele>287.0</ele><time>2026-04-02T13:11:41.783Z</time></trkpt><trkpt lat="46.0284981" lon="11.9108055"><ele>287.0</ele><time>2026-04-02T13:11:43.785Z</time></trkpt><trkpt lat="46.0285062" lon="11.9109294"><ele>287.0</ele><time>2026-04-02T13:11:45.785Z</time></trkpt><trkpt lat="46.0285109" lon="11.9110565"><ele>287.0</ele><time>2026-04-02T13:11:47.785Z</time></trkpt><trkpt lat="46.0285182" lon="11.9111817"><ele>287.0</ele><time>2026-04-02T13:11:49.781Z</time></trkpt><trkpt lat="46.0285319" lon="11.9113011"><ele>287.0</ele><time>2026-04-02T13:11:51.783Z</time></trkpt><trkpt lat="46.0285511" lon="11.9114249"><ele>287.0</ele><time>2026-04-02T13:11:53.781Z</time></trkpt><trkpt lat="46.0285698" lon="11.911546"><ele>287.0</ele><time>2026-04-02T13:11:55.785Z</time></trkpt><trkpt lat="46.0285868" lon="11.9116703"><ele>287.0</ele><time>2026-04-02T13:11:57.785Z</time></trkpt><trkpt lat="46.0286018" lon="11.9117706"><ele>287.0</ele><time>2026-04-02T13:11:59.783Z</time></trkpt><trkpt lat="46.0286158" lon="11.9118744"><ele>287.0</ele><time>2026-04-02T13:12:01.785Z</time></trkpt><trkpt lat="46.0286361" lon="11.9119731"><ele>287.0</ele><time>2026-04-02T13:12:03.785Z</time></trkpt><trkpt lat="46.02865" lon="11.9120687"><ele>287.0</ele><time>2026-04-02T13:12:05.785Z</time></trkpt><trkpt lat="46.028651" lon="11.9121705"><ele>287.0</ele><time>2026-04-02T13:12:07.781Z</time></trkpt><trkpt lat="46.0286521" lon="11.9122714"><ele>287.0</ele><time>2026-04-02T13:12:09.781Z</time></trkpt><trkpt lat="46.0286329" lon="11.9123714"><ele>287.0</ele><time>2026-04-02T13:12:12.782Z</time></trkpt><trkpt lat="46.028545" lon="11.9123985"><ele>287.0</ele><time>2026-04-02T13:12:16.782Z</time></trkpt><trkpt lat="46.0284808" lon="11.9123929"><ele>287.0</ele><time>2026-04-02T13:12:18.784Z</time></trkpt><trkpt lat="46.0284156" lon="11.9123875"><ele>287.0</ele><time>2026-04-02T13:12:20.782Z</time></trkpt><trkpt lat="46.0283417" lon="11.9123848"><ele>287.0</ele><time>2026-04-02T13:12:22.782Z</time></trkpt><trkpt lat="46.0282722" lon="11.9123893"><ele>287.0</ele><time>2026-04-02T13:12:24.784Z</time></trkpt><trkpt lat="46.0281969" lon="11.9124029"><ele>287.0</ele><time>2026-04-02T13:12:26.785Z</time></trkpt><trkpt lat="46.0281238" lon="11.9124205"><ele>287.0</ele><time>2026-04-02T13:12:28.785Z</time></trkpt><trkpt lat="46.0280558" lon="11.9124271"><ele>287.0</ele><time>2026-04-02T13:12:30.785Z</time></trkpt><trkpt lat="46.0279861" lon="11.9124278"><ele>287.0</ele><time>2026-04-02T13:12:32.786Z</time></trkpt><trkpt lat="46.027913" lon="11.9124323"><ele>287.0</ele><time>2026-04-02T13:12:34.785Z</time></trkpt><trkpt lat="46.0278454" lon="11.9124468"><ele>287.0</ele><time>2026-04-02T13:12:36.785Z</time></trkpt><trkpt lat="46.0277854" lon="11.9124747"><ele>287.0</ele><time>2026-04-02T13:12:38.786Z</time></trkpt><trkpt lat="46.0277159" lon="11.9125273"><ele>287.0</ele><time>2026-04-02T13:12:40.785Z</time></trkpt><trkpt lat="46.0276408" lon="11.9125718"><ele>287.0</ele><time>2026-04-02T13:12:42.784Z</time></trkpt><trkpt lat="46.0275726" lon="11.9125853"><ele>287.0</ele><time>2026-04-02T13:12:44.783Z</time></trkpt><trkpt lat="46.0274975" lon="11.9125908"><ele>287.0</ele><time>2026-04-02T13:12:46.783Z</time></trkpt><trkpt lat="46.0274296" lon="11.9125842"><ele>287.0</ele><time>2026-04-02T13:12:48.785Z</time></trkpt><trkpt lat="46.0273808" lon="11.9126485"><ele>286.83333333333337</ele><time>2026-04-02T13:12:51.784Z</time></trkpt><trkpt lat="46.0273948" lon="11.9127609"><ele>286.6666666666667</ele><time>2026-04-02T13:12:54.783Z</time></trkpt><trkpt lat="46.0274001" lon="11.9128677"><ele>286.5</ele><time>2026-04-02T13:12:57.782Z</time></trkpt><trkpt lat="46.0273844" lon="11.9129575"><ele>286.3333333333333</ele><time>2026-04-02T13:13:00.784Z</time></trkpt><trkpt lat="46.0273718" lon="11.9130998"><ele>286.16666666666663</ele><time>2026-04-02T13:13:38.783Z</time></trkpt><trkpt lat="46.0273054" lon="11.9131815"><ele>286.0</ele><time>2026-04-02T13:14:59.785Z</time></trkpt><trkpt lat="46.0273028" lon="11.913334"><ele>286.0</ele><time>2026-04-02T13:15:17.786Z</time></trkpt></trkseg></trk></gpx>